# Wetter Temperatur Luftdruck Luftfeuchtigkeit Sichtweite Windgeschwindigkeit Windrichtung Zeit
1 Clouds 29 1004 74 10000 6.69 240 12:18 22.04.2021
2 Clouds 29 1004 74 10000 7.2 230 11:40 22.04.2021
3 Clouds 30 1004 74 10000 7.2 230 11:19 22.04.2021
4 Clouds 32 1004 62 10000 7.72 250 10:40 22.04.2021
5 Clouds 32 1004 62 10000 7.72 250 10:19 22.04.2021
6 Clouds 32 1004 70 10000 7.72 260 09:36 22.04.2021
7 Clouds 33 1004 70 10000 7.2 260 08:52 22.04.2021
8 Clouds 33 1004 70 10000 7.2 260 08:23 22.04.2021
9 Clouds 33 1005 62 10000 6.69 260 07:54 22.04.2021
10 Clouds 33 1005 62 10000 6.69 260 07:31 22.04.2021
11 Clouds 33 1006 66 10000 5.66 270 06:57 22.04.2021
12 Clouds 32 1006 66 10000 5.66 270 06:19 22.04.2021
13 Clouds 32 1007 66 10000 4.63 290 05:23 22.04.2021
14 Clouds 30 1007 74 10000 5.14 260 02:27 22.04.2021
15 Clouds 28 1006 83 10000 1.03 0 00:23 22.04.2021
16 Clouds 28 1005 83 10000 1.54 210 23:41 21.04.2021
17 Clouds 28 1005 83 10000 1.54 210 23:20 21.04.2021
18 Clouds 28 1005 78 10000 0.51 0 22:40 21.04.2021
19 Clouds 28 1005 78 10000 0.51 0 22:20 21.04.2021
20 Clouds 28 1005 78 10000 1.03 320 21:41 21.04.2021
21 Clouds 28 1005 78 10000 1.03 320 21:19 21.04.2021
22 Clouds 28 1005 74 10000 1.54 330 20:32 21.04.2021
23 Rain 28 1006 74 10000 2.57 0 19:50 21.04.2021
24 Rain 29 1006 74 10000 2.57 0 19:28 21.04.2021
25 Clouds 29 1006 74 10000 3.6 320 18:52 21.04.2021
26 Clouds 29 1006 74 10000 3.6 320 18:52 21.04.2021
27 Clouds 29 1006 74 10000 3.6 320 18:34 21.04.2021
28 Rain 29 1007 79 10000 4.63 280 17:59 21.04.2021
29 Rain 29 1007 79 10000 4.63 280 17:40 21.04.2021
30 Rain 29 1007 79 10000 4.63 280 17:22 21.04.2021
31 Rain 29 1007 79 10000 3.09 280 16:40 21.04.2021
32 Clouds 29 1007 79 10000 4.63 250 15:52 21.04.2021
33 Rain 29 1007 79 10000 4.63 250 15:25 21.04.2021
34 Rain 29 1006 79 10000 6.69 260 14:45 21.04.2021
35 Rain 29 1006 79 10000 6.69 260 14:25 21.04.2021
36 Clouds 29 1006 74 10000 4.63 240 13:50 21.04.2021
37 Clouds 29 1006 74 10000 4.63 240 13:22 21.04.2021
38 Clouds 29 1005 79 10000 6.17 240 12:46 21.04.2021
39 Clouds 29 1004 73 10000 8.94 221 12:20 21.04.2021
40 Clouds 30 1004 74 10000 7.72 250 11:43 21.04.2021
41 Clouds 30 1004 74 10000 7.72 250 11:23 21.04.2021
42 Clouds 31 1004 66 10000 7.72 260 10:39 21.04.2021
43 Clouds 32 1004 62 10000 7.2 260 09:57 21.04.2021
44 Clouds 32 1004 62 10000 7.2 260 09:21 21.04.2021
45 Clouds 32 1005 62 10000 8.23 270 08:46 21.04.2021
46 Clouds 32 1005 62 10000 8.23 270 08:24 21.04.2021
47 Clouds 32 1006 62 10000 7.72 270 07:52 21.04.2021
48 Clouds 32 1006 62 10000 7.72 270 07:28 21.04.2021
49 Clouds 31 1007 66 10000 7.2 260 06:21 21.04.2021
50 Clouds 29 1007 74 10000 4.63 280 02:28 21.04.2021
51 Clouds 27 1006 83 10000 1.54 230 00:20 21.04.2021
52 Clouds 27 1005 83 10000 1.54 230 23:39 20.04.2021
53 Clouds 27 1005 78 10000 1.54 300 22:49 20.04.2021
54 Clouds 28 1005 78 10000 1.54 300 22:24 20.04.2021
55 Clouds 28 1005 78 10000 1.03 0 21:56 20.04.2021
56 Clouds 27 1005 78 10000 1.03 0 21:33 20.04.2021
57 Clouds 27 1005 83 10000 2.06 250 20:59 20.04.2021
58 Clouds 28 1005 83 10000 2.06 250 20:38 20.04.2021
59 Clouds 28 1005 83 10000 2.06 250 20:18 20.04.2021
60 Clouds 28 1006 78 10000 3.09 250 19:46 20.04.2021
61 Clouds 28 1006 78 10000 3.09 250 19:28 20.04.2021
62 Clouds 28 1006 83 10000 3.09 250 18:44 20.04.2021
63 Clouds 28 1006 83 10000 3.09 250 18:23 20.04.2021
64 Clouds 28 1006 79 10000 3.6 280 17:41 20.04.2021
65 Clouds 28 1007 74 10000 5.14 250 16:50 20.04.2021
66 Clouds 28 1007 74 10000 5.14 250 16:25 20.04.2021
67 Clouds 29 1006 79 10000 5.14 250 15:30 20.04.2021
68 Clouds 28 1006 74 10000 4.63 250 14:59 20.04.2021
69 Clouds 29 1006 74 10000 4.63 250 14:36 20.04.2021
70 Clouds 29 1005 74 10000 5.14 250 13:55 20.04.2021
71 Clouds 29 1005 74 10000 5.14 250 13:26 20.04.2021
72 Clouds 29 1005 74 10000 4.12 230 12:51 20.04.2021
73 Clouds 29 1005 74 10000 4.12 230 12:23 20.04.2021
74 Clouds 29 1004 74 10000 7.72 250 11:46 20.04.2021
75 Clouds 29 1004 74 10000 7.72 250 11:24 20.04.2021
76 Clouds 30 1004 70 10000 8.23 250 10:45 20.04.2021
77 Clouds 30 1004 70 10000 8.23 250 10:23 20.04.2021
78 Rain 30 1004 74 10000 8.23 260 09:45 20.04.2021
79 Rain 30 1004 70 10000 7.72 260 08:57 20.04.2021
80 Clouds 30 1004 70 10000 7.72 260 08:33 20.04.2021
81 Clouds 31 1005 66 10000 8.23 270 07:50 20.04.2021
82 Clouds 32 1006 62 10000 6.17 270 06:54 20.04.2021
83 Clouds 31 1007 62 10000 5.66 270 05:40 20.04.2021
84 Rain 30 1007 66 10000 4.63 270 04:42 20.04.2021
85 Clouds 28 1006 69 10000 2.06 340 01:58 20.04.2021
86 Clouds 27 1006 74 10000 2.57 320 00:41 20.04.2021
87 Clouds 27 1005 69 10000 2.06 320 23:39 19.04.2021
88 Rain 27 1004 69 10000 3.6 300 22:58 19.04.2021
89 Clouds 27 1004 69 10000 3.6 300 22:36 19.04.2021
90 Clouds 27 1004 83 10000 3.09 280 21:52 19.04.2021
91 Clouds 27 1004 83 10000 3.09 280 21:34 19.04.2021
92 Clouds 27 1005 89 10000 2.57 30 20:56 19.04.2021
93 Clouds 27 1005 89 10000 2.57 30 20:38 19.04.2021
94 Clouds 27 1005 89 10000 2.57 30 20:19 19.04.2021
95 Rain 27 1005 89 10000 1.54 80 19:41 19.04.2021
96 Clouds 27 1004 76 10000 0.45 351 19:23 19.04.2021
97 Clouds 27 1006 83 10000 1.54 160 18:47 19.04.2021
98 Rain 28 1006 83 10000 1.54 160 18:22 19.04.2021
99 Rain 28 1006 83 10000 1.54 160 18:22 19.04.2021
100 Clouds 28 1006 78 10000 3.09 190 17:54 19.04.2021
101 Clouds 28 1006 83 10000 2.57 210 17:29 19.04.2021
102 Clouds 28 1006 79 10000 2.57 220 16:53 19.04.2021
103 Clouds 28 1006 79 10000 2.57 220 16:34 19.04.2021
104 Clouds 28 1006 74 10000 2.57 240 15:55 19.04.2021
105 Clouds 28 1006 74 10000 2.57 240 15:30 19.04.2021
106 Clouds 29 1005 79 10000 5.66 250 14:55 19.04.2021
107 Clouds 29 1005 79 10000 5.66 250 14:36 19.04.2021
108 Clouds 29 1005 79 10000 6.17 250 13:54 19.04.2021
109 Clouds 29 1005 79 10000 6.17 250 13:31 19.04.2021
110 Rain 29 1004 70 10000 8.23 250 12:56 19.04.2021
111 Clouds 29 1004 70 10000 8.23 250 12:38 19.04.2021
112 Rain 30 1004 70 10000 8.23 250 12:19 19.04.2021
113 Clouds 30 1004 74 10000 7.72 150 11:51 19.04.2021
114 Rain 30 1004 74 10000 7.72 150 11:20 19.04.2021
115 Rain 31 1004 62 10000 6.69 260 10:44 19.04.2021
116 Clouds 32 1004 62 10000 6.69 260 10:20 19.04.2021
117 Rain 32 1004 55 10000 5.14 260 09:48 19.04.2021
118 Clouds 33 1004 55 10000 5.14 260 09:26 19.04.2021
119 Clouds 33 1005 49 10000 4.63 280 08:41 19.04.2021
120 Clouds 33 1006 49 10000 5.14 260 07:50 19.04.2021
121 Clouds 33 1006 49 10000 5.14 260 07:26 19.04.2021
122 Clouds 33 1007 46 10000 3.6 290 06:52 19.04.2021
123 Clouds 32 1007 46 10000 4.63 300 05:30 19.04.2021
124 Clouds 28 1007 61 10000 1.54 320 01:49 19.04.2021
125 Clouds 27 1006 65 10000 2.57 310 00:42 19.04.2021
126 Clouds 27 1006 69 10000 2.57 310 23:21 18.04.2021
127 Clouds 27 1006 69 10000 3.09 340 22:58 18.04.2021
128 Clouds 27 1006 69 10000 3.09 340 22:34 18.04.2021
129 Clouds 27 1006 69 10000 3.09 350 21:56 18.04.2021
130 Clouds 27 1006 69 10000 3.09 350 21:28 18.04.2021
131 Clouds 28 1006 74 10000 2.06 340 20:44 18.04.2021
132 Clouds 28 1006 74 10000 2.06 340 20:26 18.04.2021
133 Clouds 28 1007 65 10000 3.09 10 19:59 18.04.2021
134 Rain 28 1007 65 10000 3.09 10 19:39 18.04.2021
135 Clouds 28 1007 65 10000 3.09 10 19:19 18.04.2021
136 Clouds 28 1007 74 10000 2.06 330 18:45 18.04.2021
137 Clouds 28 1007 74 10000 2.06 330 18:25 18.04.2021
138 Clouds 28 1007 74 10000 2.06 330 18:25 18.04.2021
139 Clouds 28 1008 79 10000 2.57 250 17:46 18.04.2021
140 Clouds 28 1008 79 10000 2.57 250 17:27 18.04.2021
141 Clouds 28 1008 74 10000 1.54 250 16:46 18.04.2021
142 Clouds 28 1008 74 10000 1.54 250 16:46 18.04.2021
143 Clouds 28 1008 74 10000 1.54 250 16:27 18.04.2021
144 Clouds 29 1007 74 10000 3.09 240 15:44 18.04.2021
145 Clouds 29 1007 74 10000 3.09 240 15:25 18.04.2021
146 Clouds 29 1007 79 10000 4.63 250 14:46 18.04.2021
147 Clouds 29 1007 79 10000 4.63 250 14:21 18.04.2021
148 Clouds 29 1006 79 10000 4.63 250 13:55 18.04.2021
149 Clouds 29 1006 79 10000 4.63 250 13:33 18.04.2021
150 Clouds 30 1006 74 10000 4.12 250 12:50 18.04.2021
151 Rain 30 1006 74 10000 4.12 250 12:24 18.04.2021
152 Clouds 31 1005 55 10000 1.54 240 11:41 18.04.2021
153 Clouds 31 1005 55 10000 1.54 240 11:20 18.04.2021
154 Clouds 32 1005 49 10000 1.54 0 10:47 18.04.2021
155 Clouds 32 1005 49 10000 1.54 0 10:22 18.04.2021
156 Clouds 32 1005 55 10000 2.57 270 09:47 18.04.2021
157 Clouds 32 1005 55 10000 2.57 270 09:28 18.04.2021
158 Clouds 32 1004 58 10000 5.66 270 08:56 18.04.2021
159 Clouds 32 1004 58 10000 5.66 270 08:34 18.04.2021
160 Clouds 32 1007 58 10000 3.6 260 07:55 18.04.2021
161 Clouds 32 1007 58 10000 3.6 260 07:55 18.04.2021
162 Clouds 32 1007 58 10000 3.6 260 07:36 18.04.2021
163 Clouds 31 1008 66 10000 2.57 260 05:40 18.04.2021
164 Clouds 30 1008 66 10000 2.57 260 05:22 18.04.2021
165 Clouds 30 1009 62 10000 2.57 360 02:25 18.04.2021
166 Clouds 28 1009 83 10000 1.54 0 01:41 18.04.2021
167 Clouds 27 1009 78 10000 1.03 0 00:29 18.04.2021
168 Clouds 27 1009 78 10000 1.03 0 23:30 17.04.2021
169 Clouds 27 1008 78 10000 2.31 102 22:50 17.04.2021
170 Clouds 27 1008 78 10000 2.31 102 22:30 17.04.2021
171 Clouds 27 1008 74 10000 0.51 0 21:45 17.04.2021
172 Clouds 27 1008 74 10000 0.51 0 21:25 17.04.2021
173 Clouds 28 1009 74 10000 1.54 0 20:43 17.04.2021
174 Clouds 28 1009 74 10000 1.54 0 20:23 17.04.2021
175 Clouds 28 1009 74 10000 1.54 180 19:43 17.04.2021
176 Clouds 28 1009 74 10000 1.54 180 19:20 17.04.2021
177 Clouds 28 1010 65 10000 1.54 130 18:51 17.04.2021
178 Clouds 28 1010 65 10000 1.54 130 18:25 17.04.2021
179 Clouds 28 1010 74 10000 1.54 120 17:43 17.04.2021
180 Clouds 28 1010 74 10000 1.54 120 17:21 17.04.2021
181 Clouds 28 1011 74 10000 2.57 180 16:40 17.04.2021
182 Clouds 28 1011 74 10000 2.57 180 16:22 17.04.2021
183 Clouds 29 1010 70 10000 2.57 200 15:22 17.04.2021
184 Clouds 29 1009 65 10000 1.54 160 14:44 17.04.2021
185 Clouds 29 1009 65 10000 1.54 160 14:20 17.04.2021
186 Clouds 29 1009 66 10000 2.06 200 13:43 17.04.2021
187 Clouds 30 1008 58 10000 1.54 170 12:55 17.04.2021
188 Clouds 30 1008 58 10000 1.54 170 12:32 17.04.2021
189 Rain 31 1007 55 10000 2.06 180 11:51 17.04.2021
190 Clouds 31 1007 55 10000 2.06 180 11:32 17.04.2021
191 Clouds 32 1007 55 10000 2.57 140 10:51 17.04.2021
192 Clouds 32 1007 55 10000 2.57 140 10:33 17.04.2021
193 Clouds 32 1008 52 10000 3.6 260 09:47 17.04.2021
194 Clouds 33 1007 52 10000 3.59 205 08:54 17.04.2021
195 Clouds 33 1008 52 10000 3.46 225 08:29 17.04.2021
196 Clouds 32 1009 55 10000 4.12 290 07:45 17.04.2021
197 Clouds 32 1011 62 9000 3.09 290 05:42 17.04.2021
198 Clouds 30 1012 62 9000 1.54 0 03:43 17.04.2021
199 Clouds 26 1011 83 10000 1.03 0 00:56 17.04.2021
200 Clouds 26 1011 83 10000 1.03 0 00:30 17.04.2021
201 Clouds 26 1011 83 10000 1.03 0 00:30 17.04.2021
202 Clouds 26 1010 83 10000 1.62 72 23:58 16.04.2021
203 Clouds 26 1010 83 10000 1.62 72 23:33 16.04.2021
204 Clouds 26 1010 78 10000 1.5 59 22:51 16.04.2021
205 Clouds 26 1010 78 10000 1.32 70 22:22 16.04.2021
206 Clouds 27 1010 74 10000 1.54 90 21:56 16.04.2021
207 Clouds 27 1010 74 10000 1.54 90 21:38 16.04.2021
208 Clouds 27 1010 78 10000 2.06 120 20:55 16.04.2021
209 Clouds 27 1010 78 10000 2.06 120 20:35 16.04.2021
210 Clouds 28 1010 69 10000 2.06 130 19:56 16.04.2021
211 Rain 28 1010 69 10000 2.06 130 19:37 16.04.2021
212 Clouds 28 1011 69 10000 2.57 110 18:49 16.04.2021
213 Clouds 28 1011 69 10000 2.57 110 18:23 16.04.2021
214 Clouds 28 1011 69 10000 4.12 120 17:47 16.04.2021
215 Clouds 28 1011 69 10000 4.12 120 17:47 16.04.2021
216 Clouds 28 1011 69 10000 4.12 120 17:19 16.04.2021
217 Clouds 28 1011 69 10000 4.12 120 17:19 16.04.2021
218 Clouds 29 1011 65 10000 3.6 120 16:44 16.04.2021
219 Clouds 29 1011 65 10000 3.6 120 16:26 16.04.2021
220 Clouds 29 1010 70 10000 3.6 0 15:52 16.04.2021
221 Clouds 29 1010 70 10000 3.6 0 15:28 16.04.2021
222 Clouds 29 1010 66 10000 2.57 130 14:43 16.04.2021
223 Clouds 30 1010 66 10000 2.57 130 14:20 16.04.2021
224 Clouds 30 1009 66 10000 4.63 130 13:54 16.04.2021
225 Clouds 30 1009 66 10000 4.63 130 13:21 16.04.2021
226 Clouds 31 1008 66 10000 4.63 130 12:51 16.04.2021
227 Clouds 31 1008 66 10000 4.63 130 12:29 16.04.2021
228 Clouds 31 1008 62 10000 4.12 140 11:58 16.04.2021
229 Clouds 32 1008 62 10000 4.12 140 11:27 16.04.2021
230 Clouds 33 1008 52 10000 4.63 140 10:56 16.04.2021
231 Clouds 33 1008 52 10000 4.63 140 10:37 16.04.2021
232 Clouds 33 1008 52 10000 4.63 140 10:19 16.04.2021
233 Clouds 33 1008 52 10000 4.63 140 09:43 16.04.2021
234 Clouds 33 1008 52 10000 4.63 140 09:20 16.04.2021
235 Clouds 34 1008 46 10000 4.63 150 08:41 16.04.2021
236 Clouds 34 1008 46 10000 4.63 150 08:18 16.04.2021
237 Clouds 34 1010 52 10000 4.63 140 07:37 16.04.2021
238 Clouds 33 1011 52 10000 3.6 80 06:59 16.04.2021
239 Clouds 33 1011 52 10000 3.6 80 06:18 16.04.2021
240 Clouds 32 1011 55 10000 2.57 130 04:22 16.04.2021
241 Clouds 27 1010 83 10000 2.07 96 00:59 16.04.2021
242 Clouds 26 1010 83 10000 2.07 96 00:41 16.04.2021
243 Clouds 26 1010 83 10000 2.46 96 00:19 16.04.2021
244 Clouds 26 1010 78 10000 1.03 0 23:41 15.04.2021
245 Clouds 26 1010 78 10000 1.03 0 23:23 15.04.2021
246 Clouds 26 1010 78 10000 1.03 0 23:23 15.04.2021
247 Clouds 27 1010 78 10000 2.6 100 22:40 15.04.2021
248 Clouds 27 1010 78 10000 2.44 110 22:21 15.04.2021
249 Clouds 27 1009 78 10000 1.03 0 21:42 15.04.2021
250 Clouds 27 1009 78 10000 1.03 0 21:20 15.04.2021
251 Clouds 27 1010 83 10000 0.51 0 20:44 15.04.2021
252 Clouds 27 1010 83 10000 0.51 0 20:44 15.04.2021
253 Clouds 27 1010 83 10000 0.51 0 20:23 15.04.2021
254 Clouds 27 1010 74 10000 1.54 130 19:44 15.04.2021
255 Clouds 27 1010 74 10000 1.54 130 19:26 15.04.2021
256 Clouds 28 1011 74 10000 1.54 110 18:42 15.04.2021
257 Clouds 28 1011 74 10000 1.54 110 18:21 15.04.2021
258 Clouds 28 1011 69 10000 0.51 0 17:55 15.04.2021
259 Clouds 28 1011 69 10000 0.51 0 17:55 15.04.2021
260 Clouds 28 1011 69 10000 0.51 0 17:36 15.04.2021
261 Clouds 28 1011 69 10000 0.51 0 17:36 15.04.2021
262 Clouds 28 1011 74 10000 2.57 120 16:57 15.04.2021
263 Clouds 28 1011 74 10000 2.57 120 16:57 15.04.2021
264 Rain 28 1011 74 10000 2.57 120 16:39 15.04.2021
265 Clouds 28 1011 74 10000 2.57 120 16:20 15.04.2021
266 Clouds 28 1010 78 10000 2.57 130 15:44 15.04.2021
267 Rain 28 1010 78 10000 2.57 130 15:25 15.04.2021
268 Rain 28 1010 78 10000 2.57 130 15:25 15.04.2021
269 Rain 28 1010 78 10000 2.06 0 14:40 15.04.2021
270 Clouds 28 1010 78 10000 2.06 0 14:22 15.04.2021
271 Clouds 28 1009 83 10000 2.57 150 13:42 15.04.2021
272 Clouds 28 1009 83 10000 2.57 150 13:18 15.04.2021
273 Clouds 28 1009 78 10000 3.09 150 12:40 15.04.2021
274 Clouds 28 1009 78 10000 3.09 150 12:40 15.04.2021
275 Clouds 28 1009 78 10000 3.09 150 12:21 15.04.2021
276 Clouds 28 1009 78 10000 3.09 150 12:21 15.04.2021
277 Clouds 28 1008 74 10000 4.63 140 11:45 15.04.2021
278 Clouds 30 1008 74 10000 4.63 140 11:23 15.04.2021
279 Clouds 31 1008 70 10000 4.63 120 10:49 15.04.2021
280 Clouds 32 1008 70 10000 4.63 120 10:27 15.04.2021
281 Clouds 32 1008 66 10000 4.63 130 09:46 15.04.2021
282 Clouds 32 1008 66 10000 4.63 130 09:18 15.04.2021
283 Clouds 32 1009 66 10000 4.12 140 08:42 15.04.2021
284 Clouds 31 1009 58 10000 3.6 140 07:52 15.04.2021
285 Clouds 32 1009 58 10000 3.6 140 07:22 15.04.2021
286 Clouds 32 1009 58 10000 3.6 140 07:22 15.04.2021
287 Clouds 32 1010 58 10000 2.06 0 06:38 15.04.2021
288 Clouds 32 1010 58 10000 2.06 0 06:20 15.04.2021
289 Clouds 31 1011 66 10000 3.6 290 04:50 15.04.2021
290 Clouds 28 1009 83 10000 1.27 79 00:43 15.04.2021
291 Clouds 27 1009 78 10000 0.51 0 23:39 14.04.2021
292 Clouds 27 1009 78 10000 0.51 0 23:19 14.04.2021
293 Clouds 27 1008 78 10000 2.08 79 22:43 14.04.2021
294 Clouds 27 1008 78 10000 2.09 87 22:23 14.04.2021
295 Clouds 27 1008 78 10000 0.51 0 21:44 14.04.2021
296 Clouds 27 1009 74 10000 1.54 110 21:26 14.04.2021
297 Clouds 27 1009 74 10000 1.54 110 20:56 14.04.2021
298 Clouds 28 1009 74 10000 1.54 110 20:33 14.04.2021
299 Clouds 28 1009 74 10000 2.06 110 19:51 14.04.2021
300 Clouds 28 1009 74 10000 2.06 110 19:20 14.04.2021
301 Clouds 28 1010 74 10000 1.54 120 18:56 14.04.2021
302 Clouds 28 1010 74 10000 1.54 120 18:22 14.04.2021
303 Clouds 28 1011 74 10000 3.09 120 17:58 14.04.2021
304 Clouds 28 1011 74 10000 3.09 120 17:25 14.04.2021
305 Clouds 28 1010 70 10000 2.57 130 16:54 14.04.2021
306 Clouds 29 1010 70 10000 2.57 130 16:26 14.04.2021
307 Clouds 29 1010 70 10000 2.57 130 15:42 14.04.2021
308 Clouds 29 1010 70 10000 2.57 130 15:24 14.04.2021
309 Clouds 29 1009 66 10000 2.57 130 14:49 14.04.2021
310 Clouds 29 1009 66 10000 2.57 130 14:27 14.04.2021
311 Clouds 30 1009 62 10000 3.09 120 13:58 14.04.2021
312 Clouds 30 1009 62 10000 3.09 120 13:37 14.04.2021
313 Clouds 31 1008 58 10000 3.09 90 12:39 14.04.2021
314 Clouds 31 1007 55 10000 2.06 160 11:44 14.04.2021
315 Clouds 32 1007 55 10000 2.06 160 11:25 14.04.2021
316 Clouds 32 1007 58 10000 2.06 260 10:55 14.04.2021
317 Clouds 33 1007 58 10000 2.06 260 10:33 14.04.2021
318 Clouds 32 1007 58 10000 2.06 0 09:42 14.04.2021
319 Clouds 32 1007 58 10000 2.06 0 09:21 14.04.2021
320 Clouds 33 1008 58 10000 3.6 310 08:46 14.04.2021
321 Clouds 33 1008 58 10000 3.6 310 08:22 14.04.2021
322 Clouds 33 1009 58 10000 3.6 270 07:25 14.04.2021
323 Clouds 32 1010 62 10000 2.57 290 06:26 14.04.2021
324 Clouds 32 1012 58 9000 3.09 0 04:53 14.04.2021
325 Clouds 28 1011 78 10000 0.51 0 01:52 14.04.2021
326 Clouds 27 1010 83 10000 1.03 0 00:40 14.04.2021
327 Clouds 27 1009 83 10000 1.03 0 23:55 13.04.2021
328 Clouds 27 1009 83 10000 1.03 0 23:30 13.04.2021
329 Clouds 27 1009 83 10000 1.54 120 22:43 13.04.2021
330 Clouds 27 1009 83 10000 1.54 120 22:19 13.04.2021
331 Clouds 27 1009 78 10000 2.06 120 21:46 13.04.2021
332 Clouds 27 1009 78 10000 2.06 120 21:28 13.04.2021
333 Clouds 27 1010 78 10000 1.54 130 20:43 13.04.2021
334 Clouds 27 1010 78 10000 1.54 130 20:23 13.04.2021
335 Clouds 27 1010 78 10000 1.54 0 19:48 13.04.2021
336 Clouds 28 1010 78 10000 1.54 0 19:24 13.04.2021
337 Clouds 28 1011 78 10000 1.54 140 18:44 13.04.2021
338 Clouds 28 1011 78 10000 1.54 140 18:23 13.04.2021
339 Clouds 28 1011 74 10000 2.06 110 17:37 13.04.2021
340 Clouds 28 1011 74 10000 2.06 110 17:18 13.04.2021
341 Clouds 28 1011 74 10000 2.57 120 16:44 13.04.2021
342 Clouds 29 1011 74 10000 2.57 120 16:21 13.04.2021
343 Clouds 29 1011 74 10000 2.06 120 15:50 13.04.2021
344 Clouds 29 1011 74 10000 2.06 120 15:30 13.04.2021
345 Clouds 29 1010 70 10000 3.09 110 14:47 13.04.2021
346 Clouds 29 1010 70 10000 3.09 110 14:20 13.04.2021
347 Clouds 30 1009 70 10000 2.57 130 13:45 13.04.2021
348 Clouds 30 1009 70 10000 2.57 130 13:24 13.04.2021
349 Clouds 30 1009 62 10000 2.06 170 12:57 13.04.2021
350 Clouds 31 1009 62 10000 2.06 170 12:28 13.04.2021
351 Clouds 32 1008 58 10000 2.06 0 11:56 13.04.2021
352 Clouds 32 1008 58 10000 2.06 0 11:30 13.04.2021
353 Clouds 32 1008 58 10000 2.06 0 11:30 13.04.2021
354 Clouds 32 1008 58 10000 2.57 320 10:53 13.04.2021
355 Clouds 32 1008 58 10000 2.57 320 10:21 13.04.2021
356 Clouds 32 1009 55 10000 3.6 300 09:57 13.04.2021
357 Clouds 32 1009 55 10000 3.6 300 09:36 13.04.2021
358 Clouds 32 1010 62 10000 4.63 270 08:56 13.04.2021
359 Clouds 32 1010 62 10000 4.63 270 08:38 13.04.2021
360 Clouds 32 1010 62 10000 4.63 270 08:20 13.04.2021
361 Clouds 32 1011 66 10000 3.6 270 07:36 13.04.2021
362 Clouds 31 1012 70 10000 3.6 270 06:31 13.04.2021
363 Clouds 30 1013 70 9000 1.54 0 04:47 13.04.2021
364 Clouds 28 1012 74 10000 2.06 320 02:25 13.04.2021
365 Clouds 27 1011 78 10000 0.51 0 00:19 13.04.2021
366 Clouds 27 1011 83 10000 0.51 0 23:44 12.04.2021
367 Clouds 26 1011 83 10000 0.51 0 23:24 12.04.2021
368 Clouds 27 1010 83 10000 1.03 0 22:38 12.04.2021
369 Clouds 27 1010 83 10000 1.03 0 21:57 12.04.2021
370 Clouds 27 1010 83 10000 1.03 0 21:38 12.04.2021
371 Clouds 27 1010 83 10000 1.03 0 21:19 12.04.2021
372 Clouds 27 1011 78 10000 1.03 0 20:38 12.04.2021
373 Clouds 27 1011 78 10000 1.03 0 20:20 12.04.2021
374 Clouds 27 1012 74 10000 1.03 0 19:43 12.04.2021
375 Clouds 27 1012 74 10000 1.03 0 19:23 12.04.2021
376 Clouds 27 1012 74 10000 1.03 0 19:23 12.04.2021
377 Clouds 28 1012 69 10000 1.03 0 18:56 12.04.2021
378 Clouds 27 1012 69 10000 1.03 0 18:38 12.04.2021
379 Clouds 28 1012 69 10000 1.03 0 18:18 12.04.2021
380 Clouds 28 1013 65 10000 1.03 0 17:42 12.04.2021
381 Clouds 28 1013 65 10000 1.03 0 17:21 12.04.2021
382 Clouds 28 1013 61 10000 2.06 80 16:44 12.04.2021
383 Clouds 28 1013 61 10000 2.06 80 16:26 12.04.2021
384 Clouds 28 1012 61 10000 2.06 100 15:48 12.04.2021
385 Clouds 28 1012 61 10000 2.06 100 15:21 12.04.2021
386 Clouds 29 1011 61 10000 3.6 110 14:49 12.04.2021
387 Clouds 29 1011 61 10000 3.6 110 14:29 12.04.2021
388 Clouds 29 1011 58 10000 2.57 120 13:45 12.04.2021
389 Clouds 29 1011 58 10000 2.57 120 13:22 12.04.2021
390 Clouds 30 1010 51 10000 2.57 0 12:44 12.04.2021
391 Clouds 30 1010 51 10000 2.57 0 12:24 12.04.2021
392 Clouds 31 1010 58 10000 3.09 0 11:53 12.04.2021
393 Clouds 32 1010 55 10000 2.57 0 10:56 12.04.2021
394 Clouds 32 1010 55 10000 2.57 0 10:38 12.04.2021
395 Clouds 32 1010 55 10000 2.57 0 10:20 12.04.2021
396 Clouds 32 1010 52 10000 2.06 0 09:40 12.04.2021
397 Clouds 32 1010 52 10000 2.06 0 09:18 12.04.2021
398 Clouds 32 1010 55 10000 3.6 130 08:35 12.04.2021
399 Clouds 32 1012 49 10000 4.12 50 07:32 12.04.2021
400 Clouds 32 1013 58 10000 3.09 0 06:57 12.04.2021
401 Clouds 31 1014 58 10000 2.57 50 05:51 12.04.2021
402 Clouds 29 1015 61 10000 2.57 350 03:59 12.04.2021
403 Clouds 26 1013 78 10000 2.06 60 00:52 12.04.2021
404 Clouds 26 1013 78 10000 2.06 60 00:24 12.04.2021
405 Clouds 26 1013 78 10000 2.06 60 00:24 12.04.2021
406 Clouds 26 1013 73 10000 1.75 74 23:46 11.04.2021
407 Clouds 26 1013 73 10000 1.93 76 23:23 11.04.2021
408 Clouds 26 1012 69 10000 1.03 0 22:45 11.04.2021
409 Clouds 26 1012 69 10000 1.03 0 22:22 11.04.2021
410 Clouds 26 1012 73 10000 2.57 80 21:46 11.04.2021
411 Clouds 26 1012 73 10000 2.57 80 21:27 11.04.2021
412 Clouds 27 1013 73 10000 2.06 70 20:52 11.04.2021
413 Clouds 27 1013 73 10000 2.06 70 20:28 11.04.2021
414 Clouds 27 1014 69 10000 2.57 80 19:54 11.04.2021
415 Clouds 27 1014 69 10000 2.57 80 19:36 11.04.2021
416 Clouds 27 1014 69 10000 2.57 80 19:18 11.04.2021
417 Clouds 27 1014 69 10000 2.57 80 19:18 11.04.2021
418 Clouds 27 1014 69 10000 3.09 110 18:42 11.04.2021
419 Clouds 27 1014 69 10000 3.09 110 18:23 11.04.2021
420 Clouds 28 1014 65 10000 3.6 120 17:44 11.04.2021
421 Clouds 28 1014 65 10000 3.6 120 17:24 11.04.2021
422 Clouds 28 1014 69 10000 3.6 120 16:47 11.04.2021
423 Clouds 28 1014 69 10000 3.6 120 16:22 11.04.2021
424 Clouds 28 1014 65 10000 3.09 120 15:51 11.04.2021
425 Clouds 28 1014 65 10000 3.09 120 15:27 11.04.2021
426 Clouds 28 1013 58 10000 4.12 110 14:54 11.04.2021
427 Clouds 28 1013 58 10000 4.12 110 14:31 11.04.2021
428 Clouds 29 1012 48 10000 3.09 90 13:51 11.04.2021
429 Clouds 29 1012 48 10000 3.09 90 13:30 11.04.2021
430 Clouds 29 1011 45 10000 4.63 90 12:48 11.04.2021
431 Clouds 30 1011 45 10000 4.63 90 12:21 11.04.2021
432 Clouds 31 1011 40 10000 4.63 80 11:49 11.04.2021
433 Clouds 31 1011 40 10000 4.63 80 11:22 11.04.2021
434 Clouds 32 1011 49 10000 4.63 130 10:47 11.04.2021
435 Clouds 32 1011 49 10000 4.63 130 10:47 11.04.2021
436 Clouds 32 1011 49 10000 4.63 130 10:27 11.04.2021
437 Clouds 33 1011 46 10000 4.12 130 09:56 11.04.2021
438 Clouds 33 1011 46 10000 4.12 130 09:32 11.04.2021
439 Clouds 33 1012 46 10000 4.12 120 08:42 11.04.2021
440 Clouds 32 1012 46 10000 4.12 120 08:21 11.04.2021
441 Clouds 33 1013 43 10000 4.12 140 07:21 11.04.2021
442 Clouds 33 1014 48 10000 2.06 10 06:26 11.04.2021
443 Clouds 32 1014 55 10000 2.06 120 05:37 11.04.2021
444 Clouds 32 1014 55 10000 2.06 120 05:18 11.04.2021
445 Clouds 31 1015 55 10000 1.03 0 04:33 11.04.2021
446 Clouds 28 1014 69 10000 2.06 90 01:40 11.04.2021
447 Clouds 27 1014 78 10000 1.03 0 00:33 11.04.2021
448 Clouds 26 1013 83 10000 1.54 80 23:47 10.04.2021
449 Clouds 27 1013 73 10000 1.54 70 22:59 10.04.2021
450 Clouds 27 1013 73 10000 1.54 70 22:31 10.04.2021
451 Clouds 27 1013 69 10000 1.03 0 21:57 10.04.2021
452 Clouds 27 1013 69 10000 1.03 0 21:57 10.04.2021
453 Clouds 27 1013 69 10000 1.03 0 21:37 10.04.2021
454 Clouds 27 1013 69 10000 1.03 0 21:19 10.04.2021
455 Clouds 27 1013 74 10000 1.54 120 20:41 10.04.2021
456 Clouds 27 1013 74 10000 1.54 120 20:22 10.04.2021
457 Clouds 27 1014 74 10000 2.57 120 19:43 10.04.2021
458 Clouds 27 1014 74 10000 2.57 120 19:25 10.04.2021
459 Clouds 27 1014 74 10000 3.09 120 18:44 10.04.2021
460 Clouds 27 1014 74 10000 3.09 120 18:25 10.04.2021
461 Clouds 27 1014 74 10000 4.12 120 17:37 10.04.2021
462 Clouds 28 1014 69 10000 3.6 120 16:54 10.04.2021
463 Clouds 28 1014 69 10000 3.6 120 16:26 10.04.2021
464 Clouds 28 1012 62 10000 0.89 304 15:53 10.04.2021
465 Clouds 28 1013 58 10000 3.6 120 14:57 10.04.2021
466 Clouds 28 1013 58 10000 3.6 120 14:38 10.04.2021
467 Clouds 28 1011 60 10000 2.24 70 13:59 10.04.2021
468 Clouds 28 1011 59 10000 3.13 87 13:40 10.04.2021
469 Clouds 29 1011 48 10000 4.63 80 12:49 10.04.2021
470 Clouds 30 1011 48 10000 4.63 80 12:26 10.04.2021
471 Clouds 30 1011 45 10000 5.14 90 11:47 10.04.2021
472 Clouds 31 1011 45 10000 5.14 90 11:23 10.04.2021
473 Clouds 31 1010 51 10000 4.12 130 10:52 10.04.2021
474 Clouds 32 1010 51 10000 4.12 130 10:31 10.04.2021
475 Clouds 33 1010 43 10000 3.09 0 09:45 10.04.2021
476 Clouds 33 1010 43 10000 3.09 0 09:45 10.04.2021
477 Clouds 33 1010 43 10000 3.09 0 09:19 10.04.2021
478 Clouds 32 1011 49 10000 4.12 110 08:38 10.04.2021
479 Clouds 32 1011 49 10000 4.12 110 08:18 10.04.2021
480 Clouds 32 1012 46 10000 5.14 80 07:27 10.04.2021
481 Clouds 32 1013 48 10000 4.63 100 06:46 10.04.2021
482 Clouds 32 1014 51 10000 4.63 90 05:36 10.04.2021
483 Clouds 30 1014 55 10000 5.66 40 03:46 10.04.2021
484 Clouds 29 1014 61 10000 1.54 50 02:49 10.04.2021
485 Clouds 28 1013 69 10000 1.03 0 01:43 10.04.2021
486 Clouds 27 1012 73 10000 1.54 80 00:37 10.04.2021
487 Clouds 27 1011 69 10000 1.54 110 23:58 09.04.2021
488 Clouds 27 1011 69 10000 1.54 110 23:34 09.04.2021
489 Clouds 27 1011 74 10000 1.54 120 22:56 09.04.2021
490 Clouds 27 1011 74 10000 1.54 120 22:36 09.04.2021
491 Clouds 27 1011 74 10000 1.54 110 21:41 09.04.2021
492 Clouds 27 1011 74 10000 1.54 110 21:22 09.04.2021
493 Clouds 27 1011 74 10000 1.03 0 20:57 09.04.2021
494 Clouds 27 1011 74 10000 1.03 0 20:39 09.04.2021
495 Clouds 27 1011 74 10000 1.03 0 20:20 09.04.2021
496 Clouds 27 1011 74 10000 2.57 120 19:43 09.04.2021
497 Clouds 27 1011 74 10000 2.57 120 19:22 09.04.2021
498 Clouds 27 1012 74 10000 2.57 120 18:44 09.04.2021
499 Clouds 27 1012 74 10000 2.57 120 18:25 09.04.2021
500 Clouds 28 1012 69 10000 3.09 120 17:49 09.04.2021
501 Clouds 28 1012 69 10000 3.09 120 17:30 09.04.2021
502 Clouds 28 1012 69 9000 3.09 120 16:48 09.04.2021
503 Clouds 28 1012 69 9000 3.09 120 16:29 09.04.2021
504 Clouds 28 1013 69 8000 3.6 0 15:47 09.04.2021
505 Clouds 28 1012 69 8000 3.6 0 15:24 09.04.2021
506 Clouds 28 1010 70 10000 3.6 120 14:46 09.04.2021
507 Clouds 28 1010 70 10000 3.6 120 14:28 09.04.2021
508 Clouds 28 1010 70 10000 3.6 120 13:45 09.04.2021
509 Clouds 28 1010 70 10000 3.6 120 13:22 09.04.2021
510 Clouds 28 1009 65 10000 4.12 120 12:47 09.04.2021
511 Clouds 28 1009 65 10000 4.12 120 12:47 09.04.2021
512 Clouds 28 1009 65 10000 4.12 120 12:47 09.04.2021
513 Clouds 29 1009 65 10000 4.12 120 12:24 09.04.2021
514 Clouds 30 1008 58 10000 4.63 110 11:43 09.04.2021
515 Clouds 30 1008 58 10000 4.63 110 11:20 09.04.2021
516 Clouds 32 1008 55 10000 3.09 120 10:37 09.04.2021
517 Clouds 32 1008 55 10000 2.57 0 09:58 09.04.2021
518 Clouds 32 1009 58 10000 2.57 290 09:27 09.04.2021
519 Clouds 32 1009 58 10000 2.57 290 08:56 09.04.2021
520 Clouds 32 1009 58 10000 2.57 290 08:31 09.04.2021
521 Clouds 32 1010 62 10000 3.09 260 07:22 09.04.2021
522 Clouds 31 1011 58 10000 2.06 300 06:28 09.04.2021
523 Clouds 30 1012 62 10000 3.6 310 04:38 09.04.2021
524 Clouds 29 1012 58 10000 2.57 0 03:42 09.04.2021
525 Clouds 27 1010 74 10000 2.06 130 00:39 09.04.2021
526 Clouds 27 1010 74 10000 2.06 130 00:21 09.04.2021
527 Clouds 27 1010 74 10000 2.57 130 23:38 08.04.2021
528 Clouds 27 1009 69 10000 2.57 110 22:52 08.04.2021
529 Clouds 27 1009 69 10000 2.57 110 22:27 08.04.2021
530 Clouds 27 1009 69 10000 2.06 130 21:58 08.04.2021
531 Clouds 27 1009 69 10000 2.06 130 21:40 08.04.2021
532 Clouds 27 1009 69 10000 2.06 130 21:21 08.04.2021
533 Clouds 27 1009 69 10000 1.54 130 20:56 08.04.2021
534 Clouds 27 1009 69 10000 1.54 130 20:35 08.04.2021
535 Clouds 27 1010 65 10000 2.57 120 19:58 08.04.2021
536 Clouds 28 1010 65 10000 2.57 120 19:27 08.04.2021
537 Clouds 27 1010 69 10000 1.54 150 18:58 08.04.2021
538 Clouds 27 1010 69 10000 1.54 150 18:38 08.04.2021
539 Clouds 27 1010 69 10000 1.54 150 18:19 08.04.2021
540 Clouds 28 1011 61 10000 2.57 120 17:40 08.04.2021
541 Clouds 28 1011 61 10000 2.57 120 17:18 08.04.2021
542 Clouds 28 1011 57 10000 2.06 130 16:43 08.04.2021
543 Clouds 28 1011 57 10000 2.06 130 16:22 08.04.2021
544 Clouds 28 1010 61 10000 2.57 0 15:43 08.04.2021
545 Clouds 28 1010 61 10000 2.57 0 15:23 08.04.2021
546 Clouds 28 1009 61 10000 3.09 130 14:42 08.04.2021
547 Clouds 29 1009 61 10000 3.09 130 14:20 08.04.2021
548 Clouds 29 1008 58 10000 2.57 120 13:46 08.04.2021
549 Clouds 29 1008 58 10000 2.57 120 13:23 08.04.2021
550 Clouds 29 1008 54 10000 4.12 120 12:53 08.04.2021
551 Clouds 29 1008 54 10000 4.12 120 12:32 08.04.2021
552 Clouds 30 1007 51 10000 3.6 0 11:56 08.04.2021
553 Clouds 31 1007 51 10000 3.6 0 11:21 08.04.2021
554 Clouds 31 1007 48 10000 4.63 0 10:49 08.04.2021
555 Clouds 32 1007 48 10000 4.63 0 10:25 08.04.2021
556 Clouds 32 1005 53 10000 3.58 72 09:43 08.04.2021
557 Clouds 32 1008 49 10000 4.63 0 08:54 08.04.2021
558 Clouds 32 1008 49 10000 4.63 0 08:36 08.04.2021
559 Clouds 32 1008 49 10000 4.63 0 08:18 08.04.2021
560 Clouds 31 1009 55 10000 5.66 120 07:42 08.04.2021
561 Clouds 30 1011 58 10000 4.63 120 04:56 08.04.2021
562 Clouds 27 1011 74 10000 2.57 110 01:25 08.04.2021
563 Clouds 27 1010 78 10000 2.57 120 00:30 08.04.2021
564 Clouds 27 1009 74 10000 3.09 110 23:47 07.04.2021
565 Clouds 27 1009 74 10000 3.09 110 23:47 07.04.2021
566 Clouds 27 1009 74 10000 3.09 110 23:24 07.04.2021
567 Clouds 27 1009 74 10000 3.09 120 22:55 07.04.2021
568 Clouds 27 1009 74 10000 3.09 120 22:37 07.04.2021
569 Clouds 27 1009 74 10000 1.03 0 21:58 07.04.2021
570 Clouds 27 1009 74 10000 1.03 0 21:34 07.04.2021
571 Clouds 27 1009 74 10000 2.06 110 20:51 07.04.2021
572 Clouds 27 1009 74 10000 2.06 110 20:28 07.04.2021
573 Clouds 27 1010 74 10000 3.09 100 19:50 07.04.2021
574 Clouds 27 1010 74 10000 3.09 100 19:31 07.04.2021
575 Clouds 27 1010 74 10000 3.09 110 18:56 07.04.2021
576 Clouds 27 1010 74 10000 3.09 110 18:23 07.04.2021
577 -273 0 0 0 0 0 18:01 07.04.2021
578 Clouds 27 1010 74 10000 4.12 110 17:41 07.04.2021
579 Clouds 27 1011 74 10000 3.6 110 16:59 07.04.2021
580 Clouds 27 1011 74 10000 3.6 110 16:40 07.04.2021
581 Rain 27 1011 74 10000 3.6 110 16:21 07.04.2021
582 Clouds 28 1010 69 10000 3.6 120 15:51 07.04.2021
583 Clouds 28 1010 69 10000 3.6 120 15:25 07.04.2021
584 Clouds 28 1010 69 10000 4.12 120 14:37 07.04.2021
585 Clouds 28 1010 61 10000 3.6 120 14:18 07.04.2021
586 Clouds 28 1010 61 10000 3.6 120 13:37 07.04.2021
587 Clouds 28 1010 61 10000 3.6 120 13:19 07.04.2021
588 Clouds 29 1009 58 10000 4.63 110 12:39 07.04.2021
589 Clouds 29 1009 58 10000 4.63 110 12:18 07.04.2021
590 Clouds 30 1009 55 10000 4.63 100 11:39 07.04.2021
591 Clouds 30 1009 55 10000 4.63 100 11:20 07.04.2021
592 Clouds 31 1008 55 10000 5.14 90 10:33 07.04.2021
593 Rain 32 1009 55 10000 4.63 90 09:46 07.04.2021
594 Clouds 31 1009 55 10000 4.63 90 09:28 07.04.2021
595 Clouds 30 1009 58 10000 4.12 90 08:48 07.04.2021
596 Clouds 30 1009 58 10000 4.12 90 08:23 07.04.2021
597 Clouds 30 1010 55 10000 4.63 110 07:46 07.04.2021
598 Rain 31 1010 55 10000 4.63 110 07:26 07.04.2021
599 Clouds 31 1012 58 10000 3.6 120 06:36 07.04.2021
600 Rain 30 1013 65 9000 3.09 260 04:24 07.04.2021
601 Clouds 26 1012 89 10000 0.51 0 00:45 07.04.2021
602 Clouds 26 1011 73 10000 2.87 91 23:47 06.04.2021
603 Clouds 27 1011 73 10000 2.76 92 23:22 06.04.2021
604 Clouds 26 1011 73 10000 1.54 120 22:48 06.04.2021
605 Clouds 26 1011 73 10000 1.54 120 22:20 06.04.2021
606 Clouds 27 1011 69 10000 1.03 0 21:43 06.04.2021
607 Clouds 27 1011 69 10000 1.03 0 21:23 06.04.2021
608 Clouds 27 1011 69 10000 1.54 110 20:54 06.04.2021
609 Clouds 27 1011 69 10000 1.54 110 20:25 06.04.2021
610 Clouds 27 1012 74 10000 3.09 120 19:58 06.04.2021
611 Clouds 27 1012 74 10000 3.09 120 19:35 06.04.2021
612 Clouds 27 1012 74 10000 3.09 120 18:58 06.04.2021
613 Clouds 27 1012 74 10000 3.09 120 18:40 06.04.2021
614 Clouds 27 1012 74 10000 3.09 120 18:19 06.04.2021
615 Clouds 27 1013 74 10000 2.57 120 17:43 06.04.2021
616 Clouds 27 1013 74 10000 2.57 120 17:19 06.04.2021
617 Clouds 28 1013 69 10000 3.09 120 16:46 06.04.2021
618 Clouds 28 1013 69 10000 3.09 120 16:26 06.04.2021
619 Clouds 28 1013 69 10000 4.12 110 15:26 06.04.2021
620 Clouds 28 1012 69 10000 3.09 120 14:45 06.04.2021
621 Clouds 28 1012 69 10000 3.09 120 14:45 06.04.2021
622 Rain 28 1012 69 10000 3.09 120 14:24 06.04.2021
623 Clouds 28 1011 65 10000 3.6 110 13:47 06.04.2021
624 Clouds 29 1011 65 10000 3.6 110 13:26 06.04.2021
625 Clouds 29 1011 58 10000 3.6 110 12:47 06.04.2021
626 Clouds 29 1011 58 10000 3.6 110 12:27 06.04.2021
627 Rain 30 1010 51 10000 4.63 110 11:59 06.04.2021
628 Clouds 30 1010 51 10000 4.63 110 11:40 06.04.2021
629 Clouds 30 1010 51 10000 4.63 110 11:19 06.04.2021
630 Clouds 32 1009 49 10000 4.12 90 10:42 06.04.2021
631 Clouds 31 1009 49 10000 4.12 90 10:21 06.04.2021
632 Clouds 33 1010 55 10000 4.63 120 09:44 06.04.2021
633 Clouds 33 1010 55 10000 4.63 120 09:20 06.04.2021
634 Clouds 33 1010 55 10000 4.63 120 08:26 06.04.2021
635 Clouds 32 1011 55 10000 3.6 120 07:22 06.04.2021
636 Clouds 33 1012 55 10000 2.57 130 06:51 06.04.2021
637 Clouds 30 1013 62 9000 2.57 100 03:54 06.04.2021
638 Clouds 27 1012 83 9000 0.51 0 00:50 06.04.2021
639 Clouds 27 1012 83 9000 0.51 0 00:22 06.04.2021
640 Clouds 27 1011 78 10000 1.03 0 23:52 05.04.2021
641 Clouds 27 1011 78 10000 1.03 0 23:30 05.04.2021
642 Clouds 27 1011 78 10000 1.03 0 23:30 05.04.2021
643 Clouds 27 1010 83 10000 1.54 60 22:58 05.04.2021
644 Clouds 27 1010 83 10000 1.54 60 22:38 05.04.2021
645 Clouds 28 1010 74 9000 1.54 80 21:50 05.04.2021
646 Clouds 28 1010 74 9000 1.54 80 21:27 05.04.2021
647 Clouds 28 1011 74 10000 2.06 110 20:49 05.04.2021
648 Clouds 28 1011 74 10000 2.06 110 20:31 05.04.2021
649 Clouds 28 1011 74 10000 2.57 110 19:55 05.04.2021
650 Clouds 28 1011 74 10000 2.57 110 19:36 05.04.2021
651 Clouds 28 1011 74 10000 2.57 110 19:18 05.04.2021
652 Clouds 28 1012 74 10000 3.09 110 18:40 05.04.2021
653 Clouds 28 1012 74 10000 3.09 110 18:40 05.04.2021
654 Clouds 28 1012 74 10000 3.09 110 18:19 05.04.2021
655 Clouds 28 1012 74 10000 3.09 110 18:19 05.04.2021
656 Clouds 28 1012 74 10000 3.09 110 17:47 05.04.2021
657 Clouds 28 1012 74 10000 3.09 110 17:23 05.04.2021
658 Clouds 28 1012 74 10000 2.57 130 16:45 05.04.2021
659 Clouds 28 1012 74 10000 2.57 130 16:45 05.04.2021
660 Clouds 28 1012 74 10000 2.57 130 16:45 05.04.2021
661 Clouds 28 1012 74 10000 2.57 130 16:22 05.04.2021
662 Clouds 28 1011 70 10000 3.6 120 15:56 05.04.2021
663 Clouds 29 1011 70 10000 3.6 120 15:32 05.04.2021
664 Clouds 29 1011 70 10000 3.09 0 14:59 05.04.2021
665 Clouds 29 1011 70 10000 3.09 0 14:36 05.04.2021
666 Clouds 29 1011 58 10000 2.57 110 13:46 05.04.2021
667 Clouds 29 1011 58 10000 2.57 110 13:26 05.04.2021
668 Clouds 30 1010 55 10000 4.63 90 12:46 05.04.2021
669 Clouds 30 1010 55 10000 4.63 90 12:24 05.04.2021
670 Clouds 31 1009 49 10000 4.12 90 11:46 05.04.2021
671 Clouds 33 1009 49 10000 4.12 90 11:28 05.04.2021
672 Clouds 33 1009 43 10000 5.14 90 10:55 05.04.2021
673 Clouds 33 1009 43 10000 5.14 90 10:29 05.04.2021
674 Clouds 34 1010 43 10000 5.66 60 09:48 05.04.2021
675 Clouds 34 1010 43 10000 5.66 60 09:26 05.04.2021
676 Clouds 34 1010 49 10000 3.6 120 08:45 05.04.2021
677 Clouds 34 1010 49 10000 3.6 120 08:26 05.04.2021
678 Clouds 33 1011 55 10000 3.09 130 07:38 05.04.2021
679 Clouds 32 1012 58 10000 2.57 0 06:51 05.04.2021
680 Clouds 28 1013 78 9000 4.12 60 03:42 05.04.2021
681 Clouds 27 1011 74 8000 1.54 60 00:53 05.04.2021
682 Clouds 27 1011 78 9000 2.06 20 23:52 04.04.2021
683 Clouds 27 1011 78 9000 2.06 20 23:30 04.04.2021
684 Clouds 27 1010 78 10000 2.57 100 22:54 04.04.2021
685 Clouds 27 1010 78 10000 2.57 100 22:31 04.04.2021
686 Clouds 27 1010 78 10000 3.09 110 21:48 04.04.2021
687 Clouds 27 1010 78 10000 3.09 110 21:21 04.04.2021
688 Clouds 27 1010 74 10000 2.57 130 20:42 04.04.2021
689 Clouds 27 1010 74 10000 2.57 130 20:20 04.04.2021
690 Clouds 28 1011 74 10000 3.09 110 19:38 04.04.2021
691 Clouds 28 1011 74 10000 3.09 110 19:19 04.04.2021
692 Clouds 28 1011 69 10000 4.63 110 18:49 04.04.2021
693 Clouds 28 1011 69 10000 4.63 110 18:24 04.04.2021
694 Clouds 28 1011 69 10000 4.63 110 18:24 04.04.2021
695 Clouds 28 1011 65 10000 3.09 110 17:56 04.04.2021
696 Clouds 28 1011 65 10000 3.09 110 17:24 04.04.2021
697 Clouds 28 1011 70 10000 3.09 120 16:54 04.04.2021
698 Clouds 28 1011 70 10000 3.09 120 16:31 04.04.2021
699 Clouds 29 1010 70 10000 2.57 0 15:37 04.04.2021
700 Clouds 29 1010 70 10000 2.57 0 15:18 04.04.2021
701 Clouds 29 1009 66 10000 2.57 110 14:37 04.04.2021
702 Clouds 29 1009 66 10000 2.57 110 14:18 04.04.2021
703 Clouds 30 1009 62 10000 4.12 110 13:26 04.04.2021
704 Clouds 30 1008 62 10000 3.09 120 12:50 04.04.2021
705 Clouds 30 1008 62 10000 3.09 120 12:27 04.04.2021
706 Clouds 31 1007 55 10000 4.12 130 11:43 04.04.2021
707 Clouds 32 1007 55 10000 4.12 130 11:25 04.04.2021
708 Clouds 32 1007 58 10000 4.63 130 10:46 04.04.2021
709 Clouds 32 1007 58 10000 4.63 130 10:19 04.04.2021
710 Clouds 33 1007 55 10000 4.63 150 09:27 04.04.2021
711 Clouds 33 1008 55 10000 2.57 0 08:59 04.04.2021
712 Clouds 33 1008 55 10000 2.57 0 08:41 04.04.2021
713 Clouds 33 1008 55 10000 2.57 0 08:23 04.04.2021
714 Clouds 31 1010 62 10000 2.57 320 06:39 04.04.2021
715 Clouds 31 1010 62 10000 2.57 320 06:39 04.04.2021
716 Clouds 31 1010 58 10000 2.57 300 05:34 04.04.2021
717 Clouds 28 1010 69 9000 2.06 60 01:47 04.04.2021
718 Clouds 26 1009 78 10000 1.03 0 00:25 04.04.2021
719 Clouds 26 1009 73 10000 1.03 70 23:52 03.04.2021
720 Clouds 26 1009 73 10000 1.03 70 23:33 03.04.2021
721 Clouds 26 1009 73 10000 1.03 0 22:53 03.04.2021
722 Clouds 26 1009 73 10000 1.03 0 22:23 03.04.2021
723 Clouds 26 1009 78 10000 1.54 100 21:56 03.04.2021
724 Clouds 26 1009 78 10000 1.54 100 21:38 03.04.2021
725 Clouds 26 1009 78 10000 1.54 100 21:18 03.04.2021
726 Clouds 27 1009 78 10000 2.57 70 20:30 03.04.2021
727 Clouds 27 1009 78 10000 2.57 70 20:30 03.04.2021
728 Clouds 27 1009 74 10000 3.09 110 19:52 03.04.2021
729 Clouds 27 1009 74 10000 3.09 110 19:34 03.04.2021
730 Clouds 27 1009 74 10000 3.09 130 18:57 03.04.2021
731 Clouds 28 1009 74 10000 3.09 130 18:36 03.04.2021
732 Clouds 28 1010 74 10000 2.06 130 17:58 03.04.2021
733 Clouds 28 1010 74 10000 2.06 130 17:28 03.04.2021
734 Clouds 28 1010 65 10000 2.57 130 16:58 03.04.2021
735 Clouds 28 1010 65 10000 2.57 130 16:31 03.04.2021
736 Clouds 28 1009 70 10000 3.09 140 15:53 03.04.2021
737 Clouds 28 1009 70 10000 3.09 140 15:53 03.04.2021
738 Clouds 28 1009 70 10000 3.09 140 15:32 03.04.2021
739 Clouds 29 1009 70 10000 2.57 0 14:59 03.04.2021
740 Clouds 29 1009 70 10000 2.57 0 14:27 03.04.2021
741 Clouds 29 1009 70 10000 2.57 0 14:27 03.04.2021
742 Clouds 29 1008 66 10000 3.09 140 13:59 03.04.2021
743 Clouds 29 1008 66 10000 3.09 140 13:36 03.04.2021
744 Clouds 29 1008 66 10000 3.09 140 13:18 03.04.2021
745 Clouds 30 1008 62 10000 3.09 140 12:36 03.04.2021
746 Clouds 31 1007 55 10000 4.63 130 11:57 03.04.2021
747 Clouds 31 1007 55 10000 4.63 130 11:32 03.04.2021
748 Clouds 33 1007 52 10000 4.63 0 10:49 03.04.2021
749 Clouds 33 1007 52 10000 4.63 0 10:29 03.04.2021
750 Clouds 33 1007 49 10000 4.63 130 09:47 03.04.2021
751 Clouds 33 1007 49 10000 4.63 130 09:25 03.04.2021
752 Clouds 33 1008 49 10000 5.14 140 08:38 03.04.2021
753 Clouds 33 1009 46 10000 4.63 120 07:48 03.04.2021
754 Clouds 33 1009 46 10000 4.63 120 07:27 03.04.2021
755 Clouds 31 1011 48 10000 3.09 100 04:26 03.04.2021
756 Clouds 29 1011 54 10000 3.09 70 02:57 03.04.2021
757 Clouds 29 1011 54 10000 3.09 70 02:34 03.04.2021
758 Clouds 26 1009 73 10000 1.54 90 00:51 03.04.2021
759 Clouds 26 1009 73 10000 1.54 90 00:18 03.04.2021
760 Clouds 25 1009 78 10000 2.06 80 23:44 02.04.2021
761 Clouds 25 1009 78 10000 2.06 80 23:19 02.04.2021
762 Clouds 26 1008 73 10000 2.06 100 22:45 02.04.2021
763 Clouds 26 1008 73 10000 2.06 100 22:25 02.04.2021
764 Clouds 26 1008 69 10000 2.57 120 21:42 02.04.2021
765 Clouds 26 1008 69 10000 2.57 120 21:19 02.04.2021
766 Clouds 26 1009 69 10000 3.6 120 20:45 02.04.2021
767 Clouds 26 1009 69 10000 3.6 120 20:25 02.04.2021
768 Clouds 27 1009 69 10000 3.6 120 19:42 02.04.2021
769 Clouds 27 1009 69 10000 3.6 120 19:23 02.04.2021
770 Clouds 27 1009 61 10000 3.09 110 18:48 02.04.2021
771 Clouds 28 1009 61 10000 3.09 110 18:30 02.04.2021
772 Clouds 28 1010 65 10000 3.09 130 17:57 02.04.2021
773 Clouds 28 1010 65 10000 3.09 130 17:32 02.04.2021
774 Clouds 28 1010 69 10000 2.57 0 16:37 02.04.2021
775 Clouds 28 1010 65 10000 2.06 130 15:47 02.04.2021
776 Clouds 28 1010 65 10000 2.06 130 15:25 02.04.2021
777 Clouds 29 1009 65 10000 3.09 120 14:33 02.04.2021
778 Clouds 29 1008 54 10000 3.6 120 13:50 02.04.2021
779 Clouds 30 1008 54 10000 3.6 120 13:28 02.04.2021
780 Clouds 30 1008 55 10000 4.63 120 12:59 02.04.2021
781 Clouds 31 1008 55 10000 4.63 120 12:37 02.04.2021
782 Clouds 31 1008 55 10000 4.63 120 12:19 02.04.2021
783 Clouds 32 1007 51 10000 4.63 130 11:44 02.04.2021
784 Clouds 32 1007 51 10000 4.63 130 11:19 02.04.2021
785 Clouds 33 1007 49 10000 5.14 120 10:42 02.04.2021
786 Clouds 33 1007 49 10000 5.14 120 10:23 02.04.2021
787 Clouds 33 1007 46 10000 4.63 120 09:46 02.04.2021
788 Clouds 33 1007 46 10000 4.63 120 09:24 02.04.2021
789 Clouds 33 1008 46 10000 4.63 110 08:46 02.04.2021
790 Clouds 33 1008 46 10000 4.63 110 08:26 02.04.2021
791 Clouds 33 1009 43 10000 5.14 110 07:20 02.04.2021
792 Clouds 33 1010 43 10000 4.63 110 06:34 02.04.2021
793 Clouds 31 1011 58 10000 2.57 120 03:39 02.04.2021
794 Clouds 28 1010 69 10000 1.03 0 01:37 02.04.2021
795 Clouds 26 1009 73 10000 3.37 83 00:43 02.04.2021
796 Clouds 25 1008 73 10000 1.03 0 23:44 01.04.2021
797 Clouds 25 1008 73 10000 1.03 0 23:26 01.04.2021
798 Clouds 26 1008 73 10000 1.03 0 22:23 01.04.2021
799 Clouds 26 1007 73 10000 1.03 0 21:59 01.04.2021
800 Clouds 26 1007 73 10000 1.03 0 21:41 01.04.2021
801 Clouds 26 1007 73 10000 1.03 0 21:22 01.04.2021
802 Clouds 26 1008 69 10000 2.06 100 20:40 01.04.2021
803 Clouds 27 1008 69 10000 2.06 100 20:21 01.04.2021
804 Clouds 27 1008 74 10000 2.06 130 19:41 01.04.2021
805 Clouds 27 1008 74 10000 2.06 130 19:18 01.04.2021
806 Clouds 27 1008 69 10000 3.09 110 18:43 01.04.2021
807 Clouds 27 1008 69 10000 3.09 110 18:18 01.04.2021
808 Clouds 28 1009 74 10000 3.6 110 17:39 01.04.2021
809 Clouds 28 1009 74 10000 3.6 110 17:21 01.04.2021
810 Clouds 28 1008 74 10000 4.63 110 16:48 01.04.2021
811 Clouds 28 1008 74 10000 4.63 110 16:18 01.04.2021
812 Clouds 28 1008 74 10000 4.12 110 15:39 01.04.2021
813 Clouds 28 1008 74 10000 4.12 110 15:19 01.04.2021
814 Clouds 29 1007 65 10000 3.6 110 14:39 01.04.2021
815 Clouds 29 1007 65 10000 3.6 110 14:20 01.04.2021
816 Clouds 30 1006 58 10000 5.14 100 13:48 01.04.2021
817 Clouds 30 1006 58 10000 5.14 100 13:27 01.04.2021
818 Clouds 30 1006 58 10000 5.14 100 12:47 01.04.2021
819 Clouds 30 1006 58 10000 5.14 100 12:28 01.04.2021
820 Clouds 31 1006 58 10000 4.12 130 11:45 01.04.2021
821 Clouds 31 1005 49 10000 5.66 130 11:19 01.04.2021
822 Clouds 32 1005 49 10000 5.66 130 10:47 01.04.2021
823 Clouds 33 1005 49 10000 5.66 130 10:29 01.04.2021
824 Clouds 33 1006 46 10000 5.14 0 09:41 01.04.2021
825 Clouds 33 1006 46 10000 5.14 0 09:22 01.04.2021
826 Clouds 33 1006 49 10000 0.51 0 08:33 01.04.2021
827 Clouds 33 1006 49 10000 0.51 0 08:33 01.04.2021
828 Clouds 33 1007 52 10000 5.66 130 07:23 01.04.2021
829 Clouds 33 1008 52 10000 5.66 110 06:58 01.04.2021
830 Clouds 33 1008 52 10000 5.66 110 06:27 01.04.2021
831 Clouds 31 1009 58 10000 3.6 90 03:25 01.04.2021
832 Clouds 27 1007 78 10000 0.51 0 00:28 01.04.2021
833 Clouds 27 1007 83 10000 2.06 60 23:44 31.03.2021
834 Clouds 27 1006 83 10000 2.06 60 22:56 31.03.2021
835 Clouds 27 1006 83 10000 2.06 60 22:38 31.03.2021
836 Clouds 27 1006 83 10000 2.06 60 22:19 31.03.2021
837 Clouds 27 1006 83 10000 2.06 60 21:44 31.03.2021
838 Clouds 27 1006 83 10000 2.06 60 21:20 31.03.2021
839 Clouds 28 1006 78 10000 1.54 120 20:42 31.03.2021
840 Clouds 28 1006 78 10000 1.54 120 20:22 31.03.2021
841 Clouds 28 1007 78 10000 2.57 100 19:44 31.03.2021
842 Clouds 28 1007 78 10000 2.57 100 19:25 31.03.2021
843 Clouds 28 1007 74 10000 3.6 120 18:58 31.03.2021
844 Clouds 28 1007 74 10000 3.6 120 18:40 31.03.2021
845 Clouds 28 1007 74 10000 3.6 120 18:40 31.03.2021
846 Clouds 28 1007 70 10000 3.09 110 17:51 31.03.2021
847 Clouds 29 1007 70 10000 3.09 110 17:30 31.03.2021
848 Clouds 29 1007 74 10000 3.09 130 16:56 31.03.2021
849 Clouds 29 1007 74 10000 3.09 130 16:37 31.03.2021
850 Clouds 29 1007 74 10000 2.06 360 15:59 31.03.2021
851 Clouds 29 1007 74 10000 2.06 360 15:41 31.03.2021
852 Clouds 29 1007 74 10000 2.06 360 15:19 31.03.2021
853 Clouds 29 1006 70 10000 3.09 100 14:42 31.03.2021
854 Clouds 29 1006 70 10000 3.09 100 14:19 31.03.2021
855 Clouds 30 1006 70 10000 3.6 130 13:35 31.03.2021
856 Clouds 30 1005 62 10000 4.12 120 12:41 31.03.2021
857 Clouds 30 1005 62 10000 4.12 120 12:19 31.03.2021
858 Clouds 31 1005 58 10000 5.14 120 11:39 31.03.2021
859 Clouds 31 1005 58 10000 5.14 120 11:20 31.03.2021
860 Clouds 31 1004 58 10000 5.14 120 10:46 31.03.2021
861 Clouds 31 1004 58 10000 5.14 120 10:46 31.03.2021
862 Clouds 32 1004 58 10000 5.14 120 10:24 31.03.2021
863 Clouds 33 1004 55 10000 4.63 120 09:33 31.03.2021
864 Clouds 33 1005 55 10000 4.63 110 08:51 31.03.2021
865 Clouds 33 1005 55 10000 4.63 110 08:32 31.03.2021
866 Clouds 33 1006 58 10000 5.14 100 07:42 31.03.2021
867 Clouds 32 1008 52 10000 3.6 120 05:55 31.03.2021
868 Clouds 30 1008 62 10000 4.63 110 03:46 31.03.2021
869 Clouds 27 1007 78 10000 1.03 90 00:55 31.03.2021
870 Clouds 26 1007 78 10000 1.03 90 00:26 31.03.2021
871 Clouds 26 1006 74 10000 1.03 0 23:59 30.03.2021
872 Clouds 27 1006 74 10000 1.03 0 23:28 30.03.2021
873 Clouds 27 1006 74 10000 1.54 80 22:56 30.03.2021
874 Clouds 27 1006 74 10000 1.54 80 22:56 30.03.2021
875 Clouds 26 1006 74 10000 1.54 80 22:38 30.03.2021
876 Clouds 27 1006 74 10000 1.54 80 22:19 30.03.2021
877 Clouds 27 1006 74 10000 2.06 70 21:42 30.03.2021
878 Clouds 27 1006 74 10000 2.06 70 21:19 30.03.2021
879 Clouds 28 1006 69 10000 2.06 110 20:48 30.03.2021
880 Clouds 28 1006 69 10000 2.06 110 20:27 30.03.2021
881 Clouds 28 1007 74 10000 3.6 120 19:48 30.03.2021
882 Clouds 28 1007 74 10000 3.6 120 19:22 30.03.2021
883 Clouds 28 1008 74 10000 2.57 0 18:34 30.03.2021
884 Clouds 29 1008 70 10000 3.09 130 17:51 30.03.2021
885 Clouds 29 1008 70 10000 3.09 130 17:32 30.03.2021
886 Clouds 29 1008 70 10000 2.57 140 16:47 30.03.2021
887 Clouds 29 1008 70 10000 2.57 140 16:28 30.03.2021
888 Clouds 29 1007 70 10000 2.57 140 15:43 30.03.2021
889 Clouds 29 1007 70 10000 2.57 140 15:20 30.03.2021
890 Clouds 29 1006 70 10000 3.6 130 14:46 30.03.2021
891 Clouds 29 1006 70 10000 3.6 130 14:21 30.03.2021
892 Clouds 29 1006 70 10000 3.6 130 14:21 30.03.2021
893 Clouds 30 1005 70 10000 3.09 130 13:51 30.03.2021
894 Clouds 30 1005 70 10000 3.09 130 13:29 30.03.2021
895 Clouds 31 1005 58 10000 2.57 0 12:42 30.03.2021
896 Clouds 31 1005 58 10000 2.57 0 12:22 30.03.2021
897 Clouds 32 1005 55 10000 3.09 120 11:48 30.03.2021
898 Clouds 33 1005 55 10000 3.09 120 11:20 30.03.2021
899 Clouds 33 1005 49 10000 3.6 130 10:42 30.03.2021
900 Clouds 34 1005 49 10000 3.6 130 10:19 30.03.2021
901 Clouds 34 1005 46 10000 3.09 120 09:43 30.03.2021
902 Clouds 34 1005 46 10000 3.09 120 09:23 30.03.2021
903 Clouds 34 1006 46 10000 3.6 0 08:44 30.03.2021
904 Clouds 34 1006 46 10000 3.6 0 08:21 30.03.2021
905 Clouds 34 1007 46 10000 3.6 120 07:42 30.03.2021
906 Clouds 33 1008 52 10000 3.09 130 06:56 30.03.2021
907 Clouds 32 1008 55 10000 3.09 0 05:25 30.03.2021
908 Clouds 29 1008 61 10000 2.57 80 02:32 30.03.2021
909 Clouds 27 1006 69 10000 2.06 100 23:56 29.03.2021
910 Clouds 27 1006 69 10000 2.06 100 23:27 29.03.2021
911 Clouds 27 1006 74 10000 1.03 0 22:43 29.03.2021
912 Clouds 27 1006 74 10000 1.03 0 21:58 29.03.2021
913 Clouds 27 1006 74 10000 1.03 0 21:37 29.03.2021
914 Clouds 27 1007 69 10000 2.57 140 20:57 29.03.2021
915 Clouds 27 1007 69 10000 2.57 140 20:37 29.03.2021
916 Clouds 27 1007 69 10000 3.09 120 19:56 29.03.2021
917 Clouds 27 1007 69 10000 3.09 120 19:32 29.03.2021
918 Clouds 28 1008 69 10000 2.57 140 18:57 29.03.2021
919 Clouds 28 1008 69 10000 2.57 140 18:38 29.03.2021
920 Clouds 28 1008 69 10000 2.57 140 18:19 29.03.2021
921 Clouds 28 1008 70 10000 2.06 130 17:37 29.03.2021
922 Clouds 28 1008 70 10000 2.06 0 16:54 29.03.2021
923 Clouds 29 1008 70 10000 2.06 0 16:34 29.03.2021
924 Clouds 29 1008 70 10000 2.57 140 15:43 29.03.2021
925 Clouds 29 1008 70 10000 2.57 140 15:24 29.03.2021
926 Clouds 29 1007 74 10000 2.57 0 14:48 29.03.2021
927 Clouds 29 1007 74 10000 2.57 0 14:23 29.03.2021
928 Clouds 30 1006 66 10000 3.09 140 13:45 29.03.2021
929 Clouds 30 1006 66 10000 3.09 140 13:19 29.03.2021
930 Clouds 30 1006 58 10000 3.6 130 12:49 29.03.2021
931 Clouds 32 1005 52 10000 4.12 140 11:49 29.03.2021
932 Clouds 32 1005 52 10000 4.12 140 11:29 29.03.2021
933 Clouds 33 1005 49 10000 4.63 120 10:51 29.03.2021
934 Clouds 33 1005 49 10000 4.63 120 10:31 29.03.2021
935 Clouds 33 1006 49 10000 5.14 130 09:34 29.03.2021
936 Clouds 33 1006 52 10000 4.63 0 08:51 29.03.2021
937 Clouds 33 1006 52 10000 4.63 0 08:27 29.03.2021
938 Clouds 33 1008 100 10000 3.09 140 07:22 29.03.2021
939 Clouds 32 1009 55 10000 3.6 120 06:26 29.03.2021
940 Clouds 30 1010 62 10000 2.57 100 03:25 29.03.2021
941 Clouds 27 1008 78 10000 1.54 100 00:46 29.03.2021
942 Clouds 27 1008 78 10000 1.54 100 00:18 29.03.2021
943 Clouds 27 1007 78 10000 1.54 0 23:30 28.03.2021
944 Clouds 27 1007 74 10000 2.06 120 22:53 28.03.2021
945 Clouds 28 1007 74 10000 2.06 120 22:35 28.03.2021
946 Clouds 28 1007 74 10000 2.06 0 21:57 28.03.2021
947 Clouds 28 1007 74 10000 2.06 0 21:38 28.03.2021
948 Clouds 28 1007 74 10000 2.06 0 21:18 28.03.2021
949 Clouds 28 1008 78 10000 2.06 0 20:42 28.03.2021
950 Clouds 28 1008 78 10000 2.06 0 20:24 28.03.2021
951 Clouds 28 1008 74 10000 1.03 0 19:42 28.03.2021
952 Clouds 28 1008 74 10000 1.03 0 19:22 28.03.2021
953 Clouds 28 1009 74 10000 1.03 0 18:51 28.03.2021
954 Clouds 29 1009 74 10000 1.03 0 18:24 28.03.2021
955 Clouds 29 1009 70 10000 1.54 130 17:46 28.03.2021
956 Clouds 29 1009 70 10000 1.54 130 17:22 28.03.2021
957 Clouds 29 1009 70 10000 2.57 120 16:43 28.03.2021
958 Clouds 29 1009 70 10000 2.57 120 16:22 28.03.2021
959 Clouds 29 1009 74 10000 2.06 140 15:25 28.03.2021
960 Clouds 29 1007 65 10000 0.45 308 14:50 28.03.2021
961 Clouds 30 1007 62 10000 4.12 120 14:27 28.03.2021
962 Clouds 30 1007 62 10000 4.12 120 13:38 28.03.2021
963 Clouds 30 1007 58 10000 3.6 130 12:59 28.03.2021
964 Clouds 31 1007 58 10000 3.6 130 12:37 28.03.2021
965 Clouds 31 1007 58 10000 3.6 130 12:19 28.03.2021
966 Clouds 32 1007 55 10000 3.09 130 11:39 28.03.2021
967 Clouds 32 1007 55 10000 3.09 130 11:39 28.03.2021
968 Clouds 33 1006 49 10000 3.09 140 10:56 28.03.2021
969 Clouds 33 1006 49 10000 3.09 140 10:37 28.03.2021
970 Clouds 33 1006 49 10000 3.09 140 10:18 28.03.2021
971 Clouds 34 1007 49 10000 3.6 120 09:43 28.03.2021
972 Clouds 34 1007 49 10000 3.6 120 09:23 28.03.2021
973 Clouds 33 1007 52 10000 3.09 0 08:38 28.03.2021
974 Clouds 33 1008 49 10000 3.6 120 07:44 28.03.2021
975 Clouds 33 1009 55 10000 3.09 130 06:23 28.03.2021
976 Clouds 31 1011 58 10000 2.57 90 03:51 28.03.2021
977 Clouds 29 1010 69 10000 1.03 0 00:48 28.03.2021
978 Clouds 28 1010 69 10000 1.03 0 00:19 28.03.2021
979 Clouds 27 1009 78 10000 0.51 0 23:37 27.03.2021
980 Clouds 26 1009 78 10000 2.57 70 22:50 27.03.2021
981 Clouds 26 1009 78 10000 2.57 70 22:31 27.03.2021
982 Clouds 27 1008 78 10000 1.54 100 21:46 27.03.2021
983 Clouds 27 1008 78 10000 1.54 100 21:21 27.03.2021
984 Clouds 27 1008 78 10000 2.06 130 20:59 27.03.2021
985 Clouds 27 1008 78 10000 2.06 130 20:37 27.03.2021
986 Clouds 27 1008 78 10000 2.06 130 20:19 27.03.2021
987 Clouds 28 1009 74 10000 3.09 90 19:41 27.03.2021
988 Clouds 28 1009 74 10000 3.09 90 19:22 27.03.2021
989 Clouds 28 1009 74 10000 2.06 110 18:47 27.03.2021
990 Clouds 28 1009 74 10000 2.06 110 18:22 27.03.2021
991 Clouds 28 1010 74 10000 3.09 120 17:37 27.03.2021
992 Clouds 28 1010 74 10000 3.09 120 17:37 27.03.2021
993 Clouds 28 1010 74 10000 3.09 120 17:18 27.03.2021
994 Clouds 28 1010 74 10000 3.09 110 16:47 27.03.2021
995 Clouds 28 1010 74 10000 3.09 110 16:26 27.03.2021
996 Clouds 28 1010 74 10000 3.09 120 15:45 27.03.2021
997 Clouds 28 1010 74 10000 3.09 120 15:19 27.03.2021
998 Clouds 28 1010 70 10000 4.12 90 14:42 27.03.2021
999 Clouds 29 1009 70 10000 4.12 110 13:39 27.03.2021
1000 Clouds 29 1009 70 10000 4.12 110 13:19 27.03.2021
1001 Clouds 29 1008 70 10000 4.63 120 12:43 27.03.2021
1002 Clouds 30 1007 66 10000 4.63 120 11:51 27.03.2021
1003 Clouds 30 1007 66 10000 4.63 120 11:32 27.03.2021
1004 Clouds 31 1007 55 10000 4.12 120 10:57 27.03.2021
1005 Clouds 32 1007 55 10000 4.12 120 10:38 27.03.2021
1006 Clouds 31 1007 55 10000 3.6 140 09:50 27.03.2021
1007 Clouds 32 1007 55 10000 3.6 140 09:20 27.03.2021
1008 Clouds 33 1007 52 10000 4.12 110 08:40 27.03.2021
1009 Clouds 33 1008 55 10000 5.14 110 07:52 27.03.2021
1010 Clouds 33 1009 52 10000 4.63 120 06:59 27.03.2021
1011 Clouds 32 1009 52 10000 4.63 120 06:39 27.03.2021
1012 Clouds 32 1011 62 10000 3.6 130 04:42 27.03.2021
1013 Clouds 30 1011 58 10000 2.57 0 02:26 27.03.2021
1014 Clouds 29 1010 65 10000 1.03 0 00:44 27.03.2021
1015 Clouds 28 1010 65 10000 1.03 0 00:25 27.03.2021
1016 Clouds 26 1010 78 10000 1.03 240 23:27 26.03.2021
1017 Clouds 26 1009 78 10000 0.51 0 22:40 26.03.2021
1018 Clouds 26 1009 78 10000 0.51 0 22:40 26.03.2021
1019 Clouds 27 1009 78 10000 0.51 0 21:45 26.03.2021
1020 Clouds 27 1009 78 10000 0.51 0 21:23 26.03.2021
1021 Clouds 27 1010 83 10000 2.57 60 20:55 26.03.2021
1022 Clouds 27 1010 83 10000 2.57 60 20:31 26.03.2021
1023 Clouds 27 1010 74 10000 2.57 90 19:52 26.03.2021
1024 Clouds 27 1010 74 10000 2.57 90 19:33 26.03.2021
1025 Clouds 28 1011 74 10000 2.06 110 18:51 26.03.2021
1026 Clouds 28 1011 74 10000 2.06 110 18:31 26.03.2021
1027 Clouds 28 1011 74 10000 2.06 100 17:57 26.03.2021
1028 Clouds 28 1011 74 10000 2.06 100 17:28 26.03.2021
1029 Clouds 28 1011 69 10000 2.57 130 16:36 26.03.2021
1030 Clouds 28 1011 65 10000 2.57 120 15:59 26.03.2021
1031 Clouds 28 1011 65 10000 2.57 120 15:35 26.03.2021
1032 Clouds 28 1011 65 10000 3.09 120 14:44 26.03.2021
1033 Clouds 29 1010 62 10000 2.57 110 13:52 26.03.2021
1034 Clouds 29 1010 62 10000 2.57 110 13:23 26.03.2021
1035 Clouds 29 1010 58 10000 4.12 80 12:40 26.03.2021
1036 Clouds 30 1009 55 10000 4.12 80 11:48 26.03.2021
1037 Clouds 30 1009 55 10000 4.12 80 11:29 26.03.2021
1038 Clouds 30 1008 55 10000 3.6 100 10:43 26.03.2021
1039 Clouds 31 1008 55 10000 3.6 100 10:19 26.03.2021
1040 Clouds 31 1008 52 10000 5.14 90 09:41 26.03.2021
1041 Clouds 31 1008 62 10000 7.2 70 08:49 26.03.2021
1042 Clouds 32 1008 62 10000 7.2 70 08:30 26.03.2021
1043 Clouds 33 1008 52 10000 4.12 110 07:44 26.03.2021
1044 Clouds 33 1008 52 10000 4.12 110 07:22 26.03.2021
1045 Clouds 32 1010 58 10000 2.57 0 06:55 26.03.2021
1046 Clouds 32 1011 55 10000 4.63 100 05:32 26.03.2021
1047 Clouds 31 1011 58 10000 2.57 0 04:18 26.03.2021
1048 Clouds 28 1011 69 10000 1.03 0 00:52 26.03.2021
1049 Clouds 27 1010 78 10000 1.03 60 23:51 25.03.2021
1050 Clouds 26 1010 78 10000 1.03 60 23:33 25.03.2021
1051 Clouds 26 1010 78 10000 1.03 0 22:40 25.03.2021
1052 Clouds 26 1010 78 10000 1.03 0 22:18 25.03.2021
1053 Clouds 27 1010 74 10000 2.57 80 21:45 25.03.2021
1054 Clouds 27 1010 74 10000 2.57 80 21:24 25.03.2021
1055 Clouds 27 1010 74 10000 2.57 110 20:38 25.03.2021
1056 Clouds 27 1010 74 10000 2.57 110 20:18 25.03.2021
1057 Clouds 27 1010 74 10000 3.6 110 19:40 25.03.2021
1058 Clouds 27 1010 74 10000 3.6 110 19:21 25.03.2021
1059 Clouds 27 1011 78 10000 3.09 110 18:43 25.03.2021
1060 Clouds 27 1011 78 10000 3.09 110 18:25 25.03.2021
1061 Clouds 28 1012 74 10000 4.12 120 17:38 25.03.2021
1062 Clouds 28 1012 74 10000 4.12 110 16:59 25.03.2021
1063 Clouds 28 1012 74 10000 4.12 110 16:36 25.03.2021
1064 Clouds 28 1012 74 10000 4.12 120 15:52 25.03.2021
1065 Clouds 28 1012 74 10000 4.12 120 15:27 25.03.2021
1066 Clouds 28 1011 74 10000 3.6 120 14:59 25.03.2021
1067 Clouds 28 1011 74 10000 3.6 120 14:40 25.03.2021
1068 Clouds 29 1011 65 10000 3.6 110 13:38 25.03.2021
1069 Clouds 29 1011 65 10000 3.6 110 13:19 25.03.2021
1070 Clouds 29 1010 58 10000 3.6 90 12:37 25.03.2021
1071 Clouds 29 1010 58 10000 3.6 90 12:18 25.03.2021
1072 Clouds 30 1010 58 10000 6.03 105 11:44 25.03.2021
1073 Clouds 30 1010 58 10000 6.19 100 11:26 25.03.2021
1074 Clouds 30 1010 58 10000 6.19 100 11:26 25.03.2021
1075 Clouds 30 1009 55 10000 5.14 110 10:49 25.03.2021
1076 Clouds 31 1009 55 10000 5.14 110 10:22 25.03.2021
1077 Clouds 31 1008 52 10000 5.66 120 09:53 25.03.2021
1078 Clouds 32 1008 52 10000 5.66 120 09:35 25.03.2021
1079 Clouds 32 1008 52 10000 5.66 120 09:35 25.03.2021
1080 Clouds 33 1008 52 10000 4.63 0 08:37 25.03.2021
1081 Clouds 33 1009 52 10000 4.63 140 07:51 25.03.2021
1082 Clouds 33 1010 52 10000 3.6 0 06:59 25.03.2021
1083 Clouds 33 1010 52 10000 3.6 0 06:24 25.03.2021
1084 Clouds 32 1012 58 10000 2.06 0 05:46 25.03.2021
1085 Clouds 29 1013 58 10000 1.54 0 02:28 25.03.2021
1086 Clouds 27 1012 74 10000 1.54 40 00:21 25.03.2021
1087 Clouds 26 1011 73 10000 1.03 120 23:48 24.03.2021
1088 Clouds 26 1011 73 10000 1.03 120 23:23 24.03.2021
1089 Clouds 26 1010 73 10000 1.54 80 22:41 24.03.2021
1090 Clouds 26 1010 73 10000 1.54 80 22:19 24.03.2021
1091 Clouds 26 1010 78 10000 1.54 80 21:41 24.03.2021
1092 Clouds 26 1010 78 10000 1.54 80 21:20 24.03.2021
1093 Clouds 26 1010 78 10000 1.03 0 20:41 24.03.2021
1094 Clouds 26 1010 78 10000 1.03 0 20:19 24.03.2021
1095 Clouds 27 1010 74 10000 1.03 0 19:34 24.03.2021
1096 Clouds 27 1011 78 10000 2.06 130 18:57 24.03.2021
1097 Clouds 27 1011 78 10000 2.06 130 18:39 24.03.2021
1098 Clouds 27 1011 78 10000 2.06 130 18:19 24.03.2021
1099 Clouds 27 1011 78 10000 2.06 130 18:19 24.03.2021
1100 Clouds 27 1012 74 10000 2.06 140 17:40 24.03.2021
1101 Clouds 27 1012 74 10000 2.06 140 17:22 24.03.2021
1102 Clouds 28 1012 74 10000 3.6 120 16:41 24.03.2021
1103 Clouds 28 1012 74 10000 3.6 120 16:22 24.03.2021
1104 Clouds 28 1012 74 10000 3.6 110 15:43 24.03.2021
1105 Clouds 28 1012 74 10000 3.6 110 15:23 24.03.2021
1106 Clouds 28 1012 74 10000 3.09 110 14:42 24.03.2021
1107 Clouds 28 1012 74 10000 3.09 110 14:23 24.03.2021
1108 Clouds 28 1011 74 10000 3.09 130 13:45 24.03.2021
1109 Clouds 28 1011 74 10000 3.09 130 13:24 24.03.2021
1110 Clouds 28 1010 70 10000 2.57 110 12:41 24.03.2021
1111 Clouds 29 1010 70 10000 2.57 110 12:20 24.03.2021
1112 Clouds 29 1010 66 10000 3.6 120 11:41 24.03.2021
1113 Clouds 30 1009 66 10000 4.12 120 10:53 24.03.2021
1114 Clouds 30 1009 66 10000 4.12 120 10:32 24.03.2021
1115 Clouds 30 1009 66 10000 4.63 100 09:58 24.03.2021
1116 Clouds 30 1009 66 10000 4.63 100 09:36 24.03.2021
1117 Clouds 30 1009 66 10000 4.63 100 09:18 24.03.2021
1118 Clouds 30 1009 66 10000 5.66 110 08:43 24.03.2021
1119 Clouds 30 1009 55 10000 6.17 110 07:50 24.03.2021
1120 Clouds 31 1009 55 10000 6.17 110 07:25 24.03.2021
1121 Clouds 32 1010 55 9000 4.12 100 06:46 24.03.2021
1122 Clouds 29 1013 61 10000 2.06 80 02:41 24.03.2021
1123 Clouds 27 1012 69 10000 1.03 80 00:42 24.03.2021
1124 Clouds 27 1012 73 10000 2.57 60 23:52 23.03.2021
1125 Clouds 26 1012 73 10000 2.57 60 23:20 23.03.2021
1126 Clouds 26 1011 78 10000 2.06 70 22:50 23.03.2021
1127 Clouds 26 1011 78 10000 2.06 70 22:25 23.03.2021
1128 Clouds 26 1011 73 10000 2.06 70 21:46 23.03.2021
1129 Clouds 26 1011 73 10000 2.06 70 21:27 23.03.2021
1130 Clouds 27 1011 74 10000 2.57 80 20:46 23.03.2021
1131 Clouds 27 1011 74 10000 2.57 80 20:25 23.03.2021
1132 Clouds 27 1012 78 10000 2.06 100 19:48 23.03.2021
1133 Clouds 27 1012 78 10000 2.06 100 19:26 23.03.2021
1134 Clouds 27 1012 74 10000 3.09 100 18:46 23.03.2021
1135 Clouds 27 1012 74 10000 3.09 100 18:22 23.03.2021
1136 Clouds 27 1013 74 10000 2.06 90 17:48 23.03.2021
1137 Clouds 27 1013 74 10000 2.06 90 17:23 23.03.2021
1138 Clouds 28 1013 69 10000 3.09 100 16:42 23.03.2021
1139 Clouds 28 1013 69 10000 3.09 100 16:24 23.03.2021
1140 Clouds 28 1013 69 10000 3.6 110 15:46 23.03.2021
1141 Clouds 28 1013 69 10000 3.6 100 14:57 23.03.2021
1142 Clouds 28 1013 69 10000 3.6 100 14:37 23.03.2021
1143 Clouds 28 1013 69 10000 3.6 100 14:18 23.03.2021
1144 Clouds 28 1012 69 10000 3.09 90 13:41 23.03.2021
1145 Clouds 28 1012 69 10000 3.09 90 13:20 23.03.2021
1146 Clouds 28 1011 61 10000 3.6 80 12:43 23.03.2021
1147 Clouds 29 1011 61 10000 3.6 80 12:20 23.03.2021
1148 Clouds 29 1011 58 10000 3.09 110 11:45 23.03.2021
1149 Clouds 29 1011 62 10000 4.12 110 10:45 23.03.2021
1150 Clouds 29 1011 62 10000 4.12 110 10:26 23.03.2021
1151 Clouds 29 1011 62 10000 4.12 110 10:26 23.03.2021
1152 Clouds 30 1010 55 10000 5.14 80 09:58 23.03.2021
1153 Clouds 30 1010 55 10000 5.14 80 09:39 23.03.2021
1154 Clouds 30 1010 55 10000 5.14 80 09:19 23.03.2021
1155 Clouds 31 1010 51 10000 4.12 90 08:40 23.03.2021
1156 Clouds 31 1010 51 10000 4.12 90 08:22 23.03.2021
1157 Clouds 31 1011 49 10000 5.66 100 07:28 23.03.2021
1158 Clouds 32 1012 51 10000 5.14 100 06:59 23.03.2021
1159 Clouds 31 1012 51 10000 5.14 100 06:26 23.03.2021
1160 Clouds 30 1014 58 10000 6.69 70 03:22 23.03.2021
1161 Clouds 30 1014 55 10000 3.09 100 02:18 23.03.2021
1162 Clouds 27 1012 69 10000 1.54 70 23:43 22.03.2021
1163 Clouds 28 1012 65 10000 1.54 100 22:54 22.03.2021
1164 Clouds 27 1012 65 10000 1.54 100 22:36 22.03.2021
1165 Clouds 27 1012 65 10000 1.54 100 22:18 22.03.2021
1166 Clouds 27 1012 65 10000 1.54 110 21:40 22.03.2021
1167 Clouds 27 1012 65 10000 1.54 110 21:21 22.03.2021
1168 Clouds 27 1012 69 10000 1.03 0 20:41 22.03.2021
1169 Clouds 27 1012 69 10000 1.03 0 20:21 22.03.2021
1170 Clouds 28 1012 65 10000 2.57 90 19:52 22.03.2021
1171 Clouds 28 1012 65 10000 2.57 90 19:30 22.03.2021
1172 Clouds 28 1012 65 10000 2.57 90 19:30 22.03.2021
1173 Clouds 28 1013 65 10000 2.06 110 18:47 22.03.2021
1174 Clouds 28 1013 65 10000 2.06 110 18:28 22.03.2021
1175 Clouds 28 1014 61 10000 2.06 80 17:57 22.03.2021
1176 Clouds 28 1014 61 10000 2.06 80 17:37 22.03.2021
1177 Clouds 28 1014 61 10000 2.06 80 17:18 22.03.2021
1178 Clouds 28 1014 61 10000 3.09 110 16:43 22.03.2021
1179 Clouds 28 1014 61 10000 3.09 90 15:59 22.03.2021
1180 Clouds 28 1014 61 10000 3.09 90 15:38 22.03.2021
1181 Clouds 28 1014 61 10000 3.09 90 15:18 22.03.2021
1182 Clouds 28 1013 61 10000 3.09 100 14:50 22.03.2021
1183 Clouds 28 1013 61 10000 3.09 100 14:29 22.03.2021
1184 Clouds 29 1012 65 10000 4.12 110 13:43 22.03.2021
1185 Clouds 29 1012 65 10000 4.12 110 13:22 22.03.2021
1186 Clouds 29 1011 65 10000 3.6 110 12:47 22.03.2021
1187 Clouds 29 1011 65 10000 3.6 110 12:23 22.03.2021
1188 Clouds 28 1011 65 10000 3.6 120 11:47 22.03.2021
1189 Clouds 28 1011 65 10000 3.6 120 11:25 22.03.2021
1190 Clouds 29 1010 62 10000 3.6 100 10:44 22.03.2021
1191 Clouds 29 1010 62 10000 3.6 100 10:24 22.03.2021
1192 Clouds 29 1010 66 10000 5.14 100 09:43 22.03.2021
1193 Clouds 29 1010 66 10000 5.14 100 09:22 22.03.2021
1194 Clouds 31 1010 62 10000 4.12 110 08:44 22.03.2021
1195 Clouds 31 1010 62 10000 4.12 110 08:24 22.03.2021
1196 Clouds 31 1010 58 10000 4.63 110 07:45 22.03.2021
1197 Clouds 31 1011 55 10000 5.66 130 06:57 22.03.2021
1198 Clouds 32 1011 55 10000 5.66 130 06:35 22.03.2021
1199 Clouds 30 1013 62 10000 2.57 60 02:33 22.03.2021
1200 Clouds 28 1012 78 10000 1.03 0 00:33 22.03.2021
1201 Clouds 27 1011 83 10000 1.03 60 23:54 21.03.2021
1202 Clouds 26 1011 83 10000 1.03 60 23:20 21.03.2021
1203 Clouds 26 1011 83 10000 1.03 60 23:19 21.03.2021
1204 Clouds 26 1011 89 10000 1.03 0 22:56 21.03.2021
1205 Clouds 26 1011 89 10000 1.03 0 22:18 21.03.2021
1206 Clouds 26 1011 89 10000 1.54 0 21:40 21.03.2021
1207 Clouds 26 1011 89 10000 1.54 0 21:22 21.03.2021
1208 Clouds 27 1011 74 10000 1.03 0 20:43 21.03.2021
1209 Clouds 27 1011 74 10000 1.03 0 20:25 21.03.2021
1210 Clouds 27 1010 74 10000 2.57 40 19:53 21.03.2021
1211 Clouds 27 1011 74 10000 2.57 40 19:21 21.03.2021
1212 Clouds 28 1010 78 10000 2.06 100 18:48 21.03.2021
1213 Clouds 28 1010 78 10000 2.06 100 18:27 21.03.2021
1214 Clouds 28 1010 74 10000 2.57 100 17:48 21.03.2021
1215 Clouds 28 1010 74 10000 2.57 100 17:20 21.03.2021
1216 Clouds 28 1010 61 10000 2.57 100 16:58 21.03.2021
1217 Clouds 28 1010 61 10000 2.57 100 16:32 21.03.2021
1218 Clouds 28 1010 74 10000 3.09 110 15:58 21.03.2021
1219 Clouds 28 1010 74 10000 3.09 110 15:58 21.03.2021
1220 Clouds 28 1010 74 10000 3.09 110 15:38 21.03.2021
1221 Clouds 29 1010 74 10000 3.09 110 15:19 21.03.2021
1222 Clouds 29 1010 74 10000 3.09 110 15:19 21.03.2021
1223 Clouds 29 1010 70 10000 3.09 120 14:42 21.03.2021
1224 Clouds 29 1010 70 10000 3.09 120 14:24 21.03.2021
1225 Clouds 29 1009 66 10000 2.57 120 13:52 21.03.2021
1226 Clouds 29 1009 66 10000 3.09 80 12:46 21.03.2021
1227 Clouds 29 1009 66 10000 3.09 80 12:27 21.03.2021
1228 Clouds 29 1009 66 10000 3.09 80 12:27 21.03.2021
1229 Clouds 30 1008 62 10000 3.09 90 11:53 21.03.2021
1230 Clouds 29 1008 62 10000 3.09 90 11:28 21.03.2021
1231 Clouds 30 1008 58 10000 4.63 70 10:59 21.03.2021
1232 Clouds 30 1008 58 10000 4.63 70 10:41 21.03.2021
1233 Clouds 31 1008 58 10000 4.63 70 10:21 21.03.2021
1234 Clouds 31 1007 63 10000 4.92 80 09:44 21.03.2021
1235 Clouds 31 1008 74 10000 5.66 40 09:26 21.03.2021
1236 Clouds 31 1008 74 10000 5.66 40 08:39 21.03.2021
1237 Clouds 31 1008 74 10000 5.66 40 08:20 21.03.2021
1238 Clouds 33 1008 55 10000 5.14 100 07:37 21.03.2021
1239 Clouds 33 1009 55 10000 3.6 130 06:50 21.03.2021
1240 Clouds 32 1010 58 10000 2.57 0 04:59 21.03.2021
1241 Clouds 30 1010 66 10000 1.54 0 01:54 21.03.2021
1242 Clouds 28 1009 78 10000 0.51 0 00:40 21.03.2021
1243 Clouds 28 1009 78 10000 0.51 0 00:21 21.03.2021
1244 Clouds 27 1008 78 10000 1.03 100 23:47 20.03.2021
1245 Clouds 27 1008 78 10000 1.03 100 23:20 20.03.2021
1246 Clouds 27 1007 74 10000 2.06 80 22:54 20.03.2021
1247 Clouds 27 1007 74 10000 2.06 80 22:21 20.03.2021
1248 Clouds 27 1007 78 10000 1.03 0 21:45 20.03.2021
1249 Clouds 27 1007 78 10000 1.03 0 21:24 20.03.2021
1250 Clouds 28 1007 74 10000 2.06 110 20:45 20.03.2021
1251 Clouds 28 1007 74 10000 2.06 110 20:22 20.03.2021
1252 Clouds 28 1007 74 10000 2.57 120 19:49 20.03.2021
1253 Clouds 28 1007 74 10000 2.57 120 19:26 20.03.2021
1254 Clouds 28 1007 74 10000 3.09 110 18:49 20.03.2021
1255 Clouds 28 1007 74 10000 3.09 110 18:26 20.03.2021
1256 Clouds 28 1008 74 10000 3.09 120 17:54 20.03.2021
1257 Clouds 28 1008 74 10000 3.09 120 17:32 20.03.2021
1258 Clouds 28 1008 70 10000 4.12 120 16:47 20.03.2021
1259 Clouds 28 1008 70 10000 4.12 120 16:21 20.03.2021
1260 Clouds 28 1008 70 10000 4.12 120 16:21 20.03.2021
1261 Clouds 28 1008 74 10000 3.09 120 15:59 20.03.2021
1262 Clouds 28 1008 74 10000 3.09 120 15:39 20.03.2021
1263 Clouds 28 1008 74 10000 3.09 130 14:49 20.03.2021
1264 Clouds 28 1008 74 10000 3.09 130 14:28 20.03.2021
1265 Clouds 29 1008 66 10000 3.09 120 13:42 20.03.2021
1266 Clouds 29 1008 66 10000 3.09 120 13:18 20.03.2021
1267 Clouds 29 1007 66 10000 3.6 100 12:27 20.03.2021
1268 Clouds 29 1007 66 10000 3.6 100 12:27 20.03.2021
1269 Clouds 29 1007 66 10000 3.6 100 12:27 20.03.2021
1270 Clouds 29 1007 66 10000 3.6 100 12:27 20.03.2021
1271 Clouds 29 1006 70 10000 4.12 50 11:50 20.03.2021
1272 Clouds 29 1006 70 10000 4.12 50 11:29 20.03.2021
1273 Clouds 30 1006 62 10000 4.12 0 10:56 20.03.2021
1274 Clouds 30 1006 62 10000 4.12 0 10:37 20.03.2021
1275 Clouds 31 1006 62 10000 4.12 0 10:18 20.03.2021
1276 Clouds 33 1006 55 10000 3.09 0 09:29 20.03.2021
1277 Clouds 33 1005 49 10000 3.09 0 08:59 20.03.2021
1278 Clouds 33 1005 49 10000 3.09 0 08:39 20.03.2021
1279 Clouds 33 1006 55 10000 2.57 80 07:54 20.03.2021
1280 Clouds 33 1006 55 10000 2.57 80 07:32 20.03.2021
1281 Clouds 33 1007 58 10000 2.57 150 06:55 20.03.2021
1282 Clouds 33 1007 58 10000 2.57 150 06:27 20.03.2021
1283 Clouds 31 1009 62 10000 2.06 0 04:23 20.03.2021
1284 Clouds 31 1010 62 10000 2.57 0 03:42 20.03.2021
1285 Clouds 28 1009 78 10000 1.03 0 00:36 20.03.2021
1286 Clouds 27 1008 78 10000 0.51 0 23:32 19.03.2021
1287 Clouds 27 1007 78 10000 0.51 0 22:59 19.03.2021
1288 Clouds 27 1007 78 10000 0.51 0 22:38 19.03.2021
1289 Clouds 27 1007 78 10000 0.51 0 22:20 19.03.2021
1290 Clouds 27 1007 78 10000 0.51 0 22:20 19.03.2021
1291 Clouds 27 1007 78 10000 1.03 0 21:23 19.03.2021
1292 Clouds 27 1007 78 10000 1.54 110 21:00 19.03.2021
1293 Clouds 27 1007 78 10000 1.54 110 20:40 19.03.2021
1294 Clouds 27 1007 78 10000 1.54 110 20:22 19.03.2021
1295 Clouds 27 1008 78 10000 1.54 90 19:46 19.03.2021
1296 Clouds 27 1008 78 10000 1.54 90 19:20 19.03.2021
1297 Clouds 28 1008 74 10000 2.06 110 18:41 19.03.2021
1298 Clouds 28 1008 74 10000 2.06 110 18:20 19.03.2021
1299 Clouds 28 1009 78 10000 2.06 120 17:55 19.03.2021
1300 Clouds 28 1009 78 10000 2.06 120 17:32 19.03.2021
1301 Clouds 28 1009 78 10000 2.06 0 16:55 19.03.2021
1302 Clouds 28 1009 78 10000 2.06 0 16:31 19.03.2021
1303 Clouds 28 1009 78 10000 2.06 0 16:31 19.03.2021
1304 Clouds 28 1009 74 10000 2.06 140 15:56 19.03.2021
1305 Clouds 29 1009 74 10000 2.06 140 15:27 19.03.2021
1306 Clouds 29 1009 74 10000 3.09 120 14:47 19.03.2021
1307 Clouds 29 1009 74 10000 3.09 120 14:28 19.03.2021
1308 Clouds 29 1008 74 10000 3.09 130 13:42 19.03.2021
1309 Clouds 29 1007 70 10000 2.06 120 12:57 19.03.2021
1310 Clouds 30 1008 62 10000 3.09 90 12:37 19.03.2021
1311 Clouds 30 1008 62 10000 3.09 90 11:48 19.03.2021
1312 Clouds 30 1007 62 10000 3.6 90 10:54 19.03.2021
1313 Clouds 31 1007 62 10000 3.6 90 10:32 19.03.2021
1314 Clouds 31 1007 62 10000 3.09 90 09:58 19.03.2021
1315 Clouds 32 1007 62 10000 3.09 90 09:39 19.03.2021
1316 Clouds 32 1007 62 10000 3.09 90 09:19 19.03.2021
1317 Clouds 32 1006 62 10000 4.12 70 08:40 19.03.2021
1318 Clouds 32 1006 62 10000 4.12 70 08:21 19.03.2021
1319 Clouds 32 1007 70 10000 5.66 60 07:39 19.03.2021
1320 Clouds 32 1008 62 10000 3.6 350 06:52 19.03.2021
1321 Clouds 31 1010 58 10000 2.57 100 03:34 19.03.2021
1322 Clouds 29 1010 78 10000 0.51 0 00:58 19.03.2021
1323 Clouds 27 1009 78 10000 0.51 0 23:48 18.03.2021
1324 Clouds 27 1009 78 10000 0.51 0 23:25 18.03.2021
1325 Clouds 27 1009 83 10000 2.06 70 22:39 18.03.2021
1326 Clouds 27 1009 83 10000 2.06 70 22:20 18.03.2021
1327 Clouds 28 1008 78 10000 1.54 90 21:39 18.03.2021
1328 Clouds 28 1008 74 10000 2.06 120 20:54 18.03.2021
1329 Clouds 28 1008 74 10000 2.06 120 20:35 18.03.2021
1330 Clouds 28 1008 74 10000 2.57 120 19:58 18.03.2021
1331 Clouds 28 1008 74 10000 2.57 120 19:40 18.03.2021
1332 Clouds 28 1008 74 10000 2.57 120 19:19 18.03.2021
1333 Clouds 28 1009 78 10000 1.54 130 18:34 18.03.2021
1334 Clouds 29 1009 74 10000 3.09 120 17:51 18.03.2021
1335 Clouds 28 1009 74 10000 3.09 120 17:26 18.03.2021
1336 Clouds 29 1009 74 10000 3.09 0 16:49 18.03.2021
1337 Clouds 29 1009 74 10000 3.09 0 16:30 18.03.2021
1338 Clouds 29 1009 74 10000 3.09 120 15:49 18.03.2021
1339 Clouds 29 1009 74 10000 3.09 120 15:29 18.03.2021
1340 Clouds 29 1009 72 10000 3.09 0 14:57 18.03.2021
1341 Clouds 29 1009 72 10000 3.09 0 14:33 18.03.2021
1342 Clouds 30 1009 70 10000 3.6 120 13:54 18.03.2021
1343 Clouds 29 1009 70 10000 3.6 120 13:27 18.03.2021
1344 Clouds 30 1008 74 10000 3.09 140 12:45 18.03.2021
1345 Clouds 30 1008 74 10000 3.09 140 12:27 18.03.2021
1346 Clouds 30 1008 74 10000 3.09 140 12:27 18.03.2021
1347 Clouds 30 1007 66 10000 4.12 0 11:55 18.03.2021
1348 Clouds 30 1007 66 10000 4.12 0 11:34 18.03.2021
1349 Clouds 31 1007 58 10000 4.12 130 10:49 18.03.2021
1350 Clouds 32 1007 58 10000 4.12 130 10:28 18.03.2021
1351 Clouds 32 1007 55 10000 3.09 0 09:57 18.03.2021
1352 Clouds 33 1007 55 10000 3.09 0 09:30 18.03.2021
1353 Clouds 33 1007 55 10000 4.12 140 08:55 18.03.2021
1354 Clouds 33 1007 55 10000 4.12 140 08:33 18.03.2021
1355 Clouds 33 1009 52 10000 3.6 0 07:54 18.03.2021
1356 Clouds 33 1009 52 10000 3.6 0 07:54 18.03.2021
1357 Clouds 33 1009 52 10000 3.6 0 07:29 18.03.2021
1358 Clouds 33 1009 55 10000 3.6 150 06:37 18.03.2021
1359 Clouds 33 1009 55 10000 3.6 150 06:18 18.03.2021
1360 Clouds 31 1011 62 10000 1.54 0 03:41 18.03.2021
1361 Clouds 28 1010 83 9000 1.03 0 00:19 18.03.2021
1362 Clouds 27 1009 83 10000 1.54 290 22:58 17.03.2021
1363 Clouds 27 1009 83 10000 1.54 290 22:36 17.03.2021
1364 Clouds 27 1009 83 10000 1.54 290 22:18 17.03.2021
1365 Clouds 27 1009 83 10000 1.03 260 21:45 17.03.2021
1366 Clouds 28 1009 83 10000 1.03 260 21:27 17.03.2021
1367 Clouds 28 1009 83 10000 0.51 0 20:45 17.03.2021
1368 Clouds 28 1009 83 10000 0.51 0 20:25 17.03.2021
1369 Clouds 28 1009 83 10000 1.43 98 19:51 17.03.2021
1370 Clouds 28 1009 83 10000 1.56 115 19:25 17.03.2021
1371 Clouds 28 1010 83 10000 1.03 0 18:57 17.03.2021
1372 Clouds 28 1010 83 10000 1.03 0 18:39 17.03.2021
1373 Clouds 28 1011 74 10000 1.03 0 17:57 17.03.2021
1374 Clouds 28 1011 74 10000 1.03 0 17:27 17.03.2021
1375 Clouds 28 1011 74 10000 1.54 0 16:55 17.03.2021
1376 Clouds 29 1011 74 10000 1.54 0 16:37 17.03.2021
1377 Clouds 29 1011 74 10000 1.54 180 16:18 17.03.2021
1378 Clouds 28 1011 74 10000 1.54 180 15:37 17.03.2021
1379 Clouds 29 1011 74 10000 1.54 220 14:46 17.03.2021
1380 Clouds 29 1011 74 10000 1.54 220 14:27 17.03.2021
1381 Clouds 29 1010 74 10000 1.54 240 13:56 17.03.2021
1382 Clouds 29 1010 74 10000 1.54 240 13:37 17.03.2021
1383 Clouds 29 1009 79 10000 2.57 260 12:59 17.03.2021
1384 Clouds 29 1009 79 10000 2.57 260 12:34 17.03.2021
1385 Clouds 29 1009 66 10000 2.06 190 11:54 17.03.2021
1386 Clouds 30 1009 66 10000 2.06 190 11:27 17.03.2021
1387 Clouds 31 1008 70 10000 4.63 270 10:59 17.03.2021
1388 Clouds 30 1008 70 10000 4.63 270 10:40 17.03.2021
1389 Clouds 31 1008 66 10000 5.66 260 09:59 17.03.2021
1390 Clouds 32 1008 66 10000 5.66 260 09:41 17.03.2021
1391 Clouds 32 1008 66 10000 5.66 260 09:19 17.03.2021
1392 Clouds 32 1008 66 10000 5.66 260 09:19 17.03.2021
1393 Clouds 33 1008 58 10000 4.63 280 08:39 17.03.2021
1394 Clouds 33 1008 58 10000 4.63 280 08:20 17.03.2021
1395 Clouds 34 1008 46 10000 1.54 0 07:36 17.03.2021
1396 Clouds 34 1009 49 10000 2.06 0 06:47 17.03.2021
1397 Clouds 31 1011 62 10000 2.57 0 04:27 17.03.2021
1398 Clouds 31 1011 66 10000 2.06 0 03:25 17.03.2021
1399 Clouds 28 1011 89 10000 1.31 67 00:41 17.03.2021
1400 Clouds 27 1010 83 10000 0.51 0 23:40 16.03.2021
1401 Clouds 26 1010 83 10000 0.51 0 23:18 16.03.2021
1402 Clouds 27 1009 89 10000 1.03 0 22:43 16.03.2021
1403 Clouds 27 1009 89 10000 1.03 0 22:24 16.03.2021
1404 Clouds 27 1009 89 10000 1.03 0 21:40 16.03.2021
1405 Clouds 27 1009 89 10000 1.03 0 21:21 16.03.2021
1406 Clouds 27 1010 89 10000 1.54 130 20:46 16.03.2021
1407 Clouds 27 1010 89 10000 1.54 130 20:19 16.03.2021
1408 Clouds 27 1010 89 10000 1.03 0 19:43 16.03.2021
1409 Clouds 27 1010 89 10000 1.03 0 19:24 16.03.2021
1410 Clouds 27 1010 89 10000 1.54 140 18:50 16.03.2021
1411 Clouds 27 1010 89 10000 1.54 140 18:29 16.03.2021
1412 Clouds 27 1011 78 10000 1.03 0 17:51 16.03.2021
1413 Clouds 27 1011 78 10000 1.03 0 17:33 16.03.2021
1414 Clouds 28 1011 83 10000 1.03 0 16:54 16.03.2021
1415 Clouds 28 1011 83 10000 1.03 0 16:54 16.03.2021
1416 Clouds 28 1011 83 10000 1.03 0 16:54 16.03.2021
1417 Clouds 28 1011 83 10000 1.03 0 16:31 16.03.2021
1418 Clouds 27 1011 89 10000 1.79 166 15:57 16.03.2021
1419 Clouds 28 1011 89 10000 1.79 166 15:37 16.03.2021
1420 Clouds 28 1011 89 10000 1.79 166 15:37 16.03.2021
1421 Clouds 28 1011 89 10000 2.1 182 15:18 16.03.2021
1422 Clouds 28 1011 89 10000 1.03 0 14:41 16.03.2021
1423 Clouds 28 1011 89 10000 1.03 0 14:22 16.03.2021
1424 Clouds 27 1010 89 10000 1.03 0 13:57 16.03.2021
1425 Clouds 27 1010 89 10000 1.03 0 13:29 16.03.2021
1426 Clouds 27 1009 89 9000 2.57 220 12:56 16.03.2021
1427 Clouds 27 1009 89 9000 2.57 220 12:36 16.03.2021
1428 Rain 27 1009 94 8000 5.66 320 11:56 16.03.2021
1429 Clouds 27 1009 94 8000 5.66 320 11:32 16.03.2021
1430 Clouds 29 1008 79 9000 3.6 240 10:46 16.03.2021
1431 Clouds 29 1008 79 9000 3.6 240 10:21 16.03.2021
1432 Clouds 31 1008 66 10000 2.57 260 09:40 16.03.2021
1433 Clouds 32 1008 66 10000 2.57 260 09:20 16.03.2021
1434 Clouds 32 1007 55 10000 2.57 120 08:53 16.03.2021
1435 Clouds 32 1007 55 10000 2.57 120 08:35 16.03.2021
1436 Clouds 33 1008 55 10000 3.6 170 07:51 16.03.2021
1437 Clouds 33 1008 55 10000 3.6 170 07:24 16.03.2021
1438 Clouds 33 1009 58 10000 3.6 100 06:37 16.03.2021
1439 Clouds 32 1010 62 10000 4.12 110 05:36 16.03.2021
1440 Clouds 29 1012 74 10000 1.54 100 02:46 16.03.2021
1441 Clouds 28 1012 74 10000 1.54 100 02:25 16.03.2021
1442 Clouds 27 1010 83 10000 1.52 69 00:38 16.03.2021
1443 Clouds 26 1009 89 10000 0.51 0 23:53 15.03.2021
1444 Clouds 26 1009 89 10000 0.51 0 23:19 15.03.2021
1445 Clouds 26 1009 94 10000 1.03 0 22:42 15.03.2021
1446 Clouds 26 1009 94 10000 1.03 0 22:24 15.03.2021
1447 Clouds 26 1008 89 10000 1.39 87 21:48 15.03.2021
1448 Clouds 26 1008 89 10000 1.43 77 21:27 15.03.2021
1449 Clouds 26 1008 94 10000 1.03 0 20:47 15.03.2021
1450 Clouds 26 1008 94 10000 1.03 0 20:28 15.03.2021
1451 Clouds 26 1009 94 10000 0.51 0 19:58 15.03.2021
1452 Clouds 26 1009 94 10000 0.51 0 19:39 15.03.2021
1453 Clouds 26 1009 94 10000 0.51 0 19:21 15.03.2021
1454 Clouds 26 1010 83 10000 0.51 0 18:42 15.03.2021
1455 Clouds 26 1010 83 10000 0.51 0 18:22 15.03.2021
1456 Clouds 26 1010 83 10000 1.03 0 17:52 15.03.2021
1457 Clouds 26 1010 83 10000 1.03 0 17:22 15.03.2021
1458 Clouds 26 1011 89 10000 1.03 0 16:44 15.03.2021
1459 Clouds 27 1011 89 10000 1.54 170 15:56 15.03.2021
1460 Clouds 27 1011 89 10000 1.54 170 15:29 15.03.2021
1461 Clouds 27 1010 89 10000 1.54 160 14:56 15.03.2021
1462 Clouds 27 1010 89 10000 1.54 160 14:38 15.03.2021
1463 Clouds 27 1010 89 10000 1.54 160 14:19 15.03.2021
1464 Clouds 27 1010 89 10000 1.03 0 13:44 15.03.2021
1465 Clouds 27 1010 89 10000 1.03 0 13:23 15.03.2021
1466 Clouds 27 1009 89 10000 1.03 0 12:46 15.03.2021
1467 Clouds 27 1009 89 10000 1.03 0 12:18 15.03.2021
1468 Clouds 27 1009 89 9000 1.54 170 11:45 15.03.2021
1469 Clouds 27 1009 89 9000 1.54 170 11:26 15.03.2021
1470 Rain 27 1008 89 9000 2.06 120 10:43 15.03.2021
1471 Clouds 28 1008 89 9000 2.06 120 10:24 15.03.2021
1472 Rain 28 1008 89 9000 3.6 80 09:48 15.03.2021
1473 Rain 28 1008 89 9000 3.6 80 09:29 15.03.2021
1474 Rain 29 1007 74 9000 3.09 100 08:46 15.03.2021
1475 Rain 30 1007 66 10000 3.09 120 08:25 15.03.2021
1476 Clouds 30 1008 66 10000 3.09 70 07:42 15.03.2021
1477 Clouds 31 1008 66 10000 3.09 70 07:22 15.03.2021
1478 Clouds 30 1010 66 10000 1.54 50 05:42 15.03.2021
1479 Clouds 28 1011 74 9000 1.54 0 03:36 15.03.2021
1480 Clouds 26 1010 83 10000 2.06 40 00:49 15.03.2021
1481 Clouds 26 1009 83 10000 1.03 0 23:24 14.03.2021
1482 Clouds 26 1008 83 10000 1.03 0 22:57 14.03.2021
1483 Clouds 25 1008 83 10000 1.03 0 22:37 14.03.2021
1484 Clouds 26 1008 83 10000 1.03 0 22:18 14.03.2021
1485 Clouds 26 1008 83 10000 1.03 0 22:18 14.03.2021
1486 Clouds 26 1008 83 10000 1.54 250 21:38 14.03.2021
1487 Clouds 26 1008 83 10000 1.54 250 21:18 14.03.2021
1488 Clouds 26 1008 83 10000 2.41 42 20:41 14.03.2021
1489 Clouds 26 1008 83 10000 1.89 39 20:23 14.03.2021
1490 Clouds 25 1009 88 10000 1.54 70 19:42 14.03.2021
1491 Clouds 26 1009 88 10000 1.54 70 19:19 14.03.2021
1492 Clouds 26 1009 83 10000 1.03 0 18:37 14.03.2021
1493 Clouds 26 1010 78 10000 1.54 110 17:56 14.03.2021
1494 Clouds 26 1010 78 10000 1.54 110 17:37 14.03.2021
1495 Clouds 26 1010 78 10000 1.54 110 17:19 14.03.2021
1496 Clouds 26 1011 78 10000 1.03 0 16:40 14.03.2021
1497 Clouds 26 1011 78 10000 1.03 0 16:21 14.03.2021
1498 Clouds 27 1011 74 10000 2.57 120 15:48 14.03.2021
1499 Clouds 27 1010 74 10000 3.6 170 14:58 14.03.2021
1500 Clouds 27 1010 74 10000 3.6 170 14:58 14.03.2021
1501 Clouds 27 1010 74 10000 3.6 170 14:31 14.03.2021
1502 Clouds 27 1010 78 10000 3.6 120 13:55 14.03.2021
1503 Clouds 27 1010 78 10000 3.6 120 13:36 14.03.2021
1504 Clouds 27 1009 74 10000 3.09 120 12:59 14.03.2021
1505 Clouds 27 1009 74 10000 3.09 120 12:41 14.03.2021
1506 Clouds 27 1009 74 10000 3.09 120 12:22 14.03.2021
1507 Clouds 27 1009 74 10000 2.06 0 11:39 14.03.2021
1508 Clouds 28 1009 74 10000 2.06 0 11:19 14.03.2021
1509 Clouds 28 1008 74 10000 3.09 120 10:38 14.03.2021
1510 Clouds 28 1008 74 10000 3.09 120 10:19 14.03.2021
1511 Clouds 29 1008 62 10000 3.09 60 09:56 14.03.2021
1512 Clouds 29 1008 62 10000 3.09 60 09:37 14.03.2021
1513 Clouds 29 1008 62 10000 3.09 60 09:19 14.03.2021
1514 Clouds 28 1008 74 9000 3.09 120 08:36 14.03.2021
1515 Clouds 29 1009 62 10000 3.6 0 07:53 14.03.2021
1516 Clouds 29 1009 62 10000 3.6 0 07:26 14.03.2021
1517 Clouds 30 1010 70 10000 2.06 20 05:34 14.03.2021
1518 Clouds 28 1011 74 10000 2.57 80 01:19 14.03.2021
1519 Clouds 26 1011 78 10000 2.06 130 00:20 14.03.2021
1520 Clouds 26 1010 78 10000 2.06 120 23:58 13.03.2021
1521 Clouds 26 1010 78 10000 2.06 120 23:38 13.03.2021
1522 Clouds 26 1010 78 10000 2.06 120 23:18 13.03.2021
1523 Clouds 26 1009 78 10000 1.54 120 22:43 13.03.2021
1524 Clouds 26 1009 78 10000 1.03 0 21:50 13.03.2021
1525 Clouds 26 1009 78 10000 1.03 0 21:30 13.03.2021
1526 Clouds 26 1009 78 10000 0.51 0 20:55 13.03.2021
1527 Clouds 26 1009 78 10000 0.51 0 20:32 13.03.2021
1528 Clouds 26 1009 78 10000 3.13 96 19:56 13.03.2021
1529 Clouds 26 1009 78 10000 3.13 96 19:36 13.03.2021
1530 Clouds 26 1009 78 10000 3.39 96 19:18 13.03.2021
1531 Clouds 26 1009 78 10000 3.39 96 19:18 13.03.2021
1532 Clouds 26 1010 78 10000 1.54 90 18:40 13.03.2021
1533 Clouds 26 1010 78 10000 1.54 90 18:19 13.03.2021
1534 Clouds 26 1011 78 10000 2.06 90 17:44 13.03.2021
1535 Clouds 26 1011 78 10000 2.06 90 17:25 13.03.2021
1536 Clouds 26 1012 74 10000 3.6 120 16:50 13.03.2021
1537 Clouds 26 1012 74 10000 3.6 120 16:29 13.03.2021
1538 Clouds 27 1012 74 10000 2.57 100 15:47 13.03.2021
1539 Clouds 26 1012 78 10000 1.54 110 14:54 13.03.2021
1540 Clouds 26 1012 78 10000 1.54 110 14:36 13.03.2021
1541 Clouds 26 1011 74 10000 2.06 100 13:54 13.03.2021
1542 Clouds 26 1011 74 10000 2.06 100 13:25 13.03.2021
1543 Clouds 27 1011 61 10000 2.57 90 12:47 13.03.2021
1544 Clouds 27 1011 61 10000 2.57 90 12:28 13.03.2021
1545 Clouds 27 1010 74 10000 3.09 110 11:51 13.03.2021
1546 Clouds 27 1010 74 10000 3.09 110 11:30 13.03.2021
1547 Clouds 27 1010 74 10000 3.09 110 11:30 13.03.2021
1548 Clouds 27 1010 74 10000 3.09 110 10:51 13.03.2021
1549 Clouds 27 1010 74 10000 3.09 110 10:51 13.03.2021
1550 Clouds 27 1010 74 10000 3.09 110 10:30 13.03.2021
1551 Clouds 28 1010 65 10000 2.06 140 09:47 13.03.2021
1552 Clouds 28 1010 65 10000 2.06 140 09:19 13.03.2021
1553 Clouds 29 1010 62 10000 2.57 80 08:43 13.03.2021
1554 Clouds 29 1010 62 10000 2.57 80 08:19 13.03.2021
1555 Clouds 28 1010 78 9000 2.06 70 07:54 13.03.2021
1556 Clouds 29 1011 70 10000 2.06 0 06:51 13.03.2021
1557 Clouds 28 1013 78 10000 2.06 30 02:55 13.03.2021
1558 Clouds 25 1013 88 10000 1.54 70 00:56 13.03.2021
1559 Clouds 24 1012 83 10000 1.54 10 23:57 12.03.2021
1560 Clouds 24 1012 83 10000 1.54 10 23:32 12.03.2021
1561 Clouds 24 1011 88 10000 2.57 360 22:43 12.03.2021
1562 Clouds 24 1011 88 10000 2.57 360 22:23 12.03.2021
1563 Clouds 24 1011 88 9000 1.54 270 21:44 12.03.2021
1564 Clouds 24 1011 88 9000 1.54 270 21:25 12.03.2021
1565 Clouds 24 1012 88 9000 1.03 0 20:55 12.03.2021
1566 Clouds 24 1012 88 9000 1.03 0 20:32 12.03.2021
1567 Clouds 24 1012 94 9000 0.51 0 19:58 12.03.2021
1568 Clouds 24 1012 94 9000 0.51 0 19:39 12.03.2021
1569 Clouds 24 1012 94 9000 0.51 0 19:18 12.03.2021
1570 Clouds 24 1013 88 7000 2.06 120 18:35 12.03.2021
1571 Clouds 26 1013 78 9000 3.09 140 17:49 12.03.2021
1572 Clouds 26 1013 74 10000 1.03 0 17:30 12.03.2021
1573 Clouds 27 1013 74 10000 1.03 0 16:55 12.03.2021
1574 Clouds 27 1013 74 10000 1.03 0 16:36 12.03.2021
1575 Clouds 27 1013 78 10000 1.03 0 15:52 12.03.2021
1576 Clouds 27 1013 78 10000 1.03 0 15:27 12.03.2021
1577 Rain 27 1013 78 10000 1.54 60 14:48 12.03.2021
1578 Clouds 27 1013 78 10000 1.54 60 14:20 12.03.2021
1579 Clouds 27 1012 78 9000 3.09 80 13:43 12.03.2021
1580 Clouds 27 1012 78 9000 3.09 80 13:21 12.03.2021
1581 Clouds 27 1012 69 10000 1.54 40 12:56 12.03.2021
1582 Clouds 27 1012 69 10000 1.54 40 12:37 12.03.2021
1583 Clouds 27 1012 69 10000 1.54 40 12:19 12.03.2021
1584 Clouds 27 1011 74 10000 2.06 60 11:47 12.03.2021
1585 Clouds 27 1011 74 10000 2.06 60 11:19 12.03.2021
1586 Clouds 27 1011 74 9000 2.57 30 10:45 12.03.2021
1587 Clouds 27 1011 74 9000 2.57 30 10:22 12.03.2021
1588 Clouds 27 1011 74 8000 5.66 90 09:37 12.03.2021
1589 Clouds 27 1011 74 8000 5.66 90 09:19 12.03.2021
1590 Clouds 29 1011 63 10000 4.97 61 08:39 12.03.2021
1591 Clouds 30 1011 55 10000 5.66 70 07:41 12.03.2021
1592 Clouds 30 1011 55 10000 5.66 70 07:21 12.03.2021
1593 Clouds 31 1011 58 10000 5.66 60 06:44 12.03.2021
1594 Clouds 31 1012 58 10000 5.14 80 05:52 12.03.2021
1595 Clouds 25 1013 88 10000 1.54 0 00:55 12.03.2021
1596 Clouds 25 1014 78 9000 4.12 120 23:56 11.03.2021
1597 Clouds 26 1012 69 10000 2.57 10 22:59 11.03.2021
1598 Clouds 26 1012 69 10000 2.57 10 22:59 11.03.2021
1599 Clouds 26 1012 69 10000 2.57 10 22:59 11.03.2021
1600 Clouds 26 1012 69 10000 2.57 10 22:39 11.03.2021
1601 Clouds 26 1012 69 10000 2.57 10 22:19 11.03.2021
1602 Clouds 26 1012 69 10000 2.06 30 21:46 11.03.2021
1603 Clouds 26 1012 69 10000 2.06 30 21:24 11.03.2021
1604 Clouds 26 1012 69 10000 1.54 50 20:49 11.03.2021
1605 Clouds 26 1012 69 10000 1.54 50 20:22 11.03.2021
1606 Clouds 26 1013 73 10000 1.03 0 19:53 11.03.2021
1607 Clouds 26 1013 73 10000 1.03 0 19:34 11.03.2021
1608 Clouds 26 1013 73 10000 4.82 51 18:53 11.03.2021
1609 Clouds 26 1013 73 10000 4.59 44 18:34 11.03.2021
1610 Clouds 26 1014 69 10000 1.03 0 17:53 11.03.2021
1611 Clouds 27 1014 69 10000 1.03 0 17:32 11.03.2021
1612 Clouds 27 1014 69 10000 2.06 110 16:34 11.03.2021
1613 Clouds 27 1016 69 10000 2.06 340 15:56 11.03.2021
1614 Clouds 27 1016 69 10000 2.06 340 15:37 11.03.2021
1615 Clouds 27 1016 69 10000 2.06 340 15:19 11.03.2021
1616 Clouds 27 1014 61 10000 1.54 80 14:43 11.03.2021
1617 Clouds 27 1014 61 10000 1.54 80 14:18 11.03.2021
1618 Clouds 28 1013 58 10000 3.6 80 13:43 11.03.2021
1619 Clouds 28 1013 58 10000 3.6 80 13:21 11.03.2021
1620 Clouds 28 1013 58 10000 3.6 80 12:50 11.03.2021
1621 Clouds 28 1013 58 10000 3.6 80 12:28 11.03.2021
1622 Clouds 29 1012 51 10000 4.63 100 11:46 11.03.2021
1623 Clouds 29 1012 51 10000 4.63 100 11:27 11.03.2021
1624 Clouds 30 1011 45 10000 5.66 90 10:50 11.03.2021
1625 Clouds 31 1011 45 10000 5.66 90 10:25 11.03.2021
1626 Clouds 31 1011 45 10000 7.2 60 09:50 11.03.2021
1627 Clouds 32 1011 45 10000 7.2 60 09:32 11.03.2021
1628 Clouds 32 1012 43 10000 7.72 70 08:49 11.03.2021
1629 Clouds 32 1012 43 10000 7.72 70 08:24 11.03.2021
1630 Clouds 32 1012 43 10000 7.72 70 08:24 11.03.2021
1631 Clouds 32 1012 43 10000 4.63 90 07:44 11.03.2021
1632 Clouds 33 1013 40 10000 6.17 90 06:52 11.03.2021
1633 Clouds 33 1013 40 10000 6.17 90 06:32 11.03.2021
1634 Clouds 33 1014 46 10000 6.17 80 05:47 11.03.2021
1635 Clouds 29 1016 61 10000 1.54 270 02:20 11.03.2021
1636 Clouds 25 1014 78 10000 1.54 40 23:53 10.03.2021
1637 Clouds 25 1014 78 10000 1.54 40 23:22 10.03.2021
1638 Clouds 25 1013 78 10000 1.03 0 22:39 10.03.2021
1639 Clouds 25 1013 73 10000 0.51 0 21:47 10.03.2021
1640 Clouds 25 1013 73 10000 0.51 0 21:27 10.03.2021
1641 Clouds 25 1013 73 10000 1.03 0 20:58 10.03.2021
1642 Clouds 25 1013 73 10000 1.03 0 20:39 10.03.2021
1643 Clouds 26 1013 73 10000 1.03 0 20:20 10.03.2021
1644 Clouds 26 1013 69 10000 2.06 120 19:40 10.03.2021
1645 Clouds 26 1013 69 10000 2.06 120 19:20 10.03.2021
1646 Clouds 26 1014 73 10000 2.06 130 18:38 10.03.2021
1647 Clouds 26 1014 73 10000 2.06 130 18:19 10.03.2021
1648 Clouds 27 1015 69 10000 2.06 120 17:42 10.03.2021
1649 Clouds 27 1015 69 10000 2.06 120 17:20 10.03.2021
1650 Clouds 27 1015 69 10000 2.06 110 16:53 10.03.2021
1651 Clouds 27 1015 69 10000 2.06 110 16:30 10.03.2021
1652 Clouds 27 1015 74 10000 3.09 110 15:59 10.03.2021
1653 Clouds 27 1015 74 10000 3.09 110 15:38 10.03.2021
1654 Clouds 27 1015 74 10000 3.09 110 15:20 10.03.2021
1655 Clouds 27 1015 65 10000 2.06 100 14:38 10.03.2021
1656 Clouds 28 1015 65 10000 2.06 100 14:19 10.03.2021
1657 Clouds 28 1012 51 10000 5.66 80 13:35 10.03.2021
1658 Clouds 28 1012 51 10000 5.66 80 12:53 10.03.2021
1659 Clouds 28 1012 51 10000 5.66 80 12:32 10.03.2021
1660 Clouds 29 1012 51 10000 5.66 80 11:58 10.03.2021
1661 Clouds 29 1012 51 10000 5.66 80 11:30 10.03.2021
1662 Clouds 30 1012 45 10000 5.14 70 10:56 10.03.2021
1663 Clouds 30 1012 45 10000 5.14 70 10:34 10.03.2021
1664 Clouds 31 1011 38 10000 5.14 80 09:57 10.03.2021
1665 Clouds 31 1011 38 10000 5.14 80 09:39 10.03.2021
1666 Clouds 32 1011 38 10000 5.14 80 09:19 10.03.2021
1667 Clouds 32 1012 40 10000 5.66 100 08:45 10.03.2021
1668 Clouds 32 1012 40 10000 5.66 100 08:27 10.03.2021
1669 Clouds 32 1012 46 10000 6.17 90 07:46 10.03.2021
1670 Clouds 32 1012 46 10000 6.17 90 07:25 10.03.2021
1671 Clouds 32 1013 43 10000 5.66 80 06:52 10.03.2021
1672 Clouds 30 1015 54 10000 3.09 60 02:45 10.03.2021
1673 Clouds 27 1015 69 10000 2.06 70 00:39 10.03.2021
1674 Clouds 25 1014 69 10000 3.6 70 23:45 09.03.2021
1675 Clouds 24 1013 78 10000 4.12 70 22:56 09.03.2021
1676 Clouds 24 1013 78 10000 4.12 70 22:37 09.03.2021
1677 Clouds 24 1013 78 10000 4.12 70 22:18 09.03.2021
1678 Clouds 25 1013 73 10000 4.26 71 21:42 09.03.2021
1679 Clouds 25 1013 73 10000 4.32 63 21:20 09.03.2021
1680 Clouds 25 1014 78 10000 2.57 70 20:55 09.03.2021
1681 Clouds 25 1014 78 10000 2.57 70 20:36 09.03.2021
1682 Clouds 25 1014 78 10000 2.57 70 20:18 09.03.2021
1683 Clouds 26 1014 73 10000 2.06 90 19:43 09.03.2021
1684 Clouds 26 1014 73 10000 2.06 90 19:24 09.03.2021
1685 Clouds 26 1014 73 10000 2.06 90 18:40 09.03.2021
1686 Clouds 26 1014 73 10000 2.06 90 18:18 09.03.2021
1687 Clouds 26 1015 73 10000 2.57 110 17:45 09.03.2021
1688 Clouds 26 1015 73 10000 2.57 110 17:24 09.03.2021
1689 Clouds 27 1015 69 10000 2.06 110 16:40 09.03.2021
1690 Clouds 27 1015 69 10000 2.06 110 16:21 09.03.2021
1691 Clouds 27 1015 69 10000 2.06 100 15:56 09.03.2021
1692 Clouds 27 1015 69 10000 2.06 100 15:25 09.03.2021
1693 Clouds 27 1015 65 10000 2.57 100 14:49 09.03.2021
1694 Clouds 27 1015 65 10000 2.57 100 14:26 09.03.2021
1695 Clouds 27 1014 65 10000 2.06 90 13:42 09.03.2021
1696 Clouds 28 1014 65 10000 2.06 90 13:21 09.03.2021
1697 Clouds 28 1013 65 10000 2.57 110 12:54 09.03.2021
1698 Clouds 28 1013 65 10000 2.57 110 12:35 09.03.2021
1699 Clouds 28 1012 61 10000 3.6 100 11:43 09.03.2021
1700 Clouds 29 1012 61 10000 3.6 100 11:22 09.03.2021
1701 Clouds 29 1012 51 10000 5.14 70 10:58 09.03.2021
1702 Clouds 30 1012 51 10000 5.14 70 10:39 09.03.2021
1703 Clouds 30 1012 51 10000 5.14 70 10:20 09.03.2021
1704 Clouds 30 1012 48 10000 5.14 80 09:45 09.03.2021
1705 Clouds 30 1012 48 10000 5.14 80 09:26 09.03.2021
1706 Clouds 30 1012 51 10000 4.63 80 08:48 09.03.2021
1707 Clouds 30 1012 51 10000 4.63 80 08:29 09.03.2021
1708 Clouds 30 1013 51 10000 3.6 80 07:41 09.03.2021
1709 Clouds 31 1013 51 10000 3.6 80 07:22 09.03.2021
1710 Clouds 30 1014 66 10000 2.57 120 06:44 09.03.2021
1711 Clouds 29 1015 62 10000 2.06 0 05:48 09.03.2021
1712 Clouds 26 1014 83 10000 1.54 80 00:43 09.03.2021
1713 Clouds 26 1013 78 10000 1.54 100 23:45 08.03.2021
1714 Clouds 26 1013 78 10000 1.54 100 23:27 08.03.2021
1715 Clouds 26 1012 73 10000 1.03 0 22:58 08.03.2021
1716 Clouds 25 1012 73 10000 1.03 0 22:39 08.03.2021
1717 Clouds 25 1012 73 10000 1.03 0 22:20 08.03.2021
1718 Clouds 25 1012 73 10000 3.09 70 21:40 08.03.2021
1719 Clouds 26 1012 73 10000 3.09 70 21:20 08.03.2021
1720 Clouds 26 1012 73 10000 1.03 0 20:38 08.03.2021
1721 Clouds 26 1012 73 10000 1.03 0 20:18 08.03.2021
1722 Clouds 26 1013 69 10000 1.03 0 19:38 08.03.2021
1723 Clouds 26 1013 65 10000 1.54 100 18:48 08.03.2021
1724 Clouds 26 1013 65 10000 1.54 100 18:23 08.03.2021
1725 Clouds 27 1014 65 10000 2.57 50 17:56 08.03.2021
1726 Clouds 27 1014 65 10000 2.57 50 17:38 08.03.2021
1727 Clouds 27 1014 65 10000 2.57 90 16:56 08.03.2021
1728 Clouds 27 1014 65 10000 2.57 90 16:33 08.03.2021
1729 Clouds 27 1014 69 10000 2.06 100 15:57 08.03.2021
1730 Clouds 27 1014 69 10000 2.06 100 15:30 08.03.2021
1731 Clouds 27 1014 65 10000 2.06 110 14:51 08.03.2021
1732 Clouds 27 1014 65 10000 2.06 110 14:20 08.03.2021
1733 Clouds 28 1014 61 10000 3.09 90 13:44 08.03.2021
1734 Clouds 28 1014 61 10000 3.09 90 13:21 08.03.2021
1735 Clouds 27 1013 78 10000 2.06 0 12:49 08.03.2021
1736 Clouds 28 1013 78 10000 2.06 0 12:28 08.03.2021
1737 Clouds 28 1013 74 10000 3.6 150 11:44 08.03.2021
1738 Clouds 28 1013 74 10000 3.6 150 11:19 08.03.2021
1739 Clouds 28 1012 70 10000 4.12 140 10:44 08.03.2021
1740 Clouds 28 1012 70 10000 4.12 140 10:26 08.03.2021
1741 Clouds 29 1012 74 10000 3.6 160 09:42 08.03.2021
1742 Clouds 29 1012 74 10000 3.6 160 09:23 08.03.2021
1743 Clouds 31 1012 48 10000 4.12 0 08:29 08.03.2021
1744 Clouds 32 1012 49 10000 3.09 0 07:41 08.03.2021
1745 Clouds 32 1012 49 10000 3.09 0 07:20 08.03.2021
1746 Clouds 31 1015 58 10000 2.06 0 04:28 08.03.2021
1747 Clouds 26 1015 69 10000 1.54 130 00:45 08.03.2021
1748 Clouds 26 1015 69 10000 1.54 130 00:20 08.03.2021
1749 Clouds 25 1013 73 10000 1.03 0 23:39 07.03.2021
1750 Clouds 25 1013 73 10000 1.03 0 23:20 07.03.2021
1751 Clouds 25 1013 73 10000 1.54 90 22:44 07.03.2021
1752 Clouds 25 1013 73 10000 1.54 90 22:26 07.03.2021
1753 Clouds 25 1013 73 10000 0.51 0 21:45 07.03.2021
1754 Clouds 25 1013 73 10000 0.51 0 21:26 07.03.2021
1755 Clouds 25 1013 78 10000 1.03 0 20:49 07.03.2021
1756 Clouds 25 1013 78 10000 1.03 0 20:31 07.03.2021
1757 Clouds 25 1013 69 10000 0.51 0 19:57 07.03.2021
1758 Clouds 26 1013 69 10000 0.51 0 19:39 07.03.2021
1759 Clouds 26 1013 69 10000 0.51 0 19:20 07.03.2021
1760 Clouds 26 1014 73 10000 1.54 100 18:44 07.03.2021
1761 Clouds 26 1014 73 10000 1.54 100 18:20 07.03.2021
1762 Clouds 26 1015 69 10000 1.54 100 17:42 07.03.2021
1763 Clouds 26 1015 69 10000 1.54 100 17:21 07.03.2021
1764 Clouds 26 1015 73 10000 3.09 80 16:59 07.03.2021
1765 Clouds 26 1015 73 10000 3.09 80 16:38 07.03.2021
1766 Clouds 26 1015 73 10000 3.09 80 16:19 07.03.2021
1767 Clouds 27 1015 69 10000 3.09 100 15:45 07.03.2021
1768 Clouds 27 1015 69 10000 3.09 100 15:23 07.03.2021
1769 Clouds 27 1014 65 10000 2.57 90 14:37 07.03.2021
1770 Clouds 27 1014 65 10000 2.57 90 14:19 07.03.2021
1771 Clouds 27 1013 57 10000 2.57 100 13:41 07.03.2021
1772 Clouds 28 1013 57 10000 2.57 100 13:21 07.03.2021
1773 Clouds 28 1012 65 10000 3.09 100 12:46 07.03.2021
1774 Clouds 28 1012 65 10000 3.09 100 12:28 07.03.2021
1775 Clouds 29 1013 65 10000 3.6 120 11:45 07.03.2021
1776 Clouds 29 1013 65 10000 3.6 120 11:22 07.03.2021
1777 Clouds 30 1011 55 10000 4.12 120 10:43 07.03.2021
1778 Clouds 30 1011 55 10000 4.12 120 10:25 07.03.2021
1779 Clouds 31 1011 55 10000 5.14 130 09:43 07.03.2021
1780 Clouds 31 1011 55 10000 5.14 130 09:23 07.03.2021
1781 Clouds 32 1011 49 10000 5.14 130 08:45 07.03.2021
1782 Clouds 31 1011 49 10000 5.14 130 08:24 07.03.2021
1783 Clouds 32 1012 43 10000 4.12 100 07:25 07.03.2021
1784 Clouds 29 1015 61 10000 3.09 110 02:41 07.03.2021
1785 Clouds 27 1015 73 10000 1.03 0 00:45 07.03.2021
1786 Clouds 25 1014 73 10000 1.03 0 23:44 06.03.2021
1787 Clouds 25 1014 73 10000 1.03 0 23:23 06.03.2021
1788 Clouds 24 1013 73 10000 1.54 10 22:47 06.03.2021
1789 Clouds 25 1013 73 10000 1.54 10 22:27 06.03.2021
1790 Clouds 25 1013 69 10000 2.57 30 21:57 06.03.2021
1791 Clouds 25 1013 69 10000 2.57 30 21:22 06.03.2021
1792 Clouds 26 1013 69 10000 3.09 10 20:49 06.03.2021
1793 Clouds 26 1013 69 10000 3.09 10 20:26 06.03.2021
1794 Clouds 25 1013 78 10000 2.57 60 19:49 06.03.2021
1795 Clouds 26 1013 78 10000 2.57 60 19:20 06.03.2021
1796 Clouds 26 1014 69 10000 2.57 100 18:45 06.03.2021
1797 Clouds 26 1014 69 10000 2.57 100 18:24 06.03.2021
1798 Clouds 27 1014 65 10000 1.54 120 17:56 06.03.2021
1799 Clouds 27 1014 65 10000 1.54 120 17:56 06.03.2021
1800 Clouds 27 1014 65 10000 1.54 120 17:38 06.03.2021
1801 Clouds 27 1014 65 10000 1.54 120 17:18 06.03.2021
1802 Clouds 27 1015 69 10000 1.54 190 16:41 06.03.2021
1803 Clouds 27 1015 69 10000 1.54 190 16:41 06.03.2021
1804 Clouds 27 1015 69 10000 1.54 190 16:21 06.03.2021
1805 Clouds 27 1015 69 10000 0.51 0 15:47 06.03.2021
1806 Clouds 27 1015 69 10000 0.51 0 15:29 06.03.2021
1807 Clouds 28 1014 61 10000 1.03 0 14:49 06.03.2021
1808 Clouds 28 1014 61 10000 1.03 0 14:25 06.03.2021
1809 Clouds 28 1014 58 10000 2.57 100 13:39 06.03.2021
1810 Clouds 28 1014 58 10000 2.57 100 13:20 06.03.2021
1811 Clouds 29 1013 58 10000 3.09 80 12:44 06.03.2021
1812 Clouds 29 1013 58 10000 3.09 80 12:19 06.03.2021
1813 Clouds 29 1013 58 10000 4.12 110 11:49 06.03.2021
1814 Clouds 30 1013 58 10000 4.12 110 11:21 06.03.2021
1815 Clouds 31 1012 51 10000 3.6 120 10:48 06.03.2021
1816 Clouds 31 1012 51 10000 3.6 120 10:19 06.03.2021
1817 Clouds 32 1012 51 10000 5.14 100 09:42 06.03.2021
1818 Clouds 32 1012 51 10000 5.14 100 09:19 06.03.2021
1819 Clouds 32 1012 51 10000 5.66 120 08:39 06.03.2021
1820 Clouds 32 1013 49 10000 4.12 130 07:57 06.03.2021
1821 Clouds 32 1013 49 10000 4.12 130 07:24 06.03.2021
1822 Clouds 32 1014 49 10000 3.6 0 06:55 06.03.2021
1823 Clouds 32 1015 51 10000 3.6 140 05:34 06.03.2021
1824 Clouds 30 1016 58 10000 2.57 80 02:38 06.03.2021
1825 Clouds 27 1015 73 10000 1.54 90 00:47 06.03.2021
1826 Clouds 26 1015 78 10000 1.54 90 23:53 05.03.2021
1827 Clouds 25 1015 78 10000 1.54 90 23:29 05.03.2021
1828 Clouds 25 1014 78 9000 1.03 70 22:46 05.03.2021
1829 Clouds 25 1014 78 9000 1.03 70 22:23 05.03.2021
1830 Clouds 26 1014 78 10000 1.54 100 21:54 05.03.2021
1831 Clouds 26 1014 78 10000 1.54 100 21:34 05.03.2021
1832 Clouds 26 1014 78 10000 2.06 110 20:55 05.03.2021
1833 Clouds 26 1014 78 10000 2.06 110 20:37 05.03.2021
1834 Rain 26 1014 78 10000 2.06 110 20:19 05.03.2021
1835 Clouds 26 1014 74 10000 2.57 120 19:27 05.03.2021
1836 Clouds 26 1014 78 10000 2.57 110 18:59 05.03.2021
1837 Clouds 27 1014 78 10000 2.57 110 18:41 05.03.2021
1838 Clouds 27 1014 78 10000 2.57 110 18:21 05.03.2021
1839 Clouds 27 1014 78 10000 3.09 120 17:36 05.03.2021
1840 Clouds 27 1014 78 10000 3.09 120 17:36 05.03.2021
1841 Clouds 27 1014 74 10000 2.57 100 16:50 05.03.2021
1842 Clouds 27 1014 74 10000 2.57 100 16:25 05.03.2021
1843 Clouds 27 1014 69 10000 2.57 90 15:59 05.03.2021
1844 Clouds 27 1014 69 10000 2.57 90 15:40 05.03.2021
1845 Clouds 27 1014 69 10000 2.57 90 15:21 05.03.2021
1846 Clouds 27 1014 69 10000 2.06 100 14:38 05.03.2021
1847 Clouds 28 1014 69 10000 3.6 110 13:59 05.03.2021
1848 Clouds 28 1014 69 10000 3.6 110 13:22 05.03.2021
1849 Clouds 28 1013 65 10000 3.6 110 12:55 05.03.2021
1850 Clouds 29 1013 62 10000 4.63 110 11:58 05.03.2021
1851 Clouds 29 1013 62 10000 4.63 110 11:37 05.03.2021
1852 Clouds 29 1013 62 10000 4.63 110 11:18 05.03.2021
1853 Clouds 30 1012 55 10000 5.14 100 10:41 05.03.2021
1854 Clouds 31 1012 55 10000 5.14 100 10:23 05.03.2021
1855 Clouds 31 1012 58 10000 3.6 130 09:49 05.03.2021
1856 Clouds 32 1012 58 10000 3.6 130 09:26 05.03.2021
1857 Clouds 32 1012 49 10000 5.14 120 08:43 05.03.2021
1858 Clouds 32 1012 49 10000 5.14 120 08:24 05.03.2021
1859 Clouds 33 1013 52 10000 4.63 130 07:44 05.03.2021
1860 Clouds 33 1013 52 10000 4.63 130 07:19 05.03.2021
1861 Clouds 32 1014 55 10000 5.14 120 06:31 05.03.2021
1862 Clouds 29 1015 69 10000 2.06 80 01:59 05.03.2021
1863 Clouds 27 1015 74 10000 1.03 0 00:34 05.03.2021
1864 Clouds 26 1015 78 10000 1.54 70 23:36 04.03.2021
1865 Clouds 26 1014 78 10000 2.06 60 22:38 04.03.2021
1866 Clouds 26 1014 78 10000 2.06 60 22:19 04.03.2021
1867 Clouds 26 1014 78 10000 1.03 0 21:42 04.03.2021
1868 Clouds 26 1014 78 10000 1.03 0 21:23 04.03.2021
1869 Clouds 26 1013 78 10000 1.54 190 20:41 04.03.2021
1870 Clouds 26 1013 78 10000 1.54 190 20:21 04.03.2021
1871 Clouds 26 1014 73 10000 2.06 70 19:54 04.03.2021
1872 Clouds 26 1014 73 10000 2.06 70 19:30 04.03.2021
1873 Clouds 26 1014 78 10000 1.54 80 18:59 04.03.2021
1874 Clouds 26 1014 78 10000 1.54 80 18:59 04.03.2021
1875 Clouds 26 1014 78 10000 1.54 80 18:38 04.03.2021
1876 Rain 27 1015 74 10000 2.06 100 17:59 04.03.2021
1877 Clouds 27 1015 74 10000 2.06 100 17:40 04.03.2021
1878 Clouds 27 1015 74 10000 2.06 100 17:20 04.03.2021
1879 Clouds 27 1014 69 10000 3.6 100 16:44 04.03.2021
1880 Clouds 27 1014 69 10000 3.6 100 16:44 04.03.2021
1881 Clouds 27 1014 69 10000 3.6 100 16:44 04.03.2021
1882 Clouds 27 1014 69 10000 3.6 100 16:24 04.03.2021
1883 Clouds 27 1014 74 10000 4.63 120 15:48 04.03.2021
1884 Clouds 27 1014 74 10000 4.63 120 15:29 04.03.2021
1885 Clouds 28 1014 74 10000 3.6 130 14:44 04.03.2021
1886 Clouds 28 1014 74 10000 3.6 130 14:18 04.03.2021
1887 Clouds 28 1014 74 10000 3.6 120 13:42 04.03.2021
1888 Clouds 28 1014 74 10000 3.6 120 13:22 04.03.2021
1889 Clouds 28 1013 69 10000 1.54 110 12:42 04.03.2021
1890 Clouds 28 1013 69 10000 1.54 110 12:18 04.03.2021
1891 Clouds 29 1013 65 10000 4.12 110 11:40 04.03.2021
1892 Clouds 29 1013 65 10000 4.12 110 11:20 04.03.2021
1893 Clouds 30 1013 62 10000 6.17 110 10:37 04.03.2021
1894 Clouds 30 1013 62 10000 6.17 110 10:18 04.03.2021
1895 Clouds 30 1013 58 10000 5.66 120 09:28 04.03.2021
1896 Clouds 30 1013 58 10000 5.66 100 08:53 04.03.2021
1897 Clouds 30 1013 58 10000 5.66 100 08:31 04.03.2021
1898 Clouds 31 1014 62 10000 6.17 120 07:45 04.03.2021
1899 Clouds 30 1014 58 10000 6.17 110 06:50 04.03.2021
1900 Clouds 30 1014 58 10000 6.17 110 06:21 04.03.2021
1901 Clouds 29 1016 62 10000 2.57 120 02:39 04.03.2021
1902 Rain 27 1015 74 10000 2.57 70 00:31 04.03.2021
1903 Clouds 26 1014 74 10000 2.06 90 22:39 03.03.2021
1904 Clouds 26 1014 74 10000 2.06 90 22:21 03.03.2021
1905 Clouds 26 1013 69 10000 2.57 100 21:41 03.03.2021
1906 Clouds 26 1013 69 10000 2.57 100 21:23 03.03.2021
1907 Clouds 27 1013 74 10000 3.09 100 20:55 03.03.2021
1908 Clouds 27 1013 74 10000 3.09 100 20:36 03.03.2021
1909 Clouds 27 1013 74 10000 3.09 100 20:36 03.03.2021
1910 Clouds 27 1013 74 10000 3.09 100 20:36 03.03.2021
1911 Clouds 27 1014 74 10000 2.57 110 19:51 03.03.2021
1912 Clouds 27 1014 74 10000 2.57 110 19:32 03.03.2021
1913 Clouds 27 1014 74 10000 3.09 130 18:58 03.03.2021
1914 Clouds 27 1014 74 10000 3.09 130 18:39 03.03.2021
1915 Clouds 27 1015 74 10000 3.6 110 17:58 03.03.2021
1916 Clouds 27 1015 74 10000 3.6 110 17:22 03.03.2021
1917 Clouds 27 1015 69 10000 2.57 110 16:55 03.03.2021
1918 Clouds 27 1015 69 10000 2.57 110 16:27 03.03.2021
1919 Clouds 27 1015 69 10000 2.57 110 15:57 03.03.2021
1920 Clouds 27 1015 69 10000 2.57 110 15:33 03.03.2021
1921 Clouds 27 1014 69 10000 3.6 110 14:50 03.03.2021
1922 Clouds 27 1014 69 10000 3.6 110 14:27 03.03.2021
1923 Clouds 26 1014 94 10000 3.09 110 13:47 03.03.2021
1924 Clouds 26 1014 94 10000 3.09 110 13:28 03.03.2021
1925 Clouds 28 1013 61 10000 3.6 90 12:43 03.03.2021
1926 Clouds 28 1013 61 10000 3.6 90 12:23 03.03.2021
1927 Clouds 29 1013 62 10000 3.6 120 11:45 03.03.2021
1928 Clouds 29 1013 62 10000 3.6 120 11:27 03.03.2021
1929 Clouds 30 1013 58 10000 4.12 130 10:45 03.03.2021
1930 Clouds 30 1013 58 10000 4.12 130 10:22 03.03.2021
1931 Clouds 30 1012 58 10000 5.14 130 09:43 03.03.2021
1932 Clouds 30 1012 62 10000 5.14 130 08:54 03.03.2021
1933 Clouds 30 1012 62 10000 5.14 130 08:25 03.03.2021
1934 Clouds 31 1013 62 10000 5.66 110 07:58 03.03.2021
1935 Clouds 31 1013 62 10000 5.66 110 07:33 03.03.2021
1936 Clouds 31 1013 58 10000 5.66 120 06:29 03.03.2021
1937 Clouds 31 1013 62 10000 5.66 110 05:44 03.03.2021
1938 Clouds 31 1014 66 10000 3.6 130 04:48 03.03.2021
1939 Clouds 31 1015 66 10000 3.6 130 04:24 03.03.2021
1940 Clouds 28 1014 89 10000 2.06 70 00:34 03.03.2021
1941 Clouds 27 1013 83 10000 2.06 90 23:35 02.03.2021
1942 Clouds 27 1012 78 10000 1.54 100 22:53 02.03.2021
1943 Clouds 27 1012 78 10000 1.54 100 22:22 02.03.2021
1944 Clouds 27 1012 78 10000 2.06 120 21:54 02.03.2021
1945 Clouds 27 1012 78 10000 2.06 120 21:36 02.03.2021
1946 Clouds 27 1013 78 10000 2.57 110 20:56 02.03.2021
1947 Clouds 27 1013 78 10000 2.57 110 20:38 02.03.2021
1948 Clouds 27 1013 78 10000 2.57 110 20:20 02.03.2021
1949 Clouds 27 1013 78 10000 3.6 120 19:46 02.03.2021
1950 Clouds 27 1013 78 10000 3.6 120 19:28 02.03.2021
1951 Clouds 27 1013 78 10000 4.63 100 18:42 02.03.2021
1952 Clouds 27 1013 78 10000 4.63 100 18:21 02.03.2021
1953 Clouds 27 1014 74 10000 3.09 120 17:57 02.03.2021
1954 Clouds 27 1014 74 10000 3.09 120 17:39 02.03.2021
1955 Clouds 28 1014 74 10000 3.09 120 17:19 02.03.2021
1956 Clouds 28 1014 74 10000 3.09 0 16:44 02.03.2021
1957 Clouds 28 1014 74 10000 3.09 130 15:54 02.03.2021
1958 Clouds 28 1014 74 10000 3.09 130 15:27 02.03.2021
1959 Rain 28 1013 78 10000 2.57 130 14:44 02.03.2021
1960 Rain 28 1013 78 10000 2.57 130 14:18 02.03.2021
1961 Clouds 28 1013 74 10000 1.54 100 13:44 02.03.2021
1962 Clouds 28 1013 74 10000 1.54 100 13:23 02.03.2021
1963 Clouds 28 1012 78 10000 1.03 0 12:45 02.03.2021
1964 Clouds 28 1012 78 10000 1.03 0 12:24 02.03.2021
1965 Clouds 28 1012 89 9000 1.03 0 11:44 02.03.2021
1966 Clouds 28 1012 89 9000 1.03 0 11:22 02.03.2021
1967 Rain 28 1012 83 7000 4.63 60 10:49 02.03.2021
1968 Clouds 30 1011 66 10000 3.6 140 10:25 02.03.2021
1969 Clouds 32 1011 62 10000 3.6 0 09:41 02.03.2021
1970 Clouds 32 1011 62 10000 3.6 0 09:22 02.03.2021
1971 Clouds 32 1011 58 10000 3.09 0 08:40 02.03.2021
1972 Clouds 32 1011 58 10000 3.09 0 08:22 02.03.2021
1973 Clouds 32 1012 62 10000 1.03 0 07:40 02.03.2021
1974 Clouds 32 1013 70 10000 2.06 280 06:36 02.03.2021
1975 Clouds 31 1014 70 10000 3.09 310 05:46 02.03.2021
1976 Clouds 31 1014 70 10000 3.09 310 05:46 02.03.2021
1977 Clouds 31 1014 70 10000 3.09 310 05:28 02.03.2021
1978 Clouds 29 1014 70 10000 1.54 0 01:46 02.03.2021
1979 Clouds 28 1014 70 10000 1.54 0 01:28 02.03.2021
1980 Clouds 27 1014 83 10000 1.54 70 00:52 02.03.2021
1981 Clouds 25 1013 83 10000 1.54 70 23:29 01.03.2021
1982 Clouds 25 1013 83 10000 1.03 70 22:43 01.03.2021
1983 Clouds 25 1013 83 10000 1.03 70 22:23 01.03.2021
1984 Clouds 26 1012 83 10000 2.06 70 21:51 01.03.2021
1985 Clouds 26 1012 83 10000 2.06 70 21:24 01.03.2021
1986 Clouds 26 1012 78 10000 2.06 90 20:49 01.03.2021
1987 Clouds 26 1012 78 10000 2.06 90 20:28 01.03.2021
1988 Clouds 27 1012 78 10000 1.54 90 19:55 01.03.2021
1989 Clouds 26 1012 78 10000 1.54 90 19:33 01.03.2021
1990 Clouds 27 1013 78 10000 2.57 140 18:46 01.03.2021
1991 Clouds 27 1013 78 10000 2.57 140 18:25 01.03.2021
1992 Clouds 27 1014 69 10000 3.09 0 17:58 01.03.2021
1993 Clouds 27 1014 69 10000 3.09 0 17:39 01.03.2021
1994 Clouds 27 1014 69 10000 3.09 0 17:19 01.03.2021
1995 Clouds 27 1014 69 10000 3.09 0 17:19 01.03.2021
1996 Clouds 28 1014 74 10000 3.09 130 16:43 01.03.2021
1997 Clouds 28 1014 74 10000 3.09 130 16:24 01.03.2021
1998 Clouds 28 1014 74 10000 3.09 130 15:41 01.03.2021
1999 Clouds 28 1014 74 10000 3.09 130 15:20 01.03.2021
2000 Clouds 28 1014 74 10000 2.06 130 14:44 01.03.2021
2001 Clouds 28 1014 74 10000 2.06 130 14:26 01.03.2021
2002 Clouds 29 1013 70 10000 2.57 110 13:40 01.03.2021
2003 Clouds 29 1013 70 10000 2.57 110 13:21 01.03.2021
2004 Clouds 29 1013 70 10000 2.57 110 13:21 01.03.2021
2005 Clouds 29 1012 66 10000 3.09 80 12:51 01.03.2021
2006 Clouds 29 1012 66 10000 3.09 80 12:30 01.03.2021
2007 Clouds 29 1012 66 10000 4.12 120 11:58 01.03.2021
2008 Clouds 29 1012 66 10000 4.12 120 11:34 01.03.2021
2009 Clouds 30 1011 58 10000 4.63 0 10:44 01.03.2021
2010 Clouds 31 1011 58 10000 4.63 0 10:22 01.03.2021
2011 Clouds 31 1012 55 10000 4.63 130 09:56 01.03.2021
2012 Clouds 32 1012 55 10000 4.63 130 09:38 01.03.2021
2013 Clouds 32 1012 55 10000 4.63 130 09:19 01.03.2021
2014 Clouds 32 1011 58 10000 4.12 130 08:41 01.03.2021
2015 Clouds 32 1012 58 10000 4.12 130 07:44 01.03.2021
2016 Clouds 31 1013 62 10000 4.63 120 06:51 01.03.2021
2017 Clouds 30 1014 66 10000 4.12 100 02:47 01.03.2021
2018 Clouds 27 1014 83 10000 2.06 80 00:37 01.03.2021
2019 Clouds 26 1012 83 10000 2.06 80 23:26 28.02.2021
2020 Clouds 26 1012 78 10000 2.57 110 22:45 28.02.2021
2021 Clouds 26 1012 78 10000 2.57 110 22:21 28.02.2021
2022 Rain 27 1011 78 10000 3.09 120 21:48 28.02.2021
2023 Clouds 27 1011 78 10000 3.09 120 21:25 28.02.2021
2024 Clouds 26 1011 78 10000 3.09 100 20:52 28.02.2021
2025 Clouds 27 1011 78 10000 3.09 100 20:34 28.02.2021
2026 Clouds 27 1011 78 10000 3.6 120 19:47 28.02.2021
2027 Clouds 27 1011 78 10000 3.6 120 19:28 28.02.2021
2028 Clouds 27 1012 78 10000 2.57 120 18:47 28.02.2021
2029 Clouds 27 1012 78 10000 2.57 120 18:28 28.02.2021
2030 Clouds 27 1012 78 10000 3.09 120 17:58 28.02.2021
2031 Clouds 27 1012 78 10000 3.09 120 17:38 28.02.2021
2032 Rain 27 1012 78 10000 3.09 120 17:20 28.02.2021
2033 Clouds 27 1012 74 10000 3.09 120 16:48 28.02.2021
2034 Clouds 27 1012 74 10000 3.09 120 16:29 28.02.2021
2035 Clouds 27 1012 74 10000 3.09 120 15:52 28.02.2021
2036 Clouds 27 1012 74 10000 3.09 120 15:52 28.02.2021
2037 Clouds 28 1012 74 10000 3.09 120 15:28 28.02.2021
2038 Clouds 28 1012 74 10000 2.57 0 14:58 28.02.2021
2039 Clouds 28 1012 74 10000 2.57 0 14:35 28.02.2021
2040 Clouds 28 1011 74 10000 2.57 110 13:59 28.02.2021
2041 Clouds 28 1011 74 10000 2.57 110 13:38 28.02.2021
2042 Clouds 28 1011 74 10000 2.57 110 13:19 28.02.2021
2043 Clouds 28 1011 70 10000 3.09 110 12:53 28.02.2021
2044 Clouds 28 1011 70 10000 3.09 110 12:35 28.02.2021
2045 Clouds 29 1010 66 10000 3.09 120 11:57 28.02.2021
2046 Clouds 29 1010 66 10000 3.09 120 11:39 28.02.2021
2047 Clouds 29 1010 66 10000 3.09 120 11:19 28.02.2021
2048 Clouds 30 1010 62 10000 4.12 130 10:40 28.02.2021
2049 Clouds 30 1010 62 10000 4.12 130 10:20 28.02.2021
2050 Clouds 30 1010 58 10000 4.63 90 09:39 28.02.2021
2051 Clouds 31 1010 58 10000 4.63 90 09:20 28.02.2021
2052 Clouds 31 1010 66 10000 3.6 100 08:43 28.02.2021
2053 Clouds 31 1010 66 10000 3.6 100 08:24 28.02.2021
2054 Clouds 31 1011 62 10000 5.14 90 07:46 28.02.2021
2055 Clouds 30 1011 62 10000 5.14 90 07:25 28.02.2021
2056 Clouds 30 1012 66 10000 4.63 120 06:24 28.02.2021
2057 Clouds 31 1012 58 10000 3.09 0 05:20 28.02.2021
2058 Clouds 30 1013 66 10000 1.54 0 02:28 28.02.2021
2059 Clouds 29 1013 70 10000 0.51 0 01:28 28.02.2021
2060 Clouds 28 1012 78 10000 1.03 220 00:39 28.02.2021
2061 Clouds 27 1011 78 10000 1.03 0 23:50 27.02.2021
2062 Clouds 26 1011 78 10000 1.03 0 23:22 27.02.2021
2063 Clouds 26 1010 83 10000 0.51 0 22:50 27.02.2021
2064 Clouds 26 1010 83 10000 0.51 0 22:24 27.02.2021
2065 Clouds 27 1010 78 10000 1.03 0 21:59 27.02.2021
2066 Clouds 27 1010 78 10000 1.03 0 21:38 27.02.2021
2067 Clouds 26 1010 78 10000 1.54 90 20:56 27.02.2021
2068 Clouds 27 1010 78 10000 1.54 90 20:38 27.02.2021
2069 Clouds 27 1010 78 10000 1.54 90 20:18 27.02.2021
2070 Clouds 27 1010 78 10000 3.09 110 19:41 27.02.2021
2071 Clouds 27 1010 78 10000 3.09 110 19:23 27.02.2021
2072 Clouds 27 1011 78 10000 3.09 110 18:40 27.02.2021
2073 Clouds 27 1011 78 10000 3.09 110 18:20 27.02.2021
2074 Clouds 27 1011 74 10000 3.6 120 17:43 27.02.2021
2075 Clouds 28 1011 74 10000 3.6 120 17:20 27.02.2021
2076 Clouds 28 1011 74 10000 3.6 120 17:20 27.02.2021
2077 Clouds 28 1011 69 10000 2.57 110 16:51 27.02.2021
2078 Clouds 28 1011 69 10000 2.57 110 16:31 27.02.2021
2079 Clouds 28 1011 69 10000 3.09 130 15:53 27.02.2021
2080 Clouds 28 1011 69 10000 3.09 130 15:33 27.02.2021
2081 Clouds 28 1010 74 10000 3.09 150 14:48 27.02.2021
2082 Clouds 28 1010 74 10000 3.09 150 14:30 27.02.2021
2083 Clouds 29 1009 70 10000 2.06 0 13:49 27.02.2021
2084 Clouds 29 1009 70 10000 2.06 0 13:27 27.02.2021
2085 Clouds 29 1008 74 10000 3.09 140 12:52 27.02.2021
2086 Clouds 29 1008 74 10000 3.09 140 12:28 27.02.2021
2087 Clouds 30 1008 66 10000 3.09 0 11:56 27.02.2021
2088 Clouds 30 1008 66 10000 3.09 0 11:36 27.02.2021
2089 Clouds 30 1008 66 10000 3.09 0 11:18 27.02.2021
2090 Clouds 31 1008 62 10000 2.57 0 10:41 27.02.2021
2091 Clouds 32 1008 62 10000 2.57 0 10:18 27.02.2021
2092 Clouds 32 1008 62 10000 2.57 0 10:18 27.02.2021
2093 Clouds 32 1007 58 10000 3.09 130 09:43 27.02.2021
2094 Clouds 33 1007 58 10000 3.09 130 09:21 27.02.2021
2095 Clouds 33 1007 52 10000 1.54 0 08:39 27.02.2021
2096 Clouds 33 1007 52 10000 1.54 0 08:19 27.02.2021
2097 Rain 33 1008 66 10000 3.6 280 07:34 27.02.2021
2098 Clouds 29 1011 78 10000 3.6 310 02:56 27.02.2021
2099 Clouds 27 1010 78 10000 2.06 20 00:35 27.02.2021
2100 Clouds 26 1009 89 10000 0.51 0 23:50 26.02.2021
2101 Clouds 26 1009 89 10000 0.51 0 23:25 26.02.2021
2102 Clouds 26 1009 89 10000 0.51 0 22:42 26.02.2021
2103 Clouds 26 1009 89 10000 0.51 0 22:23 26.02.2021
2104 Clouds 26 1009 89 10000 1.03 0 21:37 26.02.2021
2105 Clouds 26 1008 89 10000 0.51 0 20:59 26.02.2021
2106 Clouds 26 1008 89 10000 0.51 0 20:41 26.02.2021
2107 Clouds 26 1008 89 10000 0.51 0 20:20 26.02.2021
2108 Clouds 27 1009 83 10000 1.54 140 19:27 26.02.2021
2109 Clouds 27 1009 83 10000 1.03 0 18:57 26.02.2021
2110 Clouds 27 1009 83 10000 1.03 0 18:38 26.02.2021
2111 Clouds 27 1009 83 10000 1.03 0 18:19 26.02.2021
2112 Clouds 27 1009 83 10000 1.03 0 17:38 26.02.2021
2113 Clouds 27 1009 83 10000 1.03 0 17:19 26.02.2021
2114 Clouds 27 1009 83 10000 2.06 160 16:48 26.02.2021
2115 Clouds 27 1009 83 10000 2.06 160 16:30 26.02.2021
2116 Clouds 27 1009 78 10000 1.54 0 15:48 26.02.2021
2117 Clouds 27 1009 78 10000 1.54 0 15:29 26.02.2021
2118 Clouds 28 1009 78 10000 2.06 0 14:59 26.02.2021
2119 Clouds 28 1009 78 10000 2.06 0 14:37 26.02.2021
2120 Clouds 28 1009 78 10000 2.06 0 14:18 26.02.2021
2121 Clouds 29 1008 70 10000 2.06 230 13:39 26.02.2021
2122 Clouds 29 1008 70 10000 2.06 230 13:20 26.02.2021
2123 Clouds 29 1008 70 10000 2.06 230 13:20 26.02.2021
2124 Clouds 29 1007 65 10000 2.57 250 12:33 26.02.2021
2125 Clouds 30 1006 62 10000 2.06 0 11:47 26.02.2021
2126 Clouds 30 1006 62 10000 2.06 0 11:20 26.02.2021
2127 Clouds 31 1006 52 10000 2.57 130 10:44 26.02.2021
2128 Clouds 32 1006 52 10000 3.6 0 09:49 26.02.2021
2129 Clouds 32 1006 52 10000 3.6 0 09:29 26.02.2021
2130 Clouds 33 1006 46 10000 3.09 0 08:41 26.02.2021
2131 Clouds 33 1006 46 10000 3.09 0 08:18 26.02.2021
2132 Clouds 33 1007 46 10000 3.09 0 07:27 26.02.2021
2133 Clouds 32 1008 46 10000 3.09 130 06:35 26.02.2021
2134 Clouds 31 1010 51 10000 3.09 0 05:20 26.02.2021
2135 Clouds 29 1009 69 10000 1.03 60 02:41 26.02.2021
2136 Clouds 26 1009 78 10000 1.03 0 00:33 26.02.2021
2137 Clouds 24 1008 83 10000 1.54 80 23:41 25.02.2021
2138 Clouds 24 1008 83 10000 1.54 80 23:19 25.02.2021
2139 Clouds 25 1007 83 10000 1.03 80 22:38 25.02.2021
2140 Clouds 25 1007 78 10000 2.06 90 21:54 25.02.2021
2141 Clouds 25 1007 78 10000 2.06 90 21:54 25.02.2021
2142 Clouds 25 1007 78 10000 2.06 90 21:33 25.02.2021
2143 Clouds 26 1007 78 10000 1.54 0 20:57 25.02.2021
2144 Clouds 26 1007 78 10000 1.54 0 20:37 25.02.2021
2145 Clouds 26 1007 78 10000 1.54 0 20:19 25.02.2021
2146 Clouds 26 1007 78 10000 3.09 0 19:49 25.02.2021
2147 Clouds 26 1007 78 10000 3.09 0 19:21 25.02.2021
2148 Clouds 26 1008 78 10000 2.57 0 18:44 25.02.2021
2149 Clouds 26 1008 78 10000 2.57 0 18:18 25.02.2021
2150 Clouds 26 1008 78 10000 2.06 140 17:42 25.02.2021
2151 Clouds 27 1008 78 10000 2.06 140 17:22 25.02.2021
2152 Clouds 27 1008 78 10000 2.57 0 16:34 25.02.2021
2153 Clouds 27 1008 78 10000 2.57 140 15:51 25.02.2021
2154 Clouds 27 1008 78 10000 2.57 140 15:28 25.02.2021
2155 Clouds 27 1008 78 10000 2.57 150 14:40 25.02.2021
2156 Clouds 27 1008 78 10000 2.57 150 14:20 25.02.2021
2157 Clouds 28 1007 74 10000 2.57 0 13:44 25.02.2021
2158 Clouds 28 1007 74 10000 2.57 0 13:23 25.02.2021
2159 Clouds 29 1006 54 10000 2.57 120 12:39 25.02.2021
2160 Clouds 29 1006 54 10000 2.57 120 12:20 25.02.2021
2161 Clouds 30 1006 51 10000 3.09 120 11:43 25.02.2021
2162 Clouds 31 1006 48 10000 2.57 110 10:53 25.02.2021
2163 Clouds 31 1006 48 10000 2.57 110 10:35 25.02.2021
2164 Clouds 32 1005 49 10000 3.09 120 09:48 25.02.2021
2165 Clouds 32 1005 49 10000 3.09 120 09:26 25.02.2021
2166 Clouds 32 1006 49 10000 3.6 100 08:40 25.02.2021
2167 Clouds 32 1006 49 10000 3.6 100 08:21 25.02.2021
2168 Clouds 32 1007 49 10000 3.6 100 07:42 25.02.2021
2169 Clouds 32 1008 55 10000 4.12 110 06:58 25.02.2021
2170 Clouds 31 1009 55 10000 4.12 130 05:29 25.02.2021
2171 Clouds 29 1009 65 10000 2.06 100 01:50 25.02.2021
2172 Clouds 29 1009 65 10000 2.06 100 01:50 25.02.2021
2173 Clouds 27 1009 83 10000 1.03 0 00:48 25.02.2021
2174 Clouds 26 1009 83 10000 1.03 0 00:20 25.02.2021
2175 Clouds 25 1009 83 10000 1.54 80 23:36 24.02.2021
2176 Clouds 26 1008 78 10000 1.54 100 22:56 24.02.2021
2177 Clouds 26 1008 78 10000 1.54 100 22:30 24.02.2021
2178 Clouds 26 1008 78 10000 2.06 120 21:50 24.02.2021
2179 Clouds 26 1008 78 10000 2.06 120 21:31 24.02.2021
2180 Clouds 26 1008 78 10000 2.57 120 20:50 24.02.2021
2181 Clouds 26 1008 78 10000 2.57 120 20:28 24.02.2021
2182 Clouds 27 1008 78 10000 2.57 110 19:43 24.02.2021
2183 Clouds 27 1008 78 10000 2.57 110 19:21 24.02.2021
2184 Clouds 27 1008 78 10000 2.06 40 18:53 24.02.2021
2185 Clouds 27 1008 78 10000 2.06 40 18:30 24.02.2021
2186 Clouds 27 1009 78 10000 2.57 100 17:40 24.02.2021
2187 Clouds 27 1009 78 10000 2.57 100 17:22 24.02.2021
2188 Clouds 27 1009 74 10000 3.6 110 16:48 24.02.2021
2189 Clouds 27 1009 74 10000 3.6 110 16:21 24.02.2021
2190 Clouds 27 1009 74 10000 3.6 110 15:55 24.02.2021
2191 Clouds 27 1009 74 10000 3.6 110 15:32 24.02.2021
2192 Clouds 28 1008 74 10000 4.12 120 14:47 24.02.2021
2193 Clouds 28 1008 74 10000 4.12 120 14:28 24.02.2021
2194 Clouds 28 1008 70 10000 3.6 120 13:43 24.02.2021
2195 Clouds 28 1008 70 10000 3.6 120 13:23 24.02.2021
2196 Clouds 28 1007 74 10000 3.09 140 12:57 24.02.2021
2197 Clouds 28 1007 74 10000 3.09 140 12:35 24.02.2021
2198 Clouds 29 1007 74 10000 3.09 0 11:56 24.02.2021
2199 Clouds 29 1007 74 10000 3.09 0 11:31 24.02.2021
2200 Clouds 30 1006 70 10000 3.6 0 10:41 24.02.2021
2201 Clouds 30 1006 70 10000 3.6 0 10:22 24.02.2021
2202 Clouds 30 1006 62 10000 3.6 140 09:26 24.02.2021
2203 Clouds 30 1005 62 10000 4.12 0 08:45 24.02.2021
2204 Clouds 31 1005 62 10000 4.12 0 08:24 24.02.2021
2205 Clouds 31 1005 62 10000 4.12 0 08:24 24.02.2021
2206 Clouds 31 1005 62 10000 4.12 0 08:24 24.02.2021
2207 Clouds 31 1006 55 10000 3.09 140 07:37 24.02.2021
2208 Clouds 32 1006 55 10000 3.09 140 07:18 24.02.2021
2209 Haze 31 1008 74 9000 3.09 310 05:22 24.02.2021
2210 Clouds 26 1009 94 10000 1.03 0 00:47 24.02.2021
2211 Clouds 25 1009 94 10000 1.03 0 23:38 23.02.2021
2212 Clouds 25 1008 94 10000 0.51 0 22:43 23.02.2021
2213 Clouds 25 1008 94 10000 0.51 0 22:22 23.02.2021
2214 Clouds 25 1008 89 10000 0.51 0 21:47 23.02.2021
2215 Clouds 25 1008 89 10000 0.51 0 21:24 23.02.2021
2216 Clouds 25 1008 89 10000 0.51 0 20:50 23.02.2021
2217 Clouds 25 1008 89 10000 0.51 0 20:30 23.02.2021
2218 Clouds 25 1009 89 10000 1.03 240 19:49 23.02.2021
2219 Clouds 26 1009 89 10000 1.03 240 19:29 23.02.2021
2220 Clouds 26 1009 89 10000 1.03 0 18:59 23.02.2021
2221 Clouds 26 1009 89 10000 1.03 0 18:41 23.02.2021
2222 Clouds 26 1009 89 10000 1.03 0 18:20 23.02.2021
2223 Clouds 26 1009 83 10000 1.54 190 17:46 23.02.2021
2224 Clouds 26 1009 83 10000 1.54 190 17:18 23.02.2021
2225 Clouds 26 1009 83 10000 2.06 210 16:43 23.02.2021
2226 Clouds 26 1009 83 10000 2.06 210 16:20 23.02.2021
2227 Clouds 27 1009 78 10000 1.54 210 15:42 23.02.2021
2228 Clouds 27 1009 78 10000 1.54 210 15:23 23.02.2021
2229 Clouds 27 1009 78 10000 1.03 0 14:46 23.02.2021
2230 Clouds 27 1009 78 10000 1.03 0 14:26 23.02.2021
2231 Clouds 28 1008 74 10000 1.03 0 13:55 23.02.2021
2232 Clouds 28 1008 74 10000 1.03 0 13:32 23.02.2021
2233 Clouds 28 1008 70 10000 2.06 0 12:54 23.02.2021
2234 Clouds 28 1008 70 10000 2.06 0 12:22 23.02.2021
2235 Clouds 29 1007 66 10000 1.54 0 11:51 23.02.2021
2236 Clouds 29 1007 66 10000 1.54 0 11:23 23.02.2021
2237 Clouds 30 1007 66 10000 1.54 0 10:53 23.02.2021
2238 Clouds 30 1007 66 10000 1.54 0 10:35 23.02.2021
2239 Clouds 30 1006 62 10000 3.09 90 09:45 23.02.2021
2240 Clouds 31 1006 62 10000 3.09 90 09:25 23.02.2021
2241 Clouds 31 1006 58 10000 4.12 80 08:57 23.02.2021
2242 Clouds 31 1006 58 10000 4.12 80 08:39 23.02.2021
2243 Clouds 31 1006 58 10000 4.12 80 08:20 23.02.2021
2244 Clouds 30 1008 66 10000 4.12 90 06:41 23.02.2021
2245 Clouds 29 1009 70 10000 4.63 90 05:22 23.02.2021
2246 Mist 25 1010 88 5000 0.51 0 02:36 23.02.2021
2247 Clouds 25 1009 83 9000 2.57 320 00:54 23.02.2021
2248 Clouds 24 1009 83 9000 2.57 320 00:18 23.02.2021
2249 Clouds 24 1008 83 10000 1.54 0 23:24 22.02.2021
2250 Clouds 24 1008 88 7000 2.57 10 22:41 22.02.2021
2251 Clouds 24 1008 88 7000 2.57 10 22:21 22.02.2021
2252 Clouds 24 1008 94 7000 2.57 340 21:46 22.02.2021
2253 Clouds 24 1008 94 7000 2.57 340 21:23 22.02.2021
2254 Clouds 24 1008 94 6000 1.03 0 20:53 22.02.2021
2255 Clouds 24 1008 94 6000 1.03 0 20:29 22.02.2021
2256 Clouds 24 1009 94 8000 3.97 8 19:54 22.02.2021
2257 Clouds 24 1009 94 8000 3.97 8 19:35 22.02.2021
2258 Clouds 24 1010 94 8000 1.03 0 18:57 22.02.2021
2259 Clouds 24 1010 94 8000 1.03 0 18:57 22.02.2021
2260 Rain 24 1010 94 8000 1.03 0 18:39 22.02.2021
2261 Rain 25 1010 94 8000 1.03 0 18:20 22.02.2021
2262 Clouds 25 1010 94 7000 2.06 210 17:26 22.02.2021
2263 Mist 25 1010 94 5000 1.03 0 16:55 22.02.2021
2264 Mist 25 1010 94 5000 1.03 0 16:35 22.02.2021
2265 Rain 25 1011 94 3500 0.51 0 15:47 22.02.2021
2266 Mist 25 1011 94 3500 0.51 0 15:28 22.02.2021
2267 Mist 25 1010 94 5000 1.69 22 14:47 22.02.2021
2268 Mist 25 1010 94 5000 1.28 11 14:28 22.02.2021
2269 Mist 25 1010 89 5000 0.51 0 13:46 22.02.2021
2270 Rain 25 1009 89 5000 2.87 343 12:58 22.02.2021
2271 Rain 25 1009 89 5000 2.87 343 12:36 22.02.2021
2272 Rain 25 1009 89 5000 1.67 19 12:18 22.02.2021
2273 Rain 25 1009 83 5000 1.03 0 11:41 22.02.2021
2274 Rain 26 1009 83 5000 1.03 0 11:22 22.02.2021
2275 Rain 26 1009 89 8000 0.51 0 10:46 22.02.2021
2276 Rain 26 1009 89 8000 0.51 0 10:22 22.02.2021
2277 Rain 26 1009 83 10000 2.57 260 09:42 22.02.2021
2278 Rain 26 1009 83 10000 2.57 260 09:24 22.02.2021
2279 Rain 27 1009 83 10000 2.06 260 08:49 22.02.2021
2280 Rain 27 1009 83 10000 2.06 260 08:24 22.02.2021
2281 Rain 27 1009 83 9000 1.54 280 07:53 22.02.2021
2282 Rain 26 1009 83 9000 1.54 280 07:25 22.02.2021
2283 Rain 26 1010 78 9000 1.03 0 06:29 22.02.2021
2284 Rain 26 1011 83 9000 2.06 250 05:26 22.02.2021
2285 Clouds 26 1012 78 9000 2.06 270 03:24 22.02.2021
2286 Rain 26 1012 78 10000 1.03 0 02:31 22.02.2021
2287 Clouds 24 1012 83 10000 1.03 0 00:44 22.02.2021
2288 Clouds 24 1012 83 10000 1.03 0 00:19 22.02.2021
2289 Clouds 24 1011 88 10000 1.54 240 23:27 21.02.2021
2290 Clouds 23 1010 88 10000 1.03 280 22:37 21.02.2021
2291 Clouds 23 1010 88 10000 1.54 270 21:59 21.02.2021
2292 Clouds 23 1010 88 10000 1.54 270 21:35 21.02.2021
2293 Clouds 24 1010 83 10000 1.03 0 20:58 21.02.2021
2294 Clouds 24 1010 83 10000 1.03 0 20:39 21.02.2021
2295 Clouds 24 1010 83 10000 1.03 0 20:19 21.02.2021
2296 Clouds 24 1010 83 10000 0.51 0 19:46 21.02.2021
2297 Clouds 24 1010 83 10000 0.51 0 19:26 21.02.2021
2298 Clouds 24 1010 78 10000 2.57 60 18:39 21.02.2021
2299 Clouds 24 1010 78 10000 2.57 60 18:21 21.02.2021
2300 Rain 24 1010 73 10000 3.6 20 17:29 21.02.2021
2301 Rain 24 1010 73 10000 3.6 20 17:29 21.02.2021
2302 Clouds 24 1012 78 10000 1.03 0 16:55 21.02.2021
2303 Rain 24 1012 78 10000 1.03 0 16:33 21.02.2021
2304 Rain 25 1013 83 10000 1.03 0 15:54 21.02.2021
2305 Clouds 25 1013 83 10000 1.03 0 15:21 21.02.2021
2306 Clouds 25 1013 78 10000 1.03 0 14:42 21.02.2021
2307 Clouds 25 1013 78 10000 1.03 0 14:42 21.02.2021
2308 Clouds 25 1013 78 10000 1.03 0 14:22 21.02.2021
2309 Clouds 25 1013 78 10000 3.6 100 13:46 21.02.2021
2310 Rain 25 1013 78 10000 3.6 100 13:23 21.02.2021
2311 Clouds 26 1012 65 10000 3.6 100 12:31 21.02.2021
2312 Clouds 27 1012 69 10000 2.06 0 11:45 21.02.2021
2313 Clouds 27 1011 65 10000 2.06 0 10:59 21.02.2021
2314 Clouds 27 1011 65 10000 2.06 0 10:24 21.02.2021
2315 Clouds 27 1010 65 10000 1.03 0 09:57 21.02.2021
2316 Clouds 28 1010 65 10000 1.03 0 09:31 21.02.2021
2317 Clouds 27 1011 73 10000 2.57 250 08:58 21.02.2021
2318 Clouds 27 1011 73 10000 2.57 250 08:23 21.02.2021
2319 Clouds 28 1011 61 10000 4.12 300 07:35 21.02.2021
2320 Clouds 29 1012 61 10000 4.63 280 06:55 21.02.2021
2321 Clouds 27 1015 57 10000 1.03 0 03:39 21.02.2021
2322 Clouds 25 1015 57 10000 1.54 60 02:30 21.02.2021
2323 Clouds 23 1013 73 9000 1.54 320 00:44 21.02.2021
2324 Clouds 23 1013 73 9000 1.54 320 00:19 21.02.2021
2325 Clouds 22 1013 78 9000 2.06 330 23:25 20.02.2021
2326 Clouds 22 1012 68 10000 2.44 1 22:44 20.02.2021
2327 Clouds 22 1012 68 10000 2.17 14 22:25 20.02.2021
2328 Clouds 22 1012 73 10000 1.03 0 21:45 20.02.2021
2329 Clouds 22 1012 73 10000 1.03 0 21:24 20.02.2021
2330 Clouds 22 1012 68 10000 0.51 0 20:46 20.02.2021
2331 Clouds 22 1012 68 10000 0.51 0 20:22 20.02.2021
2332 Clouds 23 1013 73 10000 1.03 0 19:52 20.02.2021
2333 Clouds 23 1013 73 10000 1.03 0 19:29 20.02.2021
2334 Clouds 23 1013 68 10000 1.03 0 18:41 20.02.2021
2335 Clouds 23 1013 68 10000 1.03 0 18:21 20.02.2021
2336 Clouds 23 1014 68 10000 1.54 130 17:38 20.02.2021
2337 Rain 23 1014 68 10000 1.54 100 16:56 20.02.2021
2338 Clouds 23 1014 68 10000 1.54 100 16:32 20.02.2021
2339 Clouds 24 1014 60 10000 1.03 80 15:53 20.02.2021
2340 Clouds 24 1014 60 10000 1.03 80 15:31 20.02.2021
2341 Clouds 24 1014 60 10000 1.03 90 14:47 20.02.2021
2342 Clouds 24 1014 60 10000 1.03 90 14:23 20.02.2021
2343 Clouds 24 1014 57 10000 2.57 80 13:47 20.02.2021
2344 Clouds 24 1014 57 10000 2.57 80 13:47 20.02.2021
2345 Clouds 24 1014 57 10000 2.57 80 13:24 20.02.2021
2346 Clouds 24 1013 57 10000 4.12 70 12:50 20.02.2021
2347 Clouds 25 1013 57 10000 4.12 70 12:23 20.02.2021
2348 Clouds 25 1013 50 10000 5.14 80 11:44 20.02.2021
2349 Clouds 25 1013 50 10000 5.14 80 11:44 20.02.2021
2350 Clouds 25 1013 50 10000 5.14 80 11:24 20.02.2021
2351 Clouds 26 1012 50 10000 6.17 80 10:49 20.02.2021
2352 Clouds 27 1012 50 10000 4.12 80 09:55 20.02.2021
2353 Clouds 27 1012 50 10000 4.12 80 09:28 20.02.2021
2354 Clouds 28 1012 45 10000 4.12 100 08:35 20.02.2021
2355 Clouds 28 1013 42 10000 4.63 90 07:57 20.02.2021
2356 Clouds 26 1016 61 10000 4.63 70 02:46 20.02.2021
2357 Clouds 26 1016 61 10000 4.63 70 02:24 20.02.2021
2358 Clouds 25 1016 57 10000 1.03 0 01:48 20.02.2021
2359 Clouds 24 1015 64 10000 0.51 0 00:45 20.02.2021
2360 Clouds 22 1015 68 10000 1.03 0 23:52 19.02.2021
2361 Clouds 23 1014 64 10000 1.03 0 22:56 19.02.2021
2362 Clouds 23 1014 64 10000 1.03 0 22:27 19.02.2021
2363 Clouds 23 1014 64 10000 1.54 50 21:50 19.02.2021
2364 Clouds 23 1014 64 10000 1.54 50 21:30 19.02.2021
2365 Clouds 23 1015 64 10000 1.03 0 20:48 19.02.2021
2366 Clouds 24 1015 64 10000 1.03 0 20:28 19.02.2021
2367 Clouds 24 1014 64 10000 1.03 0 19:55 19.02.2021
2368 Clouds 23 1014 64 10000 1.03 0 19:24 19.02.2021
2369 Clouds 24 1015 64 10000 2.06 70 18:56 19.02.2021
2370 Clouds 24 1015 64 10000 2.06 70 18:33 19.02.2021
2371 Clouds 24 1015 64 10000 1.54 70 17:49 19.02.2021
2372 Clouds 24 1016 61 10000 2.57 90 16:52 19.02.2021
2373 Clouds 24 1016 61 10000 2.57 90 16:27 19.02.2021
2374 Clouds 24 1016 57 10000 3.6 90 15:57 19.02.2021
2375 Clouds 25 1016 57 10000 3.6 90 15:31 19.02.2021
2376 Clouds 25 1016 57 10000 4.12 80 14:56 19.02.2021
2377 Clouds 25 1016 57 10000 4.12 80 14:36 19.02.2021
2378 Clouds 24 1016 57 10000 3.09 100 13:58 19.02.2021
2379 Clouds 24 1016 57 10000 3.09 100 13:37 19.02.2021
2380 Clouds 24 1016 57 10000 3.09 100 13:19 19.02.2021
2381 Clouds 25 1015 57 10000 3.6 90 12:41 19.02.2021
2382 Clouds 25 1015 57 10000 3.6 90 12:22 19.02.2021
2383 Clouds 25 1014 53 10000 6.17 80 11:44 19.02.2021
2384 Clouds 25 1014 53 10000 6.17 80 11:20 19.02.2021
2385 Clouds 26 1013 54 10000 4.63 90 10:39 19.02.2021
2386 Clouds 26 1013 54 10000 4.63 90 10:19 19.02.2021
2387 Clouds 27 1014 59 10000 6.69 90 09:38 19.02.2021
2388 Clouds 27 1013 57 10000 6.69 90 09:19 19.02.2021
2389 Clouds 28 1013 48 10000 5.14 90 08:49 19.02.2021
2390 Clouds 29 1013 48 10000 5.14 90 08:21 19.02.2021
2391 Clouds 29 1013 48 10000 6.17 90 07:47 19.02.2021
2392 Clouds 29 1013 48 10000 6.17 90 07:26 19.02.2021
2393 Clouds 28 1014 54 10000 5.66 90 06:47 19.02.2021
2394 Clouds 28 1016 57 10000 2.57 240 04:42 19.02.2021
2395 Clouds 27 1016 61 10000 3.6 290 03:32 19.02.2021
2396 Clouds 26 1016 61 10000 2.06 190 01:46 19.02.2021
2397 Clouds 26 1016 61 10000 2.06 190 01:46 19.02.2021
2398 Clouds 24 1015 69 10000 2.06 10 00:36 19.02.2021
2399 Clouds 24 1015 69 10000 2.06 10 23:48 18.02.2021
2400 Clouds 24 1015 69 10000 2.06 10 23:30 18.02.2021
2401 Clouds 24 1014 69 10000 2.06 10 22:42 18.02.2021
2402 Clouds 24 1014 69 10000 2.06 10 22:24 18.02.2021
2403 Clouds 24 1014 69 10000 2.57 20 21:42 18.02.2021
2404 Clouds 24 1014 69 10000 2.57 20 21:24 18.02.2021
2405 Clouds 24 1014 69 10000 3.09 10 20:40 18.02.2021
2406 Clouds 24 1014 69 10000 3.09 10 20:21 18.02.2021
2407 Clouds 24 1015 65 10000 2.57 10 19:46 18.02.2021
2408 Clouds 24 1015 65 10000 2.57 10 19:21 18.02.2021
2409 Clouds 25 1015 65 10000 4.12 20 18:51 18.02.2021
2410 Clouds 25 1015 65 10000 4.12 20 18:26 18.02.2021
2411 Clouds 25 1016 69 10000 4.12 20 17:52 18.02.2021
2412 Clouds 25 1016 69 10000 4.12 20 17:25 18.02.2021
2413 Clouds 25 1016 65 10000 2.57 360 16:51 18.02.2021
2414 Clouds 25 1016 65 10000 2.57 360 16:32 18.02.2021
2415 Clouds 25 1016 73 10000 2.06 120 15:43 18.02.2021
2416 Clouds 25 1016 73 10000 2.06 120 15:24 18.02.2021
2417 Clouds 25 1016 69 10000 1.54 100 14:56 18.02.2021
2418 Clouds 26 1016 69 10000 1.54 100 14:34 18.02.2021
2419 Clouds 26 1015 65 10000 5.14 60 13:50 18.02.2021
2420 Clouds 26 1015 65 10000 5.14 60 13:22 18.02.2021
2421 Clouds 26 1014 57 10000 3.6 80 12:56 18.02.2021
2422 Clouds 26 1014 57 10000 3.6 80 12:36 18.02.2021
2423 Clouds 27 1013 54 10000 4.63 90 11:48 18.02.2021
2424 Clouds 27 1013 54 10000 4.63 90 11:28 18.02.2021
2425 Clouds 28 1013 94 10000 6.69 70 10:58 18.02.2021
2426 Clouds 28 1013 94 10000 6.69 70 10:40 18.02.2021
2427 Clouds 29 1013 94 10000 6.69 70 10:20 18.02.2021
2428 Clouds 29 1012 54 10000 4.63 80 09:32 18.02.2021
2429 Clouds 30 1012 48 10000 4.12 90 08:59 18.02.2021
2430 Clouds 30 1012 48 10000 4.12 90 08:31 18.02.2021
2431 Clouds 30 1013 51 10000 4.12 100 07:58 18.02.2021
2432 Clouds 30 1013 51 10000 4.12 100 07:30 18.02.2021
2433 Clouds 30 1013 51 10000 4.63 90 06:20 18.02.2021
2434 Clouds 25 1015 78 10000 1.03 0 00:53 18.02.2021
2435 Clouds 24 1014 73 10000 1.03 70 23:47 17.02.2021
2436 Clouds 25 1014 73 10000 1.03 70 23:19 17.02.2021
2437 Clouds 25 1013 69 10000 0.51 0 22:44 17.02.2021
2438 Clouds 25 1013 69 10000 0.51 0 22:22 17.02.2021
2439 Clouds 25 1013 69 10000 1.03 0 21:46 17.02.2021
2440 Clouds 25 1013 69 10000 1.03 0 21:21 17.02.2021
2441 Clouds 25 1013 78 10000 1.54 70 20:43 17.02.2021
2442 Clouds 25 1013 78 10000 1.54 70 20:24 17.02.2021
2443 Clouds 25 1013 78 10000 1.03 0 19:38 17.02.2021
2444 Clouds 25 1013 78 10000 1.03 0 19:19 17.02.2021
2445 Clouds 26 1013 73 10000 2.57 120 18:40 17.02.2021
2446 Clouds 26 1014 73 10000 2.06 100 17:59 17.02.2021
2447 Clouds 26 1014 73 10000 2.06 100 17:36 17.02.2021
2448 Clouds 26 1014 73 10000 2.06 100 17:18 17.02.2021
2449 Clouds 26 1014 73 10000 1.54 110 16:42 17.02.2021
2450 Clouds 26 1014 73 10000 1.54 110 16:22 17.02.2021
2451 Clouds 26 1014 73 10000 2.06 110 15:43 17.02.2021
2452 Clouds 26 1014 73 10000 2.06 110 15:22 17.02.2021
2453 Clouds 26 1014 73 10000 3.09 120 14:45 17.02.2021
2454 Clouds 26 1014 73 10000 3.09 120 14:26 17.02.2021
2455 Clouds 27 1013 65 10000 3.09 120 13:45 17.02.2021
2456 Clouds 27 1013 65 10000 3.09 120 13:24 17.02.2021
2457 Clouds 27 1012 69 10000 4.12 110 12:39 17.02.2021
2458 Clouds 27 1012 69 10000 4.12 110 12:20 17.02.2021
2459 Clouds 28 1011 58 10000 5.66 120 11:36 17.02.2021
2460 Clouds 29 1011 58 10000 5.66 120 11:18 17.02.2021
2461 Clouds 29 1011 58 10000 5.66 120 10:44 17.02.2021
2462 Clouds 29 1011 58 10000 5.66 120 10:23 17.02.2021
2463 Clouds 29 1011 62 10000 5.14 140 09:44 17.02.2021
2464 Clouds 30 1011 62 10000 5.14 140 09:25 17.02.2021
2465 Clouds 30 1010 74 10000 3.6 160 08:42 17.02.2021
2466 Clouds 30 1010 74 10000 3.6 160 08:21 17.02.2021
2467 Clouds 30 1011 51 10000 3.6 0 07:26 17.02.2021
2468 Clouds 30 1012 58 10000 3.09 0 05:53 17.02.2021
2469 Clouds 28 1014 69 10000 1.54 260 02:34 17.02.2021
2470 Clouds 27 1014 69 10000 0.85 44 01:55 17.02.2021
2471 Clouds 24 1013 78 10000 0.51 0 00:33 17.02.2021
2472 Clouds 23 1012 83 10000 1.03 80 23:54 16.02.2021
2473 Clouds 23 1012 83 10000 1.03 80 23:34 16.02.2021
2474 Clouds 23 1012 78 10000 1.03 0 22:43 16.02.2021
2475 Clouds 24 1012 78 10000 1.03 0 22:24 16.02.2021
2476 Clouds 24 1012 78 10000 1.03 0 21:42 16.02.2021
2477 Clouds 24 1012 78 10000 1.03 0 21:22 16.02.2021
2478 Clouds 24 1012 78 10000 1.03 0 20:59 16.02.2021
2479 Clouds 24 1012 78 10000 1.03 0 20:41 16.02.2021
2480 Clouds 24 1012 78 10000 1.03 0 20:20 16.02.2021
2481 Clouds 25 1012 73 10000 1.54 110 19:42 16.02.2021
2482 Clouds 25 1012 73 10000 1.54 110 19:22 16.02.2021
2483 Clouds 25 1012 78 10000 2.06 120 18:40 16.02.2021
2484 Clouds 25 1012 78 10000 2.06 120 18:22 16.02.2021
2485 Clouds 25 1013 73 10000 1.54 120 17:50 16.02.2021
2486 Clouds 25 1013 73 10000 1.54 120 17:26 16.02.2021
2487 Rain 25 1013 73 10000 2.06 120 16:51 16.02.2021
2488 Clouds 26 1013 73 10000 2.06 120 16:29 16.02.2021
2489 Clouds 26 1013 73 10000 3.09 120 15:47 16.02.2021
2490 Clouds 26 1013 73 10000 3.09 120 15:26 16.02.2021
2491 Clouds 26 1012 73 10000 3.09 110 14:50 16.02.2021
2492 Rain 26 1012 73 10000 3.09 110 14:32 16.02.2021
2493 Clouds 26 1012 69 10000 2.06 110 13:58 16.02.2021
2494 Clouds 26 1012 69 10000 2.06 110 13:34 16.02.2021
2495 Clouds 26 1011 69 10000 2.57 110 12:47 16.02.2021
2496 Clouds 27 1011 69 10000 2.57 110 12:26 16.02.2021
2497 Clouds 27 1010 65 10000 3.6 110 11:50 16.02.2021
2498 Clouds 27 1010 65 10000 3.6 110 11:24 16.02.2021
2499 Clouds 28 1010 61 10000 5.14 110 10:57 16.02.2021
2500 Clouds 28 1010 61 10000 5.14 110 10:38 16.02.2021
2501 Clouds 29 1010 61 10000 5.14 110 10:20 16.02.2021
2502 Clouds 29 1010 62 10000 3.6 110 09:47 16.02.2021
2503 Clouds 29 1010 62 10000 3.6 110 09:26 16.02.2021
2504 Clouds 30 1010 62 10000 4.12 0 08:45 16.02.2021
2505 Clouds 30 1010 62 10000 4.12 0 08:45 16.02.2021
2506 Clouds 30 1010 62 10000 4.12 0 08:22 16.02.2021
2507 Clouds 30 1010 58 10000 3.6 130 07:30 16.02.2021
2508 Clouds 30 1011 58 10000 2.57 0 06:21 16.02.2021
2509 Rain 27 1013 65 10000 2.06 70 01:21 16.02.2021
2510 Clouds 24 1012 78 10000 1.03 0 23:46 15.02.2021
2511 Clouds 24 1012 78 10000 1.03 0 23:24 15.02.2021
2512 Clouds 24 1011 73 10000 1.54 90 22:44 15.02.2021
2513 Clouds 24 1011 73 10000 1.54 90 22:23 15.02.2021
2514 Clouds 24 1011 73 10000 2.57 110 21:42 15.02.2021
2515 Clouds 25 1011 73 10000 2.57 110 21:22 15.02.2021
2516 Clouds 25 1011 78 10000 1.54 100 20:47 15.02.2021
2517 Clouds 25 1011 78 10000 1.54 100 20:27 15.02.2021
2518 Clouds 25 1011 73 10000 2.06 120 19:44 15.02.2021
2519 Clouds 25 1011 73 10000 2.06 120 19:23 15.02.2021
2520 Clouds 26 1012 73 10000 4.12 120 18:47 15.02.2021
2521 Clouds 26 1012 73 10000 4.12 120 18:26 15.02.2021
2522 Clouds 26 1012 73 10000 2.57 120 17:43 15.02.2021
2523 Clouds 26 1012 73 10000 2.57 120 17:25 15.02.2021
2524 Clouds 26 1012 73 10000 2.57 120 16:57 15.02.2021
2525 Clouds 26 1012 73 10000 2.57 120 16:28 15.02.2021
2526 Clouds 26 1012 73 10000 3.09 110 15:52 15.02.2021
2527 Clouds 26 1012 73 10000 3.09 110 15:25 15.02.2021
2528 Clouds 26 1012 73 10000 2.57 120 14:59 15.02.2021
2529 Clouds 26 1012 73 10000 2.57 120 14:36 15.02.2021
2530 Clouds 26 1012 73 10000 2.57 120 14:18 15.02.2021
2531 Clouds 26 1011 78 10000 3.09 100 13:45 15.02.2021
2532 Clouds 26 1011 78 10000 3.09 100 13:19 15.02.2021
2533 Clouds 26 1011 74 10000 3.09 110 12:44 15.02.2021
2534 Clouds 26 1011 74 10000 3.09 110 12:20 15.02.2021
2535 Clouds 27 1010 74 10000 3.6 110 11:42 15.02.2021
2536 Rain 27 1010 74 10000 3.6 110 11:19 15.02.2021
2537 Clouds 27 1009 69 10000 4.63 110 10:47 15.02.2021
2538 Clouds 27 1009 69 10000 4.63 110 10:24 15.02.2021
2539 Clouds 28 1009 70 10000 4.63 120 09:55 15.02.2021
2540 Clouds 28 1009 70 10000 4.63 120 09:33 15.02.2021
2541 Clouds 28 1009 65 10000 5.14 110 08:45 15.02.2021
2542 Clouds 29 1010 62 10000 4.12 120 07:40 15.02.2021
2543 Clouds 29 1010 62 10000 4.12 120 07:40 15.02.2021
2544 Clouds 30 1011 66 10000 2.57 0 06:58 15.02.2021
2545 Clouds 29 1011 66 10000 2.57 0 06:37 15.02.2021
2546 Clouds 28 1012 78 10000 1.03 0 02:30 15.02.2021
2547 Clouds 26 1011 88 10000 0.51 0 00:45 15.02.2021
2548 Clouds 25 1011 88 9000 1.64 94 23:34 14.02.2021
2549 Clouds 25 1010 88 10000 0.51 0 22:55 14.02.2021
2550 Clouds 25 1010 88 10000 0.51 0 22:37 14.02.2021
2551 Clouds 25 1010 88 10000 0.51 0 22:18 14.02.2021
2552 Clouds 25 1010 88 10000 0.51 0 21:47 14.02.2021
2553 Clouds 25 1010 88 10000 0.51 0 21:28 14.02.2021
2554 Clouds 25 1010 83 10000 1.03 0 20:42 14.02.2021
2555 Clouds 25 1010 83 10000 1.03 0 20:22 14.02.2021
2556 Rain 26 1011 83 10000 2.47 105 19:40 14.02.2021
2557 Clouds 26 1011 83 10000 1.03 0 18:51 14.02.2021
2558 Clouds 26 1011 83 10000 1.03 0 18:51 14.02.2021
2559 Clouds 26 1011 83 10000 1.03 0 18:29 14.02.2021
2560 Clouds 26 1012 83 10000 1.54 180 17:51 14.02.2021
2561 Clouds 26 1012 83 10000 1.54 180 17:33 14.02.2021
2562 Clouds 26 1012 83 10000 1.54 180 16:48 14.02.2021
2563 Clouds 26 1012 83 10000 1.54 180 16:25 14.02.2021
2564 Clouds 26 1011 83 10000 2.57 170 15:49 14.02.2021
2565 Clouds 26 1011 83 10000 2.57 170 15:29 14.02.2021
2566 Clouds 26 1011 78 10000 3.09 180 14:45 14.02.2021
2567 Clouds 26 1011 78 10000 3.09 180 14:25 14.02.2021
2568 Clouds 27 1011 83 10000 2.06 210 13:42 14.02.2021
2569 Clouds 27 1011 83 10000 2.06 210 13:23 14.02.2021
2570 Clouds 27 1010 78 10000 3.09 220 12:26 14.02.2021
2571 Clouds 27 1010 78 10000 4.63 260 11:59 14.02.2021
2572 Clouds 27 1010 78 10000 4.63 260 11:40 14.02.2021
2573 Clouds 27 1010 78 10000 4.63 260 11:20 14.02.2021
2574 Clouds 29 1009 70 10000 3.09 270 10:31 14.02.2021
2575 Clouds 30 1009 66 10000 3.09 280 09:41 14.02.2021
2576 Clouds 30 1009 66 10000 3.09 280 09:21 14.02.2021
2577 Clouds 30 1009 66 10000 2.57 290 08:58 14.02.2021
2578 Clouds 30 1009 66 10000 2.57 290 08:18 14.02.2021
2579 Clouds 30 1010 70 10000 2.57 290 07:19 14.02.2021
2580 Clouds 30 1011 70 10000 3.6 290 06:26 14.02.2021
2581 Clouds 28 1012 74 10000 2.57 260 03:59 14.02.2021
2582 Clouds 27 1012 74 10000 1.54 200 02:29 14.02.2021
2583 Clouds 26 1012 88 10000 1.36 103 00:59 14.02.2021
2584 Clouds 25 1012 88 10000 1.36 103 00:41 14.02.2021
2585 Rain 25 1011 83 10000 1.31 86 23:49 13.02.2021
2586 Clouds 25 1011 83 10000 1.3 87 23:25 13.02.2021
2587 Clouds 24 1011 83 10000 1.3 87 22:51 13.02.2021
2588 Clouds 24 1011 83 10000 1.46 84 22:22 13.02.2021
2589 Rain 25 1011 83 10000 0.51 0 21:49 13.02.2021
2590 Clouds 25 1011 83 10000 0.51 0 21:26 13.02.2021
2591 Clouds 25 1011 83 10000 0.51 0 21:26 13.02.2021
2592 Clouds 25 1011 83 10000 1.03 200 20:44 13.02.2021
2593 Clouds 25 1011 83 10000 1.03 200 20:24 13.02.2021
2594 Clouds 25 1011 88 10000 0.51 0 19:48 13.02.2021
2595 Clouds 25 1011 88 10000 0.51 0 19:23 13.02.2021
2596 Clouds 25 1011 88 10000 1.03 0 18:49 13.02.2021
2597 Clouds 25 1011 88 10000 1.03 0 18:25 13.02.2021
2598 Clouds 25 1012 83 10000 1.54 130 17:44 13.02.2021
2599 Clouds 25 1012 83 10000 1.54 130 17:24 13.02.2021
2600 Clouds 26 1012 78 10000 1.54 110 16:50 13.02.2021
2601 Clouds 26 1012 78 10000 1.54 110 16:31 13.02.2021
2602 Clouds 26 1012 78 10000 2.57 120 15:43 13.02.2021
2603 Clouds 26 1012 78 10000 2.57 120 15:24 13.02.2021
2604 Clouds 26 1012 83 10000 2.06 120 14:34 13.02.2021
2605 Clouds 26 1011 78 10000 2.06 130 13:49 13.02.2021
2606 Clouds 26 1011 78 10000 2.06 130 13:26 13.02.2021
2607 Clouds 26 1011 83 10000 1.03 0 12:52 13.02.2021
2608 Clouds 27 1011 83 10000 1.03 0 12:21 13.02.2021
2609 Clouds 27 1010 78 10000 1.54 130 11:47 13.02.2021
2610 Clouds 27 1010 78 10000 1.54 130 11:21 13.02.2021
2611 Clouds 27 1009 74 10000 1.03 0 10:56 13.02.2021
2612 Clouds 27 1009 74 10000 1.03 0 10:38 13.02.2021
2613 Rain 27 1009 74 10000 1.03 0 10:19 13.02.2021
2614 Clouds 26 1009 83 10000 1.54 200 09:45 13.02.2021
2615 Clouds 26 1009 83 10000 1.54 200 09:21 13.02.2021
2616 Clouds 27 1009 83 8000 4.12 70 08:41 13.02.2021
2617 Clouds 27 1010 83 10000 2.06 10 07:56 13.02.2021
2618 Rain 27 1011 89 9000 1.54 310 06:44 13.02.2021
2619 Clouds 27 1011 89 9000 1.54 310 06:19 13.02.2021
2620 Clouds 27 1012 83 9000 2.06 310 04:26 13.02.2021
2621 Clouds 24 1012 88 8000 3.09 10 01:57 13.02.2021
2622 Clouds 24 1011 83 10000 2.57 20 00:52 13.02.2021
2623 Clouds 24 1011 88 10000 2.57 10 23:55 12.02.2021
2624 Clouds 24 1011 88 10000 2.57 10 23:32 12.02.2021
2625 Clouds 24 1010 83 10000 3.6 10 22:59 12.02.2021
2626 Clouds 24 1010 83 10000 3.6 10 22:30 12.02.2021
2627 Clouds 25 1010 78 10000 3.6 360 21:53 12.02.2021
2628 Clouds 25 1010 78 10000 3.6 360 21:34 12.02.2021
2629 Clouds 25 1010 78 10000 2.06 10 20:57 12.02.2021
2630 Clouds 25 1010 78 10000 2.06 10 20:38 12.02.2021
2631 Clouds 25 1010 78 10000 2.06 10 20:19 12.02.2021
2632 Rain 25 1010 78 10000 3.6 10 19:47 12.02.2021
2633 Clouds 25 1010 78 10000 3.6 10 19:25 12.02.2021
2634 Clouds 25 1011 78 10000 2.57 360 18:30 12.02.2021
2635 Clouds 25 1011 78 10000 3.09 360 17:48 12.02.2021
2636 Clouds 25 1011 78 10000 3.09 360 17:29 12.02.2021
2637 Clouds 25 1011 83 10000 3.6 360 16:39 12.02.2021
2638 Clouds 25 1011 89 10000 1.54 220 15:47 12.02.2021
2639 Clouds 25 1011 89 10000 1.54 220 15:21 12.02.2021
2640 Clouds 25 1011 94 9000 2.57 70 14:53 12.02.2021
2641 Clouds 25 1011 94 9000 2.57 70 14:30 12.02.2021
2642 Rain 27 1011 83 9000 4.12 270 13:41 12.02.2021
2643 Clouds 28 1010 78 10000 2.57 230 13:22 12.02.2021
2644 Clouds 28 1009 79 10000 4.12 260 12:49 12.02.2021
2645 Clouds 28 1009 79 10000 4.12 260 12:31 12.02.2021
2646 Clouds 29 1008 79 10000 4.12 260 11:43 12.02.2021
2647 Clouds 29 1008 79 10000 4.12 260 11:20 12.02.2021
2648 Clouds 30 1008 74 10000 4.63 260 10:46 12.02.2021
2649 Clouds 31 1007 74 10000 4.63 270 09:52 12.02.2021
2650 Clouds 31 1007 74 10000 4.63 270 09:29 12.02.2021
2651 Clouds 31 1007 74 10000 4.63 270 08:51 12.02.2021
2652 Clouds 31 1007 74 10000 4.63 270 08:29 12.02.2021
2653 Clouds 31 1008 70 10000 5.14 270 07:57 12.02.2021
2654 Clouds 31 1008 70 10000 5.14 270 07:35 12.02.2021
2655 Clouds 31 1009 70 10000 5.14 290 06:55 12.02.2021
2656 Clouds 30 1010 74 10000 6.17 310 05:48 12.02.2021
2657 Clouds 29 1010 74 10000 5.66 320 04:32 12.02.2021
2658 Clouds 27 1011 78 10000 4.12 20 01:35 12.02.2021
2659 Clouds 26 1009 83 10000 4.12 10 23:41 11.02.2021
2660 Clouds 26 1009 83 10000 4.12 10 23:22 11.02.2021
2661 Clouds 26 1009 83 10000 4.63 360 22:47 11.02.2021
2662 Clouds 26 1009 83 10000 4.63 360 22:25 11.02.2021
2663 Clouds 26 1009 83 10000 3.6 360 21:59 11.02.2021
2664 Clouds 26 1009 83 10000 3.6 360 21:38 11.02.2021
2665 Clouds 26 1009 83 10000 3.6 360 21:18 11.02.2021
2666 Clouds 26 1009 83 10000 4.12 10 20:42 11.02.2021
2667 Clouds 26 1009 83 10000 4.12 10 20:21 11.02.2021
2668 Clouds 26 1009 83 10000 3.6 10 19:48 11.02.2021
2669 Clouds 26 1009 83 10000 3.6 10 19:28 11.02.2021
2670 Clouds 26 1009 78 10000 4.12 10 18:49 11.02.2021
2671 Clouds 26 1009 78 10000 4.12 10 18:28 11.02.2021
2672 Clouds 26 1009 78 10000 4.12 10 18:28 11.02.2021
2673 Clouds 27 1010 78 10000 3.6 0 17:52 11.02.2021
2674 Clouds 27 1010 78 10000 3.6 0 17:22 11.02.2021
2675 Clouds 27 1010 78 9000 3.09 30 16:53 11.02.2021
2676 Clouds 27 1010 78 9000 3.09 30 16:35 11.02.2021
2677 Clouds 27 1009 83 10000 2.06 240 15:59 11.02.2021
2678 Clouds 27 1009 83 10000 2.06 240 15:40 11.02.2021
2679 Clouds 27 1009 83 10000 2.06 240 15:40 11.02.2021
2680 Clouds 27 1009 83 10000 2.06 240 15:20 11.02.2021
2681 Clouds 27 1009 83 10000 2.06 220 14:40 11.02.2021
2682 Clouds 27 1009 83 10000 2.06 220 14:21 11.02.2021
2683 Clouds 27 1009 78 10000 4.12 250 13:38 11.02.2021
2684 Clouds 28 1009 78 10000 4.12 250 13:18 11.02.2021
2685 Clouds 28 1008 78 10000 4.63 250 12:44 11.02.2021
2686 Rain 28 1008 78 10000 4.63 250 12:21 11.02.2021
2687 Clouds 28 1008 78 10000 5.14 260 11:41 11.02.2021
2688 Clouds 28 1008 78 10000 5.14 260 11:20 11.02.2021
2689 Clouds 29 1007 74 10000 4.63 260 10:42 11.02.2021
2690 Clouds 29 1007 74 10000 4.63 260 10:23 11.02.2021
2691 Rain 30 1007 66 10000 4.63 290 09:42 11.02.2021
2692 Clouds 30 1007 66 10000 4.63 290 09:19 11.02.2021
2693 Clouds 30 1007 66 10000 3.6 290 08:49 11.02.2021
2694 Clouds 31 1007 74 10000 3.09 270 07:58 11.02.2021
2695 Clouds 30 1008 79 10000 4.12 280 06:49 11.02.2021
2696 Clouds 30 1008 79 10000 4.12 280 06:29 11.02.2021
2697 Clouds 28 1011 78 10000 2.06 250 03:48 11.02.2021
2698 Clouds 27 1010 78 10000 1.03 0 02:28 11.02.2021
2699 Clouds 25 1009 88 9000 1.03 0 00:36 11.02.2021
2700 Clouds 24 1009 88 9000 1.03 0 00:18 11.02.2021
2701 Clouds 24 1009 94 9000 2.57 350 23:35 10.02.2021
2702 Clouds 24 1008 94 9000 2.06 360 22:48 10.02.2021
2703 Clouds 24 1008 94 9000 2.06 360 22:25 10.02.2021
2704 Clouds 24 1008 94 9000 2.06 30 21:40 10.02.2021
2705 Clouds 24 1008 94 9000 2.06 30 21:22 10.02.2021
2706 Clouds 24 1009 100 7000 3.09 360 20:58 10.02.2021
2707 Clouds 24 1009 100 7000 3.09 360 20:30 10.02.2021
2708 Clouds 24 1009 94 7000 1.54 330 19:59 10.02.2021
2709 Clouds 24 1009 94 7000 1.54 330 19:40 10.02.2021
2710 Clouds 24 1009 94 7000 1.54 330 19:19 10.02.2021
2711 Clouds 24 1010 94 7000 2.06 360 18:39 10.02.2021
2712 Clouds 25 1010 94 7000 2.06 360 18:18 10.02.2021
2713 Clouds 25 1010 94 7000 2.06 0 17:45 10.02.2021
2714 Clouds 25 1010 94 7000 2.06 0 17:21 10.02.2021
2715 Clouds 25 1010 94 7000 2.06 30 16:49 10.02.2021
2716 Clouds 25 1010 94 7000 2.06 30 16:28 10.02.2021
2717 Clouds 25 1010 89 8000 1.54 330 15:43 10.02.2021
2718 Clouds 25 1010 89 8000 1.54 330 15:21 10.02.2021
2719 Clouds 25 1010 89 10000 2.06 350 14:40 10.02.2021
2720 Clouds 26 1010 89 10000 1.54 100 13:55 10.02.2021
2721 Clouds 26 1010 89 10000 1.54 100 13:37 10.02.2021
2722 Clouds 26 1010 89 10000 1.54 100 13:18 10.02.2021
2723 Clouds 26 1009 78 10000 1.54 120 12:40 10.02.2021
2724 Clouds 26 1009 78 10000 1.54 120 12:21 10.02.2021
2725 Clouds 26 1009 78 10000 1.54 120 11:41 10.02.2021
2726 Clouds 27 1009 78 10000 1.54 120 11:23 10.02.2021
2727 Clouds 27 1008 83 10000 1.54 130 10:40 10.02.2021
2728 Clouds 27 1008 83 10000 1.54 130 10:19 10.02.2021
2729 Clouds 27 1008 83 10000 2.57 130 09:40 10.02.2021
2730 Clouds 27 1008 83 10000 2.57 130 09:21 10.02.2021
2731 Clouds 27 1008 83 9000 2.57 100 08:43 10.02.2021
2732 Clouds 28 1008 74 9000 2.57 140 07:53 10.02.2021
2733 Clouds 29 1009 66 10000 2.57 0 06:59 10.02.2021
2734 Clouds 29 1011 69 10000 4.12 120 03:43 10.02.2021
2735 Clouds 25 1010 78 10000 1.54 60 00:31 10.02.2021
2736 Clouds 25 1009 83 10000 1.54 80 23:35 09.02.2021
2737 Clouds 24 1009 88 10000 1.03 0 22:54 09.02.2021
2738 Clouds 24 1009 88 10000 1.03 0 22:24 09.02.2021
2739 Clouds 24 1010 88 10000 1.03 0 21:52 09.02.2021
2740 Clouds 24 1010 88 10000 1.03 0 21:33 09.02.2021
2741 Clouds 24 1010 83 10000 1.54 100 20:50 09.02.2021
2742 Clouds 25 1010 83 10000 1.54 100 20:27 09.02.2021
2743 Clouds 25 1010 83 10000 2.06 130 19:59 09.02.2021
2744 Clouds 25 1010 83 10000 2.06 130 19:38 09.02.2021
2745 Clouds 25 1010 83 10000 2.57 130 18:58 09.02.2021
2746 Clouds 25 1010 83 10000 2.57 130 18:58 09.02.2021
2747 Clouds 25 1010 83 10000 2.57 130 18:37 09.02.2021
2748 Clouds 25 1011 83 10000 3.09 100 17:57 09.02.2021
2749 Clouds 25 1011 83 10000 3.09 100 17:39 09.02.2021
2750 Clouds 25 1011 83 10000 3.09 100 17:20 09.02.2021
2751 Clouds 25 1011 88 10000 3.6 100 16:42 09.02.2021
2752 Clouds 25 1011 88 10000 3.6 100 16:18 09.02.2021
2753 Clouds 25 1011 88 10000 2.06 120 15:50 09.02.2021
2754 Clouds 25 1011 88 10000 2.06 120 15:25 09.02.2021
2755 Clouds 25 1011 83 10000 1.54 120 14:54 09.02.2021
2756 Clouds 25 1011 83 10000 1.54 120 14:28 09.02.2021
2757 Clouds 25 1010 73 10000 2.57 70 13:51 09.02.2021
2758 Clouds 25 1010 73 10000 2.57 70 13:25 09.02.2021
2759 Clouds 25 1010 83 9000 5.14 50 12:51 09.02.2021
2760 Clouds 25 1010 83 9000 5.14 50 12:32 09.02.2021
2761 Clouds 25 1009 94 7000 7 100 11:57 09.02.2021
2762 Clouds 25 1009 94 7000 7 100 11:38 09.02.2021
2763 Clouds 25 1009 94 7000 7 100 11:20 09.02.2021
2764 Clouds 25 1009 94 7000 7 100 11:20 09.02.2021
2765 Clouds 26 1008 89 9000 1.54 250 10:43 09.02.2021
2766 Clouds 26 1008 89 9000 1.54 250 10:18 09.02.2021
2767 Clouds 27 1008 83 9000 1.03 0 09:42 09.02.2021
2768 Clouds 27 1008 83 9000 1.03 0 09:24 09.02.2021
2769 Clouds 27 1007 74 10000 3.09 40 08:42 09.02.2021
2770 Clouds 27 1007 74 10000 3.09 40 08:22 09.02.2021
2771 Clouds 28 1010 78 10000 2.57 30 06:20 09.02.2021
2772 Clouds 27 1012 100 9000 1.54 0 04:18 09.02.2021
2773 Clouds 26 1012 83 9000 1.54 0 03:34 09.02.2021
2774 Clouds 25 1011 88 10000 1.03 0 00:33 09.02.2021
2775 Clouds 25 1010 73 10000 2.06 30 23:57 08.02.2021
2776 Clouds 26 1010 73 10000 2.06 30 23:21 08.02.2021
2777 Clouds 26 1010 73 10000 2.06 10 22:44 08.02.2021
2778 Clouds 26 1010 73 10000 2.06 10 22:24 08.02.2021
2779 Clouds 26 1010 73 10000 2.06 20 21:55 08.02.2021
2780 Clouds 25 1010 73 10000 2.06 20 21:32 08.02.2021
2781 Clouds 26 1010 73 10000 2.06 70 20:59 08.02.2021
2782 Clouds 26 1010 73 10000 2.06 70 20:38 08.02.2021
2783 Clouds 26 1010 73 10000 2.06 70 20:20 08.02.2021
2784 Clouds 26 1010 73 10000 2.57 360 19:42 08.02.2021
2785 Clouds 26 1010 73 10000 2.57 360 19:22 08.02.2021
2786 Clouds 26 1011 73 10000 1.54 360 18:48 08.02.2021
2787 Clouds 26 1011 73 10000 1.54 360 18:23 08.02.2021
2788 Clouds 27 1012 69 10000 2.57 10 17:45 08.02.2021
2789 Clouds 27 1012 69 10000 2.57 10 17:25 08.02.2021
2790 Clouds 26 1012 69 10000 1.54 60 16:44 08.02.2021
2791 Clouds 26 1012 69 10000 1.54 60 16:21 08.02.2021
2792 Clouds 27 1012 61 10000 3.09 80 15:43 08.02.2021
2793 Clouds 27 1012 61 10000 3.09 80 15:20 08.02.2021
2794 Rain 27 1012 65 10000 2.06 80 14:52 08.02.2021
2795 Rain 27 1012 65 10000 2.06 80 14:52 08.02.2021
2796 Clouds 27 1012 65 10000 2.06 80 14:32 08.02.2021
2797 Clouds 27 1012 61 10000 2.57 80 13:57 08.02.2021
2798 Clouds 28 1012 61 10000 2.57 80 13:33 08.02.2021
2799 Clouds 28 1011 61 10000 5.14 70 12:55 08.02.2021
2800 Rain 28 1011 61 10000 5.14 70 12:37 08.02.2021
2801 Clouds 28 1011 58 10000 6.17 70 11:49 08.02.2021
2802 Clouds 29 1011 58 10000 6.17 70 11:22 08.02.2021
2803 Clouds 29 1010 51 10000 5.14 70 10:45 08.02.2021
2804 Clouds 30 1010 51 10000 5.14 70 10:24 08.02.2021
2805 Clouds 30 1010 55 10000 5.66 110 09:53 08.02.2021
2806 Clouds 30 1010 55 10000 5.66 110 09:35 08.02.2021
2807 Clouds 31 1010 55 10000 5.66 110 08:47 08.02.2021
2808 Clouds 31 1010 55 10000 5.66 110 08:21 08.02.2021
2809 Clouds 31 1011 55 10000 5.66 100 07:34 08.02.2021
2810 Clouds 30 1011 55 10000 5.14 110 06:25 08.02.2021
2811 Clouds 29 1013 69 10000 2.57 80 02:29 08.02.2021
2812 Clouds 27 1013 74 10000 0.51 0 01:47 08.02.2021
2813 Clouds 25 1012 83 10000 3.61 45 00:21 08.02.2021
2814 Clouds 25 1011 83 10000 0.51 0 23:49 07.02.2021
2815 Clouds 24 1011 83 10000 0.51 0 23:20 07.02.2021
2816 Clouds 25 1011 78 10000 0.51 0 22:45 07.02.2021
2817 Clouds 25 1011 78 10000 0.51 0 22:26 07.02.2021
2818 Clouds 25 1011 78 10000 0.51 0 21:53 07.02.2021
2819 Clouds 25 1011 78 10000 0.51 0 21:28 07.02.2021
2820 Clouds 25 1011 78 10000 1.54 60 20:56 07.02.2021
2821 Clouds 25 1011 78 10000 1.54 60 20:35 07.02.2021
2822 Clouds 26 1011 78 10000 1.03 30 19:55 07.02.2021
2823 Clouds 26 1011 78 10000 1.03 30 19:31 07.02.2021
2824 Clouds 26 1012 78 10000 0.51 0 18:57 07.02.2021
2825 Clouds 26 1012 78 10000 0.51 0 18:37 07.02.2021
2826 Clouds 26 1012 78 10000 0.51 0 18:37 07.02.2021
2827 Clouds 26 1012 78 10000 0.51 0 18:18 07.02.2021
2828 Clouds 26 1012 83 10000 1.54 70 17:44 07.02.2021
2829 Clouds 26 1012 83 10000 1.54 70 17:20 07.02.2021
2830 Clouds 26 1013 83 10000 2.06 70 16:48 07.02.2021
2831 Clouds 27 1013 83 10000 2.06 70 16:29 07.02.2021
2832 Clouds 27 1013 74 10000 1.54 80 15:58 07.02.2021
2833 Clouds 27 1013 74 10000 1.54 80 15:40 07.02.2021
2834 Clouds 27 1013 74 10000 1.54 80 15:21 07.02.2021
2835 Clouds 27 1013 61 10000 2.06 90 14:39 07.02.2021
2836 Clouds 27 1013 61 10000 2.06 90 14:21 07.02.2021
2837 Clouds 28 1012 61 10000 2.57 80 13:36 07.02.2021
2838 Clouds 28 1011 58 10000 5.14 70 12:59 07.02.2021
2839 Clouds 28 1011 58 10000 5.14 70 12:38 07.02.2021
2840 Clouds 29 1011 58 10000 5.14 70 12:19 07.02.2021
2841 Clouds 29 1011 58 10000 2.57 110 11:28 07.02.2021
2842 Clouds 30 1010 58 10000 4.12 110 10:58 07.02.2021
2843 Clouds 30 1010 58 10000 4.12 110 10:28 07.02.2021
2844 Clouds 31 1009 51 10000 5.14 110 09:51 07.02.2021
2845 Clouds 32 1009 51 10000 5.14 110 09:25 07.02.2021
2846 Clouds 32 1009 48 10000 6.17 110 08:48 07.02.2021
2847 Clouds 32 1010 51 10000 6.17 110 07:49 07.02.2021
2848 Clouds 31 1012 70 10000 2.06 260 05:58 07.02.2021
2849 Clouds 31 1012 70 10000 2.06 260 05:58 07.02.2021
2850 Clouds 31 1012 74 10000 3.6 260 04:34 07.02.2021
2851 Clouds 28 1013 78 10000 1.03 40 02:25 07.02.2021
2852 Clouds 26 1012 88 10000 2.81 86 00:37 07.02.2021
2853 Clouds 24 1012 88 10000 0.51 0 23:50 06.02.2021
2854 Clouds 25 1011 83 10000 2.42 65 22:52 06.02.2021
2855 Clouds 25 1011 88 10000 1.03 0 21:45 06.02.2021
2856 Clouds 25 1011 88 10000 1.03 0 21:24 06.02.2021
2857 Clouds 25 1011 88 10000 1.03 0 20:53 06.02.2021
2858 Clouds 25 1011 88 10000 1.03 0 20:27 06.02.2021
2859 Clouds 25 1011 88 10000 1.03 0 19:59 06.02.2021
2860 Clouds 25 1011 88 10000 1.03 0 19:40 06.02.2021
2861 Clouds 25 1011 88 10000 1.03 0 19:19 06.02.2021
2862 Clouds 25 1012 88 10000 1.03 0 18:43 06.02.2021
2863 Clouds 25 1012 88 10000 1.03 0 18:24 06.02.2021
2864 Clouds 26 1013 78 10000 1.54 0 17:41 06.02.2021
2865 Clouds 26 1013 78 10000 1.54 0 17:21 06.02.2021
2866 Clouds 26 1013 78 10000 2.06 130 16:47 06.02.2021
2867 Clouds 26 1013 78 10000 2.06 130 16:29 06.02.2021
2868 Clouds 26 1013 83 10000 3.09 120 15:52 06.02.2021
2869 Clouds 26 1013 83 10000 3.09 120 15:29 06.02.2021
2870 Clouds 26 1013 74 10000 2.57 120 14:49 06.02.2021
2871 Clouds 26 1013 74 10000 2.57 120 14:29 06.02.2021
2872 Clouds 27 1012 71 10000 2.06 120 13:57 06.02.2021
2873 Clouds 27 1012 71 10000 2.06 120 13:38 06.02.2021
2874 Clouds 27 1011 65 10000 2.57 100 12:24 06.02.2021
2875 Clouds 27 1011 69 10000 3.6 100 11:58 06.02.2021
2876 Clouds 27 1011 69 10000 3.6 100 11:40 06.02.2021
2877 Clouds 28 1011 69 10000 3.6 100 11:20 06.02.2021
2878 Clouds 28 1010 61 10000 4.63 80 10:49 06.02.2021
2879 Clouds 29 1010 61 10000 4.63 80 10:25 06.02.2021
2880 Clouds 29 1010 62 10000 3.6 80 09:38 06.02.2021
2881 Clouds 29 1010 62 10000 3.6 80 09:19 06.02.2021
2882 Clouds 29 1010 62 10000 4.63 90 08:56 06.02.2021
2883 Clouds 30 1010 62 10000 4.63 90 08:29 06.02.2021
2884 Clouds 30 1012 66 10000 2.06 290 06:50 06.02.2021
2885 Clouds 30 1013 66 10000 1.54 0 05:39 06.02.2021
2886 Clouds 28 1014 69 10000 1.54 0 02:43 06.02.2021
2887 Clouds 26 1014 78 10000 0.51 0 00:56 06.02.2021
2888 Clouds 26 1014 78 10000 0.51 0 00:37 06.02.2021
2889 Clouds 26 1014 78 10000 0.51 0 00:18 06.02.2021
2890 Clouds 26 1013 78 10000 1.03 220 23:29 05.02.2021
2891 Clouds 26 1012 78 10000 1.54 260 22:50 05.02.2021
2892 Clouds 26 1012 78 10000 1.54 260 22:25 05.02.2021
2893 Clouds 26 1012 78 10000 1.54 260 22:25 05.02.2021
2894 Clouds 26 1012 78 10000 1.54 280 21:56 05.02.2021
2895 Clouds 26 1012 78 10000 1.54 280 21:36 05.02.2021
2896 Clouds 26 1012 78 10000 3.01 20 20:56 05.02.2021
2897 Clouds 26 1012 78 10000 2.79 33 20:19 05.02.2021
2898 Clouds 26 1012 78 10000 2.79 33 19:39 05.02.2021
2899 Clouds 26 1012 78 10000 2.46 37 19:18 05.02.2021
2900 Clouds 26 1013 78 10000 2.06 110 18:38 05.02.2021
2901 Clouds 26 1013 78 10000 2.06 110 18:19 05.02.2021
2902 Clouds 26 1013 78 10000 1.03 0 17:35 05.02.2021
2903 Clouds 26 1013 78 10000 3.09 120 16:58 05.02.2021
2904 Clouds 26 1013 78 10000 3.09 120 16:39 05.02.2021
2905 Clouds 26 1013 78 10000 3.09 120 16:20 05.02.2021
2906 Clouds 26 1014 78 10000 2.57 110 15:40 05.02.2021
2907 Clouds 26 1014 78 10000 2.57 110 15:20 05.02.2021
2908 Clouds 26 1014 78 10000 1.54 140 14:38 05.02.2021
2909 Clouds 26 1014 78 10000 1.54 140 14:38 05.02.2021
2910 Clouds 26 1014 78 10000 1.54 140 14:19 05.02.2021
2911 Clouds 26 1013 74 10000 2.06 130 13:43 05.02.2021
2912 Clouds 26 1013 74 10000 2.06 130 13:24 05.02.2021
2913 Clouds 26 1012 74 10000 2.57 120 12:42 05.02.2021
2914 Clouds 26 1012 74 10000 2.57 120 12:20 05.02.2021
2915 Clouds 27 1013 69 10000 2.57 110 11:39 05.02.2021
2916 Clouds 27 1012 69 10000 2.57 110 11:20 05.02.2021
2917 Clouds 27 1011 61 10000 4.63 100 10:48 05.02.2021
2918 Clouds 28 1011 61 10000 4.63 100 10:25 05.02.2021
2919 Clouds 29 1011 58 10000 3.6 40 09:43 05.02.2021
2920 Clouds 29 1011 58 10000 3.6 40 09:24 05.02.2021
2921 Clouds 29 1011 58 10000 4.63 80 08:41 05.02.2021
2922 Clouds 30 1011 51 10000 3.6 290 07:42 05.02.2021
2923 Clouds 30 1011 51 10000 3.6 290 07:22 05.02.2021
2924 Clouds 31 1012 51 10000 6.17 80 06:33 05.02.2021
2925 Clouds 31 1013 48 10000 5.66 90 05:33 05.02.2021
2926 Clouds 29 1014 61 10000 1.03 0 02:26 05.02.2021
2927 Clouds 28 1014 69 10000 0.51 0 01:43 05.02.2021
2928 Clouds 26 1013 73 10000 0.51 0 00:37 05.02.2021
2929 Clouds 26 1013 73 10000 0.51 0 00:19 05.02.2021
2930 Clouds 25 1012 78 10000 0.51 0 23:42 04.02.2021
2931 Clouds 25 1012 78 10000 0.51 0 23:42 04.02.2021
2932 Clouds 25 1012 78 10000 0.51 0 23:23 04.02.2021
2933 Clouds 26 1012 73 10000 1.03 0 22:54 04.02.2021
2934 Clouds 25 1012 73 10000 1.03 0 22:35 04.02.2021
2935 Clouds 26 1012 73 10000 1.03 0 21:58 04.02.2021
2936 Clouds 26 1012 73 10000 1.03 0 21:39 04.02.2021
2937 Clouds 26 1012 73 10000 1.03 0 20:58 04.02.2021
2938 Clouds 26 1012 73 10000 1.03 0 20:34 04.02.2021
2939 Clouds 26 1012 73 10000 1.03 0 19:52 04.02.2021
2940 Clouds 26 1012 73 10000 1.03 0 19:26 04.02.2021
2941 Clouds 26 1013 73 10000 1.03 0 18:41 04.02.2021
2942 Clouds 26 1013 73 10000 1.03 0 18:22 04.02.2021
2943 Clouds 26 1013 69 10000 2.06 100 17:45 04.02.2021
2944 Clouds 26 1013 69 10000 2.06 100 17:22 04.02.2021
2945 Clouds 26 1014 73 10000 2.06 130 16:49 04.02.2021
2946 Clouds 26 1014 73 10000 2.06 130 16:21 04.02.2021
2947 Clouds 27 1014 65 10000 1.54 100 15:41 04.02.2021
2948 Clouds 27 1014 65 10000 1.54 100 15:21 04.02.2021
2949 Clouds 27 1014 65 10000 2.06 70 14:57 04.02.2021
2950 Clouds 27 1014 65 10000 2.06 70 14:39 04.02.2021
2951 Clouds 27 1014 65 10000 2.06 70 14:19 04.02.2021
2952 Clouds 27 1014 65 10000 2.06 90 13:43 04.02.2021
2953 Clouds 27 1013 61 10000 3.09 100 12:57 04.02.2021
2954 Clouds 27 1013 61 10000 3.09 100 12:57 04.02.2021
2955 Clouds 27 1013 61 10000 3.09 100 12:27 04.02.2021
2956 Clouds 27 1013 61 10000 4.63 90 11:53 04.02.2021
2957 Clouds 27 1013 61 10000 4.63 90 11:32 04.02.2021
2958 Clouds 28 1012 58 10000 4.63 110 10:45 04.02.2021
2959 Clouds 29 1012 58 10000 4.63 110 10:18 04.02.2021
2960 Clouds 29 1012 51 10000 4.63 110 09:43 04.02.2021
2961 Clouds 30 1012 51 10000 4.63 110 09:19 04.02.2021
2962 Clouds 30 1012 51 10000 4.63 110 08:41 04.02.2021
2963 Clouds 30 1012 51 10000 4.63 110 08:20 04.02.2021
2964 Clouds 30 1012 48 10000 5.14 90 07:42 04.02.2021
2965 Clouds 30 1013 48 10000 5.66 90 06:55 04.02.2021
2966 Clouds 30 1013 48 10000 5.66 90 06:37 04.02.2021
2967 Clouds 29 1015 65 10000 3.09 260 03:53 04.02.2021
2968 Clouds 29 1015 65 10000 1.03 0 02:26 04.02.2021
2969 Clouds 25 1014 83 10000 0.51 0 00:42 04.02.2021
2970 Clouds 24 1014 83 10000 1.03 0 23:40 03.02.2021
2971 Clouds 24 1013 78 10000 1.03 0 22:44 03.02.2021
2972 Clouds 24 1013 78 10000 1.03 0 22:22 03.02.2021
2973 Clouds 24 1013 78 10000 1.54 250 21:58 03.02.2021
2974 Clouds 25 1013 78 10000 1.54 250 21:37 03.02.2021
2975 Clouds 25 1013 78 10000 1.54 250 21:18 03.02.2021
2976 Clouds 25 1013 78 10000 1.03 0 20:43 03.02.2021
2977 Clouds 25 1013 78 10000 1.03 0 20:24 03.02.2021
2978 Clouds 25 1013 73 10000 1.03 0 19:43 03.02.2021
2979 Clouds 25 1013 73 10000 1.03 0 19:21 03.02.2021
2980 Clouds 25 1013 73 10000 2.06 50 18:48 03.02.2021
2981 Clouds 25 1013 73 10000 2.06 50 18:20 03.02.2021
2982 Clouds 26 1013 69 10000 2.06 90 17:52 03.02.2021
2983 Clouds 26 1013 69 10000 2.06 90 17:31 03.02.2021
2984 Clouds 26 1014 65 10000 3.09 80 16:56 03.02.2021
2985 Clouds 26 1014 65 10000 3.09 80 16:30 03.02.2021
2986 Clouds 26 1014 65 10000 3.09 80 16:30 03.02.2021
2987 Clouds 26 1014 65 10000 3.09 80 15:46 03.02.2021
2988 Clouds 26 1014 65 10000 3.09 80 15:25 03.02.2021
2989 Clouds 26 1014 65 10000 3.6 90 14:54 03.02.2021
2990 Clouds 26 1014 65 10000 3.6 90 14:26 03.02.2021
2991 Clouds 26 1013 69 10000 3.6 110 13:54 03.02.2021
2992 Clouds 26 1013 69 10000 3.6 110 13:28 03.02.2021
2993 Clouds 27 1013 61 10000 4.63 90 12:49 03.02.2021
2994 Clouds 27 1013 61 10000 4.63 90 12:27 03.02.2021
2995 Clouds 27 1012 58 10000 4.63 90 11:54 03.02.2021
2996 Clouds 27 1012 58 10000 4.63 90 11:36 03.02.2021
2997 Clouds 28 1011 58 10000 5.66 90 10:56 03.02.2021
2998 Clouds 29 1011 58 10000 5.66 90 10:22 03.02.2021
2999 Clouds 29 1011 55 10000 6.69 90 09:48 03.02.2021
3000 Clouds 30 1011 55 10000 6.69 90 09:28 03.02.2021
3001 Clouds 30 1011 62 10000 1.54 0 08:53 03.02.2021
3002 Clouds 30 1011 62 10000 1.54 0 08:28 03.02.2021
3003 Clouds 31 1011 51 10000 4.12 120 07:39 03.02.2021
3004 Clouds 31 1012 58 10000 3.6 300 06:41 03.02.2021
3005 Clouds 30 1014 65 10000 2.06 280 04:54 03.02.2021
3006 Clouds 30 1014 65 10000 2.06 280 04:31 03.02.2021
3007 Clouds 29 1015 61 10000 1.03 0 03:24 03.02.2021
3008 Clouds 28 1015 65 10000 2.06 120 02:36 03.02.2021
3009 Clouds 25 1014 83 10000 2.65 57 00:36 03.02.2021
3010 Clouds 24 1014 83 10000 0.51 0 23:56 02.02.2021
3011 Clouds 24 1014 83 10000 0.51 0 23:36 02.02.2021
3012 Clouds 24 1014 83 10000 0.51 0 23:18 02.02.2021
3013 Clouds 24 1013 83 10000 2.61 61 22:23 02.02.2021
3014 Clouds 24 1013 83 10000 2.61 61 21:58 02.02.2021
3015 Clouds 24 1013 83 10000 2.61 61 21:37 02.02.2021
3016 Clouds 24 1013 83 10000 2.46 76 21:18 02.02.2021
3017 Clouds 24 1013 83 10000 1.03 160 20:43 02.02.2021
3018 Clouds 24 1013 83 10000 1.03 160 20:20 02.02.2021
3019 Clouds 24 1013 83 10000 1.03 160 20:20 02.02.2021
3020 Clouds 25 1013 78 10000 1.03 0 19:48 02.02.2021
3021 Clouds 25 1013 78 10000 1.03 0 19:29 02.02.2021
3022 Clouds 25 1013 78 10000 1.54 80 18:45 02.02.2021
3023 Clouds 25 1013 78 10000 1.54 80 18:25 02.02.2021
3024 Clouds 25 1013 78 10000 1.54 80 18:25 02.02.2021
3025 Clouds 25 1014 78 10000 1.54 130 17:50 02.02.2021
3026 Clouds 25 1014 78 10000 1.54 130 17:23 02.02.2021
3027 Clouds 25 1014 78 10000 2.06 110 16:57 02.02.2021
3028 Clouds 25 1014 78 10000 2.06 110 16:37 02.02.2021
3029 Clouds 26 1014 69 10000 2.06 120 15:59 02.02.2021
3030 Clouds 26 1014 69 10000 2.06 120 15:40 02.02.2021
3031 Clouds 26 1014 69 10000 2.06 120 15:21 02.02.2021
3032 Clouds 26 1014 69 10000 3.09 120 14:40 02.02.2021
3033 Clouds 26 1014 69 10000 3.09 120 14:18 02.02.2021
3034 Clouds 26 1013 65 10000 2.57 100 13:44 02.02.2021
3035 Clouds 26 1013 65 10000 2.57 100 13:26 02.02.2021
3036 Clouds 27 1013 61 10000 3.6 90 12:55 02.02.2021
3037 Clouds 27 1013 61 10000 3.6 90 12:26 02.02.2021
3038 Clouds 27 1013 61 10000 2.57 90 11:41 02.02.2021
3039 Clouds 27 1013 61 10000 2.57 90 11:20 02.02.2021
3040 Clouds 28 1012 62 10000 4.12 130 10:49 02.02.2021
3041 Clouds 29 1012 62 10000 4.12 130 10:26 02.02.2021
3042 Clouds 29 1011 58 10000 3.6 130 09:46 02.02.2021
3043 Clouds 29 1011 58 10000 3.6 130 09:24 02.02.2021
3044 Clouds 29 1011 65 10000 1.54 0 08:43 02.02.2021
3045 Clouds 29 1012 65 10000 3.6 270 07:51 02.02.2021
3046 Clouds 29 1012 65 10000 3.6 270 07:26 02.02.2021
3047 Clouds 29 1013 65 10000 3.6 300 06:40 02.02.2021
3048 Clouds 29 1014 65 10000 3.6 310 05:51 02.02.2021
3049 Clouds 29 1014 65 10000 1.54 0 04:36 02.02.2021
3050 Clouds 27 1015 65 10000 1.54 270 02:25 02.02.2021
3051 Clouds 24 1014 78 9000 2.57 310 00:49 02.02.2021
3052 Clouds 24 1014 78 9000 2.57 310 00:18 02.02.2021
3053 Clouds 24 1013 78 8000 1.54 270 23:18 01.02.2021
3054 Clouds 24 1013 73 10000 0.51 0 22:39 01.02.2021
3055 Clouds 24 1013 73 10000 0.51 0 22:20 01.02.2021
3056 Clouds 24 1013 73 9000 1.03 200 21:46 01.02.2021
3057 Clouds 24 1013 73 9000 1.03 200 21:22 01.02.2021
3058 Clouds 24 1013 73 9000 1.03 0 20:43 01.02.2021
3059 Clouds 24 1013 73 9000 1.03 0 20:24 01.02.2021
3060 Clouds 24 1013 73 10000 0.51 0 19:48 01.02.2021
3061 Clouds 24 1013 73 10000 0.51 0 19:21 01.02.2021
3062 Clouds 25 1014 73 10000 1.03 0 18:56 01.02.2021
3063 Clouds 25 1014 73 10000 1.03 0 18:37 01.02.2021
3064 Clouds 24 1014 73 10000 1.03 0 18:19 01.02.2021
3065 Clouds 24 1014 78 10000 1.03 80 17:41 01.02.2021
3066 Clouds 24 1014 78 10000 1.03 80 17:19 01.02.2021
3067 Clouds 24 1014 78 10000 1.54 100 16:33 01.02.2021
3068 Clouds 25 1014 78 10000 2.57 100 15:56 01.02.2021
3069 Clouds 25 1014 78 10000 2.57 100 15:37 01.02.2021
3070 Clouds 25 1014 78 10000 2.57 100 15:19 01.02.2021
3071 Clouds 25 1014 78 10000 2.06 140 14:46 01.02.2021
3072 Clouds 25 1014 69 10000 1.54 100 13:57 01.02.2021
3073 Clouds 25 1014 69 10000 1.54 100 13:38 01.02.2021
3074 Clouds 25 1014 69 10000 1.54 100 13:20 01.02.2021
3075 Clouds 26 1013 61 10000 4.12 100 12:44 01.02.2021
3076 Clouds 26 1013 61 10000 4.12 100 12:44 01.02.2021
3077 Clouds 26 1013 61 10000 4.12 100 12:23 01.02.2021
3078 Clouds 26 1013 61 10000 4.12 100 11:42 01.02.2021
3079 Clouds 27 1013 61 10000 4.12 100 11:20 01.02.2021
3080 Clouds 28 1012 58 10000 3.6 100 10:46 01.02.2021
3081 Clouds 28 1012 58 10000 3.6 100 10:20 01.02.2021
3082 Clouds 28 1012 58 10000 5.66 70 09:45 01.02.2021
3083 Clouds 29 1012 58 10000 5.66 70 09:25 01.02.2021
3084 Clouds 28 1011 58 10000 4.63 110 08:54 01.02.2021
3085 Clouds 29 1012 54 10000 3.6 120 07:53 01.02.2021
3086 Clouds 29 1013 61 10000 3.6 100 06:37 01.02.2021
3087 Clouds 28 1015 61 10000 2.57 0 04:30 01.02.2021
3088 Clouds 25 1015 78 10000 3.09 10 01:41 01.02.2021
3089 Clouds 23 1015 83 10000 3.6 10 23:45 31.01.2021
3090 Clouds 23 1014 78 10000 1.54 120 22:45 31.01.2021
3091 Clouds 23 1014 78 10000 1.54 120 22:25 31.01.2021
3092 Clouds 23 1014 83 10000 1.03 0 21:56 31.01.2021
3093 Clouds 23 1014 83 10000 1.03 0 21:26 31.01.2021
3094 Clouds 24 1014 78 10000 0.51 0 20:59 31.01.2021
3095 Clouds 24 1014 78 10000 0.51 0 20:37 31.01.2021
3096 Clouds 24 1014 78 10000 0.51 0 20:18 31.01.2021
3097 Clouds 24 1015 78 10000 2.93 63 19:37 31.01.2021
3098 Clouds 24 1015 78 10000 3.94 74 19:19 31.01.2021
3099 Clouds 24 1015 78 10000 3.94 74 19:19 31.01.2021
3100 Clouds 24 1015 78 10000 3.94 74 19:19 31.01.2021
3101 Clouds 24 1015 78 10000 1.03 0 18:41 31.01.2021
3102 Clouds 24 1015 78 10000 1.03 0 18:23 31.01.2021
3103 Clouds 24 1015 78 10000 1.54 90 17:47 31.01.2021
3104 Clouds 24 1015 78 10000 1.54 90 17:23 31.01.2021
3105 Clouds 24 1015 83 10000 1.54 70 16:51 31.01.2021
3106 Clouds 24 1015 83 10000 1.54 70 16:33 31.01.2021
3107 Clouds 24 1015 73 10000 1.54 100 15:52 31.01.2021
3108 Clouds 24 1015 73 10000 1.54 100 15:34 31.01.2021
3109 Clouds 24 1015 73 10000 0.51 0 14:45 31.01.2021
3110 Clouds 24 1015 73 10000 0.51 0 14:24 31.01.2021
3111 Clouds 24 1015 73 10000 2.06 110 13:54 31.01.2021
3112 Clouds 25 1015 73 10000 2.06 110 13:35 31.01.2021
3113 Clouds 25 1014 61 10000 5.14 80 12:49 31.01.2021
3114 Clouds 25 1014 61 10000 5.14 80 12:23 31.01.2021
3115 Clouds 26 1014 57 10000 5.66 80 11:47 31.01.2021
3116 Clouds 26 1014 57 10000 5.66 80 11:29 31.01.2021
3117 Clouds 27 1013 57 10000 4.12 100 10:59 31.01.2021
3118 Clouds 27 1013 57 10000 4.12 100 10:35 31.01.2021
3119 Clouds 28 1012 51 10000 4.63 110 09:55 31.01.2021
3120 Clouds 28 1012 51 10000 4.63 110 09:27 31.01.2021
3121 Clouds 29 1012 48 10000 6.69 90 08:34 31.01.2021
3122 Clouds 29 1014 51 10000 4.12 100 06:58 31.01.2021
3123 Clouds 29 1015 54 10000 4.63 90 05:40 31.01.2021
3124 Clouds 23 1015 73 10000 2.57 10 00:52 31.01.2021
3125 Clouds 22 1015 73 10000 2.57 10 00:22 31.01.2021
3126 Clouds 22 1015 78 10000 1.03 0 23:34 30.01.2021
3127 Clouds 22 1014 78 10000 1.54 10 22:57 30.01.2021
3128 Clouds 22 1014 78 10000 1.54 10 22:30 30.01.2021
3129 Clouds 22 1014 78 10000 1.54 10 22:30 30.01.2021
3130 Clouds 22 1014 73 10000 1.54 40 21:42 30.01.2021
3131 Clouds 22 1014 73 10000 1.54 40 21:23 30.01.2021
3132 Clouds 23 1014 68 10000 1.54 90 20:48 30.01.2021
3133 Clouds 23 1014 68 10000 1.54 90 20:29 30.01.2021
3134 Clouds 23 1015 68 10000 2.57 80 19:46 30.01.2021
3135 Clouds 23 1015 68 10000 2.57 80 19:27 30.01.2021
3136 Clouds 23 1015 68 10000 1.03 0 18:55 30.01.2021
3137 Clouds 23 1015 68 10000 1.03 0 18:36 30.01.2021
3138 Clouds 23 1015 68 10000 1.03 0 18:18 30.01.2021
3139 Clouds 24 1016 64 10000 2.57 100 17:21 30.01.2021
3140 Clouds 24 1016 64 10000 3.09 80 16:48 30.01.2021
3141 Clouds 24 1016 64 10000 3.09 80 16:25 30.01.2021
3142 Clouds 24 1016 64 10000 2.57 100 15:59 30.01.2021
3143 Clouds 24 1016 64 10000 2.57 100 15:40 30.01.2021
3144 Clouds 24 1016 64 10000 2.57 100 15:20 30.01.2021
3145 Clouds 24 1015 61 10000 4.63 90 14:50 30.01.2021
3146 Clouds 24 1015 61 10000 4.63 90 14:22 30.01.2021
3147 Clouds 25 1015 65 10000 3.09 100 13:33 30.01.2021
3148 Clouds 25 1014 61 10000 5.14 100 12:49 30.01.2021
3149 Clouds 25 1014 61 10000 5.14 100 12:29 30.01.2021
3150 Clouds 25 1014 61 10000 5.14 100 12:29 30.01.2021
3151 Clouds 25 1014 61 10000 3.6 90 11:59 30.01.2021
3152 Clouds 25 1014 61 10000 3.6 90 11:31 30.01.2021
3153 Clouds 26 1013 54 10000 5.14 90 10:48 30.01.2021
3154 Clouds 27 1013 51 10000 6.69 90 09:52 30.01.2021
3155 Clouds 27 1013 51 10000 6.69 90 09:30 30.01.2021
3156 Clouds 27 1012 51 10000 6.69 90 08:47 30.01.2021
3157 Clouds 28 1013 51 10000 7.2 80 07:49 30.01.2021
3158 Clouds 28 1014 54 10000 6.17 90 06:53 30.01.2021
3159 Clouds 29 1015 51 10000 8.23 80 05:59 30.01.2021
3160 Clouds 28 1016 57 10000 5.14 90 03:35 30.01.2021
3161 Clouds 27 1016 61 10000 2.57 120 02:24 30.01.2021
3162 Clouds 26 1015 65 10000 3.09 40 01:30 30.01.2021
3163 Clouds 24 1014 73 10000 1.03 0 00:39 30.01.2021
3164 Clouds 24 1014 73 10000 1.03 0 00:20 30.01.2021
3165 Clouds 24 1014 73 10000 1.54 90 23:45 29.01.2021
3166 Clouds 24 1014 73 10000 1.54 90 23:21 29.01.2021
3167 Clouds 24 1013 73 10000 2.06 70 22:44 29.01.2021
3168 Clouds 24 1013 73 10000 2.06 70 22:20 29.01.2021
3169 Clouds 24 1013 73 10000 1.54 100 21:28 29.01.2021
3170 Clouds 24 1013 69 10000 2.57 100 20:46 29.01.2021
3171 Clouds 24 1013 69 10000 2.57 100 20:28 29.01.2021
3172 Clouds 24 1013 69 10000 2.06 100 19:57 29.01.2021
3173 Clouds 24 1013 69 10000 2.06 100 19:38 29.01.2021
3174 Clouds 25 1013 69 10000 2.06 100 19:18 29.01.2021
3175 Clouds 25 1014 69 10000 2.57 110 18:28 29.01.2021
3176 Clouds 25 1014 73 10000 2.06 120 17:40 29.01.2021
3177 Clouds 25 1014 73 10000 2.06 120 17:21 29.01.2021
3178 Clouds 25 1014 69 10000 3.6 110 16:45 29.01.2021
3179 Clouds 25 1014 69 10000 3.6 110 16:23 29.01.2021
3180 Clouds 25 1014 69 10000 3.09 110 15:48 29.01.2021
3181 Clouds 25 1014 69 10000 3.09 110 15:27 29.01.2021
3182 Clouds 25 1014 69 10000 5.59 79 14:32 29.01.2021
3183 Clouds 26 1013 65 10000 3.09 120 13:59 29.01.2021
3184 Clouds 26 1013 65 10000 3.09 120 13:39 29.01.2021
3185 Clouds 26 1013 57 10000 3.6 90 13:19 29.01.2021
3186 Clouds 26 1013 57 10000 3.6 90 12:25 29.01.2021
3187 Clouds 26 1012 57 10000 4.63 90 11:49 29.01.2021
3188 Clouds 26 1012 57 10000 4.63 90 11:19 29.01.2021
3189 Clouds 27 1012 51 10000 5.66 80 10:51 29.01.2021
3190 Clouds 27 1012 51 10000 5.66 80 10:27 29.01.2021
3191 Clouds 29 1011 48 10000 7.2 70 09:49 29.01.2021
3192 Clouds 29 1011 48 10000 6.69 90 08:58 29.01.2021
3193 Clouds 29 1011 48 10000 6.69 90 08:34 29.01.2021
3194 Clouds 29 1011 48 10000 6.69 80 07:58 29.01.2021
3195 Clouds 29 1011 48 10000 6.69 80 07:40 29.01.2021
3196 Clouds 29 1011 48 10000 6.69 80 07:20 29.01.2021
3197 Clouds 28 1013 54 10000 6.69 80 05:23 29.01.2021
3198 Clouds 29 1014 57 10000 3.09 110 03:33 29.01.2021
3199 Clouds 26 1013 65 10000 3.6 80 00:43 29.01.2021
3200 Clouds 25 1013 65 10000 3.6 80 00:22 29.01.2021
3201 Clouds 25 1012 69 10000 2.06 100 23:44 28.01.2021
3202 Clouds 25 1012 69 10000 2.06 100 23:25 28.01.2021
3203 Clouds 24 1011 73 10000 1.03 0 22:47 28.01.2021
3204 Clouds 24 1011 73 10000 1.03 0 22:26 28.01.2021
3205 Clouds 25 1011 73 10000 2.06 90 21:56 28.01.2021
3206 Clouds 25 1011 73 10000 2.06 90 21:34 28.01.2021
3207 Clouds 25 1011 73 10000 1.54 110 20:57 28.01.2021
3208 Clouds 25 1011 73 10000 1.54 110 20:39 28.01.2021
3209 Clouds 25 1011 73 10000 1.54 110 20:18 28.01.2021
3210 Clouds 25 1012 73 10000 2.06 130 19:40 28.01.2021
3211 Clouds 25 1012 73 10000 2.06 130 19:19 28.01.2021
3212 Clouds 25 1012 73 10000 2.57 120 18:43 28.01.2021
3213 Clouds 25 1012 73 10000 2.57 120 18:20 28.01.2021
3214 Clouds 25 1013 78 10000 3.09 120 17:45 28.01.2021
3215 Clouds 25 1013 78 10000 3.09 120 17:45 28.01.2021
3216 Clouds 25 1013 78 10000 3.09 120 17:26 28.01.2021
3217 Clouds 26 1013 73 10000 2.57 110 16:44 28.01.2021
3218 Clouds 26 1013 73 10000 2.57 110 16:23 28.01.2021
3219 Clouds 26 1013 73 10000 3.09 130 15:43 28.01.2021
3220 Clouds 26 1013 73 10000 3.09 130 15:18 28.01.2021
3221 Clouds 26 1013 73 10000 2.57 120 14:42 28.01.2021
3222 Clouds 26 1013 73 10000 2.57 120 14:42 28.01.2021
3223 Clouds 26 1013 73 10000 2.57 120 14:23 28.01.2021
3224 Clouds 26 1012 73 10000 3.09 120 13:48 28.01.2021
3225 Clouds 26 1012 78 10000 3.09 120 12:56 28.01.2021
3226 Clouds 26 1012 78 10000 3.09 120 12:36 28.01.2021
3227 Clouds 27 1011 19 10000 3.09 110 11:59 28.01.2021
3228 Clouds 27 1011 19 10000 3.09 110 11:41 28.01.2021
3229 Clouds 27 1011 19 10000 3.09 110 11:20 28.01.2021
3230 Clouds 27 1011 74 10000 2.57 120 10:53 28.01.2021
3231 Clouds 27 1011 74 10000 2.57 120 10:34 28.01.2021
3232 Clouds 27 1011 83 9000 2.57 100 09:49 28.01.2021
3233 Clouds 27 1011 83 9000 2.57 100 09:24 28.01.2021
3234 Clouds 27 1011 83 9000 2.06 120 08:55 28.01.2021
3235 Clouds 28 1011 83 9000 2.06 120 08:19 28.01.2021
3236 Clouds 29 1011 70 10000 1.54 120 07:44 28.01.2021
3237 Clouds 28 1012 74 9000 2.06 300 06:50 28.01.2021
3238 Clouds 29 1012 74 9000 2.06 300 06:29 28.01.2021
3239 Clouds 29 1013 74 10000 2.06 0 04:28 28.01.2021
3240 Clouds 26 1013 83 10000 1.03 0 01:39 28.01.2021
3241 Clouds 24 1011 100 9000 1.03 260 23:48 27.01.2021
3242 Clouds 24 1011 100 9000 1.03 260 23:24 27.01.2021
3243 Clouds 24 1011 100 8000 0.51 0 22:42 27.01.2021
3244 Clouds 24 1011 100 8000 0.51 0 22:22 27.01.2021
3245 Clouds 25 1011 94 9000 1.03 0 21:43 27.01.2021
3246 Clouds 25 1011 94 9000 1.03 0 21:23 27.01.2021
3247 Clouds 25 1011 94 10000 0.51 0 20:52 27.01.2021
3248 Clouds 25 1011 94 10000 0.51 0 20:27 27.01.2021
3249 Clouds 25 1011 94 9000 1.03 40 19:50 27.01.2021
3250 Clouds 25 1011 94 9000 1.03 40 19:23 27.01.2021
3251 Clouds 25 1011 94 10000 3.47 61 18:46 27.01.2021
3252 Clouds 25 1011 94 10000 3.56 72 18:26 27.01.2021
3253 Clouds 26 1012 83 10000 1.03 90 17:56 27.01.2021
3254 Clouds 26 1012 83 10000 1.03 90 17:38 27.01.2021
3255 Clouds 25 1012 94 10000 1.03 80 16:58 27.01.2021
3256 Clouds 25 1012 94 10000 1.03 80 16:39 27.01.2021
3257 Clouds 26 1012 94 10000 1.03 80 16:21 27.01.2021
3258 Clouds 26 1012 83 10000 3.27 82 15:49 27.01.2021
3259 Clouds 26 1012 83 10000 3.66 89 15:29 27.01.2021
3260 Clouds 26 1012 89 10000 1.03 0 14:24 27.01.2021
3261 Clouds 25 1011 94 10000 1.54 120 13:53 27.01.2021
3262 Clouds 25 1011 94 10000 1.54 120 13:35 27.01.2021
3263 Clouds 25 1011 94 9000 2.57 130 12:42 27.01.2021
3264 Clouds 25 1011 94 9000 2.57 130 12:42 27.01.2021
3265 Clouds 25 1011 94 9000 2.57 130 12:24 27.01.2021
3266 Clouds 25 1010 89 9000 2.57 130 11:48 27.01.2021
3267 Clouds 26 1010 89 9000 2.57 130 11:26 27.01.2021
3268 Clouds 26 1009 94 9000 1.03 0 10:47 27.01.2021
3269 Clouds 26 1009 94 9000 1.03 0 10:25 27.01.2021
3270 Clouds 26 1009 94 8000 1.03 0 09:56 27.01.2021
3271 Clouds 27 1009 94 8000 1.03 0 09:28 27.01.2021
3272 Clouds 28 1008 83 10000 1.03 0 08:42 27.01.2021
3273 Clouds 28 1009 78 9000 3.09 280 07:49 27.01.2021
3274 Clouds 29 1009 74 10000 2.06 290 07:30 27.01.2021
3275 Clouds 29 1010 74 9000 2.06 290 06:26 27.01.2021
3276 Clouds 29 1010 78 9000 2.57 280 05:53 27.01.2021
3277 Clouds 28 1010 78 9000 3.09 280 05:33 27.01.2021
3278 Clouds 27 1011 78 10000 1.03 0 02:46 27.01.2021
3279 Clouds 27 1011 78 10000 1.03 0 02:20 27.01.2021
3280 Clouds 27 1010 83 10000 0.51 0 00:56 27.01.2021
3281 Clouds 26 1010 89 10000 1.54 310 23:52 26.01.2021
3282 Clouds 26 1010 89 10000 1.54 310 23:32 26.01.2021
3283 Clouds 26 1010 89 10000 0.51 0 22:52 26.01.2021
3284 Clouds 26 1010 89 10000 0.51 0 22:34 26.01.2021
3285 Clouds 26 1009 83 10000 1.03 0 21:59 26.01.2021
3286 Clouds 26 1009 83 10000 1.03 0 21:40 26.01.2021
3287 Clouds 26 1009 83 10000 1.03 0 21:21 26.01.2021
3288 Clouds 26 1009 89 10000 1.71 55 20:41 26.01.2021
3289 Clouds 26 1009 89 10000 1.92 57 20:22 26.01.2021
3290 Clouds 26 1010 89 10000 1.92 57 19:48 26.01.2021
3291 Clouds 26 1010 89 10000 1.89 66 19:29 26.01.2021
3292 Clouds 26 1011 89 10000 2.06 60 18:57 26.01.2021
3293 Clouds 26 1011 89 10000 2.06 60 18:37 26.01.2021
3294 Clouds 26 1011 89 10000 2.06 60 18:18 26.01.2021
3295 Clouds 26 1011 89 10000 1.54 90 17:46 26.01.2021
3296 Clouds 26 1011 89 10000 1.54 90 17:20 26.01.2021
3297 Clouds 26 1011 89 10000 2.57 130 16:41 26.01.2021
3298 Clouds 26 1011 89 10000 2.57 130 16:20 26.01.2021
3299 Clouds 26 1011 78 10000 2.57 120 15:48 26.01.2021
3300 Clouds 26 1011 78 10000 2.57 120 15:27 26.01.2021
3301 Clouds 26 1011 78 10000 3.6 110 14:49 26.01.2021
3302 Clouds 26 1011 78 10000 3.6 110 14:29 26.01.2021
3303 Clouds 27 1011 78 10000 2.57 100 13:38 26.01.2021
3304 Clouds 27 1011 78 10000 2.57 100 13:19 26.01.2021
3305 Clouds 27 1010 78 10000 2.06 130 12:44 26.01.2021
3306 Clouds 27 1010 78 10000 2.06 130 12:25 26.01.2021
3307 Clouds 28 1009 78 10000 2.06 0 11:57 26.01.2021
3308 Clouds 28 1009 78 10000 2.06 0 11:57 26.01.2021
3309 Clouds 28 1009 78 10000 2.06 0 11:38 26.01.2021
3310 Clouds 29 1009 74 10000 2.57 140 10:45 26.01.2021
3311 Clouds 29 1009 74 10000 2.57 140 10:27 26.01.2021
3312 Clouds 29 1009 70 10000 0.51 0 09:42 26.01.2021
3313 Clouds 29 1009 70 10000 0.51 0 09:23 26.01.2021
3314 Clouds 30 1009 66 10000 1.03 0 08:52 26.01.2021
3315 Clouds 30 1009 66 10000 1.03 0 08:24 26.01.2021
3316 Clouds 29 1009 70 10000 3.09 320 07:39 26.01.2021
3317 Clouds 30 1011 74 9000 2.57 270 05:59 26.01.2021
3318 Clouds 30 1011 74 9000 2.57 270 05:41 26.01.2021
3319 Clouds 29 1012 70 10000 0.51 0 03:58 26.01.2021
3320 Clouds 28 1012 78 10000 0.51 0 02:19 26.01.2021
3321 Clouds 25 1011 94 10000 1.03 0 00:54 26.01.2021
3322 Clouds 24 1011 94 10000 1.03 0 23:36 25.01.2021
3323 Clouds 24 1010 94 10000 1.54 30 22:57 25.01.2021
3324 Clouds 24 1010 94 10000 1.54 30 22:36 25.01.2021
3325 Clouds 24 1010 94 10000 1.54 70 21:50 25.01.2021
3326 Clouds 24 1010 94 10000 1.54 70 21:26 25.01.2021
3327 Clouds 25 1010 88 10000 0.51 0 20:51 25.01.2021
3328 Clouds 25 1010 88 10000 0.51 0 20:33 25.01.2021
3329 Clouds 25 1010 88 10000 0.51 0 19:51 25.01.2021
3330 Clouds 25 1010 88 10000 0.51 0 19:31 25.01.2021
3331 Clouds 25 1011 94 9000 4.12 50 18:48 25.01.2021
3332 Clouds 25 1011 94 9000 4.12 50 18:28 25.01.2021
3333 Clouds 25 1011 94 9000 4.12 50 17:58 25.01.2021
3334 Clouds 26 1012 83 9000 1.54 100 17:39 25.01.2021
3335 Clouds 26 1012 83 9000 1.54 100 17:20 25.01.2021
3336 Clouds 26 1011 83 9000 3.09 80 16:41 25.01.2021
3337 Clouds 26 1011 83 9000 3.09 80 16:21 25.01.2021
3338 Clouds 27 1011 78 10000 2.06 90 15:48 25.01.2021
3339 Clouds 27 1011 78 10000 2.06 90 15:29 25.01.2021
3340 Clouds 27 1011 78 10000 1.54 130 14:46 25.01.2021
3341 Clouds 28 1011 78 10000 1.54 130 14:19 25.01.2021
3342 Clouds 27 1011 78 10000 1.03 0 13:49 25.01.2021
3343 Clouds 27 1011 78 10000 1.03 0 13:26 25.01.2021
3344 Clouds 28 1010 78 10000 1.03 0 12:45 25.01.2021
3345 Clouds 28 1010 78 10000 1.03 0 12:20 25.01.2021
3346 Clouds 28 1010 74 10000 2.06 110 11:47 25.01.2021
3347 Clouds 28 1010 74 10000 2.06 110 11:47 25.01.2021
3348 Clouds 28 1010 74 10000 2.06 110 11:18 25.01.2021
3349 Clouds 29 1010 70 10000 3.09 120 10:40 25.01.2021
3350 Clouds 29 1010 70 10000 3.09 120 10:18 25.01.2021
3351 Clouds 30 1009 70 10000 0.51 0 09:43 25.01.2021
3352 Clouds 30 1009 70 10000 0.51 0 09:25 25.01.2021
3353 Clouds 28 1010 89 9000 2.06 350 08:28 25.01.2021
3354 Clouds 29 1010 83 10000 3.09 300 07:32 25.01.2021
3355 Clouds 28 1011 89 9000 3.09 30 06:55 25.01.2021
3356 Clouds 29 1012 70 10000 3.6 120 03:46 25.01.2021
3357 Clouds 28 1012 78 10000 1.54 130 01:30 25.01.2021
3358 Clouds 28 1012 78 10000 1.54 130 01:30 25.01.2021
3359 Clouds 26 1011 89 10000 1.03 110 23:41 24.01.2021
3360 Clouds 26 1011 89 10000 1.03 110 23:19 24.01.2021
3361 Clouds 26 1011 89 10000 1.03 0 22:42 24.01.2021
3362 Clouds 26 1011 89 10000 1.03 0 22:20 24.01.2021
3363 Clouds 26 1010 89 10000 2.69 86 21:48 24.01.2021
3364 Clouds 26 1010 89 10000 3 90 21:24 24.01.2021
3365 Clouds 26 1010 89 10000 0.51 0 20:45 24.01.2021
3366 Clouds 26 1010 89 10000 0.51 0 20:21 24.01.2021
3367 Clouds 26 1011 89 10000 1.03 0 19:52 24.01.2021
3368 Clouds 26 1011 89 10000 1.03 0 19:27 24.01.2021
3369 Clouds 27 1011 78 10000 1.54 120 18:58 24.01.2021
3370 Clouds 27 1011 78 10000 1.54 120 18:39 24.01.2021
3371 Clouds 27 1011 78 10000 1.54 120 18:39 24.01.2021
3372 Clouds 26 1011 78 10000 1.54 120 18:20 24.01.2021
3373 Clouds 27 1012 83 10000 1.03 0 17:50 24.01.2021
3374 Clouds 27 1012 83 10000 1.03 0 17:28 24.01.2021
3375 Clouds 27 1012 83 10000 1.03 0 16:57 24.01.2021
3376 Clouds 27 1012 83 10000 1.03 0 16:37 24.01.2021
3377 Clouds 27 1012 83 10000 1.03 0 16:18 24.01.2021
3378 Clouds 27 1012 83 10000 2.06 140 15:43 24.01.2021
3379 Clouds 27 1012 83 10000 2.06 140 15:18 24.01.2021
3380 Clouds 27 1012 78 10000 1.54 130 14:38 24.01.2021
3381 Clouds 27 1011 78 9000 3.09 120 13:46 24.01.2021
3382 Clouds 27 1011 78 9000 3.09 120 13:26 24.01.2021
3383 Clouds 27 1011 78 9000 3.6 110 12:49 24.01.2021
3384 Clouds 27 1011 78 9000 3.6 110 12:20 24.01.2021
3385 Clouds 28 1010 74 10000 3.09 110 11:50 24.01.2021
3386 Clouds 28 1010 74 10000 3.09 110 11:24 24.01.2021
3387 Clouds 29 1010 74 9000 3.6 30 10:46 24.01.2021
3388 Clouds 29 1010 74 9000 3.6 30 10:46 24.01.2021
3389 Clouds 29 1010 74 9000 3.6 30 10:19 24.01.2021
3390 Clouds 30 1009 66 9000 2.57 0 09:22 24.01.2021
3391 Clouds 31 1009 62 10000 3.09 130 08:58 24.01.2021
3392 Clouds 31 1009 62 10000 3.09 130 08:23 24.01.2021
3393 Clouds 29 1013 79 8000 1.03 0 02:52 24.01.2021
3394 Clouds 28 1012 78 9000 1.03 0 01:52 24.01.2021
3395 Clouds 26 1011 89 9000 0.51 0 00:26 24.01.2021
3396 Clouds 26 1010 89 9000 1.03 80 23:53 23.01.2021
3397 Clouds 26 1010 89 9000 1.03 80 23:26 23.01.2021
3398 Clouds 25 1010 94 9000 0.51 0 22:53 23.01.2021
3399 Clouds 25 1010 94 9000 0.51 0 22:33 23.01.2021
3400 Clouds 26 1010 94 10000 1.73 48 21:53 23.01.2021
3401 Clouds 26 1010 94 10000 1.51 33 21:22 23.01.2021
3402 Clouds 26 1010 89 10000 0.51 130 20:48 23.01.2021
3403 Clouds 26 1010 89 10000 0.51 130 20:48 23.01.2021
3404 Clouds 26 1010 89 10000 0.51 130 20:25 23.01.2021
3405 Clouds 26 1010 89 10000 1.25 19 19:47 23.01.2021
3406 Clouds 26 1010 89 10000 0.66 9 19:23 23.01.2021
3407 Clouds 26 1010 89 10000 0.51 0 18:49 23.01.2021
3408 Clouds 26 1010 89 10000 0.51 0 18:26 23.01.2021
3409 Clouds 26 1011 83 10000 0.51 0 17:54 23.01.2021
3410 Clouds 26 1011 83 10000 0.51 0 17:27 23.01.2021
3411 Clouds 26 1011 89 10000 1.03 0 16:50 23.01.2021
3412 Clouds 26 1011 89 10000 1.03 0 16:30 23.01.2021
3413 Clouds 27 1011 83 10000 1.03 240 15:42 23.01.2021
3414 Clouds 27 1011 83 10000 1.03 240 15:24 23.01.2021
3415 Clouds 27 1010 83 10000 1.54 250 14:34 23.01.2021
3416 Clouds 27 1010 83 10000 1.3 273 13:56 23.01.2021
3417 Clouds 27 1010 83 10000 1.3 273 13:36 23.01.2021
3418 Clouds 27 1010 83 10000 1.54 310 12:57 23.01.2021
3419 Clouds 27 1010 83 10000 1.54 310 12:29 23.01.2021
3420 Clouds 27 1009 78 10000 2.06 280 11:48 23.01.2021
3421 Clouds 28 1009 78 10000 2.06 280 11:28 23.01.2021
3422 Clouds 28 1008 78 10000 3.6 290 10:52 23.01.2021
3423 Clouds 28 1008 78 10000 3.6 290 10:21 23.01.2021
3424 Clouds 28 1008 78 10000 3.6 290 09:48 23.01.2021
3425 Clouds 29 1008 74 10000 4.12 300 08:57 23.01.2021
3426 Clouds 29 1008 74 10000 4.12 300 08:31 23.01.2021
3427 Clouds 28 1009 83 10000 4.12 290 07:31 23.01.2021
3428 Clouds 29 1011 78 10000 1.03 0 03:41 23.01.2021
3429 Clouds 26 1009 94 10000 1.03 0 00:54 23.01.2021
3430 Clouds 25 1009 88 10000 2.57 70 23:41 22.01.2021
3431 Clouds 24 1009 88 10000 2.57 70 23:18 22.01.2021
3432 Clouds 25 1009 94 10000 0.51 0 22:38 22.01.2021
3433 Clouds 25 1008 94 10000 1.03 0 21:47 22.01.2021
3434 Clouds 24 1008 94 10000 1.03 0 21:28 22.01.2021
3435 Clouds 24 1008 100 10000 2.57 60 20:57 22.01.2021
3436 Clouds 24 1008 100 10000 2.57 60 20:38 22.01.2021
3437 Clouds 24 1009 100 6000 3.09 220 19:56 22.01.2021
3438 Clouds 24 1009 100 6000 3.09 220 19:24 22.01.2021
3439 Clouds 25 1009 89 9000 4.12 230 18:57 22.01.2021
3440 Clouds 25 1009 89 9000 4.12 230 18:39 22.01.2021
3441 Clouds 26 1009 89 9000 4.12 230 18:20 22.01.2021
3442 Clouds 27 1009 83 10000 1.03 0 17:43 22.01.2021
3443 Clouds 27 1009 83 10000 1.54 0 16:59 22.01.2021
3444 Clouds 27 1009 83 10000 1.54 0 16:38 22.01.2021
3445 Clouds 27 1009 83 10000 1.54 0 16:18 22.01.2021
3446 Rain 27 1009 83 10000 1.03 0 15:28 22.01.2021
3447 Clouds 27 1009 83 10000 1.03 100 14:51 22.01.2021
3448 Clouds 27 1009 83 10000 1.03 100 14:29 22.01.2021
3449 Clouds 27 1009 78 10000 1.54 0 13:46 22.01.2021
3450 Clouds 28 1009 78 10000 1.54 0 13:27 22.01.2021
3451 Clouds 28 1008 74 10000 2.57 130 12:44 22.01.2021
3452 Clouds 28 1008 74 10000 2.57 130 12:20 22.01.2021
3453 Clouds 29 1007 74 10000 1.03 0 11:45 22.01.2021
3454 Clouds 29 1006 70 10000 2.57 120 10:51 22.01.2021
3455 Clouds 30 1006 70 10000 2.57 120 10:29 22.01.2021
3456 Clouds 30 1006 70 10000 3.09 110 09:55 22.01.2021
3457 Clouds 30 1006 70 10000 3.09 110 09:20 22.01.2021
3458 Clouds 30 1006 66 10000 3.6 100 08:45 22.01.2021
3459 Clouds 31 1006 66 10000 3.6 100 08:22 22.01.2021
3460 Clouds 30 1007 74 10000 2.06 70 07:23 22.01.2021
3461 Clouds 27 1011 83 10000 1.54 0 02:38 22.01.2021
3462 Clouds 26 1010 94 10000 1.03 0 00:31 22.01.2021
3463 Clouds 26 1009 89 10000 0.51 0 23:50 21.01.2021
3464 Clouds 26 1009 89 10000 0.51 0 23:22 21.01.2021
3465 Clouds 26 1008 94 10000 1.03 200 22:48 21.01.2021
3466 Rain 26 1008 94 10000 1.03 200 22:18 21.01.2021
3467 Rain 25 1008 100 10000 2.24 93 21:41 21.01.2021
3468 Rain 25 1008 100 10000 2.26 90 21:19 21.01.2021
3469 Clouds 26 1008 89 10000 1.03 0 20:47 21.01.2021
3470 Clouds 26 1008 89 10000 1.03 0 20:22 21.01.2021
3471 Clouds 26 1009 89 10000 0.51 0 19:51 21.01.2021
3472 Clouds 26 1009 89 10000 0.51 0 19:27 21.01.2021
3473 Clouds 26 1009 89 10000 1.54 140 18:54 21.01.2021
3474 Clouds 26 1009 89 10000 1.54 140 18:54 21.01.2021
3475 Clouds 26 1009 89 10000 1.54 140 18:36 21.01.2021
3476 Clouds 26 1009 89 10000 1.54 140 18:18 21.01.2021
3477 Clouds 26 1010 89 10000 1.03 0 17:41 21.01.2021
3478 Clouds 26 1010 89 10000 1.03 0 17:18 21.01.2021
3479 Clouds 26 1010 89 10000 1.03 0 17:18 21.01.2021
3480 Clouds 27 1010 89 10000 1.54 180 16:41 21.01.2021
3481 Clouds 27 1010 89 10000 1.54 180 16:23 21.01.2021
3482 Clouds 27 1009 78 10000 2.57 130 15:49 21.01.2021
3483 Clouds 27 1009 78 10000 2.57 130 15:28 21.01.2021
3484 Clouds 27 1009 78 10000 2.57 130 14:48 21.01.2021
3485 Clouds 27 1009 78 10000 2.57 130 14:29 21.01.2021
3486 Clouds 28 1009 83 10000 2.06 130 13:47 21.01.2021
3487 Clouds 28 1009 83 10000 2.06 130 13:26 21.01.2021
3488 Rain 28 1008 79 10000 2.06 120 12:46 21.01.2021
3489 Clouds 28 1008 79 10000 2.06 120 12:25 21.01.2021
3490 Clouds 28 1008 79 10000 1.03 0 11:56 21.01.2021
3491 Clouds 29 1008 79 10000 1.03 0 11:35 21.01.2021
3492 Clouds 29 1007 74 10000 1.54 100 10:53 21.01.2021
3493 Clouds 29 1007 74 10000 1.54 100 10:34 21.01.2021
3494 Clouds 30 1006 70 10000 2.57 110 09:50 21.01.2021
3495 Clouds 30 1006 70 10000 2.57 110 09:30 21.01.2021
3496 Clouds 30 1007 70 10000 3.61 119 08:59 21.01.2021
3497 Clouds 30 1007 70 10000 3.61 119 08:34 21.01.2021
3498 Clouds 30 1007 70 10000 48.36 129 07:46 21.01.2021
3499 Clouds 30 1007 70 10000 48.36 129 07:26 21.01.2021
3500 Clouds 30 1009 66 9000 3.09 130 05:59 21.01.2021
3501 Clouds 30 1010 66 10000 2.06 0 04:32 21.01.2021
3502 Clouds 27 1011 89 10000 0.51 0 02:18 21.01.2021
3503 Rain 25 1010 94 10000 1.54 360 00:41 21.01.2021
3504 Rain 24 1009 94 10000 2.67 12 23:44 20.01.2021
3505 Clouds 24 1009 94 10000 3.33 7 23:24 20.01.2021
3506 Rain 24 1009 94 10000 3.33 7 22:50 20.01.2021
3507 Rain 24 1009 94 10000 3.16 9 22:29 20.01.2021
3508 Rain 24 1008 94 10000 0.51 0 21:49 20.01.2021
3509 Clouds 24 1008 94 10000 0.51 0 21:23 20.01.2021
3510 Rain 24 1008 94 9000 2.13 23 20:51 20.01.2021
3511 Rain 24 1008 94 9000 1.82 32 20:21 20.01.2021
3512 Rain 24 1009 100 8000 2.06 10 19:47 20.01.2021
3513 Clouds 24 1009 100 8000 2.06 10 19:28 20.01.2021
3514 Rain 24 1009 100 7000 1.03 0 18:43 20.01.2021
3515 Rain 24 1009 100 7000 1.03 0 18:43 20.01.2021
3516 Rain 24 1009 100 7000 1.03 0 18:21 20.01.2021
3517 Rain 24 1010 100 6000 1.35 96 17:48 20.01.2021
3518 Clouds 24 1010 100 6000 1.61 97 17:27 20.01.2021
3519 Rain 24 1010 100 5000 1.61 97 16:49 20.01.2021
3520 Rain 24 1010 100 5000 1.79 104 16:22 20.01.2021
3521 Rain 24 1010 94 8000 2.06 10 15:38 20.01.2021
3522 Clouds 24 1010 94 9000 104.43 0 14:58 20.01.2021
3523 Rain 25 1010 94 9000 104.43 0 14:39 20.01.2021
3524 Rain 25 1010 94 9000 104.43 0 14:19 20.01.2021
3525 Rain 25 1010 94 8000 2.06 20 13:37 20.01.2021
3526 Clouds 25 1009 94 7000 0.51 0 12:56 20.01.2021
3527 Rain 25 1009 94 7000 0.51 0 12:22 20.01.2021
3528 Rain 25 1009 94 7000 0.51 0 12:22 20.01.2021
3529 Rain 25 1008 94 7000 3.09 110 11:41 20.01.2021
3530 Rain 25 1008 94 7000 3.09 110 11:20 20.01.2021
3531 Clouds 27 1008 78 9000 1.54 320 10:46 20.01.2021
3532 Rain 28 1008 78 9000 1.54 320 10:25 20.01.2021
3533 Clouds 28 1007 83 9000 2.57 10 09:38 20.01.2021
3534 Clouds 27 1007 83 9000 2.57 10 09:19 20.01.2021
3535 Clouds 27 1007 89 9000 2.57 350 08:41 20.01.2021
3536 Clouds 27 1007 89 9000 2.57 350 08:21 20.01.2021
3537 Clouds 26 1008 94 9000 4.12 330 07:38 20.01.2021
3538 Rain 26 1008 94 9000 4.12 330 07:18 20.01.2021
3539 Clouds 26 1010 83 9000 1.54 0 04:29 20.01.2021
3540 Clouds 26 1011 78 10000 3.09 20 01:51 20.01.2021
3541 Clouds 25 1010 88 10000 1.03 230 00:58 20.01.2021
3542 Clouds 25 1009 88 10000 1.03 0 23:54 19.01.2021
3543 Clouds 25 1009 88 10000 1.03 0 23:34 19.01.2021
3544 Clouds 25 1009 88 10000 1.03 0 23:34 19.01.2021
3545 Clouds 25 1009 88 10000 1.03 0 22:58 19.01.2021
3546 Clouds 25 1009 88 10000 1.03 0 22:40 19.01.2021
3547 Clouds 25 1009 88 10000 1.03 0 22:21 19.01.2021
3548 Clouds 25 1009 88 10000 1.03 0 21:54 19.01.2021
3549 Clouds 25 1009 88 10000 1.03 0 21:34 19.01.2021
3550 Clouds 25 1008 88 10000 1.03 0 20:49 19.01.2021
3551 Clouds 25 1008 88 10000 1.03 0 20:27 19.01.2021
3552 Clouds 25 1009 88 10000 1.03 0 19:56 19.01.2021
3553 Clouds 25 1009 88 10000 1.03 0 19:34 19.01.2021
3554 Clouds 25 1009 83 10000 1.54 30 18:51 19.01.2021
3555 Clouds 25 1009 83 10000 1.54 30 18:32 19.01.2021
3556 Clouds 25 1009 88 10000 2.06 10 17:55 19.01.2021
3557 Clouds 25 1009 88 10000 2.06 10 17:37 19.01.2021
3558 Clouds 25 1009 88 10000 2.06 10 17:18 19.01.2021
3559 Clouds 25 1010 88 10000 1.03 0 16:38 19.01.2021
3560 Clouds 25 1010 88 10000 1.03 0 16:18 19.01.2021
3561 Clouds 25 1010 94 9000 3.59 53 15:47 19.01.2021
3562 Clouds 25 1010 94 9000 3.74 56 15:29 19.01.2021
3563 Clouds 25 1011 88 7000 1.54 50 14:42 19.01.2021
3564 Clouds 25 1011 88 7000 1.54 50 14:23 19.01.2021
3565 Clouds 26 1011 78 10000 3.09 10 13:49 19.01.2021
3566 Clouds 26 1011 78 10000 3.09 10 13:22 19.01.2021
3567 Clouds 26 1010 78 10000 1.54 60 12:48 19.01.2021
3568 Clouds 26 1010 78 10000 1.54 60 12:30 19.01.2021
3569 Clouds 26 1010 78 10000 1.54 60 12:30 19.01.2021
3570 Clouds 27 1009 74 10000 2.57 60 11:50 19.01.2021
3571 Clouds 27 1009 74 10000 2.57 60 11:28 19.01.2021
3572 Clouds 27 1009 74 10000 2.57 60 11:28 19.01.2021
3573 Clouds 27 1009 78 10000 1.54 270 10:52 19.01.2021
3574 Clouds 27 1009 78 10000 1.54 270 10:32 19.01.2021
3575 Clouds 27 1008 83 10000 1.54 260 09:53 19.01.2021
3576 Clouds 28 1008 83 10000 1.54 260 09:30 19.01.2021
3577 Clouds 28 1008 78 9000 1.54 0 08:56 19.01.2021
3578 Clouds 28 1008 78 9000 1.54 0 08:24 19.01.2021
3579 Rain 28 1008 74 10000 2.06 270 07:47 19.01.2021
3580 Clouds 28 1009 69 10000 2.57 260 06:53 19.01.2021
3581 Clouds 27 1011 74 10000 1.03 0 02:32 19.01.2021
3582 Clouds 26 1010 83 10000 1.03 0 00:55 19.01.2021
3583 Clouds 26 1009 78 10000 0.51 0 23:58 18.01.2021
3584 Clouds 26 1009 78 10000 0.51 0 23:32 18.01.2021
3585 Clouds 26 1009 78 10000 1.03 0 22:51 18.01.2021
3586 Clouds 26 1009 78 10000 1.03 0 22:26 18.01.2021
3587 Clouds 25 1008 78 10000 1.03 0 21:55 18.01.2021
3588 Clouds 25 1008 78 10000 1.03 0 21:37 18.01.2021
3589 Clouds 25 1008 78 10000 1.03 0 21:19 18.01.2021
3590 Clouds 25 1008 83 10000 0.51 0 20:42 18.01.2021
3591 Clouds 25 1008 83 10000 0.51 0 20:22 18.01.2021
3592 Clouds 26 1009 78 10000 1.03 0 19:48 18.01.2021
3593 Clouds 26 1009 78 10000 1.03 0 19:30 18.01.2021
3594 Clouds 26 1009 78 10000 1.03 0 18:47 18.01.2021
3595 Clouds 26 1009 78 10000 1.03 0 18:47 18.01.2021
3596 Rain 26 1009 78 10000 1.03 0 18:23 18.01.2021
3597 Clouds 26 1010 78 10000 0.51 0 17:44 18.01.2021
3598 Rain 26 1010 78 10000 0.51 0 17:21 18.01.2021
3599 Clouds 26 1010 78 10000 1.03 0 16:46 18.01.2021
3600 Clouds 26 1010 78 10000 1.03 0 16:20 18.01.2021
3601 Rain 26 1011 78 10000 0.51 0 15:45 18.01.2021
3602 Rain 26 1011 78 10000 0.51 0 15:25 18.01.2021
3603 Clouds 26 1011 69 10000 2.06 100 14:44 18.01.2021
3604 Rain 27 1011 69 10000 2.06 100 14:26 18.01.2021
3605 Rain 26 1011 74 10000 1.54 160 13:47 18.01.2021
3606 Clouds 26 1011 74 10000 1.54 160 13:27 18.01.2021
3607 Clouds 27 1010 69 10000 2.57 30 12:53 18.01.2021
3608 Clouds 26 1010 69 10000 3.6 30 12:21 18.01.2021
3609 Clouds 27 1010 69 10000 3.6 30 11:56 18.01.2021
3610 Rain 27 1010 69 10000 3.6 30 11:37 18.01.2021
3611 Rain 27 1010 69 10000 3.6 30 11:19 18.01.2021
3612 Clouds 28 1009 65 10000 3.6 40 10:42 18.01.2021
3613 Clouds 28 1009 65 10000 4.12 20 09:47 18.01.2021
3614 Rain 28 1009 65 10000 4.12 20 09:27 18.01.2021
3615 Clouds 28 1008 17 10000 4.12 30 08:52 18.01.2021
3616 Clouds 28 1008 17 10000 4.12 30 08:18 18.01.2021
3617 Clouds 29 1008 65 10000 3.09 30 07:33 18.01.2021
3618 Clouds 29 1010 63 10000 6.67 56 05:32 18.01.2021
3619 Clouds 28 1011 69 10000 4.12 40 04:33 18.01.2021
3620 Clouds 28 1012 74 10000 2.06 40 03:59 18.01.2021
3621 Rain 28 1012 74 10000 2.06 40 03:41 18.01.2021
3622 Clouds 28 1012 74 10000 2.06 40 03:19 18.01.2021
3623 Clouds 27 1012 74 10000 1.54 50 02:37 18.01.2021
3624 Rain 25 1011 83 10000 0.51 0 00:46 18.01.2021
3625 Clouds 25 1011 83 10000 0.51 0 00:27 18.01.2021
3626 Rain 25 1010 78 10000 1.03 0 23:46 17.01.2021
3627 Clouds 25 1010 78 10000 1.03 0 23:20 17.01.2021
3628 Clouds 25 1009 78 10000 1.54 360 22:39 17.01.2021
3629 Clouds 25 1009 78 10000 1.54 360 22:39 17.01.2021
3630 Clouds 25 1009 78 10000 1.54 360 22:19 17.01.2021
3631 Clouds 25 1009 78 10000 1.54 20 21:39 17.01.2021
3632 Clouds 25 1009 78 10000 1.54 20 21:21 17.01.2021
3633 Rain 25 1009 78 10000 1.54 40 20:48 17.01.2021
3634 Clouds 25 1009 78 10000 1.54 40 20:27 17.01.2021
3635 Clouds 25 1009 73 10000 2.57 20 19:42 17.01.2021
3636 Rain 26 1009 73 10000 2.57 20 19:22 17.01.2021
3637 Clouds 26 1010 73 9000 2.06 30 18:41 17.01.2021
3638 Rain 26 1010 73 9000 2.06 30 18:21 17.01.2021
3639 Rain 25 1010 78 10000 1.54 60 17:47 17.01.2021
3640 Clouds 26 1010 78 10000 1.54 60 17:26 17.01.2021
3641 Clouds 26 1010 78 10000 2.06 40 16:44 17.01.2021
3642 Clouds 25 1010 78 10000 2.06 40 16:20 17.01.2021
3643 Clouds 25 1011 78 10000 3.09 30 15:43 17.01.2021
3644 Clouds 25 1011 78 10000 3.09 30 15:24 17.01.2021
3645 Clouds 25 1011 78 10000 1.54 10 14:49 17.01.2021
3646 Rain 25 1011 78 10000 1.54 10 14:26 17.01.2021
3647 Clouds 25 1011 83 9000 2.57 40 13:45 17.01.2021
3648 Rain 25 1011 83 9000 2.57 40 13:27 17.01.2021
3649 Clouds 26 1010 69 10000 3.09 30 12:53 17.01.2021
3650 Clouds 26 1010 69 10000 3.09 30 12:31 17.01.2021
3651 Clouds 27 1009 65 10000 3.09 20 11:56 17.01.2021
3652 Clouds 27 1009 65 10000 3.09 20 11:23 17.01.2021
3653 Clouds 28 1008 61 10000 3.09 100 10:48 17.01.2021
3654 Clouds 28 1008 61 10000 3.09 100 10:21 17.01.2021
3655 Clouds 29 1008 54 10000 3.6 20 09:25 17.01.2021
3656 Clouds 29 1008 54 10000 4.63 60 08:44 17.01.2021
3657 Clouds 30 1009 58 10000 2.57 100 06:52 17.01.2021
3658 Clouds 29 1011 58 10000 1.54 40 04:28 17.01.2021
3659 Clouds 27 1012 65 10000 0.51 0 02:42 17.01.2021
3660 Clouds 25 1011 78 10000 0.51 0 00:47 17.01.2021
3661 Clouds 25 1011 78 10000 0.51 0 00:18 17.01.2021
3662 Clouds 25 1010 83 10000 2.59 57 23:48 16.01.2021
3663 Clouds 25 1010 83 10000 2.39 56 23:19 16.01.2021
3664 Clouds 25 1009 78 10000 2.39 56 22:36 16.01.2021
3665 Clouds 25 1009 78 10000 1.03 0 21:58 16.01.2021
3666 Clouds 25 1009 78 10000 1.03 0 21:25 16.01.2021
3667 Clouds 25 1009 73 10000 2.06 110 20:59 16.01.2021
3668 Clouds 25 1009 73 10000 2.06 110 20:40 16.01.2021
3669 Clouds 25 1009 73 10000 2.06 110 20:18 16.01.2021
3670 Clouds 26 1009 73 10000 2.06 110 19:41 16.01.2021
3671 Clouds 26 1009 73 10000 2.06 110 19:23 16.01.2021
3672 Clouds 26 1010 73 10000 2.57 120 18:42 16.01.2021
3673 Rain 26 1010 73 10000 2.57 120 18:21 16.01.2021
3674 Clouds 26 1010 73 10000 1.54 120 17:41 16.01.2021
3675 Clouds 26 1010 73 10000 1.54 120 17:23 16.01.2021
3676 Clouds 26 1010 73 10000 2.57 120 16:45 16.01.2021
3677 Clouds 26 1010 73 10000 2.57 120 16:25 16.01.2021
3678 Clouds 26 1010 78 10000 3.6 110 15:48 16.01.2021
3679 Clouds 26 1010 73 10000 3.6 120 14:59 16.01.2021
3680 Clouds 26 1010 73 10000 3.6 120 14:18 16.01.2021
3681 Clouds 26 1010 73 10000 3.09 110 13:47 16.01.2021
3682 Clouds 26 1010 73 10000 3.09 110 13:19 16.01.2021
3683 Clouds 26 1009 73 10000 3.09 120 12:39 16.01.2021
3684 Clouds 26 1009 73 10000 3.09 120 12:20 16.01.2021
3685 Clouds 26 1009 73 10000 3.09 120 12:20 16.01.2021
3686 Clouds 27 1009 69 10000 3.09 120 11:46 16.01.2021
3687 Clouds 27 1009 69 10000 3.09 120 11:24 16.01.2021
3688 Clouds 27 1008 65 10000 4.12 130 10:43 16.01.2021
3689 Clouds 28 1007 61 10000 3.6 110 09:59 16.01.2021
3690 Clouds 28 1007 61 10000 3.6 110 09:31 16.01.2021
3691 Clouds 28 1007 65 10000 4.12 110 08:32 16.01.2021
3692 Clouds 29 1007 65 10000 3.09 0 07:28 16.01.2021
3693 Clouds 29 1009 62 10000 2.06 0 05:46 16.01.2021
3694 Clouds 28 1010 69 10000 1.54 0 04:38 16.01.2021
3695 Clouds 29 1011 65 10000 2.06 80 02:54 16.01.2021
3696 Clouds 26 1010 83 10000 1.03 0 00:49 16.01.2021
3697 Clouds 26 1010 83 10000 1.03 0 00:25 16.01.2021
3698 Clouds 25 1009 83 10000 1.03 0 23:40 15.01.2021
3699 Clouds 25 1008 83 10000 1.03 0 22:47 15.01.2021
3700 Clouds 25 1008 83 10000 1.03 0 22:23 15.01.2021
3701 Clouds 25 1008 83 10000 1.03 0 21:46 15.01.2021
3702 Clouds 25 1008 83 10000 1.03 0 20:58 15.01.2021
3703 Clouds 25 1008 83 10000 1.03 0 20:40 15.01.2021
3704 Clouds 25 1008 83 10000 1.03 0 20:19 15.01.2021
3705 Clouds 25 1008 83 10000 1.03 0 19:40 15.01.2021
3706 Clouds 25 1008 83 10000 1.03 0 19:22 15.01.2021
3707 Clouds 26 1008 78 10000 1.54 100 18:42 15.01.2021
3708 Clouds 26 1008 78 10000 1.54 100 18:19 15.01.2021
3709 Clouds 26 1009 78 10000 2.06 110 17:50 15.01.2021
3710 Clouds 26 1009 78 10000 2.06 110 17:24 15.01.2021
3711 Clouds 26 1009 78 10000 2.57 120 16:52 15.01.2021
3712 Clouds 26 1009 78 10000 2.57 120 16:24 15.01.2021
3713 Clouds 26 1009 78 10000 3.09 120 15:41 15.01.2021
3714 Clouds 26 1009 78 10000 3.09 120 15:21 15.01.2021
3715 Clouds 26 1009 74 10000 3.09 120 14:48 15.01.2021
3716 Clouds 26 1009 74 10000 3.09 120 14:27 15.01.2021
3717 Clouds 27 1009 74 10000 3.09 0 13:43 15.01.2021
3718 Clouds 27 1009 74 10000 3.09 0 13:23 15.01.2021
3719 Clouds 27 1008 74 10000 2.57 130 12:58 15.01.2021
3720 Clouds 27 1008 74 10000 2.57 130 12:33 15.01.2021
3721 Clouds 27 1008 69 10000 3.09 120 11:56 15.01.2021
3722 Rain 27 1008 69 10000 3.09 120 11:36 15.01.2021
3723 Clouds 28 1007 70 10000 3.09 120 10:57 15.01.2021
3724 Clouds 28 1007 70 10000 3.09 120 10:39 15.01.2021
3725 Clouds 28 1007 70 10000 3.09 120 10:19 15.01.2021
3726 Clouds 29 1007 70 10000 3.09 140 09:41 15.01.2021
3727 Clouds 29 1007 70 10000 3.09 140 09:20 15.01.2021
3728 Clouds 30 1007 66 10000 2.06 130 08:25 15.01.2021
3729 Clouds 30 1007 66 10000 4.12 260 07:41 15.01.2021
3730 Clouds 30 1007 66 10000 4.12 260 07:20 15.01.2021
3731 Clouds 30 1009 62 10000 1.54 0 05:35 15.01.2021
3732 Clouds 28 1011 69 10000 2.57 50 02:19 15.01.2021
3733 Rain 25 1010 78 10000 1.54 20 23:55 14.01.2021
3734 Clouds 25 1010 78 10000 1.54 20 23:29 14.01.2021
3735 Clouds 25 1009 88 10000 3 18 22:50 14.01.2021
3736 Clouds 25 1009 88 10000 3.21 359 22:26 14.01.2021
3737 Clouds 25 1009 88 10000 1.03 0 21:50 14.01.2021
3738 Clouds 25 1009 88 10000 1.03 0 21:21 14.01.2021
3739 Clouds 25 1009 88 10000 1.03 0 20:53 14.01.2021
3740 Clouds 25 1009 88 10000 1.03 0 20:33 14.01.2021
3741 Clouds 26 1009 83 10000 0.51 0 19:49 14.01.2021
3742 Clouds 26 1009 83 10000 0.51 0 19:30 14.01.2021
3743 Clouds 26 1010 83 10000 1.03 0 18:56 14.01.2021
3744 Clouds 26 1010 83 10000 1.03 0 18:32 14.01.2021
3745 Clouds 26 1011 83 10000 1.54 150 17:54 14.01.2021
3746 Clouds 26 1011 83 10000 1.54 150 17:28 14.01.2021
3747 Clouds 26 1011 83 10000 2.06 0 16:50 14.01.2021
3748 Clouds 26 1011 83 10000 2.06 0 16:26 14.01.2021
3749 Clouds 26 1011 83 10000 2.06 0 15:49 14.01.2021
3750 Clouds 26 1011 83 10000 2.06 0 15:25 14.01.2021
3751 Clouds 26 1011 83 10000 2.57 140 14:39 14.01.2021
3752 Clouds 26 1011 83 10000 2.57 140 14:20 14.01.2021
3753 Clouds 27 1011 78 10000 2.57 130 13:54 14.01.2021
3754 Clouds 27 1011 78 10000 2.57 130 13:23 14.01.2021
3755 Clouds 27 1010 78 10000 2.57 120 12:54 14.01.2021
3756 Clouds 27 1010 78 10000 2.57 120 12:21 14.01.2021
3757 Clouds 27 1009 74 10000 3.09 120 11:53 14.01.2021
3758 Clouds 27 1009 74 10000 3.09 120 11:21 14.01.2021
3759 Clouds 28 1009 70 10000 2.57 120 10:57 14.01.2021
3760 Clouds 28 1009 70 10000 2.57 120 10:35 14.01.2021
3761 Clouds 29 1008 62 10000 2.06 140 09:59 14.01.2021
3762 Clouds 29 1008 62 10000 2.06 140 09:41 14.01.2021
3763 Clouds 30 1008 62 10000 2.06 140 09:18 14.01.2021
3764 Clouds 30 1008 66 10000 2.06 140 08:28 14.01.2021
3765 Clouds 30 1008 62 10000 1.54 320 07:50 14.01.2021
3766 Clouds 29 1009 69 10000 3.09 260 06:59 14.01.2021
3767 Clouds 29 1009 69 10000 3.09 260 06:19 14.01.2021
3768 Clouds 26 1012 73 10000 1.03 0 01:55 14.01.2021
3769 Clouds 23 1011 78 9000 0.51 0 23:56 13.01.2021
3770 Clouds 24 1011 78 9000 0.51 0 23:24 13.01.2021
3771 Clouds 24 1010 83 10000 0.51 0 22:40 13.01.2021
3772 Clouds 24 1010 83 10000 0.51 0 22:18 13.01.2021
3773 Clouds 24 1010 83 10000 1.03 0 21:42 13.01.2021
3774 Clouds 24 1010 83 10000 1.03 0 21:19 13.01.2021
3775 Clouds 25 1010 78 10000 1.03 250 20:43 13.01.2021
3776 Clouds 25 1010 78 10000 1.03 250 20:20 13.01.2021
3777 Clouds 25 1011 83 10000 1.54 260 19:43 13.01.2021
3778 Clouds 25 1011 83 10000 1.54 260 19:22 13.01.2021
3779 Clouds 25 1011 83 10000 1.03 0 18:42 13.01.2021
3780 Clouds 25 1011 83 10000 1.03 0 18:18 13.01.2021
3781 Clouds 25 1012 78 10000 1.03 0 17:40 13.01.2021
3782 Clouds 25 1012 78 10000 1.03 0 17:18 13.01.2021
3783 Clouds 25 1012 78 10000 1.03 0 16:23 13.01.2021
3784 Clouds 25 1012 83 10000 0.51 0 15:59 13.01.2021
3785 Clouds 25 1012 83 10000 0.51 0 15:59 13.01.2021
3786 Clouds 25 1012 83 10000 0.51 0 15:39 13.01.2021
3787 Clouds 25 1011 73 10000 2.06 120 14:52 13.01.2021
3788 Clouds 25 1011 73 10000 2.06 120 14:18 13.01.2021
3789 Clouds 26 1011 73 10000 4.12 120 13:37 13.01.2021
3790 Clouds 26 1011 73 10000 4.12 120 13:18 13.01.2021
3791 Clouds 26 1011 73 10000 4.12 120 13:18 13.01.2021
3792 Clouds 26 1010 73 10000 3.6 110 12:43 13.01.2021
3793 Clouds 26 1010 73 10000 3.6 110 12:22 13.01.2021
3794 Clouds 26 1010 73 10000 3.09 120 11:47 13.01.2021
3795 Clouds 26 1010 73 10000 3.09 120 11:26 13.01.2021
3796 Clouds 27 1009 65 10000 3.09 120 10:46 13.01.2021
3797 Clouds 27 1009 65 10000 3.09 120 10:25 13.01.2021
3798 Clouds 27 1008 65 10000 2.06 0 09:40 13.01.2021
3799 Rain 28 1008 69 9000 2.57 280 08:57 13.01.2021
3800 Clouds 27 1008 69 9000 2.57 280 08:33 13.01.2021
3801 Clouds 28 1009 65 10000 4.12 270 07:56 13.01.2021
3802 Clouds 28 1009 65 10000 4.12 270 07:27 13.01.2021
3803 Clouds 27 1012 69 10000 0.51 0 04:22 13.01.2021
3804 Clouds 26 1012 69 10000 1.54 270 03:54 13.01.2021
3805 Clouds 26 1012 69 10000 1.54 270 03:33 13.01.2021
3806 Clouds 26 1013 69 10000 2.06 310 02:53 13.01.2021
3807 Clouds 24 1012 78 10000 1.03 0 00:38 13.01.2021
3808 Clouds 24 1011 78 10000 2.86 18 23:33 12.01.2021
3809 Clouds 23 1011 83 10000 0.51 0 22:47 12.01.2021
3810 Clouds 23 1011 83 10000 0.51 0 22:25 12.01.2021
3811 Clouds 23 1011 83 10000 1.79 4 21:54 12.01.2021
3812 Clouds 23 1011 83 10000 1.79 4 21:35 12.01.2021
3813 Clouds 23 1011 83 10000 1.79 4 21:35 12.01.2021
3814 Clouds 23 1011 83 10000 1.55 4 20:57 12.01.2021
3815 Clouds 23 1011 83 10000 1.55 4 20:38 12.01.2021
3816 Clouds 23 1011 83 10000 1.98 16 20:20 12.01.2021
3817 Clouds 23 1011 83 10000 1.98 16 19:39 12.01.2021
3818 Clouds 24 1012 78 10000 1.03 0 18:53 12.01.2021
3819 Clouds 24 1012 78 10000 1.03 0 18:25 12.01.2021
3820 Clouds 24 1012 73 10000 0.51 0 17:56 12.01.2021
3821 Clouds 24 1012 73 10000 0.51 0 17:32 12.01.2021
3822 Clouds 24 1012 73 10000 2.5 63 16:44 12.01.2021
3823 Clouds 24 1012 73 10000 2.06 80 16:26 12.01.2021
3824 Clouds 24 1012 65 10000 1.03 0 15:48 12.01.2021
3825 Clouds 25 1012 65 10000 1.03 0 15:27 12.01.2021
3826 Clouds 25 1012 65 10000 1.54 100 14:49 12.01.2021
3827 Clouds 25 1012 65 10000 1.54 100 14:26 12.01.2021
3828 Clouds 25 1012 61 10000 1.54 120 13:55 12.01.2021
3829 Clouds 25 1012 61 10000 1.54 120 13:36 12.01.2021
3830 Clouds 26 1011 57 10000 3.09 80 12:33 12.01.2021
3831 Clouds 26 1011 54 10000 3.6 80 11:45 12.01.2021
3832 Clouds 26 1011 54 10000 3.6 80 11:26 12.01.2021
3833 Clouds 27 1010 51 10000 4.12 90 10:43 12.01.2021
3834 Clouds 27 1010 51 10000 4.12 90 10:19 12.01.2021
3835 Clouds 27 1010 54 10000 5.14 70 09:52 12.01.2021
3836 Clouds 28 1010 54 10000 5.14 70 09:22 12.01.2021
3837 Clouds 28 1010 57 10000 2.57 260 08:27 12.01.2021
3838 Clouds 28 1010 61 10000 2.57 270 07:44 12.01.2021
3839 Clouds 29 1010 61 10000 2.57 270 07:26 12.01.2021
3840 Clouds 28 1013 57 10000 3.09 300 05:40 12.01.2021
3841 Clouds 27 1014 57 10000 1.54 240 03:46 12.01.2021
3842 Clouds 27 1014 57 10000 1.54 240 03:19 12.01.2021
3843 Clouds 25 1013 73 10000 0.51 0 01:43 12.01.2021
3844 Clouds 24 1012 78 10000 0.51 0 00:32 12.01.2021
3845 Clouds 24 1012 73 10000 1.03 0 23:40 11.01.2021
3846 Clouds 24 1012 73 10000 1.03 0 23:19 11.01.2021
3847 Clouds 24 1011 78 10000 1.54 350 22:45 11.01.2021
3848 Clouds 24 1011 78 10000 1.54 350 22:27 11.01.2021
3849 Clouds 24 1011 78 10000 1.03 0 21:45 11.01.2021
3850 Clouds 24 1011 78 10000 1.03 0 21:25 11.01.2021
3851 Clouds 24 1011 78 10000 2.06 260 20:57 11.01.2021
3852 Clouds 24 1011 78 10000 2.06 260 20:36 11.01.2021
3853 Clouds 24 1011 78 10000 2.06 260 20:36 11.01.2021
3854 Clouds 24 1011 78 10000 2.06 260 20:18 11.01.2021
3855 Clouds 24 1012 73 10000 2.06 270 19:41 11.01.2021
3856 Clouds 24 1012 73 10000 2.06 270 19:21 11.01.2021
3857 Clouds 25 1012 69 10000 1.03 0 18:42 11.01.2021
3858 Clouds 25 1012 69 10000 1.03 0 18:23 11.01.2021
3859 Rain 25 1013 69 10000 1.54 110 17:42 11.01.2021
3860 Clouds 25 1013 69 10000 1.54 110 17:24 11.01.2021
3861 Clouds 25 1013 65 10000 2.06 100 16:47 11.01.2021
3862 Clouds 25 1013 65 10000 2.06 100 16:28 11.01.2021
3863 Clouds 25 1013 69 10000 1.54 130 15:53 11.01.2021
3864 Clouds 25 1013 69 10000 1.54 130 15:33 11.01.2021
3865 Clouds 25 1013 65 10000 2.06 120 14:45 11.01.2021
3866 Clouds 25 1013 65 10000 2.06 120 14:26 11.01.2021
3867 Clouds 25 1013 69 10000 2.57 110 13:45 11.01.2021
3868 Clouds 25 1013 69 10000 2.57 110 13:22 11.01.2021
3869 Rain 25 1012 69 10000 3.09 110 12:42 11.01.2021
3870 Clouds 25 1012 69 10000 3.09 110 12:23 11.01.2021
3871 Clouds 26 1012 69 10000 3.09 110 11:45 11.01.2021
3872 Clouds 26 1011 65 10000 4.12 100 10:55 11.01.2021
3873 Clouds 27 1011 65 10000 4.12 100 10:35 11.01.2021
3874 Clouds 27 1011 65 10000 4.12 100 09:48 11.01.2021
3875 Clouds 27 1011 65 10000 4.12 100 09:29 11.01.2021
3876 Clouds 28 1010 54 10000 5.66 90 08:52 11.01.2021
3877 Clouds 28 1010 54 10000 5.66 90 08:33 11.01.2021
3878 Rain 28 1011 61 10000 2.57 350 07:41 11.01.2021
3879 Clouds 28 1011 61 10000 2.57 350 07:21 11.01.2021
3880 Clouds 28 1012 65 10000 2.57 0 06:49 11.01.2021
3881 Clouds 27 1014 69 10000 3.09 70 02:23 11.01.2021
3882 Clouds 24 1013 73 10000 0.51 0 00:40 11.01.2021
3883 Clouds 23 1012 73 10000 0.51 0 23:47 10.01.2021
3884 Clouds 24 1011 78 10000 1.54 70 22:51 10.01.2021
3885 Clouds 24 1011 78 10000 1.54 70 22:29 10.01.2021
3886 Clouds 24 1011 73 10000 1.54 80 21:58 10.01.2021
3887 Clouds 24 1011 73 10000 1.54 80 21:39 10.01.2021
3888 Clouds 24 1011 73 10000 1.54 80 21:18 10.01.2021
3889 Clouds 24 1011 78 10000 2.58 45 20:44 10.01.2021
3890 Clouds 24 1011 78 10000 2.82 55 20:26 10.01.2021
3891 Clouds 24 1011 78 10000 2.82 55 20:26 10.01.2021
3892 Clouds 24 1012 78 10000 0.51 0 19:38 10.01.2021
3893 Clouds 24 1012 78 10000 0.51 0 19:20 10.01.2021
3894 Clouds 24 1012 78 10000 2.06 110 18:44 10.01.2021
3895 Clouds 24 1012 78 10000 2.06 110 18:20 10.01.2021
3896 Clouds 24 1013 78 10000 1.54 120 17:26 10.01.2021
3897 Clouds 24 1013 73 10000 2.06 100 16:49 10.01.2021
3898 Clouds 24 1013 73 10000 2.06 100 16:28 10.01.2021
3899 Clouds 25 1013 65 10000 4.63 90 15:40 10.01.2021
3900 Clouds 25 1013 65 10000 4.63 90 15:21 10.01.2021
3901 Clouds 25 1013 69 10000 2.57 130 14:40 10.01.2021
3902 Clouds 25 1013 69 10000 2.57 130 14:22 10.01.2021
3903 Clouds 25 1012 65 10000 3.6 100 13:42 10.01.2021
3904 Clouds 25 1012 65 10000 3.6 100 13:24 10.01.2021
3905 Clouds 26 1012 61 10000 5.14 90 12:51 10.01.2021
3906 Clouds 26 1012 61 10000 5.14 90 12:33 10.01.2021
3907 Clouds 26 1011 61 10000 5.14 90 11:55 10.01.2021
3908 Clouds 26 1011 61 10000 5.14 90 11:20 10.01.2021
3909 Clouds 26 1010 61 10000 6.17 90 10:51 10.01.2021
3910 Clouds 26 1010 61 10000 6.17 90 10:22 10.01.2021
3911 Clouds 27 1010 54 10000 6.69 90 09:39 10.01.2021
3912 Clouds 28 1010 54 10000 7.72 80 08:27 10.01.2021
3913 Clouds 28 1010 54 10000 6.69 90 07:46 10.01.2021
3914 Clouds 29 1011 54 10000 6.69 90 06:22 10.01.2021
3915 Clouds 29 1012 54 10000 5.66 80 05:46 10.01.2021
3916 Clouds 29 1012 54 10000 5.66 80 05:27 10.01.2021
3917 Clouds 26 1013 69 10000 1.03 0 01:42 10.01.2021
3918 Clouds 25 1012 73 10000 0.51 0 00:21 10.01.2021
3919 Clouds 24 1012 69 10000 1.03 0 23:41 09.01.2021
3920 Clouds 25 1012 69 10000 1.03 0 23:20 09.01.2021
3921 Clouds 25 1011 69 10000 1.54 300 22:21 09.01.2021
3922 Clouds 25 1011 69 10000 1.54 10 21:58 09.01.2021
3923 Clouds 24 1011 69 10000 1.54 10 21:39 09.01.2021
3924 Clouds 25 1011 69 10000 1.54 10 21:21 09.01.2021
3925 Clouds 24 1010 73 10000 3.56 59 20:54 09.01.2021
3926 Clouds 25 1010 73 10000 4 62 20:29 09.01.2021
3927 Clouds 25 1011 73 10000 0.51 0 19:40 09.01.2021
3928 Clouds 25 1011 73 10000 0.51 0 19:20 09.01.2021
3929 Clouds 25 1012 69 10000 1.54 70 18:37 09.01.2021
3930 Clouds 25 1012 73 10000 1.03 0 17:54 09.01.2021
3931 Clouds 25 1012 73 10000 1.03 0 17:34 09.01.2021
3932 Clouds 25 1012 65 10000 2.06 80 16:57 09.01.2021
3933 Clouds 25 1012 65 10000 2.06 80 16:23 09.01.2021
3934 Clouds 25 1012 65 10000 2.57 100 15:41 09.01.2021
3935 Clouds 25 1012 65 10000 2.57 100 15:21 09.01.2021
3936 Clouds 26 1012 65 10000 4.63 90 14:37 09.01.2021
3937 Clouds 26 1012 65 10000 4.63 90 14:19 09.01.2021
3938 Clouds 26 1012 65 10000 3.6 90 13:44 09.01.2021
3939 Clouds 26 1012 65 10000 3.6 90 13:25 09.01.2021
3940 Clouds 26 1011 61 10000 4.12 90 12:28 09.01.2021
3941 Clouds 26 1010 61 10000 5.66 90 11:58 09.01.2021
3942 Clouds 26 1010 61 10000 5.66 90 11:38 09.01.2021
3943 Clouds 26 1010 61 10000 5.66 90 11:18 09.01.2021
3944 Clouds 27 1009 57 10000 4.12 90 10:43 09.01.2021
3945 Clouds 27 1009 57 10000 4.12 90 10:23 09.01.2021
3946 Clouds 28 1008 61 10000 4.63 110 09:44 09.01.2021
3947 Clouds 28 1008 61 10000 4.63 110 09:20 09.01.2021
3948 Rain 29 1009 58 10000 2.57 0 07:49 09.01.2021
3949 Rain 29 1009 58 10000 2.57 0 07:49 09.01.2021
3950 Clouds 30 1010 55 10000 3.09 0 06:54 09.01.2021
3951 Clouds 30 1010 55 10000 3.09 0 06:34 09.01.2021
3952 Clouds 28 1012 65 10000 1.54 0 03:53 09.01.2021
3953 Clouds 27 1012 65 10000 2.57 10 02:41 09.01.2021
3954 Clouds 27 1012 65 10000 2.57 10 02:23 09.01.2021
3955 Clouds 27 1012 65 10000 2.57 10 02:23 09.01.2021
3956 Clouds 26 1012 69 10000 2.06 10 01:25 09.01.2021
3957 Clouds 25 1011 69 10000 2.57 10 00:33 09.01.2021
3958 Clouds 25 1011 69 10000 2.57 10 00:33 09.01.2021
3959 Clouds 25 1010 69 10000 2.06 20 23:46 08.01.2021
3960 Clouds 25 1010 69 10000 2.06 20 22:46 08.01.2021
3961 Clouds 26 1010 73 10000 1.03 0 21:53 08.01.2021
3962 Clouds 25 1010 73 10000 1.03 0 21:19 08.01.2021
3963 Clouds 26 1009 73 10000 2.06 40 20:37 08.01.2021
3964 Clouds 26 1010 73 9000 1.54 20 19:58 08.01.2021
3965 Clouds 26 1010 73 9000 1.54 20 19:25 08.01.2021
3966 Clouds 26 1010 78 10000 1.03 0 18:54 08.01.2021
3967 Clouds 26 1010 78 10000 1.03 0 18:54 08.01.2021
3968 Clouds 26 1010 78 10000 1.03 0 18:32 08.01.2021
3969 Clouds 26 1010 78 10000 1.03 0 17:54 08.01.2021
3970 Clouds 26 1010 78 10000 1.03 0 17:25 08.01.2021
3971 Clouds 26 1011 74 10000 1.03 0 16:48 08.01.2021
3972 Clouds 26 1011 74 10000 1.03 0 15:49 08.01.2021
3973 Clouds 26 1011 74 10000 1.03 0 15:29 08.01.2021
3974 Clouds 27 1011 74 10000 1.54 140 14:40 08.01.2021
3975 Clouds 27 1011 74 10000 1.54 140 14:40 08.01.2021
3976 Clouds 27 1011 74 10000 1.03 0 13:50 08.01.2021
3977 Clouds 27 1011 74 10000 1.03 0 13:21 08.01.2021
3978 Clouds 27 1010 74 10000 3.09 110 12:51 08.01.2021
3979 Clouds 27 1010 74 10000 3.09 110 12:22 08.01.2021
3980 Clouds 27 1009 74 10000 2.57 120 11:48 08.01.2021
3981 Clouds 27 1009 74 10000 2.57 120 11:29 08.01.2021
3982 Clouds 27 1008 74 10000 2.57 130 10:55 08.01.2021
3983 Clouds 27 1008 74 10000 2.57 130 10:37 08.01.2021
3984 Clouds 28 1008 65 10000 1.54 0 09:53 08.01.2021
3985 Clouds 28 1008 65 10000 1.54 0 09:32 08.01.2021
3986 Clouds 29 1007 62 10000 2.57 100 08:39 08.01.2021
3987 Rain 30 1008 66 10000 3.09 120 07:29 08.01.2021
3988 Clouds 30 1009 62 10000 1.54 0 06:21 08.01.2021
3989 Clouds 25 1010 78 10000 3.13 31 00:24 08.01.2021
3990 Clouds 25 1010 78 10000 1.03 0 23:41 07.01.2021
3991 Clouds 25 1009 83 10000 1.54 230 22:47 07.01.2021
3992 Clouds 25 1009 83 10000 1.54 230 22:26 07.01.2021
3993 Clouds 25 1009 88 10000 0.51 0 21:47 07.01.2021
3994 Clouds 25 1009 88 10000 0.51 0 21:27 07.01.2021
3995 Clouds 25 1009 88 10000 2.41 51 20:47 07.01.2021
3996 Clouds 25 1009 88 10000 2.51 51 20:29 07.01.2021
3997 Clouds 25 1009 88 10000 2.51 51 19:46 07.01.2021
3998 Clouds 25 1009 88 10000 2.67 71 19:23 07.01.2021
3999 Clouds 25 1010 88 10000 2.53 65 18:38 07.01.2021
4000 Clouds 25 1010 88 10000 2.69 71 18:19 07.01.2021
4001 Clouds 26 1010 83 10000 1.03 0 17:30 07.01.2021
4002 Clouds 26 1010 83 10000 1.03 0 16:54 07.01.2021
4003 Clouds 26 1010 83 10000 1.03 0 16:30 07.01.2021
4004 Clouds 26 1011 83 10000 1.03 0 15:48 07.01.2021
4005 Clouds 26 1011 83 10000 1.03 0 15:29 07.01.2021
4006 Clouds 26 1011 74 10000 1.54 110 14:27 07.01.2021
4007 Clouds 27 1010 74 10000 2.57 120 13:49 07.01.2021
4008 Clouds 27 1010 74 10000 2.57 120 13:19 07.01.2021
4009 Clouds 27 1010 69 10000 3.92 78 12:51 07.01.2021
4010 Clouds 27 1009 69 10000 2.1 100 11:59 07.01.2021
4011 Clouds 27 1009 69 10000 2.1 100 11:38 07.01.2021
4012 Clouds 28 1009 74 10000 4.1 110 10:54 07.01.2021
4013 Clouds 28 1009 74 10000 4.1 110 10:33 07.01.2021
4014 Clouds 28 1008 74 10000 3.6 80 09:49 07.01.2021
4015 Clouds 29 1008 70 9000 2.1 110 09:22 07.01.2021
4016 Clouds 29 1008 70 9000 2.1 110 08:30 07.01.2021
4017 Clouds 30 1008 74 10000 1.5 280 07:54 07.01.2021
4018 Clouds 30 1008 74 10000 1.5 280 07:35 07.01.2021
4019 Clouds 29 1010 78 10000 4.1 290 05:44 07.01.2021
4020 Clouds 25 1011 83 9000 1.5 110 00:58 07.01.2021
4021 Clouds 24 1010 83 10000 2.36 34 23:52 06.01.2021
4022 Rain 25 1010 83 10000 1.5 90 22:50 06.01.2021
4023 Clouds 25 1010 78 10000 1 0 21:59 06.01.2021
4024 Clouds 25 1010 78 10000 1 0 21:41 06.01.2021
4025 Clouds 25 1010 78 10000 0.5 0 21:21 06.01.2021
4026 Clouds 25 1010 78 10000 0.5 0 20:39 06.01.2021
4027 Clouds 25 1010 83 10000 1 230 20:18 06.01.2021
4028 Clouds 25 1010 83 10000 1 230 19:41 06.01.2021
4029 Clouds 25 1010 83 10000 1 0 19:22 06.01.2021
4030 Clouds 25 1010 83 10000 1 0 18:42 06.01.2021
4031 Clouds 25 1011 83 10000 1.5 60 18:24 06.01.2021
4032 Clouds 25 1011 83 10000 1.5 60 17:43 06.01.2021
4033 Clouds 26 1011 83 10000 1.5 90 17:25 06.01.2021
4034 Clouds 26 1011 83 10000 1.5 90 16:45 06.01.2021
4035 Clouds 26 1011 78 10000 2.6 110 16:20 06.01.2021
4036 Clouds 26 1011 78 10000 2.6 110 15:54 06.01.2021
4037 Clouds 26 1011 78 10000 2.6 110 15:32 06.01.2021
4038 Clouds 27 1011 74 10000 2.6 110 14:52 06.01.2021
4039 Clouds 27 1011 74 10000 2.6 120 14:21 06.01.2021
4040 Clouds 27 1011 74 10000 2.6 120 13:47 06.01.2021
4041 Clouds 27 1010 69 10000 2.6 110 13:24 06.01.2021
4042 Clouds 27 1010 69 10000 2.6 110 12:49 06.01.2021
4043 Clouds 27 1010 74 10000 3.1 110 12:20 06.01.2021
4044 Clouds 28 1010 74 10000 3.1 110 11:36 06.01.2021
4045 Clouds 28 1009 70 10000 4.1 120 11:18 06.01.2021
4046 Clouds 30 1009 55 10000 3.6 110 10:22 06.01.2021
4047 Clouds 29 1009 55 10000 3.6 110 09:51 06.01.2021
4048 Clouds 31 1008 52 10000 5.1 80 08:59 06.01.2021
4049 Clouds 32 1008 52 10000 5.1 80 08:38 06.01.2021
4050 Clouds 32 1008 52 10000 3.6 110 07:58 06.01.2021
4051 Clouds 32 1009 52 10000 4.1 90 06:55 06.01.2021
4052 Clouds 31 1010 59 10000 2.6 0 05:34 06.01.2021
4053 Clouds 31 1011 58 10000 2.1 0 04:34 06.01.2021
4054 Clouds 29 1012 66 10000 1 0 02:47 06.01.2021
4055 Clouds 29 1012 66 10000 1 0 02:25 06.01.2021
4056 Clouds 25 1012 88 9000 2.19 39 00:51 06.01.2021
4057 Clouds 24 1011 88 8000 0.5 0 23:31 05.01.2021
4058 Clouds 24 1011 88 9000 2.73 46 22:44 05.01.2021
4059 Clouds 24 1011 83 10000 2.1 80 22:21 05.01.2021
4060 Clouds 24 1011 83 10000 2.1 80 21:56 05.01.2021
4061 Clouds 24 1011 88 10000 1.5 50 20:56 05.01.2021
4062 Clouds 25 1011 88 10000 1.5 110 20:25 05.01.2021
4063 Clouds 25 1011 88 10000 1.5 110 19:44 05.01.2021
4064 Clouds 25 1011 83 10000 2.1 110 19:21 05.01.2021
4065 Clouds 26 1011 83 10000 2.1 110 18:44 05.01.2021
4066 Clouds 26 1012 83 10000 1.5 120 18:25 05.01.2021
4067 Clouds 26 1012 83 10000 1.5 120 17:50 05.01.2021
4068 Clouds 26 1012 78 10000 1.5 130 17:29 05.01.2021
4069 Clouds 26 1012 78 10000 1.5 130 16:53 05.01.2021
4070 Clouds 26 1013 83 10000 1 0 16:22 05.01.2021
4071 Clouds 26 1013 83 10000 1 0 15:50 05.01.2021
4072 Clouds 26 1013 83 10000 1 0 15:25 05.01.2021
4073 Clouds 26 1013 83 10000 1 0 14:41 05.01.2021
4074 Clouds 26 1012 78 10000 1.5 130 13:51 05.01.2021
4075 Clouds 26 1012 78 10000 1.5 130 13:30 05.01.2021
4076 Clouds 27 1011 74 10000 1.5 100 12:50 05.01.2021
4077 Clouds 27 1011 74 10000 1.5 100 12:28 05.01.2021
4078 Clouds 28 1011 74 10000 3.1 100 11:40 05.01.2021
4079 Clouds 28 1010 70 10000 2.6 110 11:22 05.01.2021
4080 Clouds 28 1010 70 10000 2.6 110 11:21 05.01.2021
4081 Clouds 28 1010 70 10000 2.6 110 11:20 05.01.2021
4082 Clouds 29 1010 70 10000 2.6 110 10:43 05.01.2021
4083 Clouds 29 1009 74 10000 2.6 50 09:58 05.01.2021
4084 Clouds 28 1009 74 10000 2.6 50 09:37 05.01.2021
4085 Clouds 28 1009 78 9000 4.1 100 08:41 05.01.2021
4086 Clouds 28 1010 78 8000 2.6 130 08:18 05.01.2021
4087 Clouds 29 1011 78 10000 3.6 300 05:29 05.01.2021
4088 Clouds 28 1013 78 10000 1 0 02:36 05.01.2021
4089 Clouds 25 1012 88 10000 2.57 34 00:22 05.01.2021
4090 Clouds 25 1012 88 10000 2.57 34 23:39 04.01.2021
4091 Clouds 25 1011 88 10000 0.5 0 23:19 04.01.2021
4092 Clouds 25 1011 88 10000 0.5 0 22:42 04.01.2021
4093 Clouds 25 1011 94 10000 2.1 100 21:56 04.01.2021
4094 Clouds 25 1011 94 10000 2.1 100 21:37 04.01.2021
4095 Clouds 25 1011 88 10000 1.5 0 20:52 04.01.2021
4096 Rain 25 1011 88 10000 1.5 0 20:32 04.01.2021
4097 Rain 25 1011 88 10000 1.5 0 20:32 04.01.2021
4098 Clouds 25 1011 94 10000 2.1 80 19:55 04.01.2021
4099 Rain 25 1011 94 10000 2.1 80 19:29 04.01.2021
4100 Clouds 25 1012 94 10000 1.5 160 18:58 04.01.2021
4101 Clouds 26 1012 83 10000 2.1 120 18:29 04.01.2021
4102 Clouds 26 1012 83 10000 2.1 120 17:44 04.01.2021
4103 Clouds 27 1012 83 10000 2.1 120 17:26 04.01.2021
4104 Clouds 27 1012 83 10000 0.5 0 16:48 04.01.2021
4105 Clouds 27 1012 83 10000 0.5 0 16:27 04.01.2021
4106 Clouds 27 1012 83 10000 0.5 0 15:51 04.01.2021
4107 Clouds 27 1012 83 10000 1 0 15:32 04.01.2021
4108 Clouds 27 1012 83 10000 1 0 14:48 04.01.2021
4109 Clouds 27 1012 83 10000 2.1 130 13:51 04.01.2021
4110 Clouds 28 1011 74 10000 1.5 0 13:26 04.01.2021
4111 Clouds 28 1011 74 10000 1.5 0 12:49 04.01.2021
4112 Rain 28 1011 70 10000 2.1 110 11:59 04.01.2021
4113 Rain 29 1011 70 10000 2.1 110 11:29 04.01.2021
4114 Rain 29 1010 66 10000 2.6 110 10:53 04.01.2021
4115 Clouds 29 1010 66 10000 2.6 110 10:29 04.01.2021
4116 Rain 30 1010 66 10000 3.6 110 09:53 04.01.2021
4117 Clouds 31 1009 59 10000 3.1 120 09:22 04.01.2021
4118 Rain 31 1009 59 10000 3.1 120 08:47 04.01.2021
4119 Clouds 31 1010 55 10000 3.6 110 08:18 04.01.2021
4120 Clouds 32 1010 55 10000 3.6 110 07:42 04.01.2021
4121 Clouds 30 1012 74 10000 2.6 310 05:33 04.01.2021
4122 Clouds 30 1013 79 10000 3.1 300 04:30 04.01.2021
4123 Clouds 25 1012 94 8000 0.5 0 00:47 04.01.2021
4124 Mist 24 1011 94 4000 0.5 0 23:49 03.01.2021
4125 Mist 24 1011 94 5000 1 0 23:24 03.01.2021
4126 Mist 24 1011 94 5000 1 0 22:56 03.01.2021
4127 Mist 24 1011 94 5000 1 0 22:32 03.01.2021
4128 Clouds 24 1011 94 6000 0.5 0 21:55 03.01.2021
4129 Clouds 24 1011 94 6000 0.5 0 21:29 03.01.2021
4130 Clouds 24 1011 94 8000 0.5 0 20:49 03.01.2021
4131 Rain 24 1011 94 8000 0.5 0 20:31 03.01.2021
4132 Clouds 24 1011 94 10000 0.5 0 19:56 03.01.2021
4133 Clouds 24 1011 94 10000 0.5 0 19:35 03.01.2021
4134 Clouds 24 1012 94 10000 1 0 18:57 03.01.2021
4135 Clouds 24 1012 94 10000 1 0 18:38 03.01.2021
4136 Clouds 24 1012 100 10000 1 0 18:18 03.01.2021
4137 Clouds 24 1012 100 10000 1 0 17:41 03.01.2021
4138 Clouds 24 1013 94 10000 1 0 17:22 03.01.2021
4139 Rain 24 1013 94 10000 1 0 16:42 03.01.2021
4140 Clouds 24 1012 94 9000 1 0 16:19 03.01.2021
4141 Rain 24 1012 94 9000 1 0 15:46 03.01.2021
4142 Rain 24 1012 94 9000 1 0 15:26 03.01.2021
4143 Rain 24 1012 94 10000 1.5 320 14:50 03.01.2021
4144 Rain 24 1012 94 10000 1.5 320 14:27 03.01.2021
4145 Rain 24 1012 94 10000 1 0 13:40 03.01.2021
4146 Rain 24 1012 94 10000 0.5 0 13:21 03.01.2021
4147 Clouds 25 1012 94 9000 1.5 0 12:24 03.01.2021
4148 Clouds 25 1012 94 9000 1.5 0 11:40 03.01.2021
4149 Rain 25 1012 94 9000 1.5 0 11:22 03.01.2021
4150 Rain 25 1012 94 8000 1.5 40 10:34 03.01.2021
4151 Rain 24 1012 100 5000 1.5 70 09:55 03.01.2021
4152 Rain 24 1012 100 5000 1.5 70 09:33 03.01.2021
4153 Rain 24 1011 100 6000 2.6 10 08:34 03.01.2021
4154 Rain 24 1011 100 5000 0.5 0 07:26 03.01.2021
4155 Rain 25 1012 94 6000 1 0 05:42 03.01.2021
4156 Rain 28 1013 69 10000 1 0 02:27 03.01.2021
4157 Clouds 26 1012 78 10000 2.6 40 00:56 03.01.2021
4158 Clouds 25 1011 78 10000 3.1 10 23:53 02.01.2021
4159 Rain 25 1011 83 10000 2.6 10 23:20 02.01.2021
4160 Rain 25 1011 83 10000 2.6 10 22:49 02.01.2021
4161 Rain 25 1011 83 10000 2.6 10 22:49 02.01.2021
4162 Clouds 25 1011 83 10000 2.6 10 22:31 02.01.2021
4163 Clouds 25 1010 78 10000 0.5 0 21:49 02.01.2021
4164 Clouds 25 1010 78 10000 0.5 0 21:29 02.01.2021
4165 Clouds 25 1010 78 10000 2.6 10 20:46 02.01.2021
4166 Clouds 25 1010 78 10000 2.6 10 20:26 02.01.2021
4167 Clouds 25 1011 78 10000 1.5 360 19:48 02.01.2021
4168 Clouds 25 1011 74 10000 0.5 0 19:20 02.01.2021
4169 Clouds 25 1011 74 10000 0.5 0 18:51 02.01.2021
4170 Clouds 25 1011 74 10000 0.5 0 18:32 02.01.2021
4171 Clouds 25 1012 74 10000 2.1 350 17:46 02.01.2021
4172 Rain 26 1012 74 10000 2.1 350 17:28 02.01.2021
4173 Clouds 26 1012 78 10000 1 0 16:46 02.01.2021
4174 Clouds 26 1013 78 10000 1.5 230 16:21 02.01.2021
4175 Clouds 26 1013 78 10000 1.5 230 15:47 02.01.2021
4176 Clouds 26 1013 78 10000 1.5 230 15:27 02.01.2021
4177 Clouds 27 1012 74 10000 1 0 14:47 02.01.2021
4178 Rain 27 1012 74 10000 1 0 14:23 02.01.2021
4179 Clouds 27 1012 69 10000 2.6 90 13:43 02.01.2021
4180 Clouds 27 1012 65 10000 1.5 100 12:55 02.01.2021
4181 Clouds 27 1012 65 10000 1.5 100 12:32 02.01.2021
4182 Clouds 27 1011 65 10000 4.1 70 11:59 02.01.2021
4183 Clouds 28 1011 65 10000 3.1 30 11:26 02.01.2021
4184 Clouds 28 1011 65 10000 3.1 30 10:58 02.01.2021
4185 Clouds 28 1011 65 10000 3.1 30 10:34 02.01.2021
4186 Clouds 28 1010 66 10000 4.1 40 09:59 02.01.2021
4187 Clouds 28 1010 66 10000 4.1 40 09:39 02.01.2021
4188 Clouds 29 1009 74 10000 4.1 40 09:18 02.01.2021
4189 Clouds 29 1009 74 10000 4.1 40 08:41 02.01.2021
4190 Clouds 29 1010 62 10000 4.1 30 07:55 02.01.2021
4191 Clouds 30 1010 62 10000 4.1 30 07:22 02.01.2021
4192 Rain 30 1011 62 10000 2.6 100 06:57 02.01.2021
4193 Clouds 30 1011 62 10000 2.6 80 05:54 02.01.2021
4194 Clouds 26 1013 69 10000 3.6 20 01:37 02.01.2021
4195 Clouds 24 1013 78 10000 1 0 00:38 02.01.2021
4196 Clouds 23 1012 83 10000 2.23 357 23:58 01.01.2021
4197 Clouds 24 1012 78 10000 1 60 23:23 01.01.2021
4198 Clouds 23 1012 78 10000 1 60 22:50 01.01.2021
4199 Clouds 24 1012 78 10000 1 60 22:27 01.01.2021
4200 Clouds 24 1011 73 10000 2.1 20 21:59 01.01.2021
4201 Clouds 24 1011 73 10000 2.1 20 21:41 01.01.2021
4202 Clouds 24 1012 73 10000 2.1 20 21:19 01.01.2021
4203 Clouds 24 1012 73 10000 2.1 20 20:44 01.01.2021
4204 Clouds 24 1012 73 10000 2.1 20 20:18 01.01.2021
4205 Clouds 24 1012 73 10000 2.1 20 19:41 01.01.2021
4206 Clouds 24 1013 73 10000 2.1 360 19:21 01.01.2021
4207 Clouds 24 1013 73 10000 2.1 360 18:45 01.01.2021
4208 Clouds 25 1013 69 10000 1.5 250 18:23 01.01.2021
4209 Clouds 25 1013 69 10000 1.5 250 17:46 01.01.2021
4210 Clouds 25 1013 78 10000 1.5 260 17:23 01.01.2021
4211 Clouds 25 1013 78 10000 1.5 260 16:48 01.01.2021
4212 Clouds 25 1013 78 10000 1.5 260 16:25 01.01.2021
4213 Clouds 25 1013 69 10000 1.5 330 15:40 01.01.2021
4214 Clouds 25 1014 69 10000 2.1 310 14:44 01.01.2021
4215 Clouds 25 1014 69 10000 2.1 310 14:26 01.01.2021
4216 Clouds 26 1013 74 10000 1.5 220 13:39 01.01.2021
4217 Clouds 26 1012 74 10000 1 0 12:52 01.01.2021
4218 Clouds 26 1012 74 10000 1 0 12:27 01.01.2021
4219 Clouds 26 1011 74 10000 2.1 270 11:43 01.01.2021
4220 Clouds 26 1011 65 10000 2.1 130 11:22 01.01.2021
4221 Clouds 27 1011 65 10000 2.1 130 10:56 01.01.2021
4222 Clouds 27 1011 65 10000 2.1 130 10:28 01.01.2021
4223 Rain 27 1010 61 10000 2.6 100 09:31 01.01.2021
4224 Rain 28 1010 61 10000 3.6 100 08:31 01.01.2021
4225 Rain 28 1011 61 10000 3.6 110 07:22 01.01.2021
4226 Clouds 28 1013 65 10000 3.1 30 04:51 01.01.2021
4227 Rain 26 1013 65 10000 4 33 01:58 01.01.2021
4228 Clouds 25 1013 73 10000 0.5 0 00:33 01.01.2021
4229 Clouds 24 1012 73 10000 1.5 330 23:41 31.12.2020
4230 Clouds 24 1012 69 10000 1.5 10 23:21 31.12.2020
4231 Clouds 24 1012 69 10000 1.5 10 22:42 31.12.2020
4232 Clouds 24 1012 69 10000 1.5 10 22:24 31.12.2020
4233 Clouds 24 1012 69 10000 1.5 10 22:24 31.12.2020
4234 Clouds 24 1012 78 10000 1.5 300 21:57 31.12.2020
4235 Clouds 24 1012 78 10000 1.5 300 21:39 31.12.2020
4236 Clouds 24 1012 78 10000 3.8 46 21:20 31.12.2020
4237 Clouds 24 1012 78 10000 3.8 46 20:31 31.12.2020
4238 Clouds 25 1012 73 10000 1 0 19:51 31.12.2020
4239 Clouds 25 1012 73 10000 1 0 19:33 31.12.2020
4240 Clouds 25 1013 69 10000 2.1 320 18:56 31.12.2020
4241 Rain 25 1013 69 10000 2.1 320 18:26 31.12.2020
4242 Clouds 25 1013 69 10000 2.1 160 17:55 31.12.2020
4243 Rain 25 1013 69 10000 2.1 160 17:37 31.12.2020
4244 Clouds 25 1013 65 10000 1 0 17:18 31.12.2020
4245 Clouds 25 1013 65 10000 1 0 16:38 31.12.2020
4246 Clouds 26 1013 65 10000 3.1 290 16:20 31.12.2020
4247 Rain 26 1013 65 10000 3.1 290 15:43 31.12.2020
4248 Clouds 26 1013 61 10000 1.5 0 15:20 31.12.2020
4249 Rain 26 1013 61 10000 1.5 0 14:41 31.12.2020
4250 Clouds 26 678 69 10000 2.6 0 14:23 31.12.2020
4251 Clouds 26 678 69 10000 2.6 0 13:58 31.12.2020
4252 Clouds 26 678 69 10000 2.6 0 13:37 31.12.2020
4253 Clouds 26 1012 65 10000 4.1 70 13:19 31.12.2020
4254 Clouds 26 1012 65 10000 4.1 70 12:46 31.12.2020
4255 Clouds 26 1012 65 10000 4.1 70 12:28 31.12.2020
4256 Clouds 26 1012 34 10000 3.1 100 11:47 31.12.2020
4257 Clouds 26 1012 34 10000 3.1 100 11:28 31.12.2020
4258 Clouds 26 1012 34 10000 3.1 100 11:28 31.12.2020
4259 Clouds 27 1010 54 10000 4.69 68 10:41 31.12.2020
4260 Rain 27 1009 58 10000 4.1 100 10:23 31.12.2020
4261 Clouds 27 1009 58 10000 4.1 100 09:48 31.12.2020
4262 Rain 27 1009 58 10000 4.1 100 09:24 31.12.2020
4263 Clouds 28 1009 54 10000 4.1 90 08:47 31.12.2020
4264 Clouds 28 1009 54 10000 4.1 90 08:29 31.12.2020
4265 Clouds 28 1010 54 10000 4.6 90 07:55 31.12.2020
4266 Clouds 28 1010 54 10000 4.6 90 07:24 31.12.2020
4267 Clouds 29 1011 58 10000 3.6 0 05:30 31.12.2020
4268 Clouds 29 1012 62 10000 1 0 03:36 31.12.2020
4269 Clouds 28 1012 61 10000 2.6 0 02:36 31.12.2020
4270 Clouds 27 1012 65 10000 2.6 10 01:56 31.12.2020
4271 Clouds 27 1012 65 10000 2.6 10 01:37 31.12.2020
4272 Clouds 26 1011 65 10000 3.1 360 00:57 31.12.2020
4273 Clouds 26 1011 65 10000 3.1 360 00:26 31.12.2020
4274 Clouds 26 1010 65 10000 2.6 350 23:36 30.12.2020
4275 Clouds 26 1010 69 10000 3.6 20 23:18 30.12.2020
4276 Clouds 26 1010 69 10000 3.6 20 22:35 30.12.2020
4277 Clouds 26 1009 69 10000 3.6 20 21:54 30.12.2020
4278 Clouds 26 1009 69 10000 3.6 20 21:54 30.12.2020
4279 Clouds 26 1009 69 10000 3.6 20 21:27 30.12.2020
4280 Rain 26 1009 69 10000 3.1 20 20:53 30.12.2020
4281 Rain 26 1009 69 10000 3.1 20 20:29 30.12.2020
4282 Rain 26 1009 74 10000 3.6 10 19:58 30.12.2020
4283 Rain 26 1009 74 10000 3.6 10 19:37 30.12.2020
4284 Rain 26 1009 74 10000 3.6 10 19:37 30.12.2020
4285 Rain 26 1010 74 10000 2.1 10 19:18 30.12.2020
4286 Rain 27 1010 74 10000 2.1 10 18:39 30.12.2020
4287 Rain 27 1010 69 10000 2.6 20 18:20 30.12.2020
4288 Clouds 27 1010 69 10000 2.6 20 17:48 30.12.2020
4289 Rain 27 1010 74 10000 2.6 350 17:29 30.12.2020
4290 Clouds 27 1010 74 10000 2.6 350 16:44 30.12.2020
4291 Clouds 28 1010 74 10000 2.1 50 15:51 30.12.2020
4292 Clouds 28 1010 74 10000 2.1 50 15:31 30.12.2020
4293 Clouds 28 1010 74 10000 1.5 100 14:58 30.12.2020
4294 Clouds 28 1010 74 10000 1.5 100 14:39 30.12.2020
4295 Clouds 28 1009 74 10000 2.1 120 14:19 30.12.2020
4296 Clouds 29 1008 74 10000 4.04 80 13:19 30.12.2020
4297 Clouds 29 1008 66 10000 1.5 90 12:26 30.12.2020
4298 Clouds 29 1008 66 10000 1.5 90 11:45 30.12.2020
4299 Clouds 29 1007 70 10000 1 0 11:22 30.12.2020
4300 Clouds 29 1007 70 10000 1 0 10:58 30.12.2020
4301 Rain 31 1007 70 10000 1 0 10:38 30.12.2020
4302 Rain 31 1007 70 10000 2.1 140 10:18 30.12.2020
4303 Rain 30 1007 70 10000 2.1 140 09:41 30.12.2020
4304 Rain 30 1007 70 10000 2.1 140 09:41 30.12.2020
4305 Clouds 32 1007 74 10000 2.1 280 08:36 30.12.2020
4306 Clouds 31 1007 74 10000 3.1 280 07:50 30.12.2020
4307 Clouds 31 1008 79 10000 3.1 330 07:24 30.12.2020
4308 Clouds 31 1008 79 10000 3.1 330 06:40 30.12.2020
4309 Rain 31 1009 79 10000 3.1 270 05:47 30.12.2020
4310 Clouds 30 1009 79 10000 3.1 270 05:28 30.12.2020
4311 Clouds 29 1010 79 9000 2.1 0 03:29 30.12.2020
4312 Clouds 29 1011 79 10000 1 0 02:48 30.12.2020
4313 Clouds 29 1011 79 10000 1 0 02:28 30.12.2020
4314 Clouds 27 1010 88 10000 0.5 0 01:42 30.12.2020
4315 Clouds 26 1010 94 6000 0.5 0 01:23 30.12.2020
4316 Clouds 25 1010 94 6000 0.5 0 00:37 30.12.2020
4317 Clouds 25 1010 94 8000 0.5 250 23:59 29.12.2020
4318 Clouds 25 1010 94 8000 0.5 250 23:40 29.12.2020
4319 Clouds 25 1009 94 8000 1.6 48 23:22 29.12.2020
4320 Clouds 25 1009 94 8000 1.6 48 22:44 29.12.2020
4321 Clouds 25 1009 94 7000 1 0 22:23 29.12.2020
4322 Clouds 25 1009 94 7000 1 0 21:50 29.12.2020
4323 Clouds 25 1009 94 7000 1 0 21:32 29.12.2020
4324 Clouds 25 1009 94 10000 1.5 350 20:54 29.12.2020
4325 Clouds 25 1009 94 10000 1.5 350 20:36 29.12.2020
4326 Clouds 25 1009 94 10000 1.5 10 20:18 29.12.2020
4327 Clouds 25 1009 94 10000 1.5 10 19:37 29.12.2020
4328 Clouds 25 1010 88 10000 3.1 360 19:19 29.12.2020
4329 Clouds 25 1010 88 10000 3.1 360 18:44 29.12.2020
4330 Clouds 25 1010 100 7000 4.1 340 18:24 29.12.2020
4331 Rain 25 1010 100 7000 4.1 340 17:44 29.12.2020
4332 Clouds 26 1010 94 5000 5.7 350 17:20 29.12.2020
4333 Clouds 26 1010 94 5000 5.7 350 16:37 29.12.2020
4334 Clouds 27 1010 88 10000 1 0 15:59 29.12.2020
4335 Clouds 27 1010 88 10000 1 0 15:37 29.12.2020
4336 Clouds 27 1010 83 10000 1.5 120 14:59 29.12.2020
4337 Clouds 27 1010 83 10000 1.5 120 14:36 29.12.2020
4338 Clouds 27 1009 83 10000 0.5 0 14:18 29.12.2020
4339 Clouds 27 1009 83 10000 0.5 0 13:39 29.12.2020
4340 Rain 27 1008 78 10000 2.6 210 13:18 29.12.2020
4341 Rain 28 1008 78 10000 2.6 210 12:37 29.12.2020
4342 Rain 27 1008 88 9000 4.6 360 12:19 29.12.2020
4343 Clouds 27 1008 88 9000 4.6 360 11:52 29.12.2020
4344 Clouds 27 1008 88 9000 4.6 360 11:31 29.12.2020
4345 Clouds 30 1007 83 10000 1.5 250 10:27 29.12.2020
4346 Clouds 31 1006 66 10000 3.6 310 09:48 29.12.2020
4347 Clouds 32 1006 66 10000 1.5 0 09:20 29.12.2020
4348 Clouds 32 1006 66 10000 1.5 0 09:20 29.12.2020
4349 Clouds 32 1006 66 10000 1.5 0 08:53 29.12.2020
4350 Clouds 32 1007 59 10000 2.1 100 08:22 29.12.2020
4351 Clouds 32 1007 59 10000 2.1 100 07:26 29.12.2020
4352 Clouds 32 1008 59 10000 2.6 130 06:27 29.12.2020
4353 Clouds 32 1009 62 10000 3.1 90 04:49 29.12.2020
4354 Clouds 27 1009 83 10000 0.5 0 00:49 29.12.2020
4355 Clouds 26 1008 83 10000 1 0 00:20 29.12.2020
4356 Clouds 26 1008 83 10000 1 0 23:34 28.12.2020
4357 Clouds 27 1008 83 10000 1.91 92 22:28 28.12.2020
4358 Clouds 27 1007 83 10000 0.5 0 21:45 28.12.2020
4359 Clouds 27 1007 88 10000 1 0 21:24 28.12.2020
4360 Clouds 27 1007 88 10000 1 0 20:42 28.12.2020
4361 Clouds 27 1008 88 10000 1.5 70 20:22 28.12.2020
4362 Clouds 27 1008 88 10000 1.5 70 19:48 28.12.2020
4363 Clouds 27 1008 88 10000 1.5 70 19:24 28.12.2020
4364 Clouds 27 1008 88 10000 1 0 18:52 28.12.2020
4365 Clouds 27 1008 88 10000 1 0 18:28 28.12.2020
4366 Clouds 27 1008 83 10000 1.5 110 17:45 28.12.2020
4367 Clouds 27 1008 78 10000 2.6 90 17:25 28.12.2020
4368 Rain 27 1008 78 10000 2.6 90 16:45 28.12.2020
4369 Clouds 27 1008 83 10000 1.5 110 16:24 28.12.2020
4370 Clouds 27 1008 83 10000 1.5 110 15:50 28.12.2020
4371 Clouds 28 1008 83 10000 2.1 110 14:58 28.12.2020
4372 Rain 28 1008 83 10000 2.1 120 13:59 28.12.2020
4373 Rain 28 1008 83 10000 2.1 120 13:35 28.12.2020
4374 Clouds 28 1007 83 10000 1.5 130 12:55 28.12.2020
4375 Rain 28 1006 79 10000 2.1 150 12:24 28.12.2020
4376 Rain 28 1006 79 10000 2.1 150 11:47 28.12.2020
4377 Clouds 29 1006 79 10000 2.1 150 11:25 28.12.2020
4378 Clouds 29 1006 70 10000 3.1 130 10:49 28.12.2020
4379 Clouds 30 1006 70 10000 3.1 130 10:28 28.12.2020
4380 Clouds 30 1006 74 10000 2.6 130 09:49 28.12.2020
4381 Clouds 31 1006 70 10000 2.6 0 09:21 28.12.2020
4382 Clouds 31 1006 70 10000 2.6 0 08:52 28.12.2020
4383 Clouds 31 1007 66 10000 3.1 110 06:51 28.12.2020
4384 Clouds 29 1009 74 10000 2.1 120 04:41 28.12.2020
4385 Clouds 28 1009 83 8000 1.5 0 02:44 28.12.2020
4386 Rain 25 1008 94 7000 1 0 00:53 28.12.2020
4387 Mist 24 1008 100 5000 0.5 0 23:49 27.12.2020
4388 Mist 24 1007 100 4000 1 0 23:20 27.12.2020
4389 Mist 24 1007 100 5000 1 110 21:58 27.12.2020
4390 Rain 24 1007 100 5000 1 110 21:27 27.12.2020
4391 Clouds 24 1006 100 7000 0.5 0 20:48 27.12.2020
4392 Clouds 24 1007 100 10000 0.5 0 19:48 27.12.2020
4393 Clouds 24 1007 100 10000 0.5 0 19:22 27.12.2020
4394 Clouds 24 1008 100 10000 0.5 0 18:47 27.12.2020
4395 Clouds 24 1009 100 10000 0.5 0 18:20 27.12.2020
4396 Clouds 24 1009 100 10000 0.5 0 17:49 27.12.2020
4397 Clouds 24 1009 100 10000 0.5 0 17:30 27.12.2020
4398 Clouds 24 1009 100 10000 0.5 0 16:54 27.12.2020
4399 Clouds 24 1009 94 10000 1 0 16:20 27.12.2020
4400 Clouds 24 1009 100 10000 1.03 122 15:21 27.12.2020
4401 Clouds 24 1009 100 10000 1.03 122 14:42 27.12.2020
4402 Clouds 24 1008 94 9000 1 20 14:22 27.12.2020
4403 Rain 24 1008 94 10000 1 0 13:23 27.12.2020
4404 Rain 24 1008 94 10000 1 0 12:49 27.12.2020
4405 Rain 24 1008 94 9000 2.6 320 12:18 27.12.2020
4406 Rain 24 1008 94 9000 2.6 320 11:39 27.12.2020
4407 Rain 24 1007 94 8000 2.6 320 10:52 27.12.2020
4408 Rain 24 1007 94 8000 2.6 320 10:25 27.12.2020
4409 Rain 24 1007 94 9000 2.1 310 09:53 27.12.2020
4410 Rain 24 1007 94 9000 2.6 340 08:50 27.12.2020
4411 Rain 25 1007 94 7000 2.1 330 08:26 27.12.2020
4412 Rain 25 1007 94 7000 2.1 330 07:26 27.12.2020
4413 Rain 24 1009 94 9000 2.6 350 05:45 27.12.2020
4414 Rain 24 1010 94 6000 2.6 360 04:32 27.12.2020
4415 Rain 24 1011 88 8000 3.1 10 03:21 27.12.2020
4416 Clouds 24 1010 100 5000 0.5 0 01:34 27.12.2020
4417 Rain 24 1008 100 9000 1 0 00:24 27.12.2020
4418 Rain 24 1008 100 9000 1 0 23:32 26.12.2020
4419 Rain 24 1008 94 7000 1.5 80 22:57 26.12.2020
4420 Rain 25 1008 94 7000 1.5 80 22:36 26.12.2020
4421 Rain 24 1008 94 2500 2.6 80 22:18 26.12.2020
4422 Rain 24 1008 94 2500 2.6 80 22:18 26.12.2020
4423 Rain 25 1008 94 2500 2.6 80 21:43 26.12.2020
4424 Rain 25 1008 94 10000 1 0 21:22 26.12.2020
4425 Clouds 25 1008 94 10000 1 0 20:41 26.12.2020
4426 Clouds 25 1009 94 9000 3.1 20 20:19 26.12.2020
4427 Clouds 25 1009 94 9000 3.1 20 19:27 26.12.2020
4428 Clouds 25 1009 94 9000 3.6 10 18:52 26.12.2020
4429 Clouds 25 1009 94 9000 3.6 10 18:28 26.12.2020
4430 Clouds 26 1010 88 9000 2.6 350 17:41 26.12.2020
4431 Clouds 25 1010 94 9000 1.5 60 17:21 26.12.2020
4432 Clouds 25 1010 94 9000 1.5 60 16:36 26.12.2020
4433 Rain 25 1011 94 9000 3.1 100 15:27 26.12.2020
4434 Rain 25 1011 94 8000 4.1 120 14:54 26.12.2020
4435 Rain 25 1011 94 8000 4.1 120 14:28 26.12.2020
4436 Rain 26 1010 94 9000 2.6 60 13:51 26.12.2020
4437 Rain 26 1010 94 9000 2.6 60 13:31 26.12.2020
4438 Rain 26 1010 94 8000 2.6 90 12:48 26.12.2020
4439 Rain 26 1010 94 8000 2.6 90 12:30 26.12.2020
4440 Rain 26 1010 94 8000 2.6 90 12:30 26.12.2020
4441 Rain 26 1009 88 9000 1 0 11:51 26.12.2020
4442 Rain 26 1009 88 9000 1.5 0 11:22 26.12.2020
4443 Rain 27 1009 88 9000 1.5 0 10:55 26.12.2020
4444 Rain 27 1009 88 9000 1.5 180 10:27 26.12.2020
4445 Rain 27 1008 83 9000 1.5 70 09:51 26.12.2020
4446 Rain 28 1008 83 9000 1.5 70 09:29 26.12.2020
4447 Clouds 28 1007 94 8000 1.5 140 08:35 26.12.2020
4448 Rain 27 1008 88 8000 4.6 110 07:53 26.12.2020
4449 Clouds 31 1009 70 10000 2.6 0 06:31 26.12.2020
4450 Clouds 30 1011 74 10000 3.1 20 03:19 26.12.2020
4451 Clouds 29 1011 74 10000 2.1 30 01:35 26.12.2020
4452 Clouds 26 1010 83 10000 0.5 0 00:26 26.12.2020
4453 Clouds 26 1010 83 10000 1 0 23:40 25.12.2020
4454 Clouds 26 1009 78 10000 1 0 23:22 25.12.2020
4455 Rain 26 1009 78 10000 1 0 22:42 25.12.2020
4456 Clouds 26 1009 88 10000 1.5 350 21:54 25.12.2020
4457 Clouds 26 1009 88 10000 1.5 350 21:34 25.12.2020
4458 Clouds 26 1009 83 10000 1.5 10 20:50 25.12.2020
4459 Rain 26 1009 83 10000 1.5 10 20:31 25.12.2020
4460 Clouds 26 1010 88 10000 2.1 360 19:47 25.12.2020
4461 Clouds 26 1010 83 10000 3.23 74 19:20 25.12.2020
4462 Clouds 26 1010 83 10000 3.13 69 18:39 25.12.2020
4463 Clouds 27 1011 83 10000 1 0 17:47 25.12.2020
4464 Clouds 27 1011 83 10000 1 0 17:28 25.12.2020
4465 Clouds 27 1011 83 10000 2.1 70 16:33 25.12.2020
4466 Rain 27 1011 83 10000 1 0 15:59 25.12.2020
4467 Clouds 27 1011 83 10000 1 0 15:36 25.12.2020
4468 Clouds 27 1011 83 10000 1.5 70 14:50 25.12.2020
4469 Clouds 27 1011 83 10000 1.5 70 14:29 25.12.2020
4470 Clouds 27 1011 78 10000 2.1 110 13:44 25.12.2020
4471 Clouds 28 1011 78 10000 2.1 110 13:26 25.12.2020
4472 Clouds 28 1010 78 10000 3.1 100 12:35 25.12.2020
4473 Clouds 29 1009 74 10000 3.6 100 11:54 25.12.2020
4474 Clouds 29 1009 74 10000 3.6 100 11:29 25.12.2020
4475 Clouds 29 1009 78 10000 4.1 120 10:53 25.12.2020
4476 Clouds 29 1009 78 10000 4.1 120 10:23 25.12.2020
4477 Clouds 30 1008 66 10000 2.6 150 09:32 25.12.2020
4478 Clouds 32 1008 62 10000 3.1 150 08:47 25.12.2020
4479 Clouds 31 1008 66 10000 3.1 140 07:57 25.12.2020
4480 Clouds 32 1009 59 10000 1.5 0 06:44 25.12.2020
4481 Clouds 30 1011 62 10000 0.5 0 02:50 25.12.2020
4482 Clouds 27 1010 83 10000 0.5 0 01:18 25.12.2020
4483 Clouds 25 1010 83 10000 0.5 0 00:18 25.12.2020
4484 Clouds 25 1010 83 10000 1 160 23:23 24.12.2020
4485 Clouds 25 1010 83 10000 1 160 22:40 24.12.2020
4486 Clouds 25 1009 88 10000 1 0 22:19 24.12.2020
4487 Clouds 25 1009 88 10000 1 0 21:32 24.12.2020
4488 Clouds 26 1010 83 10000 1 0 20:20 24.12.2020
4489 Clouds 26 1010 83 10000 2.1 100 18:39 24.12.2020
4490 Clouds 26 1011 83 10000 1 100 18:18 24.12.2020
4491 Clouds 26 1011 83 10000 1 100 17:36 24.12.2020
4492 Clouds 27 1011 74 10000 1.5 120 16:28 24.12.2020
4493 Clouds 27 1011 74 10000 3.1 110 15:58 24.12.2020
4494 Clouds 28 1011 74 10000 3.1 110 15:40 24.12.2020
4495 Clouds 28 1011 78 10000 2.6 150 15:18 24.12.2020
4496 Clouds 28 1011 78 10000 2.6 150 14:42 24.12.2020
4497 Clouds 28 1010 78 10000 1.5 0 14:23 24.12.2020
4498 Clouds 28 1010 78 10000 1.5 0 13:39 24.12.2020
4499 Clouds 29 1009 74 10000 2.1 150 13:20 24.12.2020
4500 Clouds 29 1009 74 10000 2.1 150 12:41 24.12.2020
4501 Clouds 29 1008 66 10000 1.5 160 12:20 24.12.2020
4502 Clouds 30 1008 66 10000 1.5 160 11:39 24.12.2020
4503 Clouds 30 1008 66 10000 1.5 160 11:39 24.12.2020
4504 Clouds 30 1008 62 10000 1 130 11:20 24.12.2020
4505 Clouds 30 1008 62 10000 1 130 10:49 24.12.2020
4506 Clouds 31 1008 62 10000 1 130 10:30 24.12.2020
4507 Clouds 31 1008 62 10000 2.1 130 09:52 24.12.2020
4508 Clouds 32 1008 59 10000 1.5 120 09:23 24.12.2020
4509 Clouds 32 1009 66 10000 2.1 240 08:18 24.12.2020
4510 Rain 32 1009 66 10000 2.1 240 07:39 24.12.2020
4511 Clouds 31 1009 70 10000 2.6 300 06:55 24.12.2020
4512 Clouds 30 1011 70 10000 2.6 310 04:24 24.12.2020
4513 Rain 29 1011 70 10000 0.5 0 01:54 24.12.2020
4514 Clouds 28 1011 70 10000 0.5 0 01:30 24.12.2020
4515 Clouds 26 1010 83 10000 1.6 51 00:56 24.12.2020
4516 Clouds 25 1010 94 10000 1 70 00:20 24.12.2020
4517 Clouds 25 1010 94 10000 1 70 23:40 23.12.2020
4518 Clouds 26 1010 83 10000 0.5 0 23:22 23.12.2020
4519 Clouds 26 1010 83 10000 0.5 0 22:52 23.12.2020
4520 Clouds 26 1010 83 10000 0.5 0 22:29 23.12.2020
4521 Clouds 26 1010 83 10000 0.5 0 21:49 23.12.2020
4522 Clouds 26 1009 83 10000 1.5 90 21:24 23.12.2020
4523 Clouds 26 1009 83 10000 1.5 90 20:49 23.12.2020
4524 Clouds 26 1009 83 10000 1.5 90 20:49 23.12.2020
4525 Clouds 26 1009 83 10000 1.5 90 20:31 23.12.2020
4526 Clouds 27 1010 83 10000 1 0 19:59 23.12.2020
4527 Clouds 27 1010 83 10000 1 0 19:38 23.12.2020
4528 Clouds 27 1010 78 10000 0.5 0 19:19 23.12.2020
4529 Rain 27 1010 78 10000 0.5 0 18:46 23.12.2020
4530 Clouds 27 1010 78 10000 1.5 120 18:21 23.12.2020
4531 Clouds 27 1010 78 10000 1.5 120 17:37 23.12.2020
4532 Clouds 27 1010 78 10000 1.5 140 17:19 23.12.2020
4533 Clouds 27 1010 78 10000 1.5 140 16:42 23.12.2020
4534 Clouds 28 1011 78 10000 2.1 130 16:24 23.12.2020
4535 Clouds 28 1011 78 10000 2.1 130 15:50 23.12.2020
4536 Clouds 28 1010 74 10000 2.1 120 15:27 23.12.2020
4537 Clouds 28 1010 74 10000 2.1 120 14:58 23.12.2020
4538 Clouds 28 1010 74 10000 2.1 120 14:38 23.12.2020
4539 Clouds 28 1010 74 10000 2.1 130 14:20 23.12.2020
4540 Rain 28 1010 74 10000 2.1 130 13:43 23.12.2020
4541 Clouds 29 1009 74 10000 3.1 120 13:19 23.12.2020
4542 Clouds 29 1009 74 10000 3.1 120 12:49 23.12.2020
4543 Clouds 29 1009 74 10000 3.1 120 12:24 23.12.2020
4544 Clouds 29 1009 74 10000 2.6 120 11:46 23.12.2020
4545 Rain 30 1008 66 10000 3.1 130 11:19 23.12.2020
4546 Clouds 31 1008 66 10000 3.1 130 10:43 23.12.2020
4547 Clouds 31 1008 66 10000 3.1 130 10:25 23.12.2020
4548 Clouds 31 1008 66 10000 4.1 110 09:35 23.12.2020
4549 Clouds 32 1008 59 10000 5.1 100 08:48 23.12.2020
4550 Clouds 33 1009 55 10000 4.1 120 08:20 23.12.2020
4551 Clouds 33 1009 55 10000 4.1 120 07:27 23.12.2020
4552 Clouds 33 1010 62 10000 4.6 110 06:41 23.12.2020
4553 Clouds 32 1011 59 10000 5.1 110 05:39 23.12.2020
4554 Clouds 32 1011 66 10000 5.1 90 04:58 23.12.2020
4555 Clouds 26 1011 88 10000 1.5 90 00:48 23.12.2020
4556 Clouds 26 1010 88 10000 1.5 170 00:21 23.12.2020
4557 Clouds 26 1010 88 10000 1.5 170 00:21 23.12.2020
4558 Clouds 26 1010 88 10000 1.5 170 23:35 22.12.2020
4559 Clouds 26 1010 83 10000 0.5 0 22:58 22.12.2020
4560 Clouds 26 1010 83 10000 0.5 0 22:40 22.12.2020
4561 Clouds 26 1009 83 10000 1.5 60 22:20 22.12.2020
4562 Clouds 26 1009 83 10000 1.5 60 21:44 22.12.2020
4563 Clouds 26 1009 88 10000 1.5 40 21:20 22.12.2020
4564 Clouds 26 1009 88 10000 1.5 40 20:49 22.12.2020
4565 Clouds 26 1009 88 10000 1 100 20:22 22.12.2020
4566 Clouds 26 1009 88 10000 1 100 19:44 22.12.2020
4567 Clouds 27 1010 83 10000 1.5 110 19:22 22.12.2020
4568 Clouds 27 1010 83 10000 1.5 110 18:55 22.12.2020
4569 Clouds 27 1010 83 10000 1.5 110 18:30 22.12.2020
4570 Clouds 27 1010 83 10000 2.6 120 17:59 22.12.2020
4571 Clouds 27 1010 83 10000 2.6 120 17:26 22.12.2020
4572 Clouds 27 1010 83 10000 2.1 120 16:56 22.12.2020
4573 Clouds 27 1010 83 10000 2.1 120 16:37 22.12.2020
4574 Clouds 27 1011 83 10000 3.1 120 16:19 22.12.2020
4575 Clouds 27 1011 83 10000 3.1 120 16:19 22.12.2020
4576 Clouds 27 1011 83 10000 3.1 120 15:43 22.12.2020
4577 Clouds 27 1011 83 10000 3.1 120 15:23 22.12.2020
4578 Clouds 27 1011 83 10000 2.6 130 14:45 22.12.2020
4579 Clouds 27 1010 78 10000 2.6 110 14:27 22.12.2020
4580 Clouds 27 1010 78 10000 2.6 110 13:50 22.12.2020
4581 Clouds 28 1009 78 10000 2.6 120 13:20 22.12.2020
4582 Clouds 28 1009 78 10000 2.6 120 12:58 22.12.2020
4583 Clouds 28 1009 78 10000 2.6 120 12:39 22.12.2020
4584 Clouds 28 1009 74 10000 3.6 120 12:19 22.12.2020
4585 Clouds 28 1009 74 10000 3.6 120 11:42 22.12.2020
4586 Clouds 29 1008 70 10000 2.1 140 11:22 22.12.2020
4587 Clouds 29 1008 70 10000 2.1 140 10:55 22.12.2020
4588 Clouds 29 1008 70 10000 2.1 140 10:27 22.12.2020
4589 Rain 30 1008 70 10000 2.1 130 09:58 22.12.2020
4590 Clouds 30 1008 70 10000 2.1 130 09:30 22.12.2020
4591 Clouds 31 1008 66 10000 1.5 0 08:58 22.12.2020
4592 Clouds 31 1008 66 10000 1.5 0 08:39 22.12.2020
4593 Clouds 31 1008 59 10000 1 0 08:19 22.12.2020
4594 Clouds 31 1008 59 10000 1 0 07:27 22.12.2020
4595 Clouds 30 1009 70 10000 3.1 290 06:34 22.12.2020
4596 Clouds 31 1010 66 10000 2.6 310 05:33 22.12.2020
4597 Clouds 28 1012 74 10000 1.5 60 02:31 22.12.2020
4598 Clouds 25 1010 83 10000 1 0 00:26 22.12.2020
4599 Rain 25 1010 78 10000 1.5 350 23:50 21.12.2020
4600 Clouds 25 1009 88 10000 1.5 10 23:22 21.12.2020
4601 Rain 25 1009 88 10000 1.5 10 22:37 21.12.2020
4602 Clouds 25 1009 88 10000 2.39 39 22:19 21.12.2020
4603 Clouds 25 1009 88 10000 2.39 39 21:47 21.12.2020
4604 Clouds 25 1009 88 10000 2.25 57 21:28 21.12.2020
4605 Clouds 25 1009 94 10000 0.5 0 20:45 21.12.2020
4606 Clouds 25 1010 88 10000 2.24 68 20:21 21.12.2020
4607 Clouds 25 1010 88 10000 2.24 68 19:47 21.12.2020
4608 Clouds 26 1010 88 10000 1 130 19:23 21.12.2020
4609 Clouds 26 1010 88 10000 1 130 18:59 21.12.2020
4610 Clouds 26 1010 88 10000 1 130 18:41 21.12.2020
4611 Clouds 26 1010 88 10000 1 0 18:23 21.12.2020
4612 Clouds 26 1010 88 10000 1 0 17:42 21.12.2020
4613 Clouds 26 1011 83 10000 1 100 17:23 21.12.2020
4614 Clouds 26 1011 83 10000 1 100 16:45 21.12.2020
4615 Rain 27 1011 78 10000 1.5 110 16:21 21.12.2020
4616 Rain 27 1011 78 10000 1.5 110 15:43 21.12.2020
4617 Clouds 27 1011 78 10000 1.5 100 14:58 21.12.2020
4618 Clouds 27 1011 78 10000 1.5 100 14:36 21.12.2020
4619 Clouds 27 1010 78 10000 1.5 120 14:18 21.12.2020
4620 Clouds 27 1010 78 10000 1.5 120 13:40 21.12.2020
4621 Clouds 27 1009 78 10000 2.6 110 13:21 21.12.2020
4622 Clouds 27 1009 78 10000 2.6 110 12:42 21.12.2020
4623 Clouds 28 1009 78 10000 1.5 130 12:22 21.12.2020
4624 Clouds 28 1009 78 10000 1.5 130 11:43 21.12.2020
4625 Clouds 28 1008 74 10000 2.1 0 11:22 21.12.2020
4626 Clouds 28 1008 74 10000 2.1 0 11:22 21.12.2020
4627 Clouds 28 1008 74 10000 2.1 0 10:58 21.12.2020
4628 Clouds 28 1008 74 10000 2.1 0 10:39 21.12.2020
4629 Clouds 29 1007 70 10000 3.6 100 09:56 21.12.2020
4630 Clouds 29 1007 70 10000 3.6 100 09:38 21.12.2020
4631 Clouds 29 1007 79 10000 1.5 0 09:20 21.12.2020
4632 Clouds 29 1007 79 10000 1.5 0 08:26 21.12.2020
4633 Rain 29 1009 74 10000 2.1 0 07:19 21.12.2020
4634 Clouds 29 1010 74 10000 1.5 0 05:39 21.12.2020
4635 Clouds 29 1010 74 10000 2.6 80 04:30 21.12.2020
4636 Rain 25 1010 94 9000 1 90 00:37 21.12.2020
4637 Clouds 25 1010 94 8000 0.5 0 23:50 20.12.2020
4638 Clouds 25 1009 94 9000 1 0 23:21 20.12.2020
4639 Clouds 25 1009 94 9000 1 0 22:45 20.12.2020
4640 Clouds 25 1009 88 10000 1.5 10 22:25 20.12.2020
4641 Clouds 25 1009 88 10000 1.5 10 21:55 20.12.2020
4642 Clouds 25 1009 88 10000 1.5 10 21:37 20.12.2020
4643 Clouds 25 1009 88 10000 1.5 290 21:18 20.12.2020
4644 Clouds 25 1009 88 10000 1.5 290 20:42 20.12.2020
4645 Clouds 25 1010 88 10000 1 0 20:21 20.12.2020
4646 Clouds 26 1010 88 10000 1 0 19:42 20.12.2020
4647 Clouds 26 1010 83 10000 3.1 100 19:20 20.12.2020
4648 Clouds 26 1010 83 10000 3.1 100 18:54 20.12.2020
4649 Clouds 26 1010 83 10000 3.1 100 18:35 20.12.2020
4650 Clouds 26 1010 78 10000 2.6 100 17:47 20.12.2020
4651 Clouds 26 1010 78 10000 2.6 100 17:28 20.12.2020
4652 Clouds 26 1010 83 10000 3.6 90 16:48 20.12.2020
4653 Clouds 26 1010 88 10000 1.5 100 16:29 20.12.2020
4654 Clouds 26 1010 88 10000 1.5 100 15:51 20.12.2020
4655 Clouds 26 1010 88 10000 1.5 100 15:28 20.12.2020
4656 Clouds 26 1011 88 10000 1.5 100 14:56 20.12.2020
4657 Clouds 26 1011 88 10000 1.5 100 14:36 20.12.2020
4658 Clouds 26 1009 83 10000 2.1 90 13:56 20.12.2020
4659 Clouds 26 1009 83 10000 2.1 90 13:36 20.12.2020
4660 Clouds 27 1009 83 8000 3.6 100 13:18 20.12.2020
4661 Clouds 27 1009 83 8000 3.6 100 12:44 20.12.2020
4662 Clouds 27 1009 83 8000 4.1 110 12:21 20.12.2020
4663 Clouds 27 1009 83 8000 4.1 110 11:45 20.12.2020
4664 Clouds 27 1009 83 8000 4.1 110 11:26 20.12.2020
4665 Clouds 28 1009 78 10000 3.6 100 10:49 20.12.2020
4666 Rain 29 1008 74 10000 4.1 110 10:21 20.12.2020
4667 Clouds 29 1008 74 10000 4.1 110 09:46 20.12.2020
4668 Clouds 29 1008 74 10000 4.1 110 09:46 20.12.2020
4669 Clouds 29 1008 74 10000 4.1 110 09:28 20.12.2020
4670 Clouds 30 1008 70 10000 4.1 120 08:59 20.12.2020
4671 Clouds 30 1008 70 10000 4.1 120 08:40 20.12.2020
4672 Clouds 31 1008 66 10000 4.6 110 07:34 20.12.2020
4673 Clouds 30 1009 70 10000 2.6 0 06:28 20.12.2020
4674 Clouds 27 1011 83 10000 1.5 60 02:37 20.12.2020
4675 Clouds 24 1010 94 9000 1.5 30 00:41 20.12.2020
4676 Clouds 24 1009 100 10000 1.5 80 23:36 19.12.2020
4677 Rain 24 1009 100 8000 2.1 80 23:18 19.12.2020
4678 Rain 24 1009 100 8000 2.1 80 22:41 19.12.2020
4679 Rain 24 1009 94 8000 2.1 80 22:21 19.12.2020
4680 Clouds 24 1009 94 8000 2.1 80 21:44 19.12.2020
4681 Clouds 24 1009 94 8000 2.1 80 21:25 19.12.2020
4682 Clouds 24 1009 100 10000 3.5 30 20:55 19.12.2020
4683 Clouds 24 1009 100 9000 3.86 22 20:24 19.12.2020
4684 Clouds 24 1009 100 9000 3.86 22 19:58 19.12.2020
4685 Clouds 24 1009 100 9000 3.86 22 19:38 19.12.2020
4686 Rain 24 1010 94 4000 1 0 19:19 19.12.2020
4687 Rain 24 1010 94 4000 1 0 18:33 19.12.2020
4688 Rain 25 1010 83 9000 1 190 17:56 19.12.2020
4689 Clouds 25 1010 83 9000 1 190 17:31 19.12.2020
4690 Clouds 25 1010 83 10000 1.5 320 16:58 19.12.2020
4691 Clouds 25 1010 83 10000 1.5 320 16:38 19.12.2020
4692 Clouds 25 1010 83 10000 1.5 320 16:38 19.12.2020
4693 Clouds 25 1010 83 10000 0.5 0 16:20 19.12.2020
4694 Clouds 25 1010 83 10000 0.5 0 15:49 19.12.2020
4695 Clouds 25 1009 83 10000 1 0 15:20 19.12.2020
4696 Clouds 25 1009 83 10000 1 0 14:37 19.12.2020
4697 Rain 25 1009 88 10000 1.5 40 13:42 19.12.2020
4698 Clouds 25 1009 88 10000 1.5 10 13:22 19.12.2020
4699 Clouds 25 1009 88 10000 1.5 10 12:57 19.12.2020
4700 Clouds 25 1009 88 10000 1.5 10 12:38 19.12.2020
4701 Rain 25 1008 88 10000 1 0 12:20 19.12.2020
4702 Rain 25 1008 88 10000 1 0 11:44 19.12.2020
4703 Clouds 25 1008 83 10000 3.1 360 11:18 19.12.2020
4704 Clouds 25 1008 83 10000 3.1 360 10:42 19.12.2020
4705 Clouds 25 1008 83 10000 3.1 360 10:42 19.12.2020
4706 Clouds 25 1008 83 10000 2.6 70 10:18 19.12.2020
4707 Clouds 25 1008 83 10000 2.6 70 09:41 19.12.2020
4708 Rain 25 1008 94 10000 1.5 90 08:58 19.12.2020
4709 Rain 25 1008 94 5000 1.5 120 08:18 19.12.2020
4710 Rain 26 1009 88 5000 2.1 120 07:20 19.12.2020
4711 Rain 26 1009 88 5000 2.1 120 06:49 19.12.2020
4712 Clouds 27 1011 83 8000 1.5 350 05:23 19.12.2020
4713 Clouds 26 1011 88 10000 2.1 20 03:48 19.12.2020
4714 Mist 24 1011 100 2500 3.1 30 00:42 19.12.2020
4715 Mist 24 1010 100 2500 2.6 360 00:21 19.12.2020
4716 Rain 24 1010 100 2500 2.6 360 23:51 18.12.2020
4717 Rain 24 1010 100 2500 2.6 360 23:29 18.12.2020
4718 Rain 24 1009 94 4000 2.6 10 22:57 18.12.2020
4719 Rain 24 1009 94 4000 2.6 10 22:39 18.12.2020
4720 Rain 24 1009 94 8000 1.5 30 22:19 18.12.2020
4721 Rain 24 1009 94 8000 1.5 30 21:43 18.12.2020
4722 Rain 24 1009 100 5000 2.1 20 21:22 18.12.2020
4723 Clouds 24 1009 88 9000 1 0 20:25 18.12.2020
4724 Rain 25 1009 88 9000 1 0 19:51 18.12.2020
4725 Rain 25 1009 94 10000 2.6 10 19:24 18.12.2020
4726 Rain 25 1009 94 10000 2.6 10 18:46 18.12.2020
4727 Rain 25 1009 94 10000 2.6 10 18:28 18.12.2020
4728 Rain 25 1010 94 10000 2.1 360 17:52 18.12.2020
4729 Rain 25 1011 94 9000 3.6 10 17:20 18.12.2020
4730 Rain 25 1011 94 9000 3.6 10 16:45 18.12.2020
4731 Rain 25 1011 88 9000 1.5 320 16:21 18.12.2020
4732 Rain 25 1011 88 9000 1.5 320 15:54 18.12.2020
4733 Rain 25 1011 88 9000 1.5 320 15:34 18.12.2020
4734 Rain 25 1011 94 9000 1 0 14:57 18.12.2020
4735 Rain 25 1011 94 10000 1.5 80 14:26 18.12.2020
4736 Rain 25 1011 94 10000 1.5 80 13:53 18.12.2020
4737 Rain 25 1011 94 10000 1.5 80 13:33 18.12.2020
4738 Rain 25 1010 94 9000 3.6 100 12:59 18.12.2020
4739 Rain 25 1010 94 9000 3.6 100 12:38 18.12.2020
4740 Rain 26 1009 88 9000 2.6 70 11:29 18.12.2020
4741 Clouds 27 1009 74 9000 4.6 90 10:45 18.12.2020
4742 Clouds 29 1008 66 10000 4.1 90 10:24 18.12.2020
4743 Rain 29 1008 66 10000 4.1 90 10:00 18.12.2020
4744 Clouds 29 1008 66 10000 4.1 90 09:37 18.12.2020
4745 Clouds 29 1008 78 8000 3.1 90 09:19 18.12.2020
4746 Clouds 29 1008 78 8000 3.1 90 08:46 18.12.2020
4747 Clouds 29 1008 78 8000 3.1 90 08:20 18.12.2020
4748 Clouds 31 1009 59 10000 3.6 90 07:20 18.12.2020
4749 Clouds 30 1009 59 10000 3.6 90 06:59 18.12.2020
4750 Clouds 30 1009 70 10000 0.5 0 05:45 18.12.2020
4751 Clouds 29 1010 78 10000 2.1 260 05:23 18.12.2020
4752 Rain 29 1010 78 10000 2.1 260 04:42 18.12.2020
4753 Clouds 26 1011 88 10000 0.5 0 01:47 18.12.2020
4754 Clouds 25 1011 94 10000 0.5 0 00:31 18.12.2020
4755 Clouds 25 1010 94 10000 1 0 23:53 17.12.2020
4756 Rain 25 1010 94 9000 1 0 23:25 17.12.2020
4757 Rain 24 1010 94 9000 1 0 22:49 17.12.2020
4758 Rain 24 1010 94 9000 1 0 22:28 17.12.2020
4759 Clouds 24 1010 88 10000 1.5 20 21:46 17.12.2020
4760 Clouds 24 1010 94 10000 0.5 0 21:22 17.12.2020
4761 Rain 25 1010 94 10000 0.5 0 20:55 17.12.2020
4762 Clouds 25 1011 83 10000 0.5 0 20:36 17.12.2020
4763 Clouds 25 1011 83 10000 0.5 0 20:18 17.12.2020
4764 Clouds 25 1011 83 10000 0.5 0 19:39 17.12.2020
4765 Clouds 25 1011 83 10000 1 0 19:21 17.12.2020
4766 Clouds 25 1011 83 10000 1 0 18:40 17.12.2020
4767 Clouds 25 1012 88 10000 2.1 90 18:19 17.12.2020
4768 Clouds 26 1012 88 10000 2.1 90 17:46 17.12.2020
4769 Clouds 26 1012 88 10000 2.1 90 17:28 17.12.2020
4770 Clouds 26 1012 88 9000 1.5 60 16:41 17.12.2020
4771 Rain 26 1011 88 10000 1 0 16:22 17.12.2020
4772 Clouds 26 1011 88 10000 1 0 15:50 17.12.2020
4773 Clouds 26 1011 88 10000 0.5 0 15:28 17.12.2020
4774 Clouds 26 1011 88 10000 0.5 0 14:50 17.12.2020
4775 Clouds 26 1011 83 10000 1 0 14:28 17.12.2020
4776 Rain 26 1011 83 10000 1 0 13:50 17.12.2020
4777 Clouds 26 1010 83 10000 1 0 13:23 17.12.2020
4778 Rain 26 1010 83 10000 1 0 12:43 17.12.2020
4779 Rain 27 1010 78 10000 1.5 100 12:24 17.12.2020
4780 Clouds 27 1010 78 10000 1.5 100 11:43 17.12.2020
4781 Clouds 27 1010 78 10000 1.5 90 11:22 17.12.2020
4782 Rain 27 1010 78 10000 1.5 90 10:48 17.12.2020
4783 Rain 26 1009 83 10000 2.6 70 09:40 17.12.2020
4784 Rain 27 1009 83 9000 4.6 60 08:57 17.12.2020
4785 Rain 27 1009 83 8000 3.1 100 07:44 17.12.2020
4786 Rain 27 1009 83 8000 3.1 100 07:25 17.12.2020
4787 Rain 30 1010 62 10000 3.6 90 06:50 17.12.2020
4788 Clouds 30 1010 62 10000 3.6 90 06:32 17.12.2020
4789 Clouds 29 1012 74 10000 2.1 0 03:31 17.12.2020
4790 Clouds 25 1010 78 10000 2.1 20 00:28 17.12.2020
4791 Clouds 25 1010 78 10000 2.1 20 23:42 16.12.2020
4792 Clouds 25 1010 78 9000 1 0 23:19 16.12.2020
4793 Clouds 25 1010 78 9000 1 0 22:49 16.12.2020
4794 Clouds 25 1010 78 9000 1 0 22:31 16.12.2020
4795 Clouds 25 1010 78 8000 1 0 21:45 16.12.2020
4796 Clouds 26 1010 78 10000 1 0 21:25 16.12.2020
4797 Clouds 26 1010 78 10000 1 0 20:52 16.12.2020
4798 Clouds 26 1011 83 10000 1 100 20:20 16.12.2020
4799 Clouds 26 1011 83 10000 1 100 19:43 16.12.2020
4800 Clouds 26 1011 83 10000 1 100 19:43 16.12.2020
4801 Clouds 26 1011 83 10000 0.5 0 19:18 16.12.2020
4802 Clouds 26 1011 83 10000 0.5 0 18:51 16.12.2020
4803 Clouds 26 1012 74 10000 1 0 18:26 16.12.2020
4804 Clouds 26 1012 74 10000 1 0 18:26 16.12.2020
4805 Clouds 27 1012 74 10000 1 0 17:42 16.12.2020
4806 Clouds 27 1012 74 10000 1 0 16:56 16.12.2020
4807 Clouds 27 1012 74 10000 1 0 16:37 16.12.2020
4808 Clouds 27 1012 78 10000 1.5 130 16:19 16.12.2020
4809 Clouds 27 1012 78 10000 1.5 130 15:46 16.12.2020
4810 Clouds 27 1012 74 10000 2.1 70 15:19 16.12.2020
4811 Clouds 27 1012 74 10000 2.1 70 14:45 16.12.2020
4812 Clouds 27 1012 74 10000 2.1 70 14:27 16.12.2020
4813 Clouds 28 1012 74 10000 1.5 90 13:42 16.12.2020
4814 Clouds 28 1011 74 10000 2.1 110 13:21 16.12.2020
4815 Clouds 28 1011 74 10000 2.1 110 12:44 16.12.2020
4816 Clouds 28 1011 66 10000 2.6 100 11:55 16.12.2020
4817 Clouds 28 1011 66 10000 2.6 100 11:36 16.12.2020
4818 Clouds 29 1010 62 10000 4.1 100 10:58 16.12.2020
4819 Clouds 29 1010 62 10000 4.1 100 10:38 16.12.2020
4820 Clouds 30 1010 58 10000 4.1 110 09:56 16.12.2020
4821 Clouds 30 1010 58 10000 4.1 110 09:33 16.12.2020
4822 Clouds 32 1010 49 10000 4.6 110 08:23 16.12.2020
4823 Clouds 32 1010 49 10000 4.6 110 07:46 16.12.2020
4824 Clouds 32 1012 58 10000 4.1 90 07:23 16.12.2020
4825 Clouds 32 1013 55 10000 5.1 70 05:31 16.12.2020
4826 Clouds 28 1013 74 10000 3.1 40 01:59 16.12.2020
4827 Smoke 26 1012 83 10000 2.6 10 23:50 15.12.2020
4828 Smoke 26 1012 83 10000 2.6 10 23:32 15.12.2020
4829 Clouds 26 1012 78 10000 2.6 10 22:42 15.12.2020
4830 Clouds 25 1011 83 10000 2.1 50 22:22 15.12.2020
4831 Clouds 26 1011 83 10000 2.1 50 21:48 15.12.2020
4832 Clouds 26 1011 83 10000 1.5 60 21:24 15.12.2020
4833 Clouds 26 1011 83 10000 1.5 60 20:46 15.12.2020
4834 Clouds 26 1011 78 10000 1.5 90 20:27 15.12.2020
4835 Clouds 26 1011 78 10000 1.5 90 19:55 15.12.2020
4836 Clouds 26 1011 78 10000 1.5 90 19:34 15.12.2020
4837 Clouds 27 1012 74 10000 2.6 80 18:44 15.12.2020
4838 Clouds 27 1012 74 10000 2.6 80 18:24 15.12.2020
4839 Clouds 27 1012 78 10000 2.1 70 17:59 15.12.2020
4840 Clouds 27 1012 78 10000 2.1 70 17:41 15.12.2020
4841 Clouds 27 1012 78 10000 3.1 70 17:20 15.12.2020
4842 Clouds 27 1012 78 10000 3.1 70 17:20 15.12.2020
4843 Clouds 27 1012 78 10000 3.1 70 16:33 15.12.2020
4844 Clouds 27 1013 83 10000 1.5 100 15:55 15.12.2020
4845 Clouds 27 1013 83 10000 1.5 100 15:32 15.12.2020
4846 Rain 27 1013 74 10000 3.6 120 14:49 15.12.2020
4847 Clouds 27 1012 74 10000 2.1 120 14:23 15.12.2020
4848 Clouds 28 1012 74 10000 2.1 120 13:52 15.12.2020
4849 Clouds 28 1012 74 10000 2.1 120 13:32 15.12.2020
4850 Clouds 28 1011 74 10000 2.1 110 12:47 15.12.2020
4851 Clouds 28 1011 70 10000 2.6 100 12:22 15.12.2020
4852 Clouds 29 1011 70 10000 2.6 100 11:57 15.12.2020
4853 Clouds 29 1011 70 10000 2.6 100 11:27 15.12.2020
4854 Clouds 29 1010 62 10000 3.6 100 10:57 15.12.2020
4855 Clouds 29 1010 62 10000 3.6 100 10:35 15.12.2020
4856 Clouds 30 1010 58 10000 4.6 110 09:53 15.12.2020
4857 Clouds 30 1010 58 10000 4.6 110 09:32 15.12.2020
4858 Clouds 30 1010 58 10000 4.6 110 09:32 15.12.2020
4859 Clouds 30 1010 58 10000 4.6 110 09:32 15.12.2020
4860 Clouds 31 1010 70 10000 3.1 110 08:57 15.12.2020
4861 Clouds 31 1010 70 10000 3.1 110 08:29 15.12.2020
4862 Clouds 31 1010 74 10000 4.6 120 07:52 15.12.2020
4863 Clouds 30 1010 74 10000 4.6 120 07:28 15.12.2020
4864 Clouds 31 1011 66 10000 3.6 110 06:37 15.12.2020
4865 Clouds 30 1013 70 10000 2.1 0 04:18 15.12.2020
4866 Clouds 27 1012 78 10000 2.6 60 00:36 15.12.2020
4867 Clouds 27 1012 78 10000 2.6 60 00:36 15.12.2020
4868 Clouds 26 1011 83 10000 1.5 40 23:27 14.12.2020
4869 Clouds 26 1011 83 10000 1 0 22:58 14.12.2020
4870 Clouds 26 1011 83 10000 1 0 22:36 14.12.2020
4871 Clouds 26 1010 83 10000 0.5 0 21:54 14.12.2020
4872 Clouds 26 1010 83 10000 0.5 0 21:54 14.12.2020
4873 Clouds 26 1010 83 10000 0.5 0 21:35 14.12.2020
4874 Clouds 26 1010 83 10000 2.1 60 20:52 14.12.2020
4875 Clouds 26 1010 83 10000 2.1 60 20:30 14.12.2020
4876 Clouds 27 1011 83 10000 1.5 90 19:55 14.12.2020
4877 Clouds 27 1011 83 10000 1.5 90 19:29 14.12.2020
4878 Clouds 27 1011 78 10000 2.1 70 18:51 14.12.2020
4879 Clouds 27 1011 78 10000 2.1 70 18:32 14.12.2020
4880 Clouds 27 1011 78 10000 2.6 110 17:48 14.12.2020
4881 Clouds 27 1011 78 10000 2.6 110 17:28 14.12.2020
4882 Clouds 27 1012 78 10000 2.1 120 16:52 14.12.2020
4883 Clouds 28 1012 78 10000 2.6 100 16:29 14.12.2020
4884 Rain 28 1012 78 10000 2.6 100 15:44 14.12.2020
4885 Rain 28 1012 78 10000 3.1 130 15:22 14.12.2020
4886 Rain 28 1012 78 10000 3.1 130 14:43 14.12.2020
4887 Clouds 28 1011 66 10000 0.5 0 14:24 14.12.2020
4888 Rain 29 1011 66 10000 0.5 0 13:44 14.12.2020
4889 Rain 29 1010 68 10000 0.45 9 13:20 14.12.2020
4890 Rain 29 1010 67 10000 0.45 19 12:52 14.12.2020
4891 Clouds 29 1009 70 10000 1.5 220 12:28 14.12.2020
4892 Clouds 30 1009 70 10000 1.5 220 11:35 14.12.2020
4893 Clouds 30 1009 66 10000 1 0 10:40 14.12.2020
4894 Clouds 30 1008 59 10000 1.5 0 10:21 14.12.2020
4895 Clouds 31 1008 59 10000 1.5 0 09:43 14.12.2020
4896 Clouds 32 1008 59 10000 2.6 140 08:47 14.12.2020
4897 Clouds 32 1008 59 10000 2.6 140 08:29 14.12.2020
4898 Clouds 32 1009 66 10000 1 0 07:45 14.12.2020
4899 Clouds 31 1010 70 10000 2.6 320 06:48 14.12.2020
4900 Clouds 31 1010 70 10000 2.6 320 06:48 14.12.2020
4901 Clouds 32 1010 59 10000 2.6 120 05:36 14.12.2020
4902 Clouds 30 1011 70 10000 2.43 77 02:26 14.12.2020
4903 Clouds 26 1010 83 10000 2.56 85 00:56 14.12.2020
4904 Clouds 26 1010 83 10000 2.71 91 00:33 14.12.2020
4905 Clouds 25 1010 88 10000 2.6 87 23:57 13.12.2020
4906 Clouds 25 1010 88 10000 2.6 87 23:36 13.12.2020
4907 Clouds 25 1009 88 10000 1.5 90 22:48 13.12.2020
4908 Clouds 25 1009 88 10000 1.5 70 22:20 13.12.2020
4909 Clouds 25 1009 88 10000 1.5 70 21:47 13.12.2020
4910 Clouds 25 1009 88 10000 1.5 70 21:27 13.12.2020
4911 Clouds 26 1009 83 10000 2.6 60 20:38 13.12.2020
4912 Clouds 26 1009 78 10000 2.1 130 20:20 13.12.2020
4913 Clouds 27 1009 78 10000 2.1 130 19:42 13.12.2020
4914 Clouds 27 1010 78 10000 2.1 0 19:20 13.12.2020
4915 Clouds 27 1010 78 10000 2.1 0 18:43 13.12.2020
4916 Rain 27 1010 78 10000 2.1 120 18:20 13.12.2020
4917 Rain 27 1010 78 10000 2.1 120 17:47 13.12.2020
4918 Clouds 27 1011 78 10000 2.6 130 17:21 13.12.2020
4919 Clouds 27 1011 78 10000 2.6 130 16:56 13.12.2020
4920 Clouds 27 1011 78 10000 2.6 130 16:56 13.12.2020
4921 Clouds 27 1011 78 10000 2.6 130 16:38 13.12.2020
4922 Clouds 27 1011 78 10000 2.1 130 16:18 13.12.2020
4923 Clouds 27 1011 78 10000 2.1 130 15:40 13.12.2020
4924 Clouds 27 1010 78 10000 2.6 0 15:21 13.12.2020
4925 Clouds 27 1010 78 10000 2.6 0 14:43 13.12.2020
4926 Clouds 27 1010 78 10000 2.6 130 14:21 13.12.2020
4927 Clouds 28 1010 78 10000 2.6 130 13:43 13.12.2020
4928 Clouds 28 1010 78 10000 2.6 130 13:24 13.12.2020
4929 Clouds 28 1009 78 10000 2.1 150 12:48 13.12.2020
4930 Clouds 28 1008 79 10000 2.6 0 12:22 13.12.2020
4931 Clouds 28 1008 79 10000 2.6 0 11:40 13.12.2020
4932 Clouds 29 1008 74 10000 2.6 140 10:55 13.12.2020
4933 Clouds 29 1008 74 10000 2.6 140 10:37 13.12.2020
4934 Rain 29 1008 74 10000 2.1 130 09:54 13.12.2020
4935 Clouds 30 1008 74 10000 2.1 130 09:26 13.12.2020
4936 Clouds 31 1007 74 10000 3.1 120 08:34 13.12.2020
4937 Clouds 31 1008 70 10000 1 0 07:47 13.12.2020
4938 Clouds 30 1011 70 10000 2.1 50 04:29 13.12.2020
4939 Clouds 29 1011 79 10000 1.5 0 02:41 13.12.2020
4940 Clouds 28 1011 83 10000 2.1 20 01:57 13.12.2020
4941 Clouds 27 1010 83 10000 1 0 00:49 13.12.2020
4942 Clouds 27 1009 83 10000 1.5 70 23:55 12.12.2020
4943 Clouds 26 1009 83 10000 1.5 70 23:31 12.12.2020
4944 Clouds 27 1009 83 10000 1.5 60 22:49 12.12.2020
4945 Clouds 27 1008 83 10000 2.1 120 21:56 12.12.2020
4946 Clouds 27 1008 83 10000 2.1 120 21:34 12.12.2020
4947 Clouds 27 1008 78 10000 2.1 110 20:55 12.12.2020
4948 Rain 27 1008 78 10000 2.1 110 20:24 12.12.2020
4949 Clouds 27 1008 78 10000 2.1 110 19:57 12.12.2020
4950 Clouds 27 1008 78 10000 2.1 110 19:38 12.12.2020
4951 Clouds 27 1009 78 10000 2.1 130 19:20 12.12.2020
4952 Clouds 27 1009 78 10000 2.1 130 18:41 12.12.2020
4953 Clouds 27 1009 78 10000 2.6 120 18:23 12.12.2020
4954 Clouds 27 1009 78 10000 2.6 120 17:45 12.12.2020
4955 Clouds 27 1009 78 10000 3.1 120 16:55 12.12.2020
4956 Rain 28 1009 78 10000 3.6 120 16:19 12.12.2020
4957 Clouds 28 1009 78 10000 3.6 120 15:44 12.12.2020
4958 Clouds 28 1009 78 10000 2.6 110 15:26 12.12.2020
4959 Clouds 28 1009 78 10000 2.6 110 14:44 12.12.2020
4960 Clouds 29 1009 79 10000 1.5 120 13:54 12.12.2020
4961 Clouds 29 1009 79 10000 1.5 120 13:36 12.12.2020
4962 Clouds 29 1008 79 10000 2.1 130 12:53 12.12.2020
4963 Rain 29 1008 74 9000 1.5 120 11:46 12.12.2020
4964 Clouds 30 1007 70 10000 2.6 120 10:53 12.12.2020
4965 Clouds 31 1007 70 10000 3.6 70 09:32 12.12.2020
4966 Clouds 32 1007 70 10000 1.5 0 08:53 12.12.2020
4967 Clouds 31 1012 70 10000 0.5 0 02:53 12.12.2020
4968 Clouds 26 1011 88 10000 1 0 23:54 11.12.2020
4969 Clouds 26 1010 83 10000 0.5 0 22:28 11.12.2020
4970 Clouds 26 1010 88 10000 2.1 60 20:40 11.12.2020
4971 Clouds 27 1011 78 10000 1.5 140 17:58 11.12.2020
4972 Clouds 28 1011 78 10000 2.1 120 14:53 11.12.2020
4973 Clouds 28 1010 79 10000 3.1 120 13:58 11.12.2020
4974 Clouds 29 1009 79 10000 2.6 130 12:56 11.12.2020
4975 Clouds 29 1008 70 10000 2.6 120 11:58 11.12.2020
4976 Clouds 29 1008 70 10000 2.6 120 11:38 11.12.2020
4977 Clouds 30 1008 70 10000 2.6 130 10:45 11.12.2020
4978 Clouds 32 1007 59 10000 3.6 130 08:46 11.12.2020
4979 Clouds 32 1010 66 10000 3.1 0 05:40 11.12.2020
4980 Clouds 31 1011 70 10000 3.1 100 04:51 11.12.2020
4981 Clouds 27 1012 83 8000 0.5 0 01:32 11.12.2020
4982 Mist 25 1010 94 5000 0.5 0 00:20 11.12.2020
4983 Clouds 24 1010 94 6000 1.28 55 22:27 10.12.2020
4984 Mist 25 1010 94 3000 1 0 21:35 10.12.2020
4985 Mist 25 1010 94 4000 1 40 20:39 10.12.2020
4986 Haze 25 1010 100 4000 1.14 43 19:37 10.12.2020
4987 Haze 25 1011 94 4000 0.5 0 18:53 10.12.2020
4988 Haze 25 1011 100 3000 0.5 0 17:50 10.12.2020
4989 Clouds 25 1012 94 7000 2.42 106 16:25 10.12.2020
4990 Clouds 26 1011 94 7000 0.5 0 15:26 10.12.2020
4991 Clouds 26 1011 94 7000 0.5 0 14:50 10.12.2020
4992 Clouds 26 1011 94 8000 1 0 14:25 10.12.2020
4993 Clouds 26 1010 88 8000 1.5 310 12:38 10.12.2020
4994 Rain 26 1009 94 7000 1.5 280 11:33 10.12.2020
4995 Rain 28 1008 83 9000 2.1 320 08:51 10.12.2020
4996 Rain 28 1009 83 9000 1.5 0 07:38 10.12.2020
4997 Rain 28 1010 83 10000 1.5 60 06:41 10.12.2020
4998 Rain 26 1011 94 7000 1 0 02:53 10.12.2020
4999 Rain 25 1011 94 7000 1 0 01:58 10.12.2020
5000 Rain 25 1009 94 10000 0.5 0 23:50 09.12.2020
5001 Rain 26 1009 88 9000 0.5 0 20:51 09.12.2020
5002 Clouds 26 1009 94 9000 1.5 320 20:26 09.12.2020
5003 Rain 26 1009 83 10000 0.5 0 19:20 09.12.2020
5004 Clouds 26 1010 83 10000 2.1 90 17:42 09.12.2020
5005 Rain 27 1010 88 10000 1 0 16:40 09.12.2020
5006 Clouds 27 1011 88 10000 1 0 16:20 09.12.2020
5007 Clouds 27 1011 83 10000 1 0 14:53 09.12.2020
5008 Clouds 27 1011 83 10000 1 0 14:27 09.12.2020
5009 Clouds 27 1011 78 10000 1.5 100 13:51 09.12.2020
5010 Clouds 27 1011 78 10000 1.5 100 13:51 09.12.2020
5011 Rain 27 1010 78 10000 1.5 120 13:18 09.12.2020
5012 Clouds 27 1010 78 10000 1.5 120 12:43 09.12.2020
5013 Clouds 27 1009 78 10000 2.1 100 11:46 09.12.2020
5014 Rain 28 1008 83 10000 1.5 310 09:59 09.12.2020
5015 Clouds 30 1008 74 9000 2.6 140 08:42 09.12.2020
5016 Clouds 30 1008 74 10000 3.1 280 07:42 09.12.2020
5017 Clouds 30 1010 74 10000 3.6 270 05:42 09.12.2020
5018 Haze 29 1012 83 10000 1.5 260 02:59 09.12.2020
5019 Clouds 26 1011 94 10000 1.83 48 00:56 09.12.2020
5020 Clouds 26 1011 88 10000 0.5 0 23:37 08.12.2020
5021 Clouds 26 1010 88 10000 1 0 22:43 08.12.2020
5022 Clouds 26 1009 88 10000 0.5 0 20:49 08.12.2020
5023 Clouds 26 1010 94 10000 2.6 70 19:31 08.12.2020
5024 Clouds 26 1011 94 9000 3.6 140 18:41 08.12.2020
5025 Clouds 27 1011 83 10000 1 0 17:20 08.12.2020
5026 Clouds 28 1011 78 10000 2.1 120 15:27 08.12.2020
5027 Clouds 28 1011 78 10000 2.1 120 13:53 08.12.2020
5028 Clouds 29 1010 74 10000 2.6 110 12:54 08.12.2020
5029 Clouds 29 1009 74 10000 3.1 120 12:20 08.12.2020
5030 Clouds 29 1009 74 10000 3.1 120 11:27 08.12.2020
5031 Clouds 30 1009 70 10000 3.6 110 10:41 08.12.2020
5032 Clouds 31 1008 66 10000 4.6 110 09:45 08.12.2020
5033 Rain 31 1009 70 10000 4.1 110 07:47 08.12.2020
5034 Rain 31 1011 70 10000 5.1 90 05:43 08.12.2020
5035 Rain 28 1013 83 10000 2.1 90 02:49 08.12.2020
5036 Clouds 26 1012 94 10000 3.1 70 00:45 08.12.2020
5037 Clouds 25 1011 94 10000 2.1 360 23:46 07.12.2020
5038 Mist 26 1011 94 4000 2.6 70 22:21 07.12.2020
5039 Mist 26 1011 94 4000 2.6 70 21:47 07.12.2020
5040 Clouds 26 1010 94 9000 0.5 0 19:36 07.12.2020
5041 Rain 26 1011 94 9000 1.5 210 17:59 07.12.2020
5042 Rain 27 1011 88 10000 0.5 0 17:22 07.12.2020
5043 Clouds 26 1011 88 10000 0.5 0 16:43 07.12.2020
5044 Clouds 26 1011 88 10000 1 330 15:25 07.12.2020
5045 Clouds 26 1011 88 10000 1 330 14:33 07.12.2020
5046 Rain 27 1011 88 10000 1.5 320 13:36 07.12.2020
5047 Clouds 27 1010 88 10000 1.5 270 12:30 07.12.2020
5048 Rain 27 1009 88 10000 1.5 0 11:42 07.12.2020
5049 Clouds 27 1009 83 10000 1.5 170 10:36 07.12.2020
5050 Rain 27 1009 88 10000 2.1 10 09:23 07.12.2020
5051 Rain 27 1009 88 10000 1.5 210 07:40 07.12.2020
5052 Rain 28 1010 78 9000 2.6 290 05:27 07.12.2020
5053 Rain 27 1011 88 7000 2.1 210 03:53 07.12.2020
5054 Rain 27 1011 88 10000 1 0 00:52 07.12.2020
5055 Rain 27 1010 88 8000 1.41 60 22:53 06.12.2020
5056 Clouds 27 1010 83 10000 0.5 0 21:45 06.12.2020
5057 Clouds 27 1009 83 10000 1 0 20:43 06.12.2020
5058 Rain 27 1009 83 10000 1 10 20:22 06.12.2020
5059 Clouds 27 1009 83 10000 1 10 19:30 06.12.2020
5060 Rain 28 1011 78 10000 1.5 190 17:39 06.12.2020
5061 Clouds 28 1011 78 10000 1.5 130 16:34 06.12.2020
5062 Clouds 28 1011 78 10000 1 0 14:49 06.12.2020
5063 Clouds 29 1010 74 10000 2.1 100 13:21 06.12.2020
5064 Clouds 29 1010 74 10000 2.1 100 12:30 06.12.2020
5065 Clouds 29 1009 74 10000 2.1 100 11:42 06.12.2020
5066 Clouds 30 1009 74 10000 2.1 100 11:23 06.12.2020
5067 Clouds 30 1008 74 10000 2.1 170 10:34 06.12.2020
5068 Clouds 31 1008 74 10000 2.6 250 08:59 06.12.2020
5069 Clouds 32 1008 66 10000 2.6 250 07:26 06.12.2020
5070 Clouds 30 1011 79 10000 2.6 320 04:41 06.12.2020
5071 Clouds 26 1010 94 10000 1.94 73 00:45 06.12.2020
5072 Clouds 26 1010 94 10000 2.11 60 00:26 06.12.2020
5073 Rain 26 1010 94 10000 0.5 0 23:55 05.12.2020
5074 Clouds 25 1009 100 10000 0.5 0 22:24 05.12.2020
5075 Rain 26 1009 94 9000 1 0 21:53 05.12.2020
5076 Rain 26 1009 94 9000 1 0 21:28 05.12.2020
5077 Clouds 27 1009 88 10000 1 0 19:50 05.12.2020
5078 Clouds 27 1009 88 10000 0.5 0 18:45 05.12.2020
5079 Clouds 27 1010 88 10000 1 0 17:36 05.12.2020
5080 Rain 27 1010 83 10000 1 0 16:43 05.12.2020
5081 Clouds 27 1010 83 10000 1 0 16:23 05.12.2020
5082 Clouds 28 1010 78 10000 2.1 110 14:30 05.12.2020
5083 Clouds 28 1009 74 10000 1.5 130 12:32 05.12.2020
5084 Clouds 28 1009 79 10000 1 0 11:49 05.12.2020
5085 Clouds 29 1009 70 10000 1 0 10:34 05.12.2020
5086 Rain 30 1008 70 10000 3.1 130 07:50 05.12.2020
5087 Rain 30 1008 70 10000 3.1 130 07:26 05.12.2020
5088 Clouds 31 1010 74 10000 2.6 270 05:22 05.12.2020
5089 Clouds 26 1009 100 10000 0.5 0 23:56 04.12.2020
5090 Clouds 26 1009 94 10000 0.5 0 22:41 04.12.2020
5091 Rain 26 1008 94 10000 1.5 120 20:30 04.12.2020
5092 Clouds 26 1009 94 10000 1.5 0 18:53 04.12.2020
5093 Clouds 27 1010 88 10000 0.5 0 18:21 04.12.2020
5094 Clouds 27 1010 88 10000 0.5 0 17:41 04.12.2020
5095 Clouds 27 1010 44 10000 0.5 0 15:54 04.12.2020
5096 Clouds 27 1009 83 10000 0.5 0 13:58 04.12.2020
5097 Clouds 27 1009 83 10000 0.5 0 13:31 04.12.2020
5098 Clouds 28 1008 78 10000 0.5 0 12:54 04.12.2020
5099 Clouds 27 1008 83 10000 1 0 11:33 04.12.2020
5100 Rain 28 1007 78 10000 1.5 130 10:28 04.12.2020
5101 Rain 28 1007 78 8000 1.5 0 07:43 04.12.2020
5102 Rain 29 1007 79 8000 2.6 210 06:39 04.12.2020
5103 Rain 29 1009 74 8000 1.5 210 04:38 04.12.2020
5104 Clouds 26 1007 88 10000 2.1 30 23:49 03.12.2020
5105 Clouds 26 1007 88 10000 1 0 22:45 03.12.2020
5106 Rain 26 1006 88 10000 2.1 10 20:59 03.12.2020
5107 Rain 26 1007 83 10000 2.1 20 19:38 03.12.2020
5108 Rain 26 1007 88 10000 0.5 0 19:19 03.12.2020
5109 Rain 27 1007 88 10000 0.5 0 18:34 03.12.2020
5110 Rain 27 1008 83 10000 1 0 17:20 03.12.2020
5111 Rain 28 1008 83 10000 1.5 130 15:58 03.12.2020
5112 Clouds 28 1008 83 10000 1.5 130 15:31 03.12.2020
5113 Clouds 28 1008 83 10000 1 0 14:48 03.12.2020
5114 Clouds 29 1007 79 9000 1 0 13:49 03.12.2020
5115 Clouds 29 1007 79 9000 1 0 12:33 03.12.2020
5116 Clouds 29 1006 74 9000 0.5 0 11:49 03.12.2020
5117 Clouds 30 1005 74 9000 1 0 10:27 03.12.2020
5118 Rain 30 1005 79 9000 2.1 270 07:48 03.12.2020
5119 Rain 29 1008 79 6000 2.1 310 03:38 03.12.2020
5120 Clouds 28 1008 83 9000 1 0 01:24 03.12.2020
5121 Clouds 27 1007 83 10000 1.45 6 23:19 02.12.2020
5122 Rain 27 1007 83 10000 0.58 12 22:28 02.12.2020
5123 Rain 26 1006 88 10000 1.5 250 21:28 02.12.2020
5124 Rain 26 1006 88 10000 1 310 20:47 02.12.2020
5125 Rain 26 1006 88 10000 1 310 20:29 02.12.2020
5126 Clouds 27 1007 83 8000 1 0 18:39 02.12.2020
5127 Rain 27 1008 83 8000 1 0 17:47 02.12.2020
5128 Clouds 27 1008 83 8000 1 220 17:28 02.12.2020
5129 Rain 27 1008 83 10000 1.5 240 15:37 02.12.2020
5130 Rain 28 1007 78 10000 1.5 240 12:50 02.12.2020
5131 Clouds 29 1006 74 10000 1.5 240 10:32 02.12.2020
5132 Clouds 29 1006 74 10000 2.6 260 09:32 02.12.2020
5133 Rain 30 1008 74 10000 3.6 310 05:53 02.12.2020
5134 Rain 25 1008 78 10000 3.6 20 22:21 01.12.2020
5135 Clouds 25 1008 78 10000 3.6 20 21:53 01.12.2020
5136 Clouds 26 1009 74 10000 2.6 10 19:36 01.12.2020
5137 Clouds 26 1009 74 10000 2.6 10 18:45 01.12.2020
5138 Clouds 27 1010 65 10000 2.6 20 16:37 01.12.2020
5139 Clouds 28 1009 65 10000 25.7 50 13:54 01.12.2020
5140 Clouds 28 1009 65 10000 3.1 40 12:26 01.12.2020
5141 Rain 28 1008 62 10000 4.1 50 11:27 01.12.2020
5142 Clouds 29 1009 62 10000 3.1 360 10:39 01.12.2020
5143 Rain 30 1008 52 10000 4.1 40 09:26 01.12.2020
5144 Clouds 32 1009 52 10000 5.7 50 07:19 01.12.2020
5145 Clouds 28 1012 65 10000 1.5 20 01:56 01.12.2020
5146 Clouds 25 1012 73 10000 1.5 20 00:57 01.12.2020
5147 Clouds 24 1011 69 10000 2.6 350 23:22 30.11.2020
5148 Clouds 24 1011 69 10000 2.6 350 22:45 30.11.2020
5149 Clouds 24 1011 69 10000 2.6 350 22:26 30.11.2020
5150 Clouds 24 1011 69 10000 3.6 60 21:55 30.11.2020
5151 Clouds 25 1012 65 10000 3.1 30 19:45 30.11.2020
5152 Clouds 26 1012 69 10000 3.6 40 18:40 30.11.2020
5153 Clouds 26 1013 65 10000 2.6 30 18:20 30.11.2020
5154 Clouds 26 1013 69 10000 3.1 70 17:24 30.11.2020
5155 Clouds 26 1013 69 10000 3.1 70 16:43 30.11.2020
5156 Clouds 27 1012 69 10000 4.6 70 14:47 30.11.2020
5157 Clouds 27 1012 69 10000 3.6 60 13:54 30.11.2020
5158 Clouds 27 1011 65 10000 5.1 50 12:34 30.11.2020
5159 Clouds 27 1011 61 10000 4.6 50 11:58 30.11.2020
5160 Clouds 28 1010 62 10000 5.7 50 10:31 30.11.2020
5161 Clouds 29 1009 58 10000 5.1 70 09:51 30.11.2020
5162 Clouds 31 1009 58 10000 6.2 70 07:26 30.11.2020
5163 Clouds 26 1011 94 10000 1 0 01:19 30.11.2020
5164 Clouds 24 1011 94 10000 1 0 22:19 29.11.2020
5165 Clouds 24 1011 94 10000 1 0 21:42 29.11.2020
5166 Clouds 24 1011 94 10000 1 0 21:24 29.11.2020
5167 Rain 25 1011 88 10000 1 0 17:48 29.11.2020
5168 Rain 25 1012 94 10000 1 0 16:29 29.11.2020
5169 Rain 26 1011 88 8000 0.5 0 13:24 29.11.2020
5170 Clouds 26 1010 83 10000 2.1 20 11:49 29.11.2020
5171 Clouds 27 1009 78 10000 1.5 0 10:53 29.11.2020
5172 Clouds 28 1009 74 9000 2.1 120 08:39 29.11.2020
5173 Clouds 27 1011 83 10000 4.1 30 06:33 29.11.2020
5174 Clouds 25 1011 94 10000 4.1 360 00:30 29.11.2020
5175 Rain 25 1010 94 3500 1.5 20 22:57 28.11.2020
5176 Clouds 25 1010 94 8000 3.6 10 20:50 28.11.2020
5177 Clouds 25 1010 88 10000 2.6 20 19:51 28.11.2020
5178 Clouds 25 1010 88 10000 2.6 20 19:24 28.11.2020
5179 Clouds 25 1011 88 9000 2.6 10 18:51 28.11.2020
5180 Clouds 26 1011 83 10000 0.5 0 17:48 28.11.2020
5181 Clouds 26 1011 83 10000 1 0 16:44 28.11.2020
5182 Clouds 27 1011 78 10000 1 0 14:56 28.11.2020
5183 Clouds 28 1010 74 10000 1 0 13:18 28.11.2020
5184 Clouds 29 1009 74 10000 3.1 120 10:46 28.11.2020
5185 Clouds 32 1010 74 10000 2.6 260 06:42 28.11.2020
5186 Rain 29 1012 74 10000 1.5 30 03:33 28.11.2020
5187 Clouds 27 1012 88 9000 0.5 0 01:50 28.11.2020
5188 Rain 26 1010 88 8000 1 0 23:18 27.11.2020
5189 Clouds 26 1009 88 9000 0.5 0 21:33 27.11.2020
5190 Clouds 26 1010 88 9000 1 100 20:36 27.11.2020
5191 Clouds 26 1011 83 10000 1 30 19:30 27.11.2020
5192 Clouds 26 1011 88 10000 2.1 20 18:44 27.11.2020
5193 Rain 27 1012 88 10000 1 0 14:56 27.11.2020
5194 Rain 27 1011 88 10000 1 0 13:29 27.11.2020
5195 Rain 27 1011 83 10000 4.78 84 12:47 27.11.2020
5196 Rain 27 1010 83 9000 0.5 0 11:49 27.11.2020
5197 Rain 27 1010 88 8000 1.5 240 10:50 27.11.2020
5198 Rain 28 1009 83 8000 2.1 280 10:19 27.11.2020
5199 Rain 29 1010 85 10000 6.01 60 07:29 27.11.2020
5200 Clouds 24 1009 88 10000 1.79 333 22:28 26.11.2020
5201 Clouds 25 1009 88 10000 2.41 44 21:56 26.11.2020
5202 Rain 25 1010 94 4000 2.31 67 20:59 26.11.2020
5203 Rain 26 1011 78 9000 3.1 10 18:59 26.11.2020
5204 Rain 26 1010 78 10000 4.1 340 17:52 26.11.2020
5205 Clouds 29 1011 66 10000 3.6 40 14:57 26.11.2020
5206 Clouds 29 1010 66 10000 4.1 60 13:42 26.11.2020
5207 Clouds 29 1010 62 10000 4.1 70 12:42 26.11.2020
5208 Clouds 29 1009 66 10000 4.1 70 11:44 26.11.2020
5209 Clouds 30 1009 58 10000 5.1 40 10:35 26.11.2020
5210 Clouds 31 1008 55 10000 3.6 60 09:48 26.11.2020
5211 Clouds 31 1008 55 10000 3.6 60 09:29 26.11.2020
5212 Clouds 32 1008 55 10000 3.1 40 08:39 26.11.2020
5213 Clouds 31 1010 55 10000 2.6 50 06:49 26.11.2020
5214 Clouds 25 1010 83 9000 1 0 22:59 25.11.2020
5215 Clouds 25 1010 78 10000 0.5 0 20:43 25.11.2020
5216 Clouds 26 1011 74 10000 1.5 120 19:46 25.11.2020
5217 Clouds 26 1011 78 10000 1 0 18:28 25.11.2020
5218 Clouds 26 1012 74 10000 1 230 16:43 25.11.2020
5219 Clouds 26 1012 74 10000 0.5 0 15:38 25.11.2020
5220 Clouds 27 1012 65 10000 3.6 350 13:56 25.11.2020
5221 Clouds 27 1012 65 10000 3.6 350 13:37 25.11.2020
5222 Clouds 27 1011 74 10000 2.6 30 11:44 25.11.2020
5223 Clouds 27 1010 69 8000 6.7 60 11:18 25.11.2020
5224 Rain 30 1010 52 10000 3.6 110 09:18 25.11.2020
5225 Clouds 31 1010 52 10000 3.6 110 08:41 25.11.2020
5226 Clouds 32 1012 48 10000 3.1 0 03:59 25.11.2020
5227 Clouds 29 1012 58 10000 1.5 60 01:52 25.11.2020
5228 Clouds 26 1011 69 10000 1.5 130 00:22 25.11.2020
5229 Clouds 25 1011 73 10000 2.1 10 23:37 24.11.2020
5230 Clouds 25 1011 69 10000 4.84 51 22:58 24.11.2020
5231 Clouds 26 1010 65 10000 1.5 20 21:51 24.11.2020
5232 Clouds 26 1010 65 10000 1.5 20 21:29 24.11.2020
5233 Clouds 26 1010 74 10000 1.5 20 20:19 24.11.2020
5234 Clouds 27 1011 69 10000 2.1 80 18:39 24.11.2020
5235 Clouds 27 1011 69 10000 1 0 17:30 24.11.2020
5236 Clouds 27 1012 74 10000 0.5 0 16:38 24.11.2020
5237 Clouds 27 1012 69 10000 0.5 0 15:58 24.11.2020
5238 Clouds 27 1012 69 10000 0.5 0 15:40 24.11.2020
5239 Clouds 27 1012 65 10000 0.5 0 15:18 24.11.2020
5240 Clouds 27 1012 65 10000 0.5 0 14:33 24.11.2020
5241 Clouds 28 1012 58 10000 4.1 100 12:44 24.11.2020
5242 Clouds 28 1011 62 10000 3.6 90 12:21 24.11.2020
5243 Clouds 29 1011 62 10000 3.6 90 11:37 24.11.2020
5244 Clouds 30 1010 55 10000 3.6 90 10:30 24.11.2020
5245 Clouds 30 1010 52 10000 4.6 90 09:53 24.11.2020
5246 Clouds 31 1010 52 10000 4.6 90 09:35 24.11.2020
5247 Clouds 32 1010 43 10000 6.7 80 06:50 24.11.2020
5248 Rain 32 1013 62 10000 2.1 0 04:19 24.11.2020
5249 Clouds 25 1011 78 10000 1.5 140 22:28 23.11.2020
5250 Clouds 25 1010 78 10000 1 90 21:35 23.11.2020
5251 Clouds 25 1011 78 10000 0.5 0 20:50 23.11.2020
5252 Clouds 26 1011 69 10000 1 0 20:20 23.11.2020
5253 Clouds 26 1012 69 10000 1 0 18:20 23.11.2020
5254 Clouds 26 1012 69 10000 1 0 17:23 23.11.2020
5255 Clouds 26 1013 69 10000 2.1 70 16:19 23.11.2020
5256 Clouds 27 1013 74 10000 1.5 80 14:46 23.11.2020
5257 Clouds 27 1013 74 10000 1.5 80 14:46 23.11.2020
5258 Clouds 27 1012 69 10000 2.6 60 12:55 23.11.2020
5259 Clouds 27 1012 69 10000 2.6 60 12:34 23.11.2020
5260 Rain 28 1011 69 10000 2.6 70 11:44 23.11.2020
5261 Clouds 28 1011 69 10000 3.6 50 10:47 23.11.2020
5262 Rain 28 1011 66 10000 3.1 60 09:31 23.11.2020
5263 Rain 28 1011 74 10000 4.6 90 08:39 23.11.2020
5264 Clouds 29 1011 66 10000 4.1 100 07:19 23.11.2020
5265 Clouds 27 1012 74 10000 1 0 00:25 23.11.2020
5266 Rain 26 1011 78 10000 2.1 30 23:18 22.11.2020
5267 Clouds 26 1011 74 10000 1 0 21:40 22.11.2020
5268 Clouds 26 1011 74 10000 2.6 70 20:51 22.11.2020
5269 Clouds 26 1011 78 10000 0.5 0 19:52 22.11.2020
5270 Clouds 26 1012 78 10000 1 0 18:40 22.11.2020
5271 Clouds 27 1013 69 10000 0.5 0 16:51 22.11.2020
5272 Clouds 27 1013 65 10000 1 0 15:33 22.11.2020
5273 Clouds 27 1013 61 10000 1.5 100 14:28 22.11.2020
5274 Clouds 28 1012 61 10000 4.1 60 12:49 22.11.2020
5275 Clouds 29 1011 54 10000 5.1 50 11:56 22.11.2020
5276 Clouds 29 1010 51 10000 4.6 70 11:20 22.11.2020
5277 Clouds 29 1010 51 10000 4.6 70 10:39 22.11.2020
5278 Clouds 31 1010 49 10000 5.7 80 08:51 22.11.2020
5279 Clouds 28 1013 74 10000 1.5 70 01:47 22.11.2020
5280 Clouds 26 1011 78 10000 0.5 0 23:21 21.11.2020
5281 Clouds 25 1011 83 10000 2.94 34 21:47 21.11.2020
5282 Rain 26 1011 83 10000 1 180 21:18 21.11.2020
5283 Clouds 26 1011 83 10000 1 180 20:33 21.11.2020
5284 Clouds 26 1011 83 10000 1 0 19:52 21.11.2020
5285 Clouds 26 1011 83 10000 1 0 19:26 21.11.2020
5286 Clouds 27 1012 78 10000 1.5 90 17:57 21.11.2020
5287 Clouds 27 1012 83 10000 1.5 110 16:48 21.11.2020
5288 Clouds 27 1012 83 10000 1.5 100 15:51 21.11.2020
5289 Clouds 27 1012 78 10000 1.5 110 15:21 21.11.2020
5290 Clouds 28 1012 78 10000 1.5 110 14:42 21.11.2020
5291 Rain 28 1012 74 10000 2.1 110 13:41 21.11.2020
5292 Clouds 28 1011 78 10000 3.1 110 12:24 21.11.2020
5293 Clouds 29 1010 55 10000 3.1 80 11:54 21.11.2020
5294 Clouds 31 1009 52 10000 4.6 70 10:37 21.11.2020
5295 Clouds 32 1009 52 10000 6.2 70 09:22 21.11.2020
5296 Clouds 33 1009 49 10000 5.1 80 08:50 21.11.2020
5297 Clouds 33 1010 49 10000 5.1 90 05:43 21.11.2020
5298 Clouds 32 1011 59 10000 5.1 70 04:23 21.11.2020
5299 Clouds 27 1011 88 10000 1.5 290 00:23 21.11.2020
5300 Clouds 25 1010 94 10000 2.1 70 23:23 20.11.2020
5301 Clouds 26 1009 94 9000 1.5 130 21:47 20.11.2020
5302 Clouds 25 1009 94 9000 1.5 130 21:26 20.11.2020
5303 Clouds 25 1009 94 9000 1.5 130 21:26 20.11.2020
5304 Rain 26 1010 88 10000 3.1 80 20:42 20.11.2020
5305 Clouds 27 1010 83 10000 2.1 90 19:37 20.11.2020
5306 Clouds 28 1010 83 10000 2.1 100 18:28 20.11.2020
5307 Clouds 28 1010 83 10000 2.1 100 17:32 20.11.2020
5308 Clouds 28 1010 83 10000 3.1 120 16:48 20.11.2020
5309 Clouds 28 1010 83 10000 3.1 120 16:29 20.11.2020
5310 Clouds 29 1011 79 10000 2.1 130 15:47 20.11.2020
5311 Clouds 29 1010 79 10000 1.5 110 14:18 20.11.2020
5312 Clouds 29 1010 74 10000 2.1 110 13:22 20.11.2020
5313 Clouds 29 1010 74 10000 2.1 110 12:58 20.11.2020
5314 Clouds 30 1009 66 10000 2.6 80 11:55 20.11.2020
5315 Clouds 31 1009 66 10000 2.6 80 11:26 20.11.2020
5316 Clouds 32 1006 59 10000 2.6 260 09:53 20.11.2020
5317 Clouds 32 1008 70 10000 3.6 280 08:30 20.11.2020
5318 Clouds 32 1008 70 10000 2.6 260 07:49 20.11.2020
5319 Clouds 31 1010 70 9000 3.1 280 05:18 20.11.2020
5320 Clouds 26 1010 88 10000 1.5 330 23:38 19.11.2020
5321 Clouds 26 1009 83 10000 0.5 0 22:30 19.11.2020
5322 Clouds 26 1009 83 10000 1 0 21:52 19.11.2020
5323 Clouds 26 1008 83 10000 2.1 20 20:53 19.11.2020
5324 Clouds 26 1009 83 10000 2.1 110 20:19 19.11.2020
5325 Clouds 27 1009 83 10000 2.1 110 19:26 19.11.2020
5326 Clouds 27 1009 78 10000 2.6 110 18:47 19.11.2020
5327 Clouds 27 1010 78 10000 2.1 100 17:21 19.11.2020
5328 Clouds 27 1010 78 10000 2.1 100 16:26 19.11.2020
5329 Clouds 27 1010 83 10000 1.5 90 15:29 19.11.2020
5330 Clouds 28 1010 78 10000 2.1 110 13:49 19.11.2020
5331 Clouds 28 1010 78 10000 2.1 110 13:30 19.11.2020
5332 Clouds 29 1009 74 10000 1.5 100 12:51 19.11.2020
5333 Clouds 29 1009 74 10000 1.5 100 12:28 19.11.2020
5334 Clouds 30 1009 62 10000 1.5 90 11:40 19.11.2020
5335 Clouds 30 1008 55 10000 3.6 80 11:20 19.11.2020
5336 Clouds 31 1008 55 10000 3.6 80 10:29 19.11.2020
5337 Clouds 31 1008 62 10000 2.6 130 09:45 19.11.2020
5338 Clouds 31 1008 62 10000 2.6 130 09:26 19.11.2020
5339 Clouds 32 1008 70 10000 2.1 260 08:20 19.11.2020
5340 Clouds 32 1009 70 10000 2.6 280 06:54 19.11.2020
5341 Clouds 30 1011 74 10000 0.5 0 01:46 19.11.2020
5342 Clouds 27 1010 83 10000 1.72 59 00:31 19.11.2020
5343 Clouds 26 1010 88 10000 1.72 53 23:30 18.11.2020
5344 Clouds 26 1010 83 10000 0.5 0 22:40 18.11.2020
5345 Clouds 26 1010 83 10000 1 0 22:21 18.11.2020
5346 Clouds 27 1010 83 10000 1 0 21:40 18.11.2020
5347 Clouds 27 1010 83 10000 1 50 21:20 18.11.2020
5348 Clouds 27 1010 83 10000 1 0 19:49 18.11.2020
5349 Clouds 27 1010 83 10000 1 0 19:28 18.11.2020
5350 Clouds 27 1010 78 10000 1.5 130 18:56 18.11.2020
5351 Clouds 27 1010 78 10000 1.5 130 18:37 18.11.2020
5352 Clouds 27 1010 78 10000 1.5 130 17:37 18.11.2020
5353 Clouds 28 1011 78 10000 2.6 130 16:24 18.11.2020
5354 Clouds 28 1011 78 10000 2.6 130 15:47 18.11.2020
5355 Clouds 28 1010 78 10000 2.1 140 14:41 18.11.2020
5356 Clouds 28 1010 74 10000 2.1 120 13:45 18.11.2020
5357 Clouds 28 1009 74 10000 2.6 110 13:20 18.11.2020
5358 Clouds 28 1009 74 10000 2.6 110 12:30 18.11.2020
5359 Clouds 29 1009 74 10000 2.1 120 11:34 18.11.2020
5360 Clouds 29 1008 74 10000 2.6 100 10:31 18.11.2020
5361 Clouds 29 1008 74 10000 3.6 120 09:52 18.11.2020
5362 Clouds 32 1008 62 10000 5.1 110 07:45 18.11.2020
5363 Clouds 31 1009 70 10000 3.6 130 06:33 18.11.2020
5364 Clouds 27 1010 83 10000 0.5 0 00:25 18.11.2020
5365 Clouds 25 1010 83 10000 2.46 70 23:34 17.11.2020
5366 Clouds 25 1009 88 10000 1.5 40 22:46 17.11.2020
5367 Clouds 25 1009 88 10000 1.5 40 22:28 17.11.2020
5368 Clouds 25 1009 88 10000 3.06 64 21:50 17.11.2020
5369 Clouds 25 1009 88 10000 3.06 64 21:30 17.11.2020
5370 Clouds 26 1009 88 10000 1 0 20:44 17.11.2020
5371 Clouds 26 1009 88 10000 1 0 20:24 17.11.2020
5372 Clouds 27 1009 83 10000 1 0 19:50 17.11.2020
5373 Clouds 27 1010 83 10000 1.5 100 18:24 17.11.2020
5374 Clouds 27 1011 83 10000 1 0 17:33 17.11.2020
5375 Clouds 27 1011 83 10000 1 90 16:49 17.11.2020
5376 Clouds 27 1011 74 10000 1 0 16:18 17.11.2020
5377 Clouds 28 1011 74 10000 1 0 15:39 17.11.2020
5378 Clouds 28 1011 78 10000 1 0 15:21 17.11.2020
5379 Clouds 28 1011 78 10000 1 0 14:41 17.11.2020
5380 Clouds 28 1010 78 10000 2.1 70 13:54 17.11.2020
5381 Clouds 28 1010 78 10000 2.1 70 13:27 17.11.2020
5382 Clear 28 1011 79 10000 0.89 98 12:42 17.11.2020
5383 Clouds 29 1010 70 10000 2.6 130 11:45 17.11.2020
5384 Clouds 29 1010 70 10000 2.6 130 11:26 17.11.2020
5385 Clouds 30 1009 74 10000 2.6 0 10:39 17.11.2020
5386 Clouds 31 1008 66 10000 3.6 110 09:57 17.11.2020
5387 Clouds 31 1008 66 10000 3.6 110 09:36 17.11.2020
5388 Clouds 32 1008 66 10000 3.1 130 08:26 17.11.2020
5389 Clouds 32 1008 62 10000 4.6 110 07:59 17.11.2020
5390 Clouds 32 1008 62 10000 4.6 110 07:28 17.11.2020
5391 Clouds 31 1011 66 10000 2.6 120 04:30 17.11.2020
5392 Clouds 31 1012 79 10000 1 0 03:22 17.11.2020
5393 Clouds 31 1012 79 10000 1 0 03:22 17.11.2020
5394 Clouds 29 1012 79 10000 1 0 02:28 17.11.2020
5395 Clouds 27 1011 94 10000 2.1 60 00:56 17.11.2020
5396 Clouds 26 1010 88 10000 0.5 0 23:53 16.11.2020
5397 Clouds 26 1010 88 10000 0.5 0 23:30 16.11.2020
5398 Clouds 26 1010 94 10000 1 0 22:48 16.11.2020
5399 Clouds 26 1010 94 10000 1 0 22:22 16.11.2020
5400 Clouds 25 1009 94 10000 2.54 76 21:50 16.11.2020
5401 Clouds 25 1009 94 10000 2.76 79 21:27 16.11.2020
5402 Clouds 26 1009 94 8000 1 0 20:59 16.11.2020
5403 Rain 25 1010 94 9000 1 0 20:25 16.11.2020
5404 Clouds 26 1010 94 9000 1 0 19:45 16.11.2020
5405 Clouds 26 1010 94 9000 1 0 19:27 16.11.2020
5406 Clouds 26 1011 94 10000 0.5 0 18:47 16.11.2020
5407 Clouds 26 1012 88 9000 1.5 120 17:54 16.11.2020
5408 Clouds 26 1012 88 9000 1.5 120 17:25 16.11.2020
5409 Clouds 26 1012 78 10000 2.6 90 16:57 16.11.2020
5410 Rain 27 1012 78 10000 2.6 90 16:38 16.11.2020
5411 Clouds 27 1012 78 10000 2.6 90 16:18 16.11.2020
5412 Clouds 28 1012 74 10000 1.5 90 15:41 16.11.2020
5413 Clouds 28 1012 78 10000 1.5 120 15:21 16.11.2020
5414 Clouds 28 1012 78 10000 1.5 120 14:39 16.11.2020
5415 Clouds 28 1011 70 10000 2.1 120 13:34 16.11.2020
5416 Clouds 29 1010 74 10000 2.6 110 12:34 16.11.2020
5417 Clouds 29 1010 70 10000 2.6 110 11:54 16.11.2020
5418 Clouds 29 1010 70 10000 2.6 110 11:36 16.11.2020
5419 Clouds 30 1009 62 10000 3.1 110 11:18 16.11.2020
5420 Clouds 31 1009 62 10000 3.1 110 10:39 16.11.2020
5421 Clouds 31 1009 62 10000 2.6 0 10:20 16.11.2020
5422 Clouds 31 1009 62 10000 2.6 0 09:41 16.11.2020
5423 Clouds 32 1009 62 10000 3.1 110 08:53 16.11.2020
5424 Clouds 32 1009 62 10000 3.1 110 08:34 16.11.2020
5425 Clouds 32 1009 62 10000 5.1 60 07:44 16.11.2020
5426 Clouds 31 1010 74 10000 6.2 50 06:47 16.11.2020
5427 Clouds 32 1012 66 10000 3.1 90 05:53 16.11.2020
5428 Clouds 31 1012 70 10000 1.5 0 04:36 16.11.2020
5429 Clouds 29 1012 74 10000 0.5 0 01:48 16.11.2020
5430 Clouds 29 1012 74 10000 0.5 0 01:27 16.11.2020
5431 Rain 26 1011 88 10000 1 0 23:49 15.11.2020
5432 Clouds 26 1011 88 10000 1 110 23:21 15.11.2020
5433 Clouds 26 1011 88 10000 1 110 22:40 15.11.2020
5434 Clouds 26 1011 88 10000 0.5 0 22:18 15.11.2020
5435 Clouds 26 1011 88 10000 0.5 0 21:43 15.11.2020
5436 Clouds 26 1011 88 10000 0.5 0 21:22 15.11.2020
5437 Clouds 26 1011 88 10000 0.5 0 20:41 15.11.2020
5438 Clouds 26 1012 83 10000 2.2 84 20:18 15.11.2020
5439 Clouds 26 1012 83 10000 2.2 84 19:47 15.11.2020
5440 Clouds 26 1012 83 10000 2.5 89 19:22 15.11.2020
5441 Clouds 26 1012 88 10000 0.5 0 18:56 15.11.2020
5442 Clouds 26 1012 88 10000 0.5 0 18:37 15.11.2020
5443 Clouds 27 1013 83 10000 1.5 90 18:19 15.11.2020
5444 Clouds 27 1013 83 10000 1.5 90 17:43 15.11.2020
5445 Clouds 27 1013 83 10000 1.5 130 17:23 15.11.2020
5446 Clouds 27 1013 83 10000 1.5 130 16:45 15.11.2020
5447 Clouds 27 1013 83 10000 1.5 80 16:20 15.11.2020
5448 Rain 27 1013 83 10000 1.5 80 15:49 15.11.2020
5449 Clouds 27 1013 83 10000 1.5 80 15:26 15.11.2020
5450 Clouds 27 1013 78 10000 1.5 100 14:55 15.11.2020
5451 Clouds 27 1013 78 10000 1.5 100 14:28 15.11.2020
5452 Clouds 27 1012 78 10000 1.5 120 13:53 15.11.2020
5453 Clouds 27 1012 78 10000 1.5 120 13:35 15.11.2020
5454 Clouds 28 1012 83 10000 1 0 12:50 15.11.2020
5455 Clouds 28 1011 83 10000 1.5 60 12:20 15.11.2020
5456 Clouds 28 1011 83 10000 1.5 60 11:45 15.11.2020
5457 Clouds 27 1010 88 10000 1.5 0 11:19 15.11.2020
5458 Clouds 27 1010 88 10000 1.5 0 10:53 15.11.2020
5459 Clouds 27 1010 88 10000 1.5 0 10:31 15.11.2020
5460 Clouds 28 1010 79 9000 1.5 120 09:56 15.11.2020
5461 Rain 29 1010 79 9000 1.5 120 09:37 15.11.2020
5462 Clouds 29 1010 70 10000 3.1 120 09:18 15.11.2020
5463 Clouds 30 1010 70 10000 3.1 120 08:43 15.11.2020
5464 Clouds 30 1011 83 10000 3.6 130 07:47 15.11.2020
5465 Clouds 32 1011 66 10000 3.6 310 06:49 15.11.2020
5466 Clouds 31 1013 74 10000 3.6 320 04:56 15.11.2020
5467 Clouds 29 1013 74 10000 2.6 90 02:27 15.11.2020
5468 Clouds 28 1013 78 10000 3.81 79 00:36 15.11.2020
5469 Clouds 28 1013 78 10000 3.81 79 00:36 15.11.2020
5470 Clouds 27 1012 83 10000 0.5 0 00:18 15.11.2020
5471 Clouds 26 1011 88 10000 1 70 23:20 14.11.2020
5472 Clouds 26 1011 88 10000 1 70 22:45 14.11.2020
5473 Clouds 26 1011 88 10000 0.5 350 22:20 14.11.2020
5474 Clouds 26 1011 88 10000 0.5 350 21:39 14.11.2020
5475 Clouds 26 1011 83 10000 1.5 30 21:21 14.11.2020
5476 Clouds 26 1011 83 10000 1.5 30 20:48 14.11.2020
5477 Clouds 26 1011 83 10000 1.5 30 20:24 14.11.2020
5478 Clouds 27 1011 83 10000 2.1 90 19:39 14.11.2020
5479 Clouds 27 1012 83 10000 2.1 100 19:19 14.11.2020
5480 Clouds 27 1012 83 10000 2.1 100 18:41 14.11.2020
5481 Clouds 27 1013 83 10000 1.5 90 18:22 14.11.2020
5482 Clouds 27 1013 83 10000 1.5 90 17:45 14.11.2020
5483 Clouds 27 1013 83 10000 1.5 90 17:45 14.11.2020
5484 Clouds 27 1013 83 10000 1.5 90 17:27 14.11.2020
5485 Clouds 27 1013 78 10000 1.5 110 16:52 14.11.2020
5486 Clouds 27 1013 78 10000 1.5 110 16:33 14.11.2020
5487 Clouds 28 1013 78 10000 1.5 130 15:55 14.11.2020
5488 Clouds 28 1013 78 10000 1.5 130 15:32 14.11.2020
5489 Clouds 28 1013 78 10000 1.5 80 14:57 14.11.2020
5490 Clouds 28 1013 78 10000 1.5 80 14:30 14.11.2020
5491 Clouds 28 1012 79 10000 2.1 110 13:53 14.11.2020
5492 Clouds 28 1012 79 10000 2.1 110 13:30 14.11.2020
5493 Clouds 28 1010 79 10000 3.1 110 12:56 14.11.2020
5494 Clouds 29 1010 79 10000 3.1 110 12:35 14.11.2020
5495 Clouds 29 1010 74 10000 3.1 120 11:56 14.11.2020
5496 Clouds 29 1010 74 10000 3.1 120 11:38 14.11.2020
5497 Clouds 30 1010 74 10000 4.6 120 10:59 14.11.2020
5498 Clouds 30 1010 74 10000 4.6 120 10:38 14.11.2020
5499 Clouds 30 1009 70 10000 4.1 110 10:20 14.11.2020
5500 Clouds 31 1009 70 10000 4.1 110 09:45 14.11.2020
5501 Clouds 31 1009 70 10000 4.1 110 09:26 14.11.2020
5502 Rain 31 1009 66 10000 5.1 110 08:41 14.11.2020
5503 Clouds 32 1009 66 10000 5.7 110 08:21 14.11.2020
5504 Clouds 31 1009 66 10000 5.7 110 07:41 14.11.2020
5505 Clouds 32 1010 63 10000 4.6 110 06:51 14.11.2020
5506 Clouds 32 1011 66 10000 5.7 110 06:20 14.11.2020
5507 Clouds 32 1011 66 10000 3.6 130 04:53 14.11.2020
5508 Clouds 31 1012 74 10000 2.6 110 01:48 14.11.2020
5509 Clouds 28 1011 83 10000 1.5 140 00:25 14.11.2020
5510 Clouds 26 1011 88 10000 1.5 70 23:35 13.11.2020
5511 Clouds 26 1010 88 10000 1 120 22:58 13.11.2020
5512 Clouds 26 1010 88 10000 1 120 22:40 13.11.2020
5513 Clouds 26 1010 83 10000 1.5 0 22:21 13.11.2020
5514 Clouds 27 1010 83 10000 1.5 0 21:49 13.11.2020
5515 Clouds 27 1010 83 10000 1.5 0 21:25 13.11.2020
5516 Clouds 26 1010 88 10000 1.5 70 20:51 13.11.2020
5517 Clouds 26 1010 88 10000 1.5 70 20:32 13.11.2020
5518 Clouds 27 1010 88 10000 1 0 19:55 13.11.2020
5519 Clouds 27 1010 88 10000 1 0 19:36 13.11.2020
5520 Clouds 27 1010 88 10000 1 0 19:36 13.11.2020
5521 Clouds 27 1011 83 10000 1 80 19:18 13.11.2020
5522 Clouds 27 1011 83 10000 1 80 18:32 13.11.2020
5523 Clouds 27 1011 78 10000 2.6 100 17:44 13.11.2020
5524 Clouds 28 1011 83 10000 2.1 140 17:21 13.11.2020
5525 Clouds 28 1011 83 10000 2.1 140 16:57 13.11.2020
5526 Clouds 28 1011 83 10000 2.1 140 16:38 13.11.2020
5527 Clouds 28 1011 83 10000 2.1 120 16:18 13.11.2020
5528 Rain 28 1011 83 10000 2.1 120 15:39 13.11.2020
5529 Rain 28 1011 83 10000 1.5 140 15:21 13.11.2020
5530 Rain 28 1011 83 10000 1.5 140 14:37 13.11.2020
5531 Clouds 28 1010 83 10000 1 0 14:18 13.11.2020
5532 Clouds 28 1010 83 10000 1 0 13:32 13.11.2020
5533 Clouds 29 1009 79 10000 2.6 120 12:55 13.11.2020
5534 Clouds 29 1009 79 10000 2.6 120 12:37 13.11.2020
5535 Clouds 29 1009 74 10000 3.1 110 12:18 13.11.2020
5536 Clouds 30 1009 74 10000 3.1 110 11:45 13.11.2020
5537 Rain 30 1008 70 10000 3.1 120 11:20 13.11.2020
5538 Clouds 31 1008 70 10000 3.1 120 10:47 13.11.2020
5539 Clouds 31 1008 70 10000 3.1 120 10:47 13.11.2020
5540 Rain 31 1008 70 10000 3.1 120 10:29 13.11.2020
5541 Clouds 32 1008 66 10000 4.1 100 09:47 13.11.2020
5542 Clouds 32 1008 66 10000 4.1 100 09:27 13.11.2020
5543 Clouds 32 1008 66 10000 4.1 100 09:27 13.11.2020
5544 Clouds 32 1008 66 10000 4.1 100 09:27 13.11.2020
5545 Clouds 32 1008 66 10000 4.1 110 08:53 13.11.2020
5546 Rain 32 1008 66 10000 4.1 110 08:26 13.11.2020
5547 Clouds 33 1008 63 10000 3.6 120 07:50 13.11.2020
5548 Clouds 33 1008 63 10000 3.6 120 07:27 13.11.2020
5549 Clouds 33 1008 66 10000 4.1 110 06:55 13.11.2020
5550 Clouds 32 1008 66 10000 4.1 110 06:36 13.11.2020
5551 Clouds 32 1009 66 10000 4.1 110 05:41 13.11.2020
5552 Clouds 32 1010 70 10000 6.2 100 03:41 13.11.2020
5553 Clouds 29 1010 83 10000 3.1 90 01:42 13.11.2020
5554 Clouds 28 1009 83 10000 3.6 120 00:35 13.11.2020
5555 Clouds 27 1009 88 10000 3.1 100 23:49 12.11.2020
5556 Clouds 27 1008 83 10000 3.1 110 23:21 12.11.2020
5557 Clouds 27 1008 83 10000 3.1 110 22:54 12.11.2020
5558 Clouds 27 1008 83 10000 3.1 110 22:36 12.11.2020
5559 Clouds 26 1008 94 10000 2.6 90 21:57 12.11.2020
5560 Clouds 26 1008 94 10000 2.6 90 21:39 12.11.2020
5561 Clouds 27 1008 88 10000 2.1 100 21:19 12.11.2020
5562 Clouds 27 1008 88 10000 2.1 100 20:41 12.11.2020
5563 Clouds 27 1008 88 10000 2.1 100 20:23 12.11.2020
5564 Clouds 27 1008 83 10000 2.6 120 19:52 12.11.2020
5565 Clouds 27 1008 83 10000 2.6 120 19:34 12.11.2020
5566 Clouds 27 1008 83 10000 4.1 120 18:56 12.11.2020
5567 Clouds 27 1008 83 10000 4.1 120 18:37 12.11.2020
5568 Clouds 27 1008 83 10000 3.6 120 18:18 12.11.2020
5569 Clouds 27 1008 83 10000 3.6 120 17:39 12.11.2020
5570 Clouds 27 1009 83 10000 4.1 120 17:21 12.11.2020
5571 Clouds 27 1009 83 10000 4.1 120 16:44 12.11.2020
5572 Clouds 27 1009 83 10000 4.1 120 16:23 12.11.2020
5573 Clouds 27 1009 83 10000 4.1 120 16:23 12.11.2020
5574 Clouds 27 1009 83 10000 4.1 120 15:46 12.11.2020
5575 Clouds 27 1009 83 10000 4.1 120 15:26 12.11.2020
5576 Clouds 27 1008 83 10000 3.6 130 14:47 12.11.2020
5577 Clouds 27 1008 83 10000 3.6 130 14:47 12.11.2020
5578 Clouds 27 1008 83 10000 3.6 130 14:27 12.11.2020
5579 Clouds 27 1008 83 10000 3.6 130 14:27 12.11.2020
5580 Clouds 27 1008 83 10000 3.6 120 13:57 12.11.2020
5581 Clouds 27 1008 83 10000 3.6 120 13:37 12.11.2020
5582 Clouds 27 1008 83 10000 5.1 130 13:18 12.11.2020
5583 Rain 27 1008 83 10000 5.1 130 12:44 12.11.2020
5584 Clouds 27 1008 83 10000 5.1 130 12:23 12.11.2020
5585 Rain 27 1007 83 10000 4.1 0 11:52 12.11.2020
5586 Clouds 27 1007 83 10000 4.1 0 11:30 12.11.2020
5587 Clouds 27 1007 83 10000 4.1 0 11:30 12.11.2020
5588 Rain 27 1006 74 10000 5.1 130 10:49 12.11.2020
5589 Clouds 27 1006 74 10000 5.1 130 10:29 12.11.2020
5590 Rain 27 1006 88 10000 4.1 140 09:49 12.11.2020
5591 Rain 27 1006 88 10000 4.1 140 09:24 12.11.2020
5592 Rain 27 1005 88 9000 5.7 130 08:58 12.11.2020
5593 Rain 27 1005 88 9000 5.7 130 08:39 12.11.2020
5594 Rain 27 1005 88 10000 4.6 0 08:20 12.11.2020
5595 Rain 27 1005 88 10000 4.6 0 08:20 12.11.2020
5596 Clouds 27 1005 88 10000 4.6 0 07:52 12.11.2020
5597 Rain 27 1005 88 10000 4.6 0 07:25 12.11.2020
5598 Rain 27 1005 88 10000 4.6 140 06:51 12.11.2020
5599 Rain 27 1008 94 9000 4.1 0 05:45 12.11.2020
5600 Rain 25 1006 100 6000 3.6 0 03:43 12.11.2020
5601 Rain 24 1005 100 6000 3.6 180 03:18 12.11.2020
5602 Rain 24 1003 100 2000 3.6 160 00:23 12.11.2020
5603 Rain 25 1001 94 6000 3.6 170 23:26 11.11.2020
5604 Rain 25 998 94 5000 7.2 210 22:59 11.11.2020
5605 Rain 25 998 94 5000 7.2 210 22:41 11.11.2020
5606 Rain 25 996 94 2000 9.8 230 22:21 11.11.2020
5607 Rain 25 996 94 2000 9.8 230 21:56 11.11.2020
5608 Rain 25 996 94 2000 9.8 230 21:36 11.11.2020
5609 Rain 25 994 94 2000 12.3 230 21:18 11.11.2020
5610 Rain 25 994 94 2000 12.3 230 20:41 11.11.2020
5611 Rain 25 993 94 2000 17 250 20:21 11.11.2020
5612 Rain 25 993 94 2000 17 250 19:50 11.11.2020
5613 Rain 25 993 94 2000 17 250 19:32 11.11.2020
5614 Rain 25 993 94 3000 17.5 250 18:55 11.11.2020
5615 Rain 26 993 83 4000 17 260 18:36 11.11.2020
5616 Rain 26 995 83 5000 16.5 260 17:45 11.11.2020
5617 Rain 26 998 83 8000 14.9 270 17:24 11.11.2020
5618 Rain 27 998 83 8000 14.9 270 16:57 11.11.2020
5619 Rain 27 998 83 8000 12.3 280 16:37 11.11.2020
5620 Rain 26 1000 83 7000 9.8 290 15:56 11.11.2020
5621 Rain 27 1000 83 7000 9.8 290 15:37 11.11.2020
5622 Rain 27 1000 83 7000 6.7 260 15:18 11.11.2020
5623 Rain 27 1000 83 7000 6.7 260 14:43 11.11.2020
5624 Rain 27 1000 83 7000 6.7 260 14:23 11.11.2020
5625 Rain 26 1002 88 6000 8.2 280 13:44 11.11.2020
5626 Rain 26 1002 88 6000 8.2 290 12:55 11.11.2020
5627 Rain 26 1003 94 7000 4.6 310 12:21 11.11.2020
5628 Rain 26 1003 94 7000 4.6 310 11:51 11.11.2020
5629 Rain 26 1003 94 7000 4.6 310 11:33 11.11.2020
5630 Rain 26 1004 94 7000 3.6 290 10:45 11.11.2020
5631 Rain 26 1004 94 7000 3.6 290 10:27 11.11.2020
5632 Rain 26 1004 94 8000 3.6 280 09:55 11.11.2020
5633 Rain 26 1004 94 8000 3.6 280 09:37 11.11.2020
5634 Rain 27 1004 88 8000 4.1 280 09:19 11.11.2020
5635 Rain 27 1004 88 8000 4.1 280 08:41 11.11.2020
5636 Rain 27 1004 88 8000 4.1 280 08:22 11.11.2020
5637 Rain 26 1005 94 7000 4.1 300 07:41 11.11.2020
5638 Rain 27 1006 88 9000 4.6 280 06:30 11.11.2020
5639 Clouds 28 1008 88 10000 3.6 310 04:49 11.11.2020
5640 Clouds 27 1009 83 10000 2.6 330 01:37 11.11.2020
5641 Rain 26 1009 88 10000 2.6 350 00:56 11.11.2020
5642 Clouds 26 1009 88 10000 2.6 350 00:22 11.11.2020
5643 Rain 26 1008 88 10000 2.6 300 23:36 10.11.2020
5644 Clouds 25 1008 88 10000 1.5 340 23:18 10.11.2020
5645 Clouds 26 1008 88 10000 1.5 340 22:43 10.11.2020
5646 Rain 26 1008 94 10000 2.1 350 22:20 10.11.2020
5647 Clouds 26 1008 94 10000 2.1 350 21:40 10.11.2020
5648 Rain 26 1009 94 10000 2.1 340 21:22 10.11.2020
5649 Clouds 26 1009 94 10000 2.1 340 20:44 10.11.2020
5650 Rain 26 1009 94 10000 2.1 340 20:24 10.11.2020
5651 Clouds 26 1009 94 9000 2.6 10 19:58 10.11.2020
5652 Clouds 26 1009 94 9000 2.6 10 19:39 10.11.2020
5653 Rain 26 1010 88 10000 1.5 10 19:21 10.11.2020
5654 Rain 26 1010 88 10000 1.5 10 18:42 10.11.2020
5655 Rain 26 1010 94 10000 0.5 0 18:21 10.11.2020
5656 Clouds 26 1010 94 10000 0.5 0 17:47 10.11.2020
5657 Rain 26 1010 94 10000 0.5 0 17:28 10.11.2020
5658 Clouds 26 1011 100 9000 2.83 13 16:58 10.11.2020
5659 Clouds 26 1011 100 9000 2.83 13 16:40 10.11.2020
5660 Clouds 26 1011 94 10000 1 0 16:22 10.11.2020
5661 Clouds 26 1011 94 10000 1 0 15:48 10.11.2020
5662 Clouds 26 1011 94 10000 1 0 15:27 10.11.2020
5663 Clouds 26 1011 94 6000 1.5 200 14:56 10.11.2020
5664 Clouds 26 1011 94 6000 1.5 200 14:37 10.11.2020
5665 Rain 27 1011 83 9000 1 0 14:18 10.11.2020
5666 Rain 27 1011 83 9000 1 0 13:38 10.11.2020
5667 Rain 27 1010 83 9000 1 0 13:19 10.11.2020
5668 Rain 27 1010 83 9000 1 0 12:45 10.11.2020
5669 Clouds 27 1010 83 9000 1 0 12:24 10.11.2020
5670 Clouds 28 1010 83 10000 1 0 11:43 10.11.2020
5671 Clouds 28 1009 79 10000 1 0 11:21 10.11.2020
5672 Clouds 28 1009 79 10000 1 0 10:57 10.11.2020
5673 Clouds 29 1009 79 10000 1 0 10:38 10.11.2020
5674 Clouds 29 1009 88 10000 0.5 0 10:19 10.11.2020
5675 Clouds 29 1009 88 10000 0.5 0 09:43 10.11.2020
5676 Clouds 29 1009 88 10000 0.5 0 09:24 10.11.2020
5677 Clouds 29 1009 88 10000 0.5 0 09:24 10.11.2020
5678 Clouds 29 1008 78 7000 1 0 08:52 10.11.2020
5679 Clouds 29 1008 78 7000 1 0 08:26 10.11.2020
5680 Clouds 29 1009 83 10000 1.5 250 07:44 10.11.2020
5681 Clouds 29 1009 83 10000 1.5 250 07:44 10.11.2020
5682 Clouds 29 1009 83 10000 1.5 250 07:22 10.11.2020
5683 Rain 28 1009 100 8000 2.6 180 06:40 10.11.2020
5684 Rain 28 1010 83 9000 2.1 260 05:43 10.11.2020
5685 Rain 29 1010 79 9000 2.1 130 04:59 10.11.2020
5686 Clouds 29 1011 79 10000 1.5 0 02:29 10.11.2020
5687 Clouds 29 1011 79 10000 1 0 01:30 10.11.2020
5688 Clouds 26 1010 94 9000 1 0 23:55 09.11.2020
5689 Clouds 26 1010 94 9000 1 0 23:33 09.11.2020
5690 Clouds 26 1009 94 9000 1.5 340 22:48 09.11.2020
5691 Clouds 26 1009 94 9000 1.5 340 22:24 09.11.2020
5692 Clouds 25 1009 100 10000 1 0 21:54 09.11.2020
5693 Clouds 25 1009 100 10000 1 0 21:36 09.11.2020
5694 Rain 25 1008 94 10000 1.5 180 21:18 09.11.2020
5695 Rain 25 1008 94 10000 1.5 180 20:37 09.11.2020
5696 Rain 25 1010 94 9000 1 0 20:18 09.11.2020
5697 Rain 25 1010 94 9000 1 0 19:41 09.11.2020
5698 Rain 25 1010 94 9000 1 0 19:21 09.11.2020
5699 Rain 26 1010 94 9000 0.5 0 18:41 09.11.2020
5700 Rain 26 1010 94 8000 1.5 140 18:20 09.11.2020
5701 Clouds 26 1010 94 8000 1.5 140 17:50 09.11.2020
5702 Rain 26 1010 94 8000 1.5 140 17:30 09.11.2020
5703 Rain 26 1011 100 8000 2.1 150 16:46 09.11.2020
5704 Rain 26 1011 100 8000 2.1 150 16:27 09.11.2020
5705 Rain 27 1011 88 8000 1 0 15:51 09.11.2020
5706 Rain 27 1011 88 8000 1 0 15:30 09.11.2020
5707 Rain 27 1010 88 9000 1.5 140 14:57 09.11.2020
5708 Rain 27 1010 88 9000 1.5 140 14:37 09.11.2020
5709 Rain 27 1010 88 10000 2.1 140 14:19 09.11.2020
5710 Clouds 27 1010 88 10000 2.1 140 13:43 09.11.2020
5711 Clouds 28 1010 83 9000 2.6 0 13:19 09.11.2020
5712 Clouds 28 1010 83 9000 2.6 0 13:19 09.11.2020
5713 Clouds 28 1009 74 10000 2.6 110 12:46 09.11.2020
5714 Thunderstorm 28 1009 74 10000 6.2 240 12:21 09.11.2020
5715 Rain 28 1009 74 10000 6.2 240 11:43 09.11.2020
5716 Thunderstorm 29 1009 74 10000 6.2 240 11:24 09.11.2020
5717 Thunderstorm 29 1009 74 10000 6.2 240 11:24 09.11.2020
5718 Rain 29 1007 70 10000 3.6 110 10:58 09.11.2020
5719 Rain 29 1007 70 10000 3.6 110 10:40 09.11.2020
5720 Rain 30 1006 70 10000 3.1 0 10:21 09.11.2020
5721 Rain 30 1006 70 10000 3.1 0 09:30 09.11.2020
5722 Rain 30 1006 70 10000 1.5 200 08:57 09.11.2020
5723 Rain 31 1006 70 10000 1.5 200 08:28 09.11.2020
5724 Clouds 31 1006 79 10000 2.6 260 07:57 09.11.2020
5725 Clouds 31 1006 79 10000 2.6 260 07:24 09.11.2020
5726 Clouds 30 1007 74 10000 2.6 310 06:55 09.11.2020
5727 Clouds 29 1009 83 8000 3.1 270 05:38 09.11.2020
5728 Rain 27 1010 88 6000 1.5 240 01:59 09.11.2020
5729 Clouds 27 1010 88 6000 1.5 240 01:41 09.11.2020
5730 Rain 26 1010 88 7000 0.5 0 00:55 09.11.2020
5731 Rain 26 1008 94 10000 1 0 23:47 08.11.2020
5732 Rain 26 1008 94 10000 1 0 23:28 08.11.2020
5733 Clouds 26 1007 94 7000 1 0 22:43 08.11.2020
5734 Rain 26 1007 94 7000 1 0 22:22 08.11.2020
5735 Clouds 26 1007 88 10000 1 0 21:47 08.11.2020
5736 Clouds 26 1007 88 10000 1 0 21:23 08.11.2020
5737 Clouds 26 1008 83 10000 3.1 360 20:57 08.11.2020
5738 Clouds 26 1008 83 10000 3.1 360 20:38 08.11.2020
5739 Clouds 26 1007 83 10000 3.1 70 20:20 08.11.2020
5740 Clouds 27 1007 83 10000 3.1 70 19:45 08.11.2020
5741 Clouds 27 1007 83 10000 3.1 70 19:22 08.11.2020
5742 Clouds 27 1008 88 10000 2.1 90 18:57 08.11.2020
5743 Clouds 27 1008 88 10000 2.1 90 18:39 08.11.2020
5744 Rain 27 1008 88 10000 1.5 100 18:20 08.11.2020
5745 Rain 27 1008 88 10000 1.5 100 17:42 08.11.2020
5746 Clouds 27 1009 88 10000 1.5 80 17:20 08.11.2020
5747 Clouds 27 1009 88 10000 1.5 80 16:57 08.11.2020
5748 Clouds 27 1009 88 10000 1.5 80 16:57 08.11.2020
5749 Clouds 27 1009 88 10000 1.5 80 16:38 08.11.2020
5750 Clouds 27 1009 78 10000 0.5 0 16:19 08.11.2020
5751 Rain 28 1009 78 10000 0.5 0 15:45 08.11.2020
5752 Clouds 28 1009 78 10000 0.5 0 15:26 08.11.2020
5753 Rain 28 1009 83 10000 2.1 140 14:43 08.11.2020
5754 Clouds 28 1009 83 10000 2.1 140 14:23 08.11.2020
5755 Clouds 28 1008 79 10000 2.6 130 13:56 08.11.2020
5756 Clouds 28 1008 79 10000 2.6 130 13:25 08.11.2020
5757 Clouds 29 1008 79 10000 2.6 120 12:47 08.11.2020
5758 Clouds 29 1008 79 10000 2.6 120 12:29 08.11.2020
5759 Clouds 28 1007 83 10000 4.1 110 11:59 08.11.2020
5760 Clouds 28 1007 83 10000 4.1 110 11:41 08.11.2020
5761 Clouds 28 1006 74 10000 5.7 100 11:22 08.11.2020
5762 Clouds 29 1006 74 10000 5.7 100 10:52 08.11.2020
5763 Clouds 30 1006 70 10000 5.1 110 10:20 08.11.2020
5764 Rain 31 1006 70 10000 5.1 110 09:59 08.11.2020
5765 Clouds 31 1006 70 10000 5.1 110 09:41 08.11.2020
5766 Clouds 31 1005 62 10000 4.6 110 09:18 08.11.2020
5767 Clouds 32 1005 62 10000 4.6 110 08:42 08.11.2020
5768 Rain 32 1005 66 10000 5.7 90 08:21 08.11.2020
5769 Rain 32 1005 66 10000 5.7 90 08:21 08.11.2020
5770 Clouds 32 1005 66 10000 5.7 90 07:53 08.11.2020
5771 Clouds 32 1005 66 10000 5.7 90 07:30 08.11.2020
5772 Clouds 32 1006 66 10000 6.2 110 06:26 08.11.2020
5773 Clouds 32 1006 66 10000 3.1 90 05:53 08.11.2020
5774 Rain 30 1007 74 10000 1.5 40 04:50 08.11.2020
5775 Clouds 27 1008 83 10000 4.1 360 01:54 08.11.2020
5776 Clouds 26 1007 88 10000 5.7 10 01:19 08.11.2020
5777 Clouds 25 1007 88 10000 5.7 10 00:30 08.11.2020
5778 Clouds 25 1007 88 10000 4.6 10 23:47 07.11.2020
5779 Clouds 24 1007 88 10000 4.6 10 23:29 07.11.2020
5780 Clouds 24 1006 88 10000 5.1 10 22:47 07.11.2020
5781 Rain 24 1006 88 10000 5.1 10 22:27 07.11.2020
5782 Rain 24 1006 94 10000 4.1 360 21:56 07.11.2020
5783 Rain 24 1006 94 10000 4.1 360 21:37 07.11.2020
5784 Rain 24 1007 94 10000 1.5 140 21:18 07.11.2020
5785 Rain 24 1007 94 10000 1.5 140 20:42 07.11.2020
5786 Rain 24 1007 94 10000 1.5 140 20:23 07.11.2020
5787 Rain 23 1007 88 9000 3.6 360 19:44 07.11.2020
5788 Rain 23 1007 88 9000 3.6 360 19:26 07.11.2020
5789 Rain 25 1008 88 9000 2.6 10 18:40 07.11.2020
5790 Rain 25 1008 88 9000 2.6 10 18:40 07.11.2020
5791 Rain 25 1008 88 10000 3.1 360 18:22 07.11.2020
5792 Rain 25 1008 88 10000 3.1 360 17:46 07.11.2020
5793 Rain 25 1008 88 10000 3.1 360 17:27 07.11.2020
5794 Rain 25 1008 88 10000 3.1 360 17:27 07.11.2020
5795 Rain 25 1009 88 9000 0.5 0 16:45 07.11.2020
5796 Rain 25 1009 88 9000 0.5 0 16:25 07.11.2020
5797 Rain 26 1009 83 9000 1.5 0 15:51 07.11.2020
5798 Rain 26 1009 83 9000 1.5 0 15:25 07.11.2020
5799 Rain 26 1009 78 10000 0.5 0 14:59 07.11.2020
5800 Rain 26 1009 78 10000 0.5 0 14:59 07.11.2020
5801 Rain 26 1009 78 10000 0.5 0 14:41 07.11.2020
5802 Clouds 26 1010 83 10000 1 0 14:20 07.11.2020
5803 Rain 26 1010 83 10000 1 0 13:43 07.11.2020
5804 Rain 26 1010 83 10000 1 0 13:23 07.11.2020
5805 Clouds 26 1009 78 10000 2.1 130 12:37 07.11.2020
5806 Rain 26 1009 74 9000 2.1 60 11:54 07.11.2020
5807 Rain 26 1009 74 9000 2.1 60 11:36 07.11.2020
5808 Rain 26 1009 83 8000 2.1 70 11:18 07.11.2020
5809 Rain 26 1009 83 8000 2.1 70 10:42 07.11.2020
5810 Rain 26 1009 83 8000 2.1 70 10:23 07.11.2020
5811 Rain 26 1010 88 7000 3.1 80 09:48 07.11.2020
5812 Rain 27 1010 88 7000 3.1 80 09:23 07.11.2020
5813 Rain 28 1010 79 8000 2.1 120 08:47 07.11.2020
5814 Rain 29 1010 79 8000 2.1 120 08:29 07.11.2020
5815 Rain 30 1010 74 10000 1 130 07:48 07.11.2020
5816 Rain 30 1012 70 10000 2.1 130 06:54 07.11.2020
5817 Rain 30 1011 74 10000 3.1 250 05:54 07.11.2020
5818 Clouds 30 1011 74 10000 4.1 280 04:22 07.11.2020
5819 Rain 30 1012 74 10000 2.1 280 02:46 07.11.2020
5820 Clouds 28 1012 74 9000 1.67 47 01:27 07.11.2020
5821 Clouds 27 1012 88 9000 0.5 0 00:37 07.11.2020
5822 Rain 26 1011 88 9000 1 0 23:39 06.11.2020
5823 Clouds 26 1011 88 9000 0.5 0 23:18 06.11.2020
5824 Clouds 26 1011 88 9000 0.5 0 22:40 06.11.2020
5825 Clouds 26 1010 88 10000 1.53 33 22:18 06.11.2020
5826 Clouds 26 1010 88 10000 1.53 33 21:42 06.11.2020
5827 Clouds 26 1011 83 10000 1.68 40 21:20 06.11.2020
5828 Clouds 26 1011 83 10000 1.68 40 20:45 06.11.2020
5829 Clouds 26 1011 88 10000 1.5 70 20:20 06.11.2020
5830 Clouds 26 1011 88 10000 1.5 70 20:20 06.11.2020
5831 Clouds 26 1011 88 10000 1.5 70 19:45 06.11.2020
5832 Clouds 26 1011 88 10000 1.5 70 19:27 06.11.2020
5833 Clouds 27 1012 83 10000 1 90 18:56 06.11.2020
5834 Clouds 27 1012 83 10000 1 90 18:38 06.11.2020
5835 Clouds 27 1012 78 10000 2.1 130 18:19 06.11.2020
5836 Clouds 27 1012 78 10000 2.1 130 17:42 06.11.2020
5837 Clouds 28 1012 78 10000 2.1 130 17:24 06.11.2020
5838 Clouds 28 1012 78 10000 2.1 130 16:42 06.11.2020
5839 Clouds 28 1013 78 10000 2.1 130 16:21 06.11.2020
5840 Clouds 28 1013 78 10000 2.1 130 15:44 06.11.2020
5841 Clouds 28 1013 78 10000 2.1 130 15:25 06.11.2020
5842 Clouds 28 1012 78 10000 2.6 110 14:49 06.11.2020
5843 Clouds 28 1012 78 10000 2.6 110 14:22 06.11.2020
5844 Clouds 28 1012 74 10000 2.1 110 13:42 06.11.2020
5845 Rain 28 1011 75 10000 3.1 110 13:20 06.11.2020
5846 Rain 29 1011 74 10000 3.1 110 12:43 06.11.2020
5847 Clouds 29 1011 72 10000 3.1 110 12:23 06.11.2020
5848 Clouds 29 1011 72 10000 3.1 110 12:23 06.11.2020
5849 Clouds 29 1010 70 10000 2.6 120 11:39 06.11.2020
5850 Clouds 29 1009 70 10000 2.6 130 11:20 06.11.2020
5851 Clouds 30 1009 70 10000 2.6 130 10:36 06.11.2020
5852 Clouds 30 1009 66 10000 3.1 0 10:18 06.11.2020
5853 Clouds 31 1009 66 10000 3.1 0 09:41 06.11.2020
5854 Clouds 31 1009 66 10000 3.1 120 09:21 06.11.2020
5855 Clouds 31 1009 66 10000 3.1 120 08:47 06.11.2020
5856 Clouds 31 1009 66 10000 3.1 120 08:28 06.11.2020
5857 Clouds 32 1010 62 10000 3.1 120 07:44 06.11.2020
5858 Clouds 32 1011 59 10000 3.6 130 07:21 06.11.2020
5859 Rain 32 1011 59 10000 3.6 130 06:42 06.11.2020
5860 Clouds 33 1012 62 10000 3.1 0 05:39 06.11.2020
5861 Clouds 31 1013 70 10000 3.1 110 02:52 06.11.2020
5862 Clouds 26 1013 83 9000 1 0 00:35 06.11.2020
5863 Clouds 26 1012 88 9000 2.1 70 23:56 05.11.2020
5864 Clouds 26 1012 88 9000 2.1 70 23:26 05.11.2020
5865 Clouds 26 1011 88 8000 0.5 0 22:48 05.11.2020
5866 Clouds 26 1011 94 10000 1 0 22:26 05.11.2020
5867 Clouds 26 1011 94 10000 1 0 21:57 05.11.2020
5868 Clouds 26 1011 94 10000 1 0 21:38 05.11.2020
5869 Clouds 26 1011 94 10000 1 0 21:19 05.11.2020
5870 Clouds 26 1011 94 10000 1 0 20:44 05.11.2020
5871 Clouds 26 1011 94 10000 1 0 20:24 05.11.2020
5872 Clouds 27 1012 83 10000 1.5 0 19:45 05.11.2020
5873 Clouds 27 1012 83 10000 1.5 0 19:27 05.11.2020
5874 Clouds 27 1012 83 10000 2.1 130 18:58 05.11.2020
5875 Clouds 27 1012 83 10000 2.1 130 18:39 05.11.2020
5876 Clouds 27 1013 88 10000 1.5 0 18:21 05.11.2020
5877 Clouds 27 1013 88 10000 1.5 0 17:45 05.11.2020
5878 Clouds 27 1013 88 10000 1.5 0 17:25 05.11.2020
5879 Clouds 27 1013 83 10000 2.1 130 16:49 05.11.2020
5880 Clouds 27 1013 83 10000 2.1 130 16:28 05.11.2020
5881 Clouds 27 1013 83 10000 1.5 0 15:53 05.11.2020
5882 Clouds 27 1013 83 10000 1.5 0 15:27 05.11.2020
5883 Clouds 27 1013 78 10000 2.1 0 14:57 05.11.2020
5884 Clouds 27 1013 78 10000 2.1 0 14:39 05.11.2020
5885 Clouds 28 1012 83 10000 2.6 140 14:20 05.11.2020
5886 Clouds 28 1012 83 10000 2.6 140 13:40 05.11.2020
5887 Clouds 28 1012 78 10000 1.5 140 13:18 05.11.2020
5888 Clouds 28 1012 78 10000 1.5 140 12:41 05.11.2020
5889 Clouds 28 1011 78 10000 1.5 140 12:22 05.11.2020
5890 Rain 28 1011 78 10000 1.5 140 11:42 05.11.2020
5891 Clouds 28 1010 74 10000 2.6 130 11:22 05.11.2020
5892 Clouds 29 1010 74 10000 2.6 130 10:48 05.11.2020
5893 Rain 29 1010 74 10000 2.6 130 10:26 05.11.2020
5894 Clouds 30 1010 70 10000 2.1 0 09:49 05.11.2020
5895 Rain 30 1010 70 10000 2.1 0 09:25 05.11.2020
5896 Rain 31 1010 66 10000 2.1 0 08:51 05.11.2020
5897 Rain 31 1010 66 10000 2.1 0 08:32 05.11.2020
5898 Rain 31 1010 70 10000 2.1 260 07:58 05.11.2020
5899 Rain 31 1010 70 10000 2.1 260 07:28 05.11.2020
5900 Rain 31 1011 66 10000 2.1 300 06:43 05.11.2020
5901 Rain 31 1011 62 9000 2.1 0 06:20 05.11.2020
5902 Rain 30 1013 66 10000 2.1 0 03:27 05.11.2020
5903 Rain 27 1012 83 10000 1.5 190 00:37 05.11.2020
5904 Rain 26 1011 88 10000 0.5 0 23:53 04.11.2020
5905 Rain 26 1011 88 10000 0.5 0 23:27 04.11.2020
5906 Clouds 26 1011 88 10000 1 0 22:57 04.11.2020
5907 Clouds 26 1011 88 10000 1 0 22:38 04.11.2020
5908 Clouds 26 1010 88 10000 0.5 0 22:19 04.11.2020
5909 Clouds 26 1010 88 10000 0.5 0 21:46 04.11.2020
5910 Clouds 26 1010 88 10000 0.5 0 21:27 04.11.2020
5911 Clouds 26 1010 88 10000 1 40 20:53 04.11.2020
5912 Clouds 26 1010 88 10000 1 40 20:35 04.11.2020
5913 Clouds 26 1010 88 10000 1 0 19:58 04.11.2020
5914 Clouds 26 1010 88 10000 1 0 19:40 04.11.2020
5915 Clouds 26 1010 88 10000 1 0 19:21 04.11.2020
5916 Clouds 26 1011 88 10000 2.99 102 18:40 04.11.2020
5917 Clouds 26 1011 88 10000 2.1 110 18:22 04.11.2020
5918 Rain 26 1011 88 10000 2.1 110 17:46 04.11.2020
5919 Rain 26 1011 88 10000 2.1 110 17:26 04.11.2020
5920 Rain 27 1012 83 10000 1 0 16:46 04.11.2020
5921 Rain 27 1012 83 10000 1 0 16:27 04.11.2020
5922 Rain 27 1012 83 10000 2.6 110 15:57 04.11.2020
5923 Clouds 27 1012 83 10000 2.6 110 15:39 04.11.2020
5924 Rain 27 1012 83 10000 2.6 130 15:20 04.11.2020
5925 Rain 27 1012 83 10000 2.6 130 14:42 04.11.2020
5926 Rain 27 1012 83 10000 2.6 130 14:24 04.11.2020
5927 Rain 27 1011 83 10000 2.1 110 13:50 04.11.2020
5928 Clouds 27 1010 88 9000 2.1 120 13:21 04.11.2020
5929 Clouds 27 1010 88 9000 2.1 120 12:57 04.11.2020
5930 Clouds 26 1010 88 9000 2.1 120 12:39 04.11.2020
5931 Rain 26 1010 88 10000 3.1 130 12:21 04.11.2020
5932 Rain 26 1010 88 10000 3.1 130 11:44 04.11.2020
5933 Rain 26 1010 88 10000 3.1 0 11:21 04.11.2020
5934 Rain 26 1010 88 10000 3.1 0 10:48 04.11.2020
5935 Rain 27 1010 88 10000 3.1 0 10:23 04.11.2020
5936 Rain 28 1009 78 10000 2.6 160 09:55 04.11.2020
5937 Clouds 28 1009 78 10000 2.6 160 09:27 04.11.2020
5938 Rain 28 1009 78 10000 3.6 150 08:47 04.11.2020
5939 Clouds 28 1009 78 10000 3.6 150 08:23 04.11.2020
5940 Clouds 30 1009 66 10000 3.6 0 07:57 04.11.2020
5941 Clouds 30 1009 66 10000 3.6 0 07:31 04.11.2020
5942 Clouds 30 1010 70 10000 3.6 150 06:57 04.11.2020
5943 Clouds 30 1010 70 10000 3.6 150 06:37 04.11.2020
5944 Rain 29 1012 74 10000 3.6 120 04:18 04.11.2020
5945 Rain 28 1012 78 10000 3.1 120 02:31 04.11.2020
5946 Clouds 27 1012 83 10000 2.6 130 01:22 04.11.2020
5947 Clouds 26 1010 88 10000 0.5 0 23:50 03.11.2020
5948 Clouds 26 1010 88 10000 0.5 0 23:24 03.11.2020
5949 Clouds 26 1010 88 10000 0.5 0 22:42 03.11.2020
5950 Clouds 26 1010 88 10000 0.5 0 22:22 03.11.2020
5951 Rain 27 1010 83 10000 1.5 170 21:59 03.11.2020
5952 Clouds 26 1010 83 10000 1.5 170 21:41 03.11.2020
5953 Clouds 26 1010 83 10000 1.5 170 21:21 03.11.2020
5954 Clouds 27 1010 83 10000 1.5 120 20:45 03.11.2020
5955 Rain 27 1010 83 10000 1.5 120 20:26 03.11.2020
5956 Rain 27 1010 88 10000 1.5 0 19:45 03.11.2020
5957 Rain 26 1010 88 10000 1.5 0 19:25 03.11.2020
5958 Rain 26 1010 88 10000 1.5 0 19:25 03.11.2020
5959 Clouds 26 1010 94 10000 1 0 18:56 03.11.2020
5960 Clouds 26 1010 94 10000 1 0 18:38 03.11.2020
5961 Clouds 26 1011 88 10000 1.5 150 18:18 03.11.2020
5962 Clouds 27 1011 88 10000 1.5 150 17:42 03.11.2020
5963 Clouds 27 1011 88 10000 2.1 160 17:23 03.11.2020
5964 Rain 27 1011 88 10000 2.1 160 16:45 03.11.2020
5965 Clouds 27 1011 88 10000 2.1 160 16:24 03.11.2020
5966 Rain 27 1011 88 10000 2.6 0 15:48 03.11.2020
5967 Rain 27 1011 88 10000 2.6 0 15:29 03.11.2020
5968 Rain 27 1011 88 10000 2.1 0 14:53 03.11.2020
5969 Rain 27 1011 88 10000 2.1 0 14:33 03.11.2020
5970 Clouds 28 1011 83 10000 2.1 160 13:47 03.11.2020
5971 Rain 27 1011 83 10000 2.1 160 13:24 03.11.2020
5972 Rain 28 1010 88 10000 2.1 160 12:59 03.11.2020
5973 Clouds 28 1010 88 10000 2.1 160 12:39 03.11.2020
5974 Clouds 28 1009 88 10000 1 0 12:20 03.11.2020
5975 Clouds 28 1009 88 10000 1 0 11:44 03.11.2020
5976 Clouds 28 1009 88 9000 2.1 0 11:21 03.11.2020
5977 Rain 28 1009 88 9000 2.1 0 10:40 03.11.2020
5978 Clouds 28 1009 88 9000 2.1 0 10:22 03.11.2020
5979 Clouds 29 1009 88 10000 3.6 180 09:59 03.11.2020
5980 Clouds 29 1008 79 10000 3.1 0 09:37 03.11.2020
5981 Clouds 31 1008 59 10000 2.1 110 09:18 03.11.2020
5982 Clouds 31 1008 59 10000 2.1 110 08:42 03.11.2020
5983 Clouds 32 1008 59 10000 2.1 110 08:23 03.11.2020
5984 Clouds 33 1008 62 10000 2.6 0 07:35 03.11.2020
5985 Clouds 33 1009 63 10000 2.1 0 06:52 03.11.2020
5986 Clouds 33 1010 63 10000 2.6 130 05:50 03.11.2020
5987 Clouds 31 1011 66 10000 2.6 0 03:26 03.11.2020
5988 Clouds 27 1010 88 10000 1.94 80 00:42 03.11.2020
5989 Clouds 26 1010 94 10000 1 0 23:59 02.11.2020
5990 Clouds 26 1010 94 10000 1 0 23:38 02.11.2020
5991 Clouds 26 1009 94 10000 1 0 22:56 02.11.2020
5992 Clouds 26 1009 94 10000 1 0 22:37 02.11.2020
5993 Clouds 26 1009 94 10000 1 0 21:59 02.11.2020
5994 Clouds 26 1009 94 10000 1 0 21:38 02.11.2020
5995 Clouds 26 1009 94 10000 1.5 90 21:19 02.11.2020
5996 Clouds 26 1009 94 10000 1.5 90 20:41 02.11.2020
5997 Clouds 26 1009 94 10000 1 0 20:20 02.11.2020
5998 Rain 26 1009 94 10000 1 0 19:57 02.11.2020
5999 Clouds 26 1009 94 10000 1 0 19:38 02.11.2020
6000 Clouds 26 1009 94 10000 1 0 19:20 02.11.2020
6001 Clouds 26 1009 94 10000 1.01 32 18:39 02.11.2020
6002 Clouds 27 1010 83 10000 0.78 19 18:20 02.11.2020
6003 Clouds 27 1010 83 10000 0.78 19 17:45 02.11.2020
6004 Clouds 27 1010 83 10000 0.56 113 17:25 02.11.2020
6005 Rain 27 1010 83 10000 0.5 0 16:56 02.11.2020
6006 Clouds 27 1010 83 10000 0.5 0 16:38 02.11.2020
6007 Clouds 27 1010 88 10000 1 0 16:18 02.11.2020
6008 Clouds 27 1010 88 10000 1 0 15:39 02.11.2020
6009 Clouds 27 1010 83 10000 1 0 15:20 02.11.2020
6010 Clouds 27 1010 83 10000 1 0 14:51 02.11.2020
6011 Clouds 27 1012 83 10000 2.1 230 14:20 02.11.2020
6012 Clouds 27 1012 83 10000 2.1 230 13:51 02.11.2020
6013 Clouds 27 1012 83 10000 2.1 230 13:23 02.11.2020
6014 Clouds 28 1009 83 10000 1.84 226 12:54 02.11.2020
6015 Clouds 28 1009 83 10000 2.05 251 12:29 02.11.2020
6016 Clouds 28 1008 83 10000 1 280 11:46 02.11.2020
6017 Clouds 29 1007 74 10000 2.6 280 11:22 02.11.2020
6018 Clouds 29 1007 74 10000 2.6 280 10:59 02.11.2020
6019 Clouds 29 1007 74 10000 2.6 280 10:39 02.11.2020
6020 Clouds 30 1007 66 10000 1 0 10:18 02.11.2020
6021 Rain 31 1007 66 10000 1 0 09:42 02.11.2020
6022 Clouds 31 1007 66 10000 1 0 09:21 02.11.2020
6023 Rain 30 1006 70 10000 2.1 110 08:39 02.11.2020
6024 Clouds 31 1006 66 10000 3.1 120 08:19 02.11.2020
6025 Clouds 31 1006 66 10000 3.1 120 07:43 02.11.2020
6026 Rain 31 1007 58 10000 3.1 100 06:48 02.11.2020
6027 Clouds 31 1007 58 10000 3.1 100 06:22 02.11.2020
6028 Clouds 27 1009 83 10000 1.5 120 01:35 02.11.2020
6029 Clouds 26 1008 88 10000 2.1 0 00:41 02.11.2020
6030 Clouds 26 1008 88 10000 2.1 0 00:23 02.11.2020
6031 Rain 25 1006 94 10000 1.5 0 23:40 01.11.2020
6032 Clouds 25 1006 94 10000 2.1 120 23:21 01.11.2020
6033 Clouds 25 1006 94 10000 2.1 120 22:44 01.11.2020
6034 Clouds 25 1006 94 10000 2.1 120 22:23 01.11.2020
6035 Clouds 25 1006 94 10000 1.5 100 21:46 01.11.2020
6036 Clouds 25 1006 94 10000 1.5 100 21:26 01.11.2020
6037 Clouds 25 1005 94 10000 1.5 150 20:51 01.11.2020
6038 Clouds 25 1005 94 10000 1.5 150 20:29 01.11.2020
6039 Rain 25 1005 94 8000 3.1 180 19:58 01.11.2020
6040 Clouds 25 1005 94 8000 3.1 180 19:39 01.11.2020
6041 Clouds 25 1005 94 8000 3.1 180 19:39 01.11.2020
6042 Rain 25 1005 94 8000 3.1 180 19:20 01.11.2020
6043 Clouds 25 1004 88 8000 3.6 120 18:40 01.11.2020
6044 Clouds 25 1003 94 8000 3.6 120 18:19 01.11.2020
6045 Rain 25 1003 94 8000 3.6 120 17:47 01.11.2020
6046 Clouds 25 1003 94 8000 3.6 120 17:29 01.11.2020
6047 Clouds 25 1002 88 8000 7.2 80 16:59 01.11.2020
6048 Clouds 25 1002 88 8000 7.2 80 16:39 01.11.2020
6049 Rain 25 1002 83 8000 7.2 80 16:18 01.11.2020
6050 Clouds 25 1002 83 8000 7.2 80 15:39 01.11.2020
6051 Rain 25 1002 83 8000 7.2 80 15:21 01.11.2020
6052 Rain 25 1001 94 7000 5.7 10 14:48 01.11.2020
6053 Clouds 24 1001 94 7000 5.7 10 14:24 01.11.2020
6054 Clouds 25 1000 88 8000 6.7 360 13:59 01.11.2020
6055 Clouds 25 1000 88 8000 6.7 360 13:40 01.11.2020
6056 Clouds 25 1000 88 8000 6.7 360 13:40 01.11.2020
6057 Clouds 25 1000 88 8000 6.7 360 13:22 01.11.2020
6058 Rain 24 999 83 8000 7.7 360 12:43 01.11.2020
6059 Clouds 24 999 83 8000 7.7 360 12:22 01.11.2020
6060 Clouds 24 1003 88 7000 5.7 360 11:49 01.11.2020
6061 Rain 24 998 88 7000 11.3 350 11:18 01.11.2020
6062 Clouds 24 998 88 7000 11.3 350 10:43 01.11.2020
6063 Clouds 24 998 88 7000 11.3 350 10:24 01.11.2020
6064 Rain 23 999 88 5000 12.3 350 09:50 01.11.2020
6065 Clouds 24 1000 94 5000 10.3 340 09:30 01.11.2020
6066 Rain 24 1000 94 7000 9.3 350 08:44 01.11.2020
6067 Rain 23 1002 94 5000 5.7 360 08:18 01.11.2020
6068 Rain 23 1002 94 5000 5.7 360 07:33 01.11.2020
6069 Rain 24 1007 83 8000 4.1 340 03:25 01.11.2020
6070 Rain 24 1007 78 8000 2.6 330 01:46 01.11.2020
6071 Rain 26 1007 74 10000 1.5 360 00:23 01.11.2020
6072 Rain 26 1006 74 10000 3.1 360 23:24 31.10.2020
6073 Clouds 26 1005 78 10000 2.6 340 22:46 31.10.2020
6074 Clouds 26 1005 78 10000 2.6 340 22:25 31.10.2020
6075 Clouds 26 1005 78 10000 1.5 310 21:47 31.10.2020
6076 Clouds 26 1005 78 10000 1.5 310 21:26 31.10.2020
6077 Clouds 26 1006 74 10000 2.1 320 20:59 31.10.2020
6078 Clouds 26 1006 74 10000 2.1 320 20:38 31.10.2020
6079 Clouds 26 1007 78 10000 1.5 330 20:18 31.10.2020
6080 Clouds 26 1007 78 10000 1.5 330 20:18 31.10.2020
6081 Clouds 26 1007 78 10000 1.5 330 19:39 31.10.2020
6082 Clouds 26 1007 78 10000 1.5 330 19:19 31.10.2020
6083 Clouds 27 1007 78 10000 1.5 20 18:46 31.10.2020
6084 Clouds 27 1008 78 10000 2.6 10 17:58 31.10.2020
6085 Clouds 27 1008 78 10000 2.6 10 17:40 31.10.2020
6086 Rain 27 1009 83 10000 1 0 17:19 31.10.2020
6087 Rain 27 1009 83 10000 1 0 16:42 31.10.2020
6088 Rain 27 1009 83 9000 4.1 360 16:20 31.10.2020
6089 Clouds 27 1009 83 9000 4.1 360 15:42 31.10.2020
6090 Rain 27 1009 83 9000 4.1 360 15:22 31.10.2020
6091 Clouds 28 1008 78 10000 1 0 14:46 31.10.2020
6092 Rain 28 1008 78 10000 1 0 14:27 31.10.2020
6093 Clouds 27 1008 78 10000 3.1 10 13:50 31.10.2020
6094 Clouds 27 1008 78 10000 3.1 10 13:24 31.10.2020
6095 Clouds 28 1008 74 8000 2.1 100 12:42 31.10.2020
6096 Clouds 30 1007 62 10000 3.6 80 11:48 31.10.2020
6097 Clouds 30 1007 62 10000 3.6 80 11:29 31.10.2020
6098 Clouds 31 1006 58 10000 5.7 30 10:57 31.10.2020
6099 Clouds 31 1006 58 10000 5.7 30 10:35 31.10.2020
6100 Clouds 32 1006 55 10000 6.2 40 09:43 31.10.2020
6101 Clouds 32 1006 55 10000 6.2 40 09:25 31.10.2020
6102 Clouds 32 1006 55 10000 4.6 50 08:33 31.10.2020
6103 Clouds 33 1007 55 10000 6.2 40 07:58 31.10.2020
6104 Clouds 33 1007 55 10000 6.2 40 07:27 31.10.2020
6105 Rain 33 1007 52 10000 5.1 30 06:40 31.10.2020
6106 Clouds 32 1009 55 10000 5.1 40 05:20 31.10.2020
6107 Clouds 32 1010 58 10000 4.6 40 03:46 31.10.2020
6108 Clouds 30 1010 62 10000 1.5 30 01:29 31.10.2020
6109 Clouds 29 1010 74 10000 1 0 00:46 31.10.2020
6110 Clouds 27 1009 78 10000 1 0 23:51 30.10.2020
6111 Clouds 27 1009 78 10000 1 0 23:24 30.10.2020
6112 Clouds 28 1009 69 10000 1 0 22:46 30.10.2020
6113 Clouds 28 1009 69 10000 1 0 22:24 30.10.2020
6114 Clouds 28 1008 69 10000 2.1 80 21:56 30.10.2020
6115 Clouds 28 1008 69 10000 2.1 80 21:37 30.10.2020
6116 Clouds 28 1008 74 10000 2.6 30 21:18 30.10.2020
6117 Clouds 28 1008 74 10000 2.6 30 20:39 30.10.2020
6118 Clouds 28 1008 78 10000 1.5 30 20:20 30.10.2020
6119 Clouds 27 1008 78 10000 1.5 30 19:46 30.10.2020
6120 Clouds 28 1009 74 10000 1 0 19:19 30.10.2020
6121 Clouds 28 1009 74 10000 1 0 18:50 30.10.2020
6122 Clouds 28 1009 74 10000 1 0 18:28 30.10.2020
6123 Clouds 28 1009 78 10000 3.57 70 17:49 30.10.2020
6124 Clouds 28 1009 78 10000 1.5 50 17:24 30.10.2020
6125 Rain 28 1009 78 10000 1.5 50 16:57 30.10.2020
6126 Clouds 28 1009 78 10000 1.5 50 16:37 30.10.2020
6127 Clouds 28 1009 78 10000 1.5 50 16:37 30.10.2020
6128 Clouds 28 1009 78 10000 2.1 80 16:18 30.10.2020
6129 Clouds 28 1009 78 10000 2.1 80 15:40 30.10.2020
6130 Clouds 29 1010 74 10000 2.6 100 15:19 30.10.2020
6131 Clouds 29 1010 74 10000 2.6 100 14:44 30.10.2020
6132 Clouds 29 1010 74 10000 2.6 100 14:25 30.10.2020
6133 Rain 29 1009 74 10000 3.6 100 13:45 30.10.2020
6134 Clouds 29 1009 74 10000 3.6 70 13:21 30.10.2020
6135 Clouds 29 1009 74 10000 3.6 70 12:52 30.10.2020
6136 Rain 29 1009 74 10000 3.6 70 12:22 30.10.2020
6137 Clouds 30 1009 74 10000 1.5 0 11:56 30.10.2020
6138 Clouds 30 1009 74 10000 1.5 0 11:23 30.10.2020
6139 Clouds 30 1009 74 10000 2.1 160 10:52 30.10.2020
6140 Clouds 31 1009 74 10000 2.1 160 10:26 30.10.2020
6141 Clouds 32 1007 70 10000 2.6 0 09:59 30.10.2020
6142 Clouds 32 1007 70 10000 2.6 0 09:41 30.10.2020
6143 Clouds 32 1008 66 10000 2.1 0 09:20 30.10.2020
6144 Clouds 33 1008 66 10000 2.1 0 08:33 30.10.2020
6145 Clouds 33 1008 70 10000 1.5 0 07:58 30.10.2020
6146 Clouds 33 1008 70 10000 1.5 0 07:40 30.10.2020
6147 Clouds 33 1008 70 10000 1.5 0 07:21 30.10.2020
6148 Clouds 32 1010 74 10000 2.6 130 06:19 30.10.2020
6149 Clouds 32 1012 74 10000 2.6 320 03:59 30.10.2020
6150 Clouds 29 1012 79 10000 2.6 10 01:26 30.10.2020
6151 Clouds 27 1011 88 10000 1 0 00:26 30.10.2020
6152 Rain 26 1011 88 10000 1 0 23:43 29.10.2020
6153 Clouds 26 1011 88 10000 1 0 23:25 29.10.2020
6154 Rain 26 1010 88 10000 1.5 360 22:45 29.10.2020
6155 Clouds 26 1010 88 10000 1.5 360 22:27 29.10.2020
6156 Clouds 26 1010 94 10000 2.1 10 21:49 29.10.2020
6157 Clouds 26 1010 94 10000 2.1 10 21:24 29.10.2020
6158 Clouds 26 1010 94 10000 1.5 20 20:43 29.10.2020
6159 Clouds 26 1010 94 10000 1.5 20 20:43 29.10.2020
6160 Clouds 26 1010 94 10000 1.5 20 20:24 29.10.2020
6161 Clouds 26 1011 94 10000 0.5 0 19:57 29.10.2020
6162 Rain 26 1011 94 10000 0.5 0 19:38 29.10.2020
6163 Rain 26 1011 88 10000 1 250 19:18 29.10.2020
6164 Clouds 27 1011 88 10000 1 250 18:45 29.10.2020
6165 Clouds 27 1011 88 10000 1 250 18:25 29.10.2020
6166 Rain 27 1012 88 10000 1.5 0 17:42 29.10.2020
6167 Clouds 27 1012 88 10000 1 0 17:22 29.10.2020
6168 Clouds 27 1012 88 10000 1 0 16:53 29.10.2020
6169 Clouds 27 1012 88 10000 0.5 0 16:23 29.10.2020
6170 Clouds 27 1012 88 10000 0.5 0 15:59 29.10.2020
6171 Clouds 27 1012 88 10000 0.5 0 15:40 29.10.2020
6172 Clouds 27 1012 94 10000 2.39 56 15:22 29.10.2020
6173 Clouds 27 1012 94 10000 2.39 56 14:58 29.10.2020
6174 Clouds 27 1012 94 10000 2.39 56 14:39 29.10.2020
6175 Clouds 27 1012 94 10000 2.39 56 14:39 29.10.2020
6176 Rain 27 1012 94 10000 1 0 14:18 29.10.2020
6177 Clouds 27 1012 94 10000 1 0 13:40 29.10.2020
6178 Clouds 27 1012 94 10000 1 0 13:22 29.10.2020
6179 Clouds 27 1011 88 10000 1 0 12:41 29.10.2020
6180 Clouds 27 1011 94 10000 1 0 12:19 29.10.2020
6181 Clouds 28 1011 94 10000 1 0 11:47 29.10.2020
6182 Clouds 27 1011 94 10000 1 0 11:25 29.10.2020
6183 Clouds 27 1010 94 10000 1 0 10:38 29.10.2020
6184 Rain 28 1009 83 7000 5.7 30 10:20 29.10.2020
6185 Clouds 28 1009 83 7000 5.7 30 09:53 29.10.2020
6186 Clouds 28 1009 83 10000 1.5 250 09:28 29.10.2020
6187 Rain 29 1010 94 6000 3.6 330 08:58 29.10.2020
6188 Clouds 29 1010 94 6000 3.6 330 08:38 29.10.2020
6189 Clouds 30 1010 70 10000 3.1 290 07:58 29.10.2020
6190 Clouds 30 1010 70 10000 3.1 290 07:39 29.10.2020
6191 Rain 30 1011 79 10000 3.6 300 06:57 29.10.2020
6192 Clouds 29 1012 79 8000 3.6 330 05:35 29.10.2020
6193 Clouds 29 1013 79 8000 4.1 310 04:45 29.10.2020
6194 Clouds 28 1015 85 10000 1.34 130 01:24 29.10.2020
6195 Clouds 26 1014 93 10000 0.45 94 00:31 29.10.2020
6196 Clouds 25 1014 94 10000 1.3 29 23:48 28.10.2020
6197 Clouds 25 1011 85 10000 0.89 51 23:22 28.10.2020
6198 Clouds 25 1011 85 10000 0.89 51 22:45 28.10.2020
6199 Clouds 25 1012 94 10000 1 0 22:26 28.10.2020
6200 Clouds 25 1012 94 10000 1 0 21:58 28.10.2020
6201 Clouds 25 1012 94 10000 1 0 21:40 28.10.2020
6202 Clouds 25 1012 83 10000 1.5 10 21:20 28.10.2020
6203 Rain 25 1012 83 10000 1.5 10 20:42 28.10.2020
6204 Clouds 25 1013 88 10000 1.5 290 20:22 28.10.2020
6205 Clouds 25 1013 88 10000 1.5 290 19:50 28.10.2020
6206 Clouds 25 1013 88 10000 1.5 290 19:28 28.10.2020
6207 Clouds 25 1013 88 10000 2.6 20 18:48 28.10.2020
6208 Clouds 26 1014 88 9000 3.1 10 18:21 28.10.2020
6209 Clouds 26 1014 88 9000 3.1 10 17:45 28.10.2020
6210 Clouds 26 1014 88 9000 3.1 10 17:25 28.10.2020
6211 Clouds 26 1014 94 10000 1 0 16:57 28.10.2020
6212 Clouds 26 1014 94 10000 1 0 16:39 28.10.2020
6213 Rain 26 1014 94 9000 1.5 110 16:20 28.10.2020
6214 Rain 26 1014 94 9000 1.5 110 15:38 28.10.2020
6215 Rain 26 1013 83 10000 1.58 73 15:19 28.10.2020
6216 Rain 26 1013 83 10000 1.58 73 14:43 28.10.2020
6217 Rain 26 1013 94 10000 2.1 160 14:23 28.10.2020
6218 Rain 27 1012 80 9595 1.52 146 12:48 28.10.2020
6219 Rain 27 1011 78 10000 0.89 245 12:27 28.10.2020
6220 Rain 28 1011 78 10000 0.45 41 11:57 28.10.2020
6221 Rain 28 1011 79 10000 0.45 299 11:39 28.10.2020
6222 Rain 28 1011 79 10000 2.01 182 11:19 28.10.2020
6223 Clouds 29 1010 73 10000 0.89 17 10:44 28.10.2020
6224 Clouds 29 1010 70 10000 5.1 260 10:26 28.10.2020
6225 Rain 30 1010 70 10000 5.1 260 09:44 28.10.2020
6226 Clouds 30 1010 70 10000 5.1 260 09:23 28.10.2020
6227 Clouds 31 1010 62 10000 3.6 300 08:50 28.10.2020
6228 Clouds 31 1010 62 10000 3.6 300 08:30 28.10.2020
6229 Rain 32 1010 62 10000 4.6 280 07:53 28.10.2020
6230 Clouds 32 1010 62 10000 4.6 280 07:31 28.10.2020
6231 Clouds 33 1011 66 10000 4.1 290 06:54 28.10.2020
6232 Clouds 33 1011 66 10000 4.1 290 06:36 28.10.2020
6233 Clouds 33 1012 62 10000 2.6 80 05:22 28.10.2020
6234 Clouds 32 1012 62 10000 2.6 80 04:30 28.10.2020
6235 Clouds 31 1012 70 10000 3.1 100 02:26 28.10.2020
6236 Clouds 31 1012 70 10000 2.6 110 01:53 28.10.2020
6237 Clouds 28 1012 78 10000 1.5 100 00:33 28.10.2020
6238 Rain 26 1011 88 10000 1 90 23:47 27.10.2020
6239 Clouds 26 1010 88 10000 2.61 103 23:21 27.10.2020
6240 Clouds 26 1010 88 10000 2.61 103 22:44 27.10.2020
6241 Rain 26 1010 83 10000 1.5 70 22:19 27.10.2020
6242 Clouds 26 1010 83 10000 1.5 70 21:57 27.10.2020
6243 Rain 27 1010 83 10000 1.5 70 21:37 27.10.2020
6244 Clouds 26 1010 88 10000 1 70 21:19 27.10.2020
6245 Clouds 26 1010 88 10000 1 70 20:46 27.10.2020
6246 Rain 26 1010 88 10000 1 70 20:24 27.10.2020
6247 Clouds 27 1010 83 10000 1 0 19:55 27.10.2020
6248 Clouds 27 1010 83 10000 1 0 19:37 27.10.2020
6249 Clouds 27 1010 88 10000 1.5 110 19:18 27.10.2020
6250 Rain 27 1010 88 10000 1.5 110 18:44 27.10.2020
6251 Rain 27 1011 83 10000 0.5 0 18:21 27.10.2020
6252 Clouds 27 1011 83 10000 0.5 0 17:57 27.10.2020
6253 Clouds 27 1011 83 10000 0.5 0 17:36 27.10.2020
6254 Clouds 27 1011 83 10000 1 0 17:18 27.10.2020
6255 Rain 27 1011 83 10000 1 0 16:41 27.10.2020
6256 Clouds 27 1011 83 10000 1 0 16:22 27.10.2020
6257 Clouds 28 1011 78 10000 2.1 120 15:41 27.10.2020
6258 Clouds 27 1010 78 10000 2.6 90 15:23 27.10.2020
6259 Clouds 28 1010 78 10000 2.6 90 14:49 27.10.2020
6260 Clouds 28 1010 78 10000 2.6 90 14:29 27.10.2020
6261 Clouds 28 1010 78 10000 3.6 130 13:58 27.10.2020
6262 Clouds 28 1010 78 10000 3.6 130 13:28 27.10.2020
6263 Clouds 28 1009 78 10000 2.6 140 12:44 27.10.2020
6264 Clouds 28 1009 78 10000 2.6 140 12:25 27.10.2020
6265 Clouds 28 1008 74 10000 3.1 130 11:59 27.10.2020
6266 Clouds 28 1008 74 10000 3.1 130 11:41 27.10.2020
6267 Clouds 29 1008 74 10000 4.1 140 11:20 27.10.2020
6268 Clouds 29 1008 74 10000 4.1 140 10:43 27.10.2020
6269 Clouds 29 1007 70 10000 3.6 110 10:20 27.10.2020
6270 Rain 30 1007 70 10000 3.6 110 09:28 27.10.2020
6271 Rain 30 1006 70 10000 4.1 140 08:58 27.10.2020
6272 Rain 30 1006 70 10000 4.1 140 08:30 27.10.2020
6273 Clouds 30 1006 74 10000 3.6 140 07:53 27.10.2020
6274 Clouds 30 1006 74 10000 3.6 140 07:35 27.10.2020
6275 Clouds 30 1007 74 10000 3.1 130 06:54 27.10.2020
6276 Rain 30 1008 74 10000 3.1 0 06:19 27.10.2020
6277 Rain 30 1008 74 10000 3.1 0 05:44 27.10.2020
6278 Rain 31 1008 66 10000 3.6 0 04:58 27.10.2020
6279 Clouds 29 1008 74 10000 4.6 100 02:49 27.10.2020
6280 Rain 28 1007 83 10000 3.6 110 01:18 27.10.2020
6281 Clouds 27 1006 83 10000 2.6 120 23:59 26.10.2020
6282 Clouds 27 1006 83 10000 2.6 120 23:36 26.10.2020
6283 Clouds 27 1006 83 10000 2.6 120 23:36 26.10.2020
6284 Clouds 26 1005 78 10000 3.6 120 22:56 26.10.2020
6285 Clouds 26 1005 78 10000 3.6 120 22:30 26.10.2020
6286 Clouds 26 1005 78 10000 4.1 100 21:56 26.10.2020
6287 Rain 26 1005 78 10000 4.1 100 21:36 26.10.2020
6288 Clouds 26 1005 78 10000 4.1 120 21:18 26.10.2020
6289 Clouds 26 1005 78 10000 4.1 120 20:46 26.10.2020
6290 Clouds 26 1005 78 10000 4.1 120 20:26 26.10.2020
6291 Clouds 26 1005 78 10000 3.1 100 19:49 26.10.2020
6292 Clouds 26 1005 78 10000 3.1 100 19:28 26.10.2020
6293 Clouds 26 1006 78 10000 4.1 110 18:57 26.10.2020
6294 Rain 26 1006 78 10000 4.1 110 18:36 26.10.2020
6295 Clouds 26 1006 83 10000 4.6 100 18:18 26.10.2020
6296 Clouds 27 1006 83 10000 4.6 100 17:41 26.10.2020
6297 Clouds 27 1005 83 10000 4.6 110 17:23 26.10.2020
6298 Rain 27 1005 83 10000 4.6 110 16:45 26.10.2020
6299 Rain 27 1006 83 10000 4.1 90 16:22 26.10.2020
6300 Rain 27 1006 83 10000 4.1 90 15:46 26.10.2020
6301 Rain 27 1006 83 10000 4.1 90 15:28 26.10.2020
6302 Rain 27 1006 83 10000 3.6 100 14:59 26.10.2020
6303 Rain 27 1006 83 10000 3.6 100 14:38 26.10.2020
6304 Rain 27 1005 83 10000 4.6 100 13:58 26.10.2020
6305 Rain 27 1005 83 10000 4.6 100 13:36 26.10.2020
6306 Rain 27 1004 83 10000 4.6 100 13:18 26.10.2020
6307 Clouds 27 1004 83 10000 4.6 100 12:42 26.10.2020
6308 Clouds 27 1004 83 10000 4.6 100 12:42 26.10.2020
6309 Rain 27 1004 83 10000 4.6 100 12:23 26.10.2020
6310 Rain 27 1003 83 10000 5.1 100 11:47 26.10.2020
6311 Rain 27 1003 83 10000 5.1 100 11:47 26.10.2020
6312 Rain 27 1002 83 10000 5.1 110 11:23 26.10.2020
6313 Rain 27 1002 83 10000 5.1 110 10:57 26.10.2020
6314 Rain 27 1002 83 10000 5.1 110 10:38 26.10.2020
6315 Rain 27 1001 83 10000 4.6 100 10:19 26.10.2020
6316 Rain 27 1001 83 10000 4.6 100 09:39 26.10.2020
6317 Rain 27 1001 78 10000 5.7 90 09:18 26.10.2020
6318 Rain 28 1001 78 10000 5.7 90 08:28 26.10.2020
6319 Clouds 28 1001 78 10000 7.2 90 07:52 26.10.2020
6320 Clouds 28 1001 78 10000 7.2 90 07:31 26.10.2020
6321 Rain 29 1002 74 10000 7.2 100 06:19 26.10.2020
6322 Rain 27 1002 88 10000 6.7 90 04:21 26.10.2020
6323 Rain 27 1001 78 10000 9.3 80 03:21 26.10.2020
6324 Rain 27 1001 78 10000 9.3 80 03:21 26.10.2020
6325 Rain 27 1001 78 10000 9.3 80 03:21 26.10.2020
6326 Rain 27 1001 78 10000 9.3 80 03:21 26.10.2020
6327 Clouds 27 1000 83 10000 7.2 80 01:37 26.10.2020
6328 Rain 26 1004 88 10000 4.1 60 00:44 26.10.2020
6329 Rain 26 1004 88 10000 4.1 60 00:25 26.10.2020
6330 Rain 25 1000 94 10000 4.6 30 23:38 25.10.2020
6331 Rain 25 1000 94 9000 6.2 20 23:18 25.10.2020
6332 Rain 25 1000 94 9000 6.2 20 22:39 25.10.2020
6333 Rain 25 999 94 10000 7.2 20 22:20 25.10.2020
6334 Rain 25 999 94 10000 7.2 20 21:40 25.10.2020
6335 Rain 25 999 94 9000 6.2 10 21:20 25.10.2020
6336 Rain 25 999 94 9000 6.2 10 20:45 25.10.2020
6337 Rain 25 999 94 9000 6.2 10 20:25 25.10.2020
6338 Rain 25 1000 94 8000 7.7 360 19:58 25.10.2020
6339 Rain 25 1000 94 8000 7.7 360 19:39 25.10.2020
6340 Clouds 25 1000 94 8000 7.7 360 19:20 25.10.2020
6341 Rain 25 1001 94 7000 7.2 360 18:41 25.10.2020
6342 Rain 25 1001 94 7000 7.2 360 18:23 25.10.2020
6343 Rain 25 1003 88 9000 6.7 350 17:58 25.10.2020
6344 Rain 26 1003 88 9000 6.7 350 17:38 25.10.2020
6345 Rain 26 1003 88 8000 7.7 360 17:19 25.10.2020
6346 Rain 26 1003 88 8000 7.7 360 16:47 25.10.2020
6347 Rain 26 1003 88 8000 7.7 360 16:28 25.10.2020
6348 Rain 26 1005 88 5000 4.1 340 15:50 25.10.2020
6349 Rain 26 1005 88 5000 4.1 340 15:29 25.10.2020
6350 Rain 25 1006 94 7332 3.58 332 14:55 25.10.2020
6351 Rain 25 1006 94 8000 3.1 330 14:32 25.10.2020
6352 Rain 26 1006 94 8000 3.1 330 13:58 25.10.2020
6353 Rain 26 1006 94 8000 3.1 330 13:39 25.10.2020
6354 Rain 25 1006 100 7000 3.1 320 13:18 25.10.2020
6355 Rain 25 1006 100 7000 3.1 320 13:18 25.10.2020
6356 Rain 26 1006 100 7000 3.1 320 12:40 25.10.2020
6357 Rain 26 1006 100 7000 3.1 320 12:22 25.10.2020
6358 Rain 26 1006 94 7000 1.5 330 11:43 25.10.2020
6359 Rain 26 1006 94 7000 3.1 330 11:21 25.10.2020
6360 Rain 26 1006 94 7000 3.1 330 10:48 25.10.2020
6361 Rain 26 1006 94 7000 3.1 330 10:26 25.10.2020
6362 Rain 26 1005 94 6000 2.1 250 09:55 25.10.2020
6363 Rain 26 1005 94 6000 2.1 250 09:37 25.10.2020
6364 Rain 27 1006 88 8000 4.1 330 09:18 25.10.2020
6365 Rain 27 1006 88 8000 4.1 330 08:40 25.10.2020
6366 Rain 27 1006 88 8000 4.1 330 08:22 25.10.2020
6367 Rain 29 1005 74 10000 3.1 300 07:46 25.10.2020
6368 Rain 29 1006 74 9000 3.1 310 06:57 25.10.2020
6369 Rain 30 1006 79 10000 4.1 310 06:30 25.10.2020
6370 Rain 29 1008 83 10000 4.1 300 05:22 25.10.2020
6371 Clouds 29 1008 83 10000 4.1 300 04:50 25.10.2020
6372 Clouds 27 1009 88 10000 2.6 310 02:37 25.10.2020
6373 Clouds 26 1008 88 10000 2.6 0 00:54 25.10.2020
6374 Clouds 26 1008 88 10000 2.6 0 00:29 25.10.2020
6375 Rain 25 1007 100 10000 1 0 23:57 24.10.2020
6376 Clouds 25 1007 100 10000 1 0 23:36 24.10.2020
6377 Clouds 26 1008 94 10000 1 0 22:59 24.10.2020
6378 Clouds 26 1008 94 10000 1 0 22:41 24.10.2020
6379 Clouds 26 1008 94 10000 1 0 22:22 24.10.2020
6380 Clouds 26 1008 94 9000 1 0 21:55 24.10.2020
6381 Clouds 26 1008 94 9000 1 0 21:36 24.10.2020
6382 Clouds 25 1008 94 8000 0.5 0 21:18 24.10.2020
6383 Rain 26 1008 94 8000 0.5 0 20:42 24.10.2020
6384 Rain 26 1008 94 8000 0.5 0 20:20 24.10.2020
6385 Rain 26 1009 94 8000 1 0 19:41 24.10.2020
6386 Rain 26 1009 94 8000 1 0 19:23 24.10.2020
6387 Rain 25 1010 100 9000 1 0 18:51 24.10.2020
6388 Rain 25 1010 100 9000 1 0 18:31 24.10.2020
6389 Rain 25 1010 94 9000 0.5 0 17:46 24.10.2020
6390 Rain 25 1010 94 9000 0.5 0 17:26 24.10.2020
6391 Rain 26 1011 94 9000 1 0 16:53 24.10.2020
6392 Rain 26 1011 94 9000 1 0 16:35 24.10.2020
6393 Clouds 26 1010 94 9000 0.5 0 15:58 24.10.2020
6394 Rain 26 1010 94 9000 2.1 210 15:38 24.10.2020
6395 Rain 26 1010 94 9000 1.5 170 15:18 24.10.2020
6396 Clouds 26 1010 94 9000 1.5 170 14:38 24.10.2020
6397 Rain 27 1009 88 9000 1 0 14:19 24.10.2020
6398 Rain 27 1009 88 9000 1 0 13:44 24.10.2020
6399 Rain 27 1008 88 9000 3.1 270 13:19 24.10.2020
6400 Rain 28 1008 88 9000 3.1 270 12:37 24.10.2020
6401 Rain 29 1007 83 10000 5.1 260 12:19 24.10.2020
6402 Clouds 29 1007 83 10000 5.1 260 11:49 24.10.2020
6403 Clouds 29 1007 83 10000 5.1 260 11:20 24.10.2020
6404 Clouds 29 1007 74 10000 4.1 270 10:43 24.10.2020
6405 Clouds 29 1007 74 10000 4.1 270 10:25 24.10.2020
6406 Rain 29 1007 83 9000 3.6 300 09:45 24.10.2020
6407 Rain 29 1007 83 9000 3.6 300 09:45 24.10.2020
6408 Rain 29 1007 83 9000 3.6 300 09:26 24.10.2020
6409 Rain 29 1007 79 9000 4.6 290 08:54 24.10.2020
6410 Rain 30 1007 74 10000 4.6 290 08:19 24.10.2020
6411 Clouds 31 1007 74 10000 4.6 290 07:50 24.10.2020
6412 Clouds 31 1008 70 10000 4.1 270 07:20 24.10.2020
6413 Clouds 31 1008 70 10000 4.1 270 06:49 24.10.2020
6414 Clouds 32 1010 70 10000 2.6 290 05:27 24.10.2020
6415 Rain 27 1010 88 10000 0.5 0 02:20 24.10.2020
6416 Rain 26 1008 94 10000 1 100 00:54 24.10.2020
6417 Rain 26 1008 94 10000 1 100 00:36 24.10.2020
6418 Rain 26 1008 94 10000 0.5 0 00:18 24.10.2020
6419 Clouds 26 1008 94 10000 0.5 0 23:39 23.10.2020
6420 Clouds 26 1008 94 10000 0.5 0 23:21 23.10.2020
6421 Clouds 26 1007 94 10000 1.5 200 22:42 23.10.2020
6422 Clouds 26 1007 94 10000 1.5 200 22:21 23.10.2020
6423 Clouds 27 1008 88 10000 1 220 21:53 23.10.2020
6424 Clouds 27 1008 88 10000 1 220 21:53 23.10.2020
6425 Clouds 27 1008 88 10000 1 220 21:30 23.10.2020
6426 Clouds 26 1008 94 10000 3.09 250 20:58 23.10.2020
6427 Clouds 26 1008 94 10000 3.09 250 20:38 23.10.2020
6428 Clouds 27 1008 88 10000 3.06 246 20:18 23.10.2020
6429 Clouds 27 1008 88 10000 3.06 246 19:43 23.10.2020
6430 Clouds 27 1008 88 10000 2.4 306 19:25 23.10.2020
6431 Clouds 26 1009 94 9000 1 0 18:42 23.10.2020
6432 Clouds 26 1008 94 9000 1 0 18:23 23.10.2020
6433 Clouds 26 1008 94 9000 1 0 17:45 23.10.2020
6434 Clouds 26 1008 94 9000 1 0 17:21 23.10.2020
6435 Clouds 26 1008 94 9000 1 0 17:21 23.10.2020
6436 Rain 26 1009 94 9000 1 0 16:50 23.10.2020
6437 Clouds 26 1009 94 9000 1 0 16:30 23.10.2020
6438 Rain 27 1009 88 9000 1.5 190 15:56 23.10.2020
6439 Rain 27 1009 88 9000 1.5 190 15:38 23.10.2020
6440 Rain 27 1008 88 9000 1 0 15:19 23.10.2020
6441 Rain 27 1008 88 9000 1 0 14:41 23.10.2020
6442 Rain 27 1008 88 9000 2.6 230 14:22 23.10.2020
6443 Rain 27 1008 88 9000 2.6 230 13:40 23.10.2020
6444 Rain 27 1007 88 9000 3.1 230 13:21 23.10.2020
6445 Rain 27 1007 88 9000 3.1 230 12:48 23.10.2020
6446 Rain 28 1007 88 9000 3.1 230 12:28 23.10.2020
6447 Clouds 28 1006 80 10000 3.1 250 11:48 23.10.2020
6448 Clouds 28 1006 79 10000 3.1 250 11:23 23.10.2020
6449 Rain 29 1005 79 10000 7.7 260 10:48 23.10.2020
6450 Clouds 29 1005 79 10000 7.7 260 10:26 23.10.2020
6451 Clouds 31 1005 70 10000 5.7 290 09:50 23.10.2020
6452 Clouds 31 1005 70 10000 5.7 290 09:27 23.10.2020
6453 Clouds 31 1005 66 10000 7.7 260 08:53 23.10.2020
6454 Clouds 31 1005 66 10000 7.7 260 08:35 23.10.2020
6455 Clouds 31 1006 84 10000 5.7 290 07:47 23.10.2020
6456 Clouds 30 1006 84 10000 5.7 290 07:23 23.10.2020
6457 Rain 29 1007 83 10000 3.1 290 06:31 23.10.2020
6458 Rain 30 1007 83 10000 1.5 310 05:44 23.10.2020
6459 Clouds 30 1008 74 10000 1.5 0 02:33 23.10.2020
6460 Clouds 28 1008 78 10000 1 0 01:52 23.10.2020
6461 Clouds 26 1007 88 10000 1.5 124 00:48 23.10.2020
6462 Clouds 26 1006 88 10000 0.5 0 23:48 22.10.2020
6463 Clouds 26 1006 88 10000 0.5 0 23:30 22.10.2020
6464 Clouds 26 1006 88 10000 0.5 0 22:50 22.10.2020
6465 Clouds 26 1006 88 10000 0.5 0 22:28 22.10.2020
6466 Clouds 27 1006 83 10000 1.5 210 21:59 22.10.2020
6467 Clouds 27 1006 83 10000 1.5 210 21:59 22.10.2020
6468 Clouds 27 1006 83 10000 1.5 210 21:41 22.10.2020
6469 Clouds 27 1006 83 10000 1.5 210 21:23 22.10.2020
6470 Clouds 27 1006 83 10000 1 0 20:45 22.10.2020
6471 Clouds 27 1006 83 10000 1 0 20:26 22.10.2020
6472 Clouds 27 1007 83 10000 3.1 230 19:59 22.10.2020
6473 Clouds 27 1007 83 10000 3.1 230 19:40 22.10.2020
6474 Clouds 27 1007 83 10000 3.1 230 19:40 22.10.2020
6475 Rain 27 1008 83 10000 3.1 250 19:18 22.10.2020
6476 Clouds 27 1008 83 10000 3.1 250 18:42 22.10.2020
6477 Clouds 27 1008 83 10000 2.1 250 18:20 22.10.2020
6478 Clouds 27 1008 83 10000 2.1 250 17:45 22.10.2020
6479 Clouds 28 1008 78 10000 3.1 230 17:22 22.10.2020
6480 Rain 28 1008 78 10000 3.1 230 16:47 22.10.2020
6481 Rain 28 1008 78 10000 3.1 230 16:47 22.10.2020
6482 Rain 28 1008 78 10000 3.1 230 16:26 22.10.2020
6483 Rain 28 1008 74 9000 1 0 15:57 22.10.2020
6484 Rain 28 1008 74 9000 1 0 15:38 22.10.2020
6485 Rain 28 1007 74 10000 1.5 210 15:19 22.10.2020
6486 Rain 29 1007 74 10000 1.5 210 14:45 22.10.2020
6487 Rain 29 1007 74 10000 1.5 210 14:24 22.10.2020
6488 Clouds 29 1006 79 10000 3.6 230 13:45 22.10.2020
6489 Clouds 29 1006 79 10000 3.6 230 13:23 22.10.2020
6490 Clouds 28 1008 80 10000 1.79 234 12:47 22.10.2020
6491 Rain 29 1005 72 10000 3.6 230 12:23 22.10.2020
6492 Clouds 29 1005 72 10000 3.6 230 11:48 22.10.2020
6493 Clouds 30 1004 74 10000 5.1 260 11:20 22.10.2020
6494 Clouds 31 1004 74 10000 5.1 260 10:49 22.10.2020
6495 Clouds 31 1004 74 10000 5.1 260 10:27 22.10.2020
6496 Clouds 31 1004 70 10000 6.7 250 09:46 22.10.2020
6497 Clouds 31 1004 70 10000 6.7 250 09:26 22.10.2020
6498 Clouds 33 1004 59 10000 4.6 230 08:49 22.10.2020
6499 Clouds 34 1004 59 10000 4.6 230 08:27 22.10.2020
6500 Clouds 34 1004 56 10000 4.1 210 07:51 22.10.2020
6501 Clouds 34 1004 56 10000 4.1 210 07:32 22.10.2020
6502 Clouds 32 1005 74 10000 3.1 60 06:46 22.10.2020
6503 Clouds 31 1005 74 10000 3.1 60 06:25 22.10.2020
6504 Clouds 30 1006 83 9000 1 0 05:39 22.10.2020
6505 Clouds 30 1006 74 10000 3.6 120 03:37 22.10.2020
6506 Clouds 28 1005 83 10000 1.5 120 01:35 22.10.2020
6507 Clouds 26 1004 88 10000 1.5 140 00:24 22.10.2020
6508 Rain 26 1004 94 10000 2.1 140 23:44 21.10.2020
6509 Clouds 26 1004 94 10000 2.1 90 23:22 21.10.2020
6510 Clouds 26 1004 94 10000 2.1 90 22:39 21.10.2020
6511 Rain 26 1004 94 9000 2.25 180 22:19 21.10.2020
6512 Rain 26 1004 94 9000 2.25 180 21:47 21.10.2020
6513 Rain 26 1004 94 7000 2.1 0 21:20 21.10.2020
6514 Rain 26 1004 94 7000 2.1 0 20:59 21.10.2020
6515 Rain 26 1004 94 7000 2.1 0 20:41 21.10.2020
6516 Rain 27 1005 88 9000 2.1 160 20:18 21.10.2020
6517 Clouds 27 1005 83 10000 1.5 140 19:41 21.10.2020
6518 Rain 27 1005 83 10000 1.5 140 19:23 21.10.2020
6519 Clouds 27 1005 78 10000 1.5 120 18:54 21.10.2020
6520 Clouds 27 1005 78 10000 1.5 120 18:31 21.10.2020
6521 Rain 28 1005 78 10000 2.1 170 17:51 21.10.2020
6522 Clouds 28 1005 78 10000 2.1 170 17:22 21.10.2020
6523 Clouds 28 1005 78 10000 2.1 170 16:59 21.10.2020
6524 Clouds 28 1005 78 10000 2.1 170 16:40 21.10.2020
6525 Clouds 28 1005 78 10000 2.1 170 16:40 21.10.2020
6526 Clouds 28 1005 78 10000 2.1 170 16:20 21.10.2020
6527 Clouds 27 1006 80 10000 1.79 161 15:46 21.10.2020
6528 Clouds 28 1004 78 10000 2.1 0 15:22 21.10.2020
6529 Rain 28 1004 78 10000 2.1 0 14:56 21.10.2020
6530 Clouds 28 1004 78 10000 2.1 0 14:38 21.10.2020
6531 Clouds 28 1004 78 10000 2.1 0 14:19 21.10.2020
6532 Clouds 28 1004 78 10000 2.1 0 13:41 21.10.2020
6533 Clouds 28 1004 78 10000 2.1 0 13:20 21.10.2020
6534 Clouds 28 1003 74 10000 3.1 180 12:41 21.10.2020
6535 Clouds 28 1003 74 10000 3.1 180 12:20 21.10.2020
6536 Clouds 29 1003 70 10000 2.1 160 11:46 21.10.2020
6537 Clouds 29 1003 70 10000 2.1 160 11:21 21.10.2020
6538 Clouds 30 1002 62 10000 4.6 190 10:57 21.10.2020
6539 Clouds 30 1002 62 10000 4.6 190 10:38 21.10.2020
6540 Clouds 31 1002 62 10000 4.6 190 10:20 21.10.2020
6541 Clouds 31 1002 66 10000 5.1 190 09:39 21.10.2020
6542 Rain 31 1003 66 10000 3.1 0 08:59 21.10.2020
6543 Clouds 31 1003 66 10000 3.1 0 08:40 21.10.2020
6544 Clouds 31 1003 66 10000 3.1 0 08:22 21.10.2020
6545 Clouds 31 1003 70 10000 3.6 150 07:48 21.10.2020
6546 Clouds 30 1003 74 10000 4.1 130 06:59 21.10.2020
6547 Clouds 30 1003 74 10000 4.1 130 06:33 21.10.2020
6548 Clouds 28 1005 83 9000 4.1 140 05:23 21.10.2020
6549 Clouds 27 1004 83 10000 4.1 140 02:46 21.10.2020
6550 Rain 26 1002 88 5000 2.6 0 00:25 21.10.2020
6551 Clouds 26 1002 88 10000 1.5 130 23:28 20.10.2020
6552 Clouds 26 1001 88 10000 1.5 180 22:38 20.10.2020
6553 Rain 26 1001 88 10000 1.5 180 22:20 20.10.2020
6554 Rain 26 1001 83 10000 3.1 210 21:47 20.10.2020
6555 Rain 26 1001 83 10000 3.1 210 21:19 20.10.2020
6556 Rain 26 1001 83 9000 6.2 220 20:43 20.10.2020
6557 Rain 26 1001 83 9000 6.2 220 20:24 20.10.2020
6558 Clouds 26 1001 88 9000 3.1 220 19:45 20.10.2020
6559 Rain 26 1001 88 9000 3.1 220 19:22 20.10.2020
6560 Rain 26 1002 88 9000 4.1 220 18:59 20.10.2020
6561 Rain 26 1002 88 9000 4.1 220 18:59 20.10.2020
6562 Rain 26 1002 88 9000 4.1 220 18:38 20.10.2020
6563 Rain 26 1002 94 9000 3.1 200 17:51 20.10.2020
6564 Rain 26 1002 94 9000 3.1 200 17:33 20.10.2020
6565 Rain 26 1002 94 8000 3.1 220 16:59 20.10.2020
6566 Rain 26 1002 94 8000 3.1 220 16:40 20.10.2020
6567 Rain 26 1002 94 8000 3.1 220 16:22 20.10.2020
6568 Rain 26 1003 94 8000 3.1 220 15:46 20.10.2020
6569 Rain 26 1003 94 8000 3.1 220 15:27 20.10.2020
6570 Rain 26 1002 94 8000 3.1 210 14:45 20.10.2020
6571 Rain 26 1002 94 8000 3.1 210 14:25 20.10.2020
6572 Rain 25 1002 94 7000 4.1 240 13:58 20.10.2020
6573 Rain 25 1002 94 7000 4.1 240 13:40 20.10.2020
6574 Rain 25 1002 94 7000 4.1 240 13:19 20.10.2020
6575 Rain 26 1002 94 5000 4.1 230 12:49 20.10.2020
6576 Rain 26 1002 94 5000 4.1 230 12:30 20.10.2020
6577 Rain 26 1002 94 5000 4.1 230 12:30 20.10.2020
6578 Rain 26 1002 94 5000 3.6 230 11:47 20.10.2020
6579 Rain 26 1002 94 5000 3.6 230 11:28 20.10.2020
6580 Rain 26 1002 94 6000 2.6 220 10:43 20.10.2020
6581 Rain 26 1002 94 6000 2.6 220 10:25 20.10.2020
6582 Rain 26 1003 94 6000 3.1 250 09:44 20.10.2020
6583 Rain 26 1003 94 6000 3.1 250 09:19 20.10.2020
6584 Rain 27 1003 94 6000 3.1 250 08:39 20.10.2020
6585 Rain 27 1003 94 6000 3.1 250 08:19 20.10.2020
6586 Rain 26 1003 94 6000 2.6 250 07:42 20.10.2020
6587 Rain 26 1003 94 6000 2.6 250 07:21 20.10.2020
6588 Rain 27 1006 94 5000 1 0 06:19 20.10.2020
6589 Rain 27 1006 94 4000 0.5 0 04:27 20.10.2020
6590 Clouds 28 1006 83 6000 0.5 0 02:30 20.10.2020
6591 Rain 27 1005 83 8000 1.5 320 01:22 20.10.2020
6592 Clouds 27 1005 83 9000 1.5 340 00:51 20.10.2020
6593 Clouds 27 1005 83 9000 1.5 340 00:26 20.10.2020
6594 Rain 27 1004 88 10000 1.5 270 23:51 19.10.2020
6595 Rain 27 1004 88 10000 1.5 270 23:24 19.10.2020
6596 Rain 27 1004 83 10000 2.1 320 22:54 19.10.2020
6597 Rain 28 1004 83 10000 2.1 320 22:26 19.10.2020
6598 Rain 28 1004 83 10000 2.6 360 21:50 19.10.2020
6599 Rain 28 1004 83 10000 2.6 360 21:24 19.10.2020
6600 Rain 28 1005 78 9000 0.5 0 20:59 19.10.2020
6601 Rain 27 1007 78 10000 2.1 10 20:39 19.10.2020
6602 Rain 27 1007 78 10000 2.1 10 20:39 19.10.2020
6603 Rain 27 1007 78 10000 2.1 10 20:18 19.10.2020
6604 Rain 27 1007 78 10000 2.1 10 19:42 19.10.2020
6605 Rain 27 1007 78 10000 2.1 10 19:19 19.10.2020
6606 Clouds 27 1008 78 10000 1.5 340 18:50 19.10.2020
6607 Clouds 27 1008 78 10000 1.5 340 18:20 19.10.2020
6608 Rain 27 1009 83 10000 1 240 17:47 19.10.2020
6609 Rain 28 1009 83 10000 1 240 17:26 19.10.2020
6610 Rain 28 1009 83 10000 1 0 16:53 19.10.2020
6611 Rain 28 1009 83 10000 1 0 16:29 19.10.2020
6612 Rain 28 1009 87 10000 0.45 153 15:47 19.10.2020
6613 Rain 28 1009 85 10000 0.45 153 15:26 19.10.2020
6614 Rain 28 1009 84 10000 0.89 148 14:57 19.10.2020
6615 Rain 28 1009 83 10000 3.31 70 14:28 19.10.2020
6616 Rain 28 1009 82 10000 0.89 140 13:59 19.10.2020
6617 Rain 28 1009 82 10000 0.89 140 13:59 19.10.2020
6618 Rain 28 1009 82 10000 0.45 138 13:41 19.10.2020
6619 Rain 28 1008 82 10000 0.45 138 13:22 19.10.2020
6620 Clouds 29 1008 81 10000 0.89 137 12:43 19.10.2020
6621 Rain 29 1008 79 10000 3.94 71 12:25 19.10.2020
6622 Clouds 31 1007 73 10000 1.34 113 11:42 19.10.2020
6623 Rain 31 1006 66 10000 2.1 70 11:21 19.10.2020
6624 Clouds 32 1006 66 10000 2.1 70 10:44 19.10.2020
6625 Clouds 32 1006 66 10000 2.1 70 10:23 19.10.2020
6626 Clouds 32 1006 66 10000 2.1 0 09:56 19.10.2020
6627 Clouds 32 1006 66 10000 2.1 0 09:24 19.10.2020
6628 Clouds 32 1007 59 10000 2.6 80 08:50 19.10.2020
6629 Rain 32 1007 59 10000 2.6 80 08:24 19.10.2020
6630 Rain 32 1007 62 10000 2.6 80 07:56 19.10.2020
6631 Clouds 32 1006 62 10000 4.1 20 07:20 19.10.2020
6632 Rain 32 1007 59 10000 4.1 30 06:23 19.10.2020
6633 Clouds 31 1008 62 10000 4.1 40 04:47 19.10.2020
6634 Clouds 31 1009 62 10000 3.1 40 03:44 19.10.2020
6635 Clouds 27 1008 83 10000 2.1 80 01:28 19.10.2020
6636 Clouds 25 1008 94 10000 1.5 40 00:26 19.10.2020
6637 Clouds 26 1007 88 10000 2.1 350 23:48 18.10.2020
6638 Clouds 26 1007 88 10000 2.1 350 23:26 18.10.2020
6639 Clouds 26 1008 88 10000 1.5 30 22:53 18.10.2020
6640 Clouds 26 1008 88 10000 1.5 30 22:23 18.10.2020
6641 Clouds 26 1008 88 10000 2 36 21:56 18.10.2020
6642 Clouds 26 1008 88 10000 2 36 21:37 18.10.2020
6643 Clouds 26 1008 94 10000 1.5 320 21:18 18.10.2020
6644 Clouds 26 1008 94 10000 1.5 320 20:40 18.10.2020
6645 Clouds 26 1008 94 10000 1.5 320 20:21 18.10.2020
6646 Clouds 27 1009 88 9000 1 0 19:44 18.10.2020
6647 Clouds 27 1009 88 9000 1 0 19:44 18.10.2020
6648 Clouds 27 1009 88 9000 1 0 19:44 18.10.2020
6649 Clouds 27 1009 88 9000 1 0 19:26 18.10.2020
6650 Clouds 27 1009 88 10000 0.5 0 18:49 18.10.2020
6651 Clouds 27 1009 88 10000 0.5 0 18:28 18.10.2020
6652 Clouds 27 1009 88 10000 1 0 17:45 18.10.2020
6653 Clouds 27 1009 88 10000 1 0 17:25 18.10.2020
6654 Clouds 27 1009 88 10000 0.5 0 16:57 18.10.2020
6655 Clouds 27 1009 88 10000 0.5 0 16:38 18.10.2020
6656 Rain 27 1010 88 10000 0.5 0 16:20 18.10.2020
6657 Rain 27 1010 88 10000 0.5 0 15:41 18.10.2020
6658 Clouds 27 1009 83 10000 0.5 0 15:19 18.10.2020
6659 Rain 27 1009 83 10000 0.5 0 14:56 18.10.2020
6660 Rain 27 1009 83 10000 0.5 0 14:29 18.10.2020
6661 Rain 27 1009 83 10000 0.5 0 13:57 18.10.2020
6662 Clouds 27 1009 83 10000 0.5 0 13:38 18.10.2020
6663 Rain 27 1008